<?xml version='1.0' encoding='UTF-8'?><gpx version="1.1" creator="JPX - https://github.com/jenetics/jpx" xmlns="http://www.topografix.com/GPX/1/1"><trk><trkseg><trkpt lat="43.648097166794514" lon="10.666166337400446"><ele>41.333333333333336</ele><time>2026-04-26T14:24:07Z</time></trkpt><trkpt lat="43.648125930925126" lon="10.666056666954827"><ele>40.666666666666664</ele><time>2026-04-26T14:24:09Z</time></trkpt><trkpt lat="43.64815970780882" lon="10.665941996694986"><ele>40.0</ele><time>2026-04-26T14:24:11Z</time></trkpt><trkpt lat="43.64819248934664" lon="10.665843622259871"><ele>39.33333333333333</ele><time>2026-04-26T14:24:14Z</time></trkpt><trkpt lat="43.64822902629074" lon="10.665759235967766"><ele>38.666666666666664</ele><time>2026-04-26T14:24:18Z</time></trkpt><trkpt lat="43.648275190549924" lon="10.665653682795986"><ele>38.0</ele><time>2026-04-26T14:24:21Z</time></trkpt><trkpt lat="43.64833425468547" lon="10.665578641660916"><ele>38.0</ele><time>2026-04-26T14:24:24Z</time></trkpt><trkpt lat="43.648386317462574" lon="10.665513952336605"><ele>38.0</ele><time>2026-04-26T14:24:28Z</time></trkpt><trkpt lat="43.64842289925089" lon="10.665437276476695"><ele>38.0</ele><time>2026-04-26T14:24:30Z</time></trkpt><trkpt lat="43.64846891023943" lon="10.665340760894406"><ele>38.0</ele><time>2026-04-26T14:24:33Z</time></trkpt><trkpt lat="43.64851915565426" lon="10.665240100180913"><ele>38.0</ele><time>2026-04-26T14:24:36Z</time></trkpt><trkpt lat="43.64853595414258" lon="10.66513143812875"><ele>38.0</ele><time>2026-04-26T14:24:39Z</time></trkpt><trkpt lat="43.64855978149771" lon="10.665012065220157"><ele>38.166666666666664</ele><time>2026-04-26T14:24:41Z</time></trkpt><trkpt lat="43.64859957218456" lon="10.664903235101669"><ele>38.33333333333333</ele><time>2026-04-26T14:24:44Z</time></trkpt><trkpt lat="43.64864294644142" lon="10.66482260327137"><ele>38.5</ele><time>2026-04-26T14:24:46Z</time></trkpt><trkpt lat="43.648706765555964" lon="10.664763282180681"><ele>38.666666666666664</ele><time>2026-04-26T14:24:49Z</time></trkpt><trkpt lat="43.64875254250693" lon="10.664694505384043"><ele>38.833333333333336</ele><time>2026-04-26T14:24:52Z</time></trkpt><trkpt lat="43.64876861778097" lon="10.664600343240945"><ele>39.0</ele><time>2026-04-26T14:24:56Z</time></trkpt><trkpt lat="43.648728471537886" lon="10.66450102790486"><ele>38.85714285714286</ele><time>2026-04-26T14:24:58Z</time></trkpt><trkpt lat="43.648683960505416" lon="10.664409453870913"><ele>38.71428571428571</ele><time>2026-04-26T14:25:00.999Z</time></trkpt><trkpt lat="43.64865311367074" lon="10.66432771689412"><ele>38.57142857142857</ele><time>2026-04-26T14:25:03.999Z</time></trkpt><trkpt lat="43.64858728881567" lon="10.664275254277031"><ele>38.42857142857143</ele><time>2026-04-26T14:25:05.999Z</time></trkpt><trkpt lat="43.648529155719565" lon="10.664210316479776"><ele>38.28571428571429</ele><time>2026-04-26T14:25:07.999Z</time></trkpt><trkpt lat="43.64847169398511" lon="10.664159883540991"><ele>38.14285714285714</ele><time>2026-04-26T14:25:09.999Z</time></trkpt><trkpt lat="43.64839604656681" lon="10.664138154895234"><ele>38.0</ele><time>2026-04-26T14:25:11.999Z</time></trkpt><trkpt lat="43.648285843640295" lon="10.66412778080979"><ele>38.5</ele><time>2026-04-26T14:25:13.999Z</time></trkpt><trkpt lat="43.64820820272681" lon="10.66409940671834"><ele>39.0</ele><time>2026-04-26T14:25:15.999Z</time></trkpt><trkpt lat="43.648096026903964" lon="10.664074590555693"><ele>39.5</ele><time>2026-04-26T14:25:17.999Z</time></trkpt><trkpt lat="43.648033790770356" lon="10.664060292352081"><ele>40.0</ele><time>2026-04-26T14:25:18.999Z</time></trkpt><trkpt lat="43.64796725596628" lon="10.664059428356554"><ele>40.5</ele><time>2026-04-26T14:25:21.999Z</time></trkpt><trkpt lat="43.64789669999872" lon="10.664089394181477"><ele>41.0</ele><time>2026-04-26T14:25:24.999Z</time></trkpt><trkpt lat="43.647872471938236" lon="10.664181872906562"><ele>41.0</ele><time>2026-04-26T14:25:27.999Z</time></trkpt><trkpt lat="43.647849590751036" lon="10.664310326576215"><ele>41.0</ele><time>2026-04-26T14:25:29.999Z</time></trkpt><trkpt lat="43.647797080200434" lon="10.664375135614845"><ele>41.0</ele><time>2026-04-26T14:25:32.999Z</time></trkpt><trkpt lat="43.6477380327189" lon="10.66442748007845"><ele>41.0</ele><time>2026-04-26T14:25:34.999Z</time></trkpt><trkpt lat="43.647678564666066" lon="10.664516583642287"><ele>41.0</ele><time>2026-04-26T14:25:38.999Z</time></trkpt><trkpt lat="43.647639890429986" lon="10.664599221428494"><ele>41.0</ele><time>2026-04-26T14:25:40.999Z</time></trkpt><trkpt lat="43.64760427453771" lon="10.664713721205027"><ele>42.0</ele><time>2026-04-26T14:25:42.999Z</time></trkpt><trkpt lat="43.64756985688138" lon="10.664821535548828"><ele>43.0</ele><time>2026-04-26T14:25:44.999Z</time></trkpt><trkpt lat="43.64754448722798" lon="10.66493616321385"><ele>44.0</ele><time>2026-04-26T14:25:46.999Z</time></trkpt><trkpt lat="43.64752231834803" lon="10.665030702730547"><ele>45.0</ele><time>2026-04-26T14:25:48.999Z</time></trkpt><trkpt lat="43.64748856560753" lon="10.665137000076319"><ele>46.0</ele><time>2026-04-26T14:25:50.999Z</time></trkpt><trkpt lat="43.64745549115746" lon="10.665264017684304"><ele>47.0</ele><time>2026-04-26T14:25:53.999Z</time></trkpt><trkpt lat="43.64742403980078" lon="10.665368704143203"><ele>47.0</ele><time>2026-04-26T14:25:55.999Z</time></trkpt><trkpt lat="43.64739160776927" lon="10.665470418370974"><ele>47.0</ele><time>2026-04-26T14:25:57.999Z</time></trkpt><trkpt lat="43.6473565079171" lon="10.665558063221198"><ele>47.0</ele><time>2026-04-26T14:25:59.999Z</time></trkpt><trkpt lat="43.647321693277995" lon="10.665638068905338"><ele>47.0</ele><time>2026-04-26T14:26:02.999Z</time></trkpt><trkpt lat="43.64724962390312" lon="10.665739670103672"><ele>47.0</ele><time>2026-04-26T14:26:05.998Z</time></trkpt><trkpt lat="43.64721058802242" lon="10.665817533560634"><ele>47.0</ele><time>2026-04-26T14:26:07.998Z</time></trkpt><trkpt lat="43.647180385753536" lon="10.665933357747155"><ele>47.0</ele><time>2026-04-26T14:26:26Z</time></trkpt><trkpt lat="43.64714834212428" lon="10.666037075721913"><ele>47.0</ele><time>2026-04-26T14:26:51Z</time></trkpt><trkpt lat="43.647114263849296" lon="10.666137888204078"><ele>47.0</ele><time>2026-04-26T14:26:52.999Z</time></trkpt><trkpt lat="43.64707367577633" lon="10.666243472533543"><ele>47.0</ele><time>2026-04-26T14:26:54.999Z</time></trkpt><trkpt lat="43.647005304772065" lon="10.666327971584126"><ele>47.0</ele><time>2026-04-26T14:26:56.999Z</time></trkpt><trkpt lat="43.646934435784566" lon="10.666401153650412"><ele>47.0</ele><time>2026-04-26T14:26:58.999Z</time></trkpt><trkpt lat="43.64688296395473" lon="10.666467157722948"><ele>47.166666666666664</ele><time>2026-04-26T14:27:00.999Z</time></trkpt><trkpt lat="43.64680035289317" lon="10.66651996824595"><ele>47.33333333333333</ele><time>2026-04-26T14:27:05.999Z</time></trkpt><trkpt lat="43.6467133662852" lon="10.666557585144124"><ele>47.5</ele><time>2026-04-26T14:27:07.999Z</time></trkpt><trkpt lat="43.64664821954003" lon="10.666602898700814"><ele>47.666666666666664</ele><time>2026-04-26T14:27:09.999Z</time></trkpt><trkpt lat="43.64660486317022" lon="10.66651020428524"><ele>47.833333333333336</ele><time>2026-04-26T14:27:19.999Z</time></trkpt><trkpt lat="43.64660657522916" lon="10.66638679845115"><ele>48.0</ele><time>2026-04-26T14:27:21.999Z</time></trkpt><trkpt lat="43.646608047460504" lon="10.666297598146707"><ele>48.0</ele><time>2026-04-26T14:27:22.999Z</time></trkpt><trkpt lat="43.64660600384421" lon="10.666198650941734"><ele>48.0</ele><time>2026-04-26T14:27:24.999Z</time></trkpt><trkpt lat="43.64654275020253" lon="10.666152061451797"><ele>48.0</ele><time>2026-04-26T14:27:28.999Z</time></trkpt><trkpt lat="43.64647362347207" lon="10.66617766264147"><ele>48.0</ele><time>2026-04-26T14:27:31.999Z</time></trkpt><trkpt lat="43.64638859258669" lon="10.666174981200944"><ele>48.0</ele><time>2026-04-26T14:27:34.999Z</time></trkpt><trkpt lat="43.64630584394049" lon="10.666172236135818"><ele>48.0</ele><time>2026-04-26T14:27:37.999Z</time></trkpt><trkpt lat="43.64622722034754" lon="10.66615942675815"><ele>47.99999999999999</ele><time>2026-04-26T14:27:40.999Z</time></trkpt><trkpt lat="43.646158121917054" lon="10.666149636598577"><ele>48.0</ele><time>2026-04-26T14:27:43.999Z</time></trkpt><trkpt lat="43.646081865795296" lon="10.666163037950737"><ele>48.0</ele><time>2026-04-26T14:27:46.999Z</time></trkpt><trkpt lat="43.64601795172421" lon="10.666165227268282"><ele>48.0</ele><time>2026-04-26T14:27:49.999Z</time></trkpt><trkpt lat="43.645956784523946" lon="10.666190084851879"><ele>48.0</ele><time>2026-04-26T14:27:53.999Z</time></trkpt><trkpt lat="43.6459160274192" lon="10.666097720129963"><ele>47.99999999999999</ele><time>2026-04-26T14:28:02.998Z</time></trkpt><trkpt lat="43.645873005034254" lon="10.666019114123934"><ele>48.0</ele><time>2026-04-26T14:28:05.998Z</time></trkpt><trkpt lat="43.64580770941698" lon="10.665935295184212"><ele>46.199999999999996</ele><time>2026-04-26T14:28:08.998Z</time></trkpt><trkpt lat="43.64575428111199" lon="10.665865716776539"><ele>44.4</ele><time>2026-04-26T14:28:11.998Z</time></trkpt><trkpt lat="43.64568343047842" lon="10.665789621904516"><ele>42.599999999999994</ele><time>2026-04-26T14:28:15Z</time></trkpt><trkpt lat="43.64561236155246" lon="10.665718929468005"><ele>40.8</ele><time>2026-04-26T14:28:18Z</time></trkpt><trkpt lat="43.64554741103037" lon="10.66565485047462"><ele>39.0</ele><time>2026-04-26T14:28:20Z</time></trkpt><trkpt lat="43.6454464527832" lon="10.6655307575993"><ele>39.0</ele><time>2026-04-26T14:28:22Z</time></trkpt><trkpt lat="43.64538714339678" lon="10.665427406027746"><ele>39.0</ele><time>2026-04-26T14:28:24Z</time></trkpt><trkpt lat="43.64536910787113" lon="10.665337119603256"><ele>39.0</ele><time>2026-04-26T14:28:27Z</time></trkpt><trkpt lat="43.645354792754624" lon="10.665226745599671"><ele>39.0</ele><time>2026-04-26T14:28:29Z</time></trkpt><trkpt lat="43.64534427970938" lon="10.665097775710802"><ele>39.0</ele><time>2026-04-26T14:28:31Z</time></trkpt><trkpt lat="43.645332543247456" lon="10.664961209524854"><ele>39.0</ele><time>2026-04-26T14:28:33Z</time></trkpt><trkpt lat="43.64533649368094" lon="10.664857070409187"><ele>39.333333333333336</ele><time>2026-04-26T14:28:35Z</time></trkpt><trkpt lat="43.64535212155588" lon="10.664758161450205"><ele>39.666666666666664</ele><time>2026-04-26T14:28:38Z</time></trkpt><trkpt lat="43.645371047227684" lon="10.664633438457933"><ele>40.0</ele><time>2026-04-26T14:28:41Z</time></trkpt><trkpt lat="43.645389848527316" lon="10.6645108403817"><ele>40.33333333333333</ele><time>2026-04-26T14:28:44Z</time></trkpt><trkpt lat="43.64541871361642" lon="10.664379864659622"><ele>40.666666666666664</ele><time>2026-04-26T14:28:46.999Z</time></trkpt><trkpt lat="43.645437371690385" lon="10.664286999498216"><ele>41.0</ele><time>2026-04-26T14:28:48.999Z</time></trkpt><trkpt lat="43.64545188671901" lon="10.664173939892825"><ele>40.33333333333333</ele><time>2026-04-26T14:28:51.999Z</time></trkpt><trkpt lat="43.645482570933886" lon="10.6640578324645"><ele>39.666666666666664</ele><time>2026-04-26T14:28:53.999Z</time></trkpt><trkpt lat="43.64552349479848" lon="10.663967274627607"><ele>39.0</ele><time>2026-04-26T14:28:55.999Z</time></trkpt><trkpt lat="43.645559162560836" lon="10.663880628648268"><ele>38.333333333333336</ele><time>2026-04-26T14:28:57.999Z</time></trkpt><trkpt lat="43.645524198272945" lon="10.663781144803483"><ele>37.66666666666667</ele><time>2026-04-26T14:29:14.999Z</time></trkpt><trkpt lat="43.64543091291464" lon="10.663694542587656"><ele>37.0</ele><time>2026-04-26T14:29:16.999Z</time></trkpt><trkpt lat="43.64537655870337" lon="10.663643649952052"><ele>36.5</ele><time>2026-04-26T14:29:17.999Z</time></trkpt><trkpt lat="43.6453011601721" lon="10.663582383824085"><ele>36.0</ele><time>2026-04-26T14:29:19.999Z</time></trkpt><trkpt lat="43.6452295187204" lon="10.663526667393178"><ele>35.5</ele><time>2026-04-26T14:29:21.999Z</time></trkpt><trkpt lat="43.64516396673875" lon="10.663459652927154"><ele>35.0</ele><time>2026-04-26T14:29:23.999Z</time></trkpt><trkpt lat="43.64509942357387" lon="10.663389353994347"><ele>34.5</ele><time>2026-04-26T14:29:25.999Z</time></trkpt><trkpt lat="43.645041911789" lon="10.663316724474596"><ele>34.0</ele><time>2026-04-26T14:29:27.999Z</time></trkpt><trkpt lat="43.644988858676214" lon="10.663247154887038"><ele>32.16666666666667</ele><time>2026-04-26T14:29:29.999Z</time></trkpt><trkpt lat="43.64493307913803" lon="10.663173481557438"><ele>30.333333333333336</ele><time>2026-04-26T14:29:31.999Z</time></trkpt><trkpt lat="43.64487897079599" lon="10.663081316905105"><ele>28.5</ele><time>2026-04-26T14:29:34.999Z</time></trkpt><trkpt lat="43.64483600904246" lon="10.663017269310863"><ele>26.666666666666668</ele><time>2026-04-26T14:29:37.999Z</time></trkpt><trkpt lat="43.64478376702359" lon="10.662955096894901"><ele>24.833333333333336</ele><time>2026-04-26T14:29:39.999Z</time></trkpt><trkpt lat="43.64469268851715" lon="10.662935274734782"><ele>23.0</ele><time>2026-04-26T14:29:43.999Z</time></trkpt><trkpt lat="43.6446305880749" lon="10.66297823338706"><ele>23.0</ele><time>2026-04-26T14:29:44.999Z</time></trkpt><trkpt lat="43.64457312192179" lon="10.663047482226418"><ele>23.0</ele><time>2026-04-26T14:29:45.999Z</time></trkpt><trkpt lat="43.64452289874176" lon="10.663127967726368"><ele>23.0</ele><time>2026-04-26T14:29:46.999Z</time></trkpt><trkpt lat="43.64447078281206" lon="10.663211532273795"><ele>23.0</ele><time>2026-04-26T14:29:47.999Z</time></trkpt><trkpt lat="43.644427331951505" lon="10.663274485001507"><ele>23.0</ele><time>2026-04-26T14:29:49.999Z</time></trkpt><trkpt lat="43.64446359730338" lon="10.663381029787077"><ele>23.0</ele><time>2026-04-26T14:29:56.999Z</time></trkpt><trkpt lat="43.64445411759198" lon="10.663501465518204"><ele>23.333333333333336</ele><time>2026-04-26T14:29:58.999Z</time></trkpt><trkpt lat="43.64441239120108" lon="10.663590964051773"><ele>23.666666666666668</ele><time>2026-04-26T14:30:00.999Z</time></trkpt><trkpt lat="43.6443665397405" lon="10.663655198915848"><ele>24.0</ele><time>2026-04-26T14:30:02.999Z</time></trkpt><trkpt lat="43.64432029797632" lon="10.66375849344109"><ele>24.333333333333336</ele><time>2026-04-26T14:30:04.998Z</time></trkpt><trkpt lat="43.64427576884191" lon="10.663864582532305"><ele>24.666666666666668</ele><time>2026-04-26T14:30:06.998Z</time></trkpt><trkpt lat="43.64423206505374" lon="10.664000312671265"><ele>25.0</ele><time>2026-04-26T14:30:08.998Z</time></trkpt><trkpt lat="43.64419367639061" lon="10.664141122171761"><ele>27.0</ele><time>2026-04-26T14:30:10.998Z</time></trkpt><trkpt lat="43.64416723854429" lon="10.664259254947599"><ele>29.0</ele><time>2026-04-26T14:30:12.998Z</time></trkpt><trkpt lat="43.64414268876661" lon="10.664379597897648"><ele>31.0</ele><time>2026-04-26T14:30:14.998Z</time></trkpt><trkpt lat="43.64410039327402" lon="10.6645108939628"><ele>33.0</ele><time>2026-04-26T14:30:16.998Z</time></trkpt><trkpt lat="43.64406048662623" lon="10.664641504672824"><ele>35.0</ele><time>2026-04-26T14:30:18.998Z</time></trkpt><trkpt lat="43.64403810398681" lon="10.664775583276082"><ele>36.666666666666664</ele><time>2026-04-26T14:30:21Z</time></trkpt><trkpt lat="43.644045716468085" lon="10.664876967800723"><ele>38.33333333333333</ele><time>2026-04-26T14:30:24Z</time></trkpt><trkpt lat="43.64409809152715" lon="10.66494671996592"><ele>40.0</ele><time>2026-04-26T14:30:26Z</time></trkpt><trkpt lat="43.644177871566434" lon="10.665027057224025"><ele>41.666666666666664</ele><time>2026-04-26T14:30:28Z</time></trkpt><trkpt lat="43.64417817931607" lon="10.665132967690655"><ele>43.333333333333336</ele><time>2026-04-26T14:30:30Z</time></trkpt><trkpt lat="43.64413817093729" lon="10.665243986942853"><ele>45.0</ele><time>2026-04-26T14:30:32Z</time></trkpt><trkpt lat="43.644107584882164" lon="10.66532141917793"><ele>46.2</ele><time>2026-04-26T14:30:33Z</time></trkpt><trkpt lat="43.6440727198629" lon="10.665486426100562"><ele>47.4</ele><time>2026-04-26T14:30:35Z</time></trkpt><trkpt lat="43.644061400947066" lon="10.665574756893951"><ele>48.599999999999994</ele><time>2026-04-26T14:30:36Z</time></trkpt><trkpt lat="43.644039797578415" lon="10.665679013876465"><ele>49.8</ele><time>2026-04-26T14:30:37Z</time></trkpt><trkpt lat="43.644006114924345" lon="10.6658032306699"><ele>51.0</ele><time>2026-04-26T14:30:38Z</time></trkpt><trkpt lat="43.64396160311675" lon="10.66596431850524"><ele>50.8</ele><time>2026-04-26T14:30:39Z</time></trkpt><trkpt lat="43.64392095324322" lon="10.666116345138967"><ele>50.599999999999994</ele><time>2026-04-26T14:30:40Z</time></trkpt><trkpt lat="43.64388602828422" lon="10.66625715252028"><ele>50.4</ele><time>2026-04-26T14:30:41Z</time></trkpt><trkpt lat="43.643851819807935" lon="10.666388766084443"><ele>50.2</ele><time>2026-04-26T14:30:42Z</time></trkpt><trkpt lat="43.64379978638611" lon="10.666526444261866"><ele>50.0</ele><time>2026-04-26T14:30:43Z</time></trkpt><trkpt lat="43.64375061601243" lon="10.666653579409898"><ele>50.0</ele><time>2026-04-26T14:30:44Z</time></trkpt><trkpt lat="43.643708338133074" lon="10.666783884362484"><ele>50.0</ele><time>2026-04-26T14:30:45Z</time></trkpt><trkpt lat="43.643673708233266" lon="10.666906165984486"><ele>50.0</ele><time>2026-04-26T14:30:46Z</time></trkpt><trkpt lat="43.643647234093855" lon="10.667007234031749"><ele>50.0</ele><time>2026-04-26T14:30:47Z</time></trkpt><trkpt lat="43.643631429613855" lon="10.6671389306704"><ele>50.0</ele><time>2026-04-26T14:30:49Z</time></trkpt><trkpt lat="43.643617273920384" lon="10.667252389264581"><ele>50.00000000000001</ele><time>2026-04-26T14:30:51Z</time></trkpt><trkpt lat="43.643590680113086" lon="10.667386903116704"><ele>50.0</ele><time>2026-04-26T14:30:54Z</time></trkpt><trkpt lat="43.64357139841633" lon="10.667520155462974"><ele>50.0</ele><time>2026-04-26T14:30:56Z</time></trkpt><trkpt lat="43.643561689390474" lon="10.667670989373766"><ele>50.0</ele><time>2026-04-26T14:30:58Z</time></trkpt><trkpt lat="43.643557118436846" lon="10.667767100360242"><ele>50.00000000000001</ele><time>2026-04-26T14:30:59Z</time></trkpt><trkpt lat="43.643547261888216" lon="10.667863788926882"><ele>50.0</ele><time>2026-04-26T14:31:00Z</time></trkpt><trkpt lat="43.64353441382985" lon="10.667957241223549"><ele>50.50000000000001</ele><time>2026-04-26T14:31:01Z</time></trkpt><trkpt lat="43.64350585534412" lon="10.668129714145499"><ele>51.0</ele><time>2026-04-26T14:31:03Z</time></trkpt><trkpt lat="43.64349977163065" lon="10.66822066427883"><ele>51.5</ele><time>2026-04-26T14:31:04Z</time></trkpt><trkpt lat="43.64348919802166" lon="10.668309733696342"><ele>52.0</ele><time>2026-04-26T14:31:05Z</time></trkpt><trkpt lat="43.64348181191316" lon="10.668414049977274"><ele>52.50000000000001</ele><time>2026-04-26T14:31:07Z</time></trkpt><trkpt lat="43.64348016076392" lon="10.66855800515789"><ele>53.0</ele><time>2026-04-26T14:31:08.999Z</time></trkpt><trkpt lat="43.643490339719776" lon="10.668666110862693"><ele>53.50000000000001</ele><time>2026-04-26T14:31:09.999Z</time></trkpt><trkpt lat="43.643498276769535" lon="10.668773736821498"><ele>54.0</ele><time>2026-04-26T14:31:10.999Z</time></trkpt><trkpt lat="43.64350341321166" lon="10.668894376862168"><ele>54.5</ele><time>2026-04-26T14:31:11.999Z</time></trkpt><trkpt lat="43.64349927158124" lon="10.669000034536701"><ele>55.0</ele><time>2026-04-26T14:31:12.999Z</time></trkpt><trkpt lat="43.64348382147424" lon="10.669096468074596"><ele>55.50000000000001</ele><time>2026-04-26T14:31:13.999Z</time></trkpt><trkpt lat="43.64347287974158" lon="10.669185945576361"><ele>56.0</ele><time>2026-04-26T14:31:14.999Z</time></trkpt><trkpt lat="43.64347038107135" lon="10.669303029827846"><ele>56.0</ele><time>2026-04-26T14:31:15.999Z</time></trkpt><trkpt lat="43.64347694390118" lon="10.66941670614659"><ele>55.99999999999999</ele><time>2026-04-26T14:31:16.999Z</time></trkpt><trkpt lat="43.64347760282613" lon="10.669531785081677"><ele>55.99999999999999</ele><time>2026-04-26T14:31:17.999Z</time></trkpt><trkpt lat="43.64346974401634" lon="10.669626354474532"><ele>56.0</ele><time>2026-04-26T14:31:18.999Z</time></trkpt><trkpt lat="43.64342733811972" lon="10.66980788023627"><ele>56.0</ele><time>2026-04-26T14:31:20.999Z</time></trkpt><trkpt lat="43.64339858732996" lon="10.669907069001903"><ele>57.0</ele><time>2026-04-26T14:31:21.999Z</time></trkpt><trkpt lat="43.643366040705864" lon="10.670029465526504"><ele>57.99999999999999</ele><time>2026-04-26T14:31:23.999Z</time></trkpt><trkpt lat="43.64335538727445" lon="10.670154658038692"><ele>58.99999999999999</ele><time>2026-04-26T14:32:15.999Z</time></trkpt><trkpt lat="43.643335034137216" lon="10.670332023736584"><ele>60.0</ele><time>2026-04-26T14:32:17.999Z</time></trkpt><trkpt lat="43.64332975579252" lon="10.670438483711667"><ele>61.0</ele><time>2026-04-26T14:32:18.999Z</time></trkpt><trkpt lat="43.64332592820938" lon="10.670540766996224"><ele>60.99999999999999</ele><time>2026-04-26T14:32:19.999Z</time></trkpt><trkpt lat="43.64331334292032" lon="10.67064948144917"><ele>61.0</ele><time>2026-04-26T14:32:20.999Z</time></trkpt><trkpt lat="43.643297782396274" lon="10.670743333079518"><ele>61.0</ele><time>2026-04-26T14:32:21.999Z</time></trkpt><trkpt lat="43.643269890750354" lon="10.670843728264613"><ele>61.0</ele><time>2026-04-26T14:32:22.999Z</time></trkpt><trkpt lat="43.64323837861221" lon="10.67094791172363"><ele>60.99999999999999</ele><time>2026-04-26T14:32:23.999Z</time></trkpt><trkpt lat="43.6432005761779" lon="10.671042308934878"><ele>61.0</ele><time>2026-04-26T14:32:24.999Z</time></trkpt><trkpt lat="43.64316296042024" lon="10.67112797899992"><ele>60.99999999999999</ele><time>2026-04-26T14:32:25.999Z</time></trkpt><trkpt lat="43.6431276855431" lon="10.671211751062259"><ele>61.0</ele><time>2026-04-26T14:32:27Z</time></trkpt><trkpt lat="43.64309641704279" lon="10.671307495446571"><ele>61.0</ele><time>2026-04-26T14:32:28Z</time></trkpt><trkpt lat="43.64307030321871" lon="10.671405213284073"><ele>61.0</ele><time>2026-04-26T14:32:29Z</time></trkpt><trkpt lat="43.643058318228256" lon="10.671503680166202"><ele>60.99999999999999</ele><time>2026-04-26T14:32:30Z</time></trkpt><trkpt lat="43.643070413796096" lon="10.671628328186346"><ele>61.0</ele><time>2026-04-26T14:32:31Z</time></trkpt><trkpt lat="43.64308112451889" lon="10.671746074267162"><ele>60.99999999999999</ele><time>2026-04-26T14:32:32Z</time></trkpt><trkpt lat="43.64308455229139" lon="10.67186816065356"><ele>61.0</ele><time>2026-04-26T14:32:33Z</time></trkpt><trkpt lat="43.64308726006218" lon="10.671995559155283"><ele>61.0</ele><time>2026-04-26T14:32:34Z</time></trkpt><trkpt lat="43.64307768363933" lon="10.672101333667468"><ele>61.0</ele><time>2026-04-26T14:32:35Z</time></trkpt><trkpt lat="43.64305427267295" lon="10.672204082692382"><ele>60.99999999999999</ele><time>2026-04-26T14:32:36Z</time></trkpt><trkpt lat="43.64302236025733" lon="10.672303764871069"><ele>61.0</ele><time>2026-04-26T14:32:37Z</time></trkpt><trkpt lat="43.64300398452077" lon="10.672406046957441"><ele>61.166666666666664</ele><time>2026-04-26T14:32:38Z</time></trkpt><trkpt lat="43.643001778792694" lon="10.672514517126872"><ele>61.33333333333333</ele><time>2026-04-26T14:32:39Z</time></trkpt><trkpt lat="43.64300913068654" lon="10.672634626518821"><ele>61.5</ele><time>2026-04-26T14:32:40Z</time></trkpt><trkpt lat="43.64302153271017" lon="10.672783838694983"><ele>61.66666666666667</ele><time>2026-04-26T14:32:41Z</time></trkpt><trkpt lat="43.64303353836885" lon="10.67289570236547"><ele>61.833333333333336</ele><time>2026-04-26T14:32:42Z</time></trkpt><trkpt lat="43.643055758511224" lon="10.67298290905939"><ele>62.0</ele><time>2026-04-26T14:32:43Z</time></trkpt><trkpt lat="43.643090717906425" lon="10.673069785494913"><ele>62.833333333333336</ele><time>2026-04-26T14:32:44Z</time></trkpt><trkpt lat="43.643139687653544" lon="10.673145822236977"><ele>63.66666666666667</ele><time>2026-04-26T14:32:45Z</time></trkpt><trkpt lat="43.64318866121877" lon="10.673201885973276"><ele>64.5</ele><time>2026-04-26T14:32:46Z</time></trkpt><trkpt lat="43.64324674388818" lon="10.673257457882498"><ele>65.33333333333333</ele><time>2026-04-26T14:32:47Z</time></trkpt><trkpt lat="43.64330690784285" lon="10.673326639921854"><ele>66.16666666666666</ele><time>2026-04-26T14:32:48Z</time></trkpt><trkpt lat="43.64336554163372" lon="10.673417310135251"><ele>67.0</ele><time>2026-04-26T14:32:49Z</time></trkpt><trkpt lat="43.64343192871875" lon="10.673520126836067"><ele>67.2</ele><time>2026-04-26T14:32:50Z</time></trkpt><trkpt lat="43.643510872414815" lon="10.673620596036287"><ele>67.4</ele><time>2026-04-26T14:32:51Z</time></trkpt><trkpt lat="43.64359147391108" lon="10.673708242486075"><ele>67.6</ele><time>2026-04-26T14:32:52Z</time></trkpt><trkpt lat="43.64366276499695" lon="10.673786404932498"><ele>67.8</ele><time>2026-04-26T14:32:53Z</time></trkpt><trkpt lat="43.64373566656835" lon="10.673852287220946"><ele>68.0</ele><time>2026-04-26T14:32:54Z</time></trkpt><trkpt lat="43.64381666989896" lon="10.67392051957169"><ele>67.5</ele><time>2026-04-26T14:32:55Z</time></trkpt><trkpt lat="43.643871236813574" lon="10.673978443077432"><ele>67.0</ele><time>2026-04-26T14:32:56Z</time></trkpt><trkpt lat="43.64394280713269" lon="10.674092773692905"><ele>66.5</ele><time>2026-04-26T14:32:58Z</time></trkpt><trkpt lat="43.64397729802049" lon="10.674169662061201"><ele>66.0</ele><time>2026-04-26T14:33:02Z</time></trkpt><trkpt lat="43.644096341884854" lon="10.674164523994854"><ele>65.5</ele><time>2026-04-26T14:33:05Z</time></trkpt><trkpt lat="43.64417852747865" lon="10.674145972712804"><ele>65.0</ele><time>2026-04-26T14:33:06Z</time></trkpt><trkpt lat="43.644257981137244" lon="10.674150236363406"><ele>65.0</ele><time>2026-04-26T14:33:07Z</time></trkpt><trkpt lat="43.64432695712239" lon="10.674152000543742"><ele>65.0</ele><time>2026-04-26T14:33:08Z</time></trkpt><trkpt lat="43.644425737213076" lon="10.674113779327357"><ele>65.0</ele><time>2026-04-26T14:33:10Z</time></trkpt><trkpt lat="43.644534126793474" lon="10.674021706672901"><ele>65.0</ele><time>2026-04-26T14:33:12Z</time></trkpt><trkpt lat="43.644595214014956" lon="10.673966792069056"><ele>65.0</ele><time>2026-04-26T14:33:13Z</time></trkpt><trkpt lat="43.64471333187316" lon="10.67387141789041"><ele>65.5</ele><time>2026-04-26T14:33:15Z</time></trkpt><trkpt lat="43.64477865115128" lon="10.673832322552604"><ele>66.0</ele><time>2026-04-26T14:33:16Z</time></trkpt><trkpt lat="43.644849175836754" lon="10.673795851793937"><ele>66.5</ele><time>2026-04-26T14:33:17Z</time></trkpt><trkpt lat="43.64492773728544" lon="10.673760182212593"><ele>67.0</ele><time>2026-04-26T14:33:18Z</time></trkpt><trkpt lat="43.645005401404255" lon="10.67373479726904"><ele>67.5</ele><time>2026-04-26T14:33:19Z</time></trkpt><trkpt lat="43.64508518789845" lon="10.67370539473443"><ele>68.0</ele><time>2026-04-26T14:33:20Z</time></trkpt><trkpt lat="43.645158929569035" lon="10.673668754227663"><ele>68.0</ele><time>2026-04-26T14:33:21Z</time></trkpt><trkpt lat="43.64523314657139" lon="10.67361383957312"><ele>68.0</ele><time>2026-04-26T14:33:22Z</time></trkpt><trkpt lat="43.64530065858509" lon="10.67355935228377"><ele>68.0</ele><time>2026-04-26T14:33:22.999Z</time></trkpt><trkpt lat="43.64534984329103" lon="10.673476369635086"><ele>68.0</ele><time>2026-04-26T14:33:23.999Z</time></trkpt><trkpt lat="43.6453998139532" lon="10.673390998572371"><ele>68.0</ele><time>2026-04-26T14:33:24.999Z</time></trkpt><trkpt lat="43.64545330689" lon="10.673301825382365"><ele>68.0</ele><time>2026-04-26T14:33:25.999Z</time></trkpt><trkpt lat="43.64551437453631" lon="10.673228483404275"><ele>68.0</ele><time>2026-04-26T14:33:26.999Z</time></trkpt><trkpt lat="43.64558149878206" lon="10.673159321454888"><ele>68.0</ele><time>2026-04-26T14:33:27.999Z</time></trkpt><trkpt lat="43.64564325357774" lon="10.67309966770257"><ele>68.0</ele><time>2026-04-26T14:33:28.999Z</time></trkpt><trkpt lat="43.64571981060285" lon="10.67302950184201"><ele>68.0</ele><time>2026-04-26T14:33:30.999Z</time></trkpt><trkpt lat="43.6457816971665" lon="10.672988191022332"><ele>68.0</ele><time>2026-04-26T14:33:34.999Z</time></trkpt><trkpt lat="43.64584312135747" lon="10.672940290533246"><ele>68.0</ele><time>2026-04-26T14:33:36.999Z</time></trkpt><trkpt lat="43.645912296335496" lon="10.672872558434578"><ele>68.0</ele><time>2026-04-26T14:33:38.999Z</time></trkpt><trkpt lat="43.64600039829126" lon="10.672785080539589"><ele>68.0</ele><time>2026-04-26T14:33:40.999Z</time></trkpt><trkpt lat="43.64605319888612" lon="10.672679732774837"><ele>68.0</ele><time>2026-04-26T14:33:42.999Z</time></trkpt><trkpt lat="43.646083039052414" lon="10.672592149380533"><ele>68.0</ele><time>2026-04-26T14:33:44.999Z</time></trkpt><trkpt lat="43.646123960624465" lon="10.672517347611274"><ele>68.0</ele><time>2026-04-26T14:33:48.999Z</time></trkpt><trkpt lat="43.646195225978204" lon="10.672449487008894"><ele>68.0</ele><time>2026-04-26T14:33:51.999Z</time></trkpt><trkpt lat="43.64628363169297" lon="10.672370782407103"><ele>68.16666666666667</ele><time>2026-04-26T14:33:54.999Z</time></trkpt><trkpt lat="43.64633080161832" lon="10.672312408335088"><ele>68.33333333333334</ele><time>2026-04-26T14:33:55.999Z</time></trkpt><trkpt lat="43.646383074950954" lon="10.672246788240267"><ele>68.5</ele><time>2026-04-26T14:33:57.999Z</time></trkpt><trkpt lat="43.6464812825337" lon="10.672163104733803"><ele>68.66666666666667</ele><time>2026-04-26T14:34:00.999Z</time></trkpt><trkpt lat="43.646547716691984" lon="10.672123907258245"><ele>68.83333333333333</ele><time>2026-04-26T14:34:01.999Z</time></trkpt><trkpt lat="43.646606346634094" lon="10.672075470355415"><ele>69.0</ele><time>2026-04-26T14:34:02.999Z</time></trkpt><trkpt lat="43.64667664849254" lon="10.672012120569116"><ele>68.0</ele><time>2026-04-26T14:34:03.999Z</time></trkpt><trkpt lat="43.64674840209912" lon="10.671928545030068"><ele>67.0</ele><time>2026-04-26T14:34:04.999Z</time></trkpt><trkpt lat="43.64682319598581" lon="10.671877791603798"><ele>66.0</ele><time>2026-04-26T14:34:05.999Z</time></trkpt><trkpt lat="43.64688473411577" lon="10.67184792712788"><ele>65.0</ele><time>2026-04-26T14:34:06.999Z</time></trkpt><trkpt lat="43.647005820954355" lon="10.671841016136936"><ele>64.0</ele><time>2026-04-26T14:34:08.999Z</time></trkpt><trkpt lat="43.64707765775857" lon="10.671839142645265"><ele>63.0</ele><time>2026-04-26T14:34:09.999Z</time></trkpt><trkpt lat="43.6471439231334" lon="10.671829732956208"><ele>63.0</ele><time>2026-04-26T14:34:10.999Z</time></trkpt><trkpt lat="43.64721684126115" lon="10.67182207360896"><ele>63.0</ele><time>2026-04-26T14:34:12.999Z</time></trkpt><trkpt lat="43.647281480668816" lon="10.67180395114309"><ele>63.0</ele><time>2026-04-26T14:34:15.999Z</time></trkpt><trkpt lat="43.647355517695374" lon="10.67180372973175"><ele>63.0</ele><time>2026-04-26T14:34:19.999Z</time></trkpt><trkpt lat="43.64733096383114" lon="10.671722464883027"><ele>63.0</ele><time>2026-04-26T14:34:25.999Z</time></trkpt><trkpt lat="43.64727792725056" lon="10.671791023336741"><ele>63.0</ele><time>2026-04-26T14:35:26Z</time></trkpt><trkpt lat="43.647209212152234" lon="10.671828138190076"><ele>63.0</ele><time>2026-04-26T14:36:34.999Z</time></trkpt><trkpt lat="43.647093367499444" lon="10.671828020989185"><ele>63.0</ele><time>2026-04-26T14:36:36.999Z</time></trkpt><trkpt lat="43.64702671479622" lon="10.671826038658008"><ele>63.0</ele><time>2026-04-26T14:36:37.999Z</time></trkpt><trkpt lat="43.64695914616741" lon="10.671826573113986"><ele>63.0</ele><time>2026-04-26T14:36:38.999Z</time></trkpt><trkpt lat="43.64686292669488" lon="10.671853160383828"><ele>63.0</ele><time>2026-04-26T14:36:40.999Z</time></trkpt><trkpt lat="43.646804902680024" lon="10.671890340925996"><ele>63.0</ele><time>2026-04-26T14:36:41.999Z</time></trkpt><trkpt lat="43.64673733371447" lon="10.671956023269843"><ele>63.0</ele><time>2026-04-26T14:36:43.999Z</time></trkpt><trkpt lat="43.64666408013555" lon="10.672035452959152"><ele>64.0</ele><time>2026-04-26T14:36:45.999Z</time></trkpt><trkpt lat="43.64658671646918" lon="10.672080289516929"><ele>65.0</ele><time>2026-04-26T14:36:47.999Z</time></trkpt><trkpt lat="43.646518959284116" lon="10.672126112390284"><ele>66.0</ele><time>2026-04-26T14:36:49.999Z</time></trkpt><trkpt lat="43.64644795736238" lon="10.67222305600478"><ele>67.0</ele><time>2026-04-26T14:36:51.999Z</time></trkpt><trkpt lat="43.646363228094074" lon="10.672281179622956"><ele>68.0</ele><time>2026-04-26T14:36:53.999Z</time></trkpt><trkpt lat="43.64630462086835" lon="10.67235138470792"><ele>69.0</ele><time>2026-04-26T14:36:55.999Z</time></trkpt><trkpt lat="43.64625418787073" lon="10.672420112587416"><ele>69.0</ele><time>2026-04-26T14:36:57.999Z</time></trkpt><trkpt lat="43.64620065074876" lon="10.67248065935091"><ele>69.0</ele><time>2026-04-26T14:37:00.999Z</time></trkpt><trkpt lat="43.646137836090546" lon="10.672563666618329"><ele>69.0</ele><time>2026-04-26T14:37:02.999Z</time></trkpt><trkpt lat="43.64608408724164" lon="10.672638491290458"><ele>69.0</ele><time>2026-04-26T14:37:04.999Z</time></trkpt><trkpt lat="43.64602021095178" lon="10.672737469592665"><ele>69.0</ele><time>2026-04-26T14:37:06.999Z</time></trkpt><trkpt lat="43.645964147101964" lon="10.672813784330698"><ele>69.0</ele><time>2026-04-26T14:37:08.999Z</time></trkpt><trkpt lat="43.645908454347015" lon="10.672874548962058"><ele>68.83333333333333</ele><time>2026-04-26T14:37:10.999Z</time></trkpt><trkpt lat="43.6458320328174" lon="10.672917707321082"><ele>68.66666666666667</ele><time>2026-04-26T14:37:13.999Z</time></trkpt><trkpt lat="43.64578170922161" lon="10.672988886221624"><ele>68.5</ele><time>2026-04-26T14:37:16.999Z</time></trkpt><trkpt lat="43.64571582192248" lon="10.673025907938687"><ele>68.33333333333334</ele><time>2026-04-26T14:37:19.999Z</time></trkpt><trkpt lat="43.645642690053926" lon="10.673108639398516"><ele>68.16666666666667</ele><time>2026-04-26T14:37:21.999Z</time></trkpt><trkpt lat="43.645564950071595" lon="10.673187283541017"><ele>68.0</ele><time>2026-04-26T14:37:23.999Z</time></trkpt><trkpt lat="43.64549570071721" lon="10.67326593184864"><ele>68.0</ele><time>2026-04-26T14:37:25.999Z</time></trkpt><trkpt lat="43.6454281718705" lon="10.67336984566033"><ele>68.0</ele><time>2026-04-26T14:37:27.999Z</time></trkpt><trkpt lat="43.645345733722706" lon="10.673487520883128"><ele>68.0</ele><time>2026-04-26T14:37:29.999Z</time></trkpt><trkpt lat="43.645296731923274" lon="10.673551042161527"><ele>68.0</ele><time>2026-04-26T14:37:30.999Z</time></trkpt><trkpt lat="43.6452149624767" lon="10.673618012287411"><ele>68.0</ele><time>2026-04-26T14:37:32.999Z</time></trkpt><trkpt lat="43.64513060059877" lon="10.673665462234588"><ele>68.0</ele><time>2026-04-26T14:37:34.999Z</time></trkpt><trkpt lat="43.64506925935233" lon="10.67370496027834"><ele>68.0</ele><time>2026-04-26T14:37:36.999Z</time></trkpt><trkpt lat="43.644995582623814" lon="10.673745908181317"><ele>68.0</ele><time>2026-04-26T14:37:38.999Z</time></trkpt><trkpt lat="43.64490742627964" lon="10.673774226918905"><ele>68.0</ele><time>2026-04-26T14:37:40.999Z</time></trkpt><trkpt lat="43.64482109624161" lon="10.673814707069845"><ele>68.0</ele><time>2026-04-26T14:37:42.999Z</time></trkpt><trkpt lat="43.644723394887436" lon="10.673876875881"><ele>68.0</ele><time>2026-04-26T14:37:44.999Z</time></trkpt><trkpt lat="43.64463111333068" lon="10.673951376009716"><ele>68.0</ele><time>2026-04-26T14:37:46.999Z</time></trkpt><trkpt lat="43.64457520128338" lon="10.673994587612228"><ele>68.0</ele><time>2026-04-26T14:37:47.999Z</time></trkpt><trkpt lat="43.64448211516761" lon="10.674068295730267"><ele>68.0</ele><time>2026-04-26T14:37:49.999Z</time></trkpt><trkpt lat="43.644388150542696" lon="10.67412800003957"><ele>68.0</ele><time>2026-04-26T14:37:51.999Z</time></trkpt><trkpt lat="43.644298922804914" lon="10.674148374391267"><ele>68.0</ele><time>2026-04-26T14:37:53.999Z</time></trkpt><trkpt lat="43.64417434829697" lon="10.67415275433467"><ele>67.5</ele><time>2026-04-26T14:37:55.999Z</time></trkpt><trkpt lat="43.64410753591485" lon="10.674149138568731"><ele>67.0</ele><time>2026-04-26T14:37:56.999Z</time></trkpt><trkpt lat="43.6440414754522" lon="10.674150897184761"><ele>66.5</ele><time>2026-04-26T14:37:57.999Z</time></trkpt><trkpt lat="43.64397328193014" lon="10.674180888178203"><ele>66.0</ele><time>2026-04-26T14:37:59.999Z</time></trkpt><trkpt lat="43.64390118339527" lon="10.674228577693857"><ele>65.5</ele><time>2026-04-26T14:38:04.999Z</time></trkpt><trkpt lat="43.64380802128046" lon="10.674293235335481"><ele>65.0</ele><time>2026-04-26T14:38:06.999Z</time></trkpt><trkpt lat="43.6437482002986" lon="10.674330779846287"><ele>65.0</ele><time>2026-04-26T14:38:07.999Z</time></trkpt><trkpt lat="43.643683144887966" lon="10.674375019456004"><ele>65.0</ele><time>2026-04-26T14:38:08.999Z</time></trkpt><trkpt lat="43.64362440821208" lon="10.674423413650846"><ele>65.0</ele><time>2026-04-26T14:38:09.999Z</time></trkpt><trkpt lat="43.6435312704488" lon="10.674490581559485"><ele>65.0</ele><time>2026-04-26T14:38:11.999Z</time></trkpt><trkpt lat="43.64343081169242" lon="10.674549566914957"><ele>65.0</ele><time>2026-04-26T14:38:13.999Z</time></trkpt><trkpt lat="43.6433172372542" lon="10.674579477846189"><ele>65.25</ele><time>2026-04-26T14:38:15.998Z</time></trkpt><trkpt lat="43.64320599456944" lon="10.674577738249429"><ele>65.5</ele><time>2026-04-26T14:38:17.998Z</time></trkpt><trkpt lat="43.64310083234683" lon="10.674564352080335"><ele>65.75</ele><time>2026-04-26T14:38:19.998Z</time></trkpt><trkpt lat="43.642980530652835" lon="10.674551755944258"><ele>66.0</ele><time>2026-04-26T14:38:21.998Z</time></trkpt><trkpt lat="43.642856476035966" lon="10.67455424780166"><ele>66.2</ele><time>2026-04-26T14:38:23.998Z</time></trkpt><trkpt lat="43.6427363926193" lon="10.674547837858281"><ele>66.39999999999999</ele><time>2026-04-26T14:38:25.998Z</time></trkpt><trkpt lat="43.64263399236496" lon="10.67454618887917"><ele>66.6</ele><time>2026-04-26T14:38:27.998Z</time></trkpt><trkpt lat="43.642556837070224" lon="10.67452447277834"><ele>66.8</ele><time>2026-04-26T14:38:30.998Z</time></trkpt><trkpt lat="43.64247275090948" lon="10.674529054377226"><ele>67.0</ele><time>2026-04-26T14:38:33.998Z</time></trkpt><trkpt lat="43.64240676830578" lon="10.674547681021268"><ele>67.0</ele><time>2026-04-26T14:38:36.998Z</time></trkpt><trkpt lat="43.64233781960315" lon="10.674559565951926"><ele>67.0</ele><time>2026-04-26T14:38:39.998Z</time></trkpt><trkpt lat="43.64224790655104" lon="10.674591695722714"><ele>67.0</ele><time>2026-04-26T14:38:43.999Z</time></trkpt><trkpt lat="43.642164656419446" lon="10.67462956991338"><ele>67.0</ele><time>2026-04-26T14:38:45.999Z</time></trkpt><trkpt lat="43.64208628461033" lon="10.674653637503067"><ele>67.0</ele><time>2026-04-26T14:38:47.999Z</time></trkpt><trkpt lat="43.64202206516477" lon="10.674651538188437"><ele>67.0</ele><time>2026-04-26T14:38:49.999Z</time></trkpt><trkpt lat="43.641959915012634" lon="10.674619224487593"><ele>67.33333333333333</ele><time>2026-04-26T14:38:51.999Z</time></trkpt><trkpt lat="43.641889307828286" lon="10.674581329278558"><ele>67.66666666666666</ele><time>2026-04-26T14:38:53.999Z</time></trkpt><trkpt lat="43.64180783355585" lon="10.674567532028112"><ele>68.0</ele><time>2026-04-26T14:38:55.999Z</time></trkpt><trkpt lat="43.64173699988254" lon="10.674586115220382"><ele>68.33333333333333</ele><time>2026-04-26T14:38:57.999Z</time></trkpt><trkpt lat="43.64166435966423" lon="10.67463328908203"><ele>68.66666666666667</ele><time>2026-04-26T14:38:59.999Z</time></trkpt><trkpt lat="43.64157520286561" lon="10.674674229217572"><ele>69.0</ele><time>2026-04-26T14:39:01.999Z</time></trkpt><trkpt lat="43.64150503161277" lon="10.674659131299482"><ele>69.0</ele><time>2026-04-26T14:39:03.999Z</time></trkpt><trkpt lat="43.64142592005883" lon="10.674611224428281"><ele>69.0</ele><time>2026-04-26T14:39:05.999Z</time></trkpt><trkpt lat="43.6413568307726" lon="10.674584160099096"><ele>69.0</ele><time>2026-04-26T14:39:08.999Z</time></trkpt><trkpt lat="43.64128108540264" lon="10.674666650026339"><ele>69.0</ele><time>2026-04-26T14:39:11.999Z</time></trkpt><trkpt lat="43.64121794502992" lon="10.674675864487291"><ele>69.0</ele><time>2026-04-26T14:39:13.999Z</time></trkpt><trkpt lat="43.641138414588355" lon="10.674671295179955"><ele>69.0</ele><time>2026-04-26T14:39:15.999Z</time></trkpt><trkpt lat="43.64106769393498" lon="10.674660940491895"><ele>68.66666666666667</ele><time>2026-04-26T14:39:18.999Z</time></trkpt><trkpt lat="43.6409715004274" lon="10.674598314372782"><ele>68.33333333333333</ele><time>2026-04-26T14:39:21.999Z</time></trkpt><trkpt lat="43.64088192598718" lon="10.674575084012426"><ele>68.0</ele><time>2026-04-26T14:39:23.999Z</time></trkpt><trkpt lat="43.64079600563615" lon="10.674518616002283"><ele>67.66666666666666</ele><time>2026-04-26T14:39:25.999Z</time></trkpt><trkpt lat="43.64071822606785" lon="10.674517762113679"><ele>67.33333333333333</ele><time>2026-04-26T14:39:28.999Z</time></trkpt><trkpt lat="43.64066895158357" lon="10.67457777360825"><ele>67.0</ele><time>2026-04-26T14:39:31.999Z</time></trkpt><trkpt lat="43.64061021856965" lon="10.674670322821793"><ele>67.0</ele><time>2026-04-26T14:39:33.999Z</time></trkpt><trkpt lat="43.640540404479815" lon="10.67474481726555"><ele>67.0</ele><time>2026-04-26T14:39:35.999Z</time></trkpt><trkpt lat="43.640462373037124" lon="10.674789202061264"><ele>67.0</ele><time>2026-04-26T14:39:37.999Z</time></trkpt><trkpt lat="43.640403241237905" lon="10.674840238958163"><ele>67.0</ele><time>2026-04-26T14:39:38.999Z</time></trkpt><trkpt lat="43.64035959491246" lon="10.674912083524323"><ele>67.0</ele><time>2026-04-26T14:39:40.999Z</time></trkpt><trkpt lat="43.640350824699006" lon="10.675014324381983"><ele>67.0</ele><time>2026-04-26T14:39:42.999Z</time></trkpt><trkpt lat="43.640291459463384" lon="10.675111495902021"><ele>67.2</ele><time>2026-04-26T14:39:47.999Z</time></trkpt><trkpt lat="43.64021638461417" lon="10.675189605522894"><ele>67.4</ele><time>2026-04-26T14:39:49.999Z</time></trkpt><trkpt lat="43.64017152884295" lon="10.675264960879595"><ele>67.6</ele><time>2026-04-26T14:39:51.999Z</time></trkpt><trkpt lat="43.640098343697666" lon="10.675351301778951"><ele>67.8</ele><time>2026-04-26T14:39:53.999Z</time></trkpt><trkpt lat="43.64002190923656" lon="10.675446791403768"><ele>68.0</ele><time>2026-04-26T14:39:55.999Z</time></trkpt><trkpt lat="43.639950694325854" lon="10.67555024896259"><ele>68.0</ele><time>2026-04-26T14:39:57.999Z</time></trkpt><trkpt lat="43.639912054714436" lon="10.675631230949262"><ele>68.0</ele><time>2026-04-26T14:39:59.999Z</time></trkpt><trkpt lat="43.639872833359696" lon="10.675720926226315"><ele>68.0</ele><time>2026-04-26T14:40:06.999Z</time></trkpt><trkpt lat="43.63983663893187" lon="10.675805168219176"><ele>68.0</ele><time>2026-04-26T14:40:08.999Z</time></trkpt><trkpt lat="43.639797449853425" lon="10.675900971058972"><ele>68.0</ele><time>2026-04-26T14:40:11.999Z</time></trkpt><trkpt lat="43.63974445079337" lon="10.675984368334152"><ele>68.0</ele><time>2026-04-26T14:40:15.999Z</time></trkpt><trkpt lat="43.63969216674139" lon="10.676065180005283"><ele>67.66666666666667</ele><time>2026-04-26T14:40:18.999Z</time></trkpt><trkpt lat="43.63965220140522" lon="10.676133494996689"><ele>67.33333333333334</ele><time>2026-04-26T14:40:20.999Z</time></trkpt><trkpt lat="43.63960623759947" lon="10.676207640621595"><ele>67.0</ele><time>2026-04-26T14:40:22.999Z</time></trkpt><trkpt lat="43.63956170039401" lon="10.67630443892726"><ele>66.66666666666667</ele><time>2026-04-26T14:40:24.999Z</time></trkpt><trkpt lat="43.63952132903183" lon="10.676375609253052"><ele>66.33333333333333</ele><time>2026-04-26T14:40:26.999Z</time></trkpt><trkpt lat="43.639462634640246" lon="10.676469462494984"><ele>66.0</ele><time>2026-04-26T14:40:28.999Z</time></trkpt><trkpt lat="43.63942048693499" lon="10.676609826183295"><ele>65.39999999999999</ele><time>2026-04-26T14:40:30.999Z</time></trkpt><trkpt lat="43.63941025586506" lon="10.676741675211577"><ele>64.8</ele><time>2026-04-26T14:40:32.999Z</time></trkpt><trkpt lat="43.639434800597" lon="10.676891806150753"><ele>64.19999999999999</ele><time>2026-04-26T14:40:34.999Z</time></trkpt><trkpt lat="43.639458955868044" lon="10.676999470139007"><ele>63.599999999999994</ele><time>2026-04-26T14:40:36.999Z</time></trkpt><trkpt lat="43.63944980364964" lon="10.67712532002857"><ele>63.0</ele><time>2026-04-26T14:40:39.999Z</time></trkpt><trkpt lat="43.63945256574897" lon="10.677249731363155"><ele>63.333333333333336</ele><time>2026-04-26T14:40:41.999Z</time></trkpt><trkpt lat="43.63947719700011" lon="10.677366873423479"><ele>63.66666666666667</ele><time>2026-04-26T14:40:44.999Z</time></trkpt><trkpt lat="43.63950375294314" lon="10.677473118850694"><ele>64.0</ele><time>2026-04-26T14:40:50Z</time></trkpt><trkpt lat="43.6395065582506" lon="10.677565842243062"><ele>64.33333333333334</ele><time>2026-04-26T14:40:54Z</time></trkpt><trkpt lat="43.63950138053651" lon="10.677683550861238"><ele>64.66666666666667</ele><time>2026-04-26T14:40:57Z</time></trkpt><trkpt lat="43.63946085495613" lon="10.677767198558847"><ele>65.0</ele><time>2026-04-26T14:40:59Z</time></trkpt><trkpt lat="43.63938417377588" lon="10.677758534403972"><ele>66.33333333333334</ele><time>2026-04-26T14:41:01Z</time></trkpt><trkpt lat="43.63929738964235" lon="10.677771708848113"><ele>67.66666666666667</ele><time>2026-04-26T14:41:03Z</time></trkpt><trkpt lat="43.63922156734146" lon="10.677844283688545"><ele>69.0</ele><time>2026-04-26T14:41:06Z</time></trkpt><trkpt lat="43.639164221573125" lon="10.677887987912616"><ele>70.33333333333333</ele><time>2026-04-26T14:41:07Z</time></trkpt><trkpt lat="43.63906517671593" lon="10.677945642312997"><ele>71.66666666666666</ele><time>2026-04-26T14:41:09Z</time></trkpt><trkpt lat="43.63897599705656" lon="10.677967325034947"><ele>73.0</ele><time>2026-04-26T14:41:11Z</time></trkpt><trkpt lat="43.6389136760027" lon="10.677997676130786"><ele>73.0</ele><time>2026-04-26T14:41:13Z</time></trkpt><trkpt lat="43.63882934021319" lon="10.678038495234926"><ele>73.0</ele><time>2026-04-26T14:41:15Z</time></trkpt><trkpt lat="43.63876336131188" lon="10.678022149309687"><ele>73.0</ele><time>2026-04-26T14:41:17Z</time></trkpt><trkpt lat="43.638649633568136" lon="10.677986639945955"><ele>73.0</ele><time>2026-04-26T14:41:19Z</time></trkpt><trkpt lat="43.638556446621244" lon="10.677959190616882"><ele>73.0</ele><time>2026-04-26T14:41:21Z</time></trkpt><trkpt lat="43.63850017881269" lon="10.677906560942672"><ele>73.0</ele><time>2026-04-26T14:41:23Z</time></trkpt><trkpt lat="43.63842189400287" lon="10.677923789996642"><ele>74.0</ele><time>2026-04-26T14:41:25Z</time></trkpt><trkpt lat="43.6383156363225" lon="10.678006842563702"><ele>75.0</ele><time>2026-04-26T14:41:27Z</time></trkpt><trkpt lat="43.638256918847944" lon="10.678041060428619"><ele>76.0</ele><time>2026-04-26T14:41:28Z</time></trkpt><trkpt lat="43.63817928529409" lon="10.678099097774778"><ele>77.0</ele><time>2026-04-26T14:41:31Z</time></trkpt><trkpt lat="43.63808454811314" lon="10.678131979530807"><ele>78.0</ele><time>2026-04-26T14:41:33Z</time></trkpt><trkpt lat="43.63801202126373" lon="10.67814497505155"><ele>79.0</ele><time>2026-04-26T14:41:34Z</time></trkpt><trkpt lat="43.63794410632273" lon="10.678167084393618"><ele>79.0</ele><time>2026-04-26T14:41:35Z</time></trkpt><trkpt lat="43.637860589074286" lon="10.678267743821147"><ele>79.0</ele><time>2026-04-26T14:41:37Z</time></trkpt><trkpt lat="43.637831589727746" lon="10.67837311613844"><ele>79.0</ele><time>2026-04-26T14:41:39Z</time></trkpt><trkpt lat="43.63784356992253" lon="10.678488401407437"><ele>79.0</ele><time>2026-04-26T14:41:41Z</time></trkpt><trkpt lat="43.63782450062605" lon="10.678590002934284"><ele>79.0</ele><time>2026-04-26T14:41:43Z</time></trkpt><trkpt lat="43.63776721267676" lon="10.678702035159588"><ele>80.5</ele><time>2026-04-26T14:41:46Z</time></trkpt><trkpt lat="43.63768960039818" lon="10.67877948732877"><ele>82.0</ele><time>2026-04-26T14:41:48Z</time></trkpt><trkpt lat="43.63763096377709" lon="10.678905057083592"><ele>83.5</ele><time>2026-04-26T14:41:51Z</time></trkpt><trkpt lat="43.637587358485185" lon="10.678985808890188"><ele>85.0</ele><time>2026-04-26T14:41:53Z</time></trkpt><trkpt lat="43.637543518026206" lon="10.679078417693274"><ele>86.5</ele><time>2026-04-26T14:41:57Z</time></trkpt><trkpt lat="43.637500886996285" lon="10.679166163927613"><ele>88.0</ele><time>2026-04-26T14:41:59Z</time></trkpt><trkpt lat="43.63746256868399" lon="10.679267606134303"><ele>88.0</ele><time>2026-04-26T14:42:03.999Z</time></trkpt><trkpt lat="43.637435306677766" lon="10.679346692231613"><ele>88.0</ele><time>2026-04-26T14:42:06.999Z</time></trkpt><trkpt lat="43.63739847236083" lon="10.679422484365897"><ele>88.0</ele><time>2026-04-26T14:42:08.999Z</time></trkpt><trkpt lat="43.637340638488716" lon="10.67947665471464"><ele>88.0</ele><time>2026-04-26T14:42:10.999Z</time></trkpt><trkpt lat="43.637248524150124" lon="10.679500736000923"><ele>88.0</ele><time>2026-04-26T14:42:13.999Z</time></trkpt><trkpt lat="43.63713087533007" lon="10.679544014966519"><ele>88.0</ele><time>2026-04-26T14:42:15.999Z</time></trkpt><trkpt lat="43.637065300536285" lon="10.679564493216997"><ele>88.33333333333333</ele><time>2026-04-26T14:42:16.999Z</time></trkpt><trkpt lat="43.636963688314545" lon="10.679579129980922"><ele>88.66666666666666</ele><time>2026-04-26T14:42:18.999Z</time></trkpt><trkpt lat="43.63689067165992" lon="10.679582862345757"><ele>89.0</ele><time>2026-04-26T14:42:20.999Z</time></trkpt><trkpt lat="43.63679877931163" lon="10.679605909390007"><ele>89.33333333333333</ele><time>2026-04-26T14:42:22.999Z</time></trkpt><trkpt lat="43.63671882662925" lon="10.67962596190873"><ele>89.66666666666667</ele><time>2026-04-26T14:42:24.999Z</time></trkpt><trkpt lat="43.636653505391195" lon="10.679642344792345"><ele>90.0</ele><time>2026-04-26T14:42:26.999Z</time></trkpt><trkpt lat="43.63658421446819" lon="10.679659723291268"><ele>90.0</ele><time>2026-04-26T14:42:28.999Z</time></trkpt><trkpt lat="43.63647213079682" lon="10.679688192390092"><ele>90.0</ele><time>2026-04-26T14:42:30.999Z</time></trkpt><trkpt lat="43.63635801231125" lon="10.679718654619274"><ele>90.0</ele><time>2026-04-26T14:42:32.999Z</time></trkpt><trkpt lat="43.636261470273354" lon="10.679744425084367"><ele>90.0</ele><time>2026-04-26T14:42:34.999Z</time></trkpt><trkpt lat="43.63614832577657" lon="10.679774627325642"><ele>90.0</ele><time>2026-04-26T14:42:36.999Z</time></trkpt><trkpt lat="43.63604006532192" lon="10.679805669059846"><ele>89.0</ele><time>2026-04-26T14:42:38.999Z</time></trkpt><trkpt lat="43.6359511090071" lon="10.679858568149994"><ele>88.0</ele><time>2026-04-26T14:42:40.999Z</time></trkpt><trkpt lat="43.63583143774887" lon="10.679892109837517"><ele>87.0</ele><time>2026-04-26T14:42:42.999Z</time></trkpt><trkpt lat="43.635715679623196" lon="10.679930270102394"><ele>86.0</ele><time>2026-04-26T14:42:44.999Z</time></trkpt><trkpt lat="43.63560632086998" lon="10.679969883758133"><ele>86.0</ele><time>2026-04-26T14:42:46.999Z</time></trkpt><trkpt lat="43.63550220317532" lon="10.680008698144706"><ele>86.0</ele><time>2026-04-26T14:42:48.999Z</time></trkpt><trkpt lat="43.63540063447687" lon="10.68001907480328"><ele>86.0</ele><time>2026-04-26T14:42:50.999Z</time></trkpt><trkpt lat="43.63529719961378" lon="10.680051647530462"><ele>86.0</ele><time>2026-04-26T14:42:52.999Z</time></trkpt><trkpt lat="43.635183836302886" lon="10.680097462003014"><ele>86.0</ele><time>2026-04-26T14:42:55Z</time></trkpt><trkpt lat="43.63507986256069" lon="10.680138246596238"><ele>85.0</ele><time>2026-04-26T14:42:57Z</time></trkpt><trkpt lat="43.63496014165794" lon="10.680175589167183"><ele>84.0</ele><time>2026-04-26T14:42:59Z</time></trkpt><trkpt lat="43.63484561045408" lon="10.68020480350483"><ele>83.0</ele><time>2026-04-26T14:43:01Z</time></trkpt><trkpt lat="43.63472338198176" lon="10.680237596982893"><ele>82.0</ele><time>2026-04-26T14:43:03Z</time></trkpt><trkpt lat="43.63465880375251" lon="10.680254976074295"><ele>81.0</ele><time>2026-04-26T14:43:04Z</time></trkpt><trkpt lat="43.634596577275616" lon="10.680268403950864"><ele>82.0</ele><time>2026-04-26T14:43:05Z</time></trkpt><trkpt lat="43.634530883622716" lon="10.68028691503474"><ele>83.0</ele><time>2026-04-26T14:43:06Z</time></trkpt><trkpt lat="43.634466354843966" lon="10.680314074331783"><ele>84.0</ele><time>2026-04-26T14:43:07Z</time></trkpt><trkpt lat="43.63440430690067" lon="10.680350143907305"><ele>85.0</ele><time>2026-04-26T14:43:08Z</time></trkpt><trkpt lat="43.63434706864882" lon="10.680388996023073"><ele>86.0</ele><time>2026-04-26T14:43:09Z</time></trkpt><trkpt lat="43.63428116493968" lon="10.68042112196882"><ele>87.0</ele><time>2026-04-26T14:43:10Z</time></trkpt><trkpt lat="43.6341637561906" lon="10.680475944617992"><ele>87.0</ele><time>2026-04-26T14:43:12Z</time></trkpt><trkpt lat="43.63406988462324" lon="10.680555564078759"><ele>87.0</ele><time>2026-04-26T14:43:14Z</time></trkpt><trkpt lat="43.63396749757841" lon="10.680627132722844"><ele>87.0</ele><time>2026-04-26T14:43:16Z</time></trkpt><trkpt lat="43.63392177649807" lon="10.680697626179963"><ele>87.0</ele><time>2026-04-26T14:43:17Z</time></trkpt><trkpt lat="43.63386275812779" lon="10.680750818951129"><ele>87.0</ele><time>2026-04-26T14:43:18Z</time></trkpt><trkpt lat="43.633813422378786" lon="10.680834614398536"><ele>87.0</ele><time>2026-04-26T14:43:19Z</time></trkpt><trkpt lat="43.63377996465973" lon="10.680958342292561"><ele>87.0</ele><time>2026-04-26T14:43:20Z</time></trkpt><trkpt lat="43.633750819650636" lon="10.681077881766765"><ele>87.0</ele><time>2026-04-26T14:43:21Z</time></trkpt><trkpt lat="43.63371684086011" lon="10.681202004610329"><ele>87.0</ele><time>2026-04-26T14:43:22Z</time></trkpt><trkpt lat="43.63368839110519" lon="10.681344846679082"><ele>87.0</ele><time>2026-04-26T14:43:23Z</time></trkpt><trkpt lat="43.633649625913975" lon="10.681443040602176"><ele>87.0</ele><time>2026-04-26T14:43:24Z</time></trkpt><trkpt lat="43.63360447209131" lon="10.681546720645493"><ele>89.66666666666667</ele><time>2026-04-26T14:43:26Z</time></trkpt><trkpt lat="43.63354772573159" lon="10.681618889859983"><ele>92.33333333333334</ele><time>2026-04-26T14:43:28Z</time></trkpt><trkpt lat="43.633473488860396" lon="10.681680085178414"><ele>95.0</ele><time>2026-04-26T14:43:30Z</time></trkpt><trkpt lat="43.63340052029627" lon="10.681714501041835"><ele>97.66666666666667</ele><time>2026-04-26T14:43:32Z</time></trkpt><trkpt lat="43.633304516157814" lon="10.68174363211892"><ele>100.33333333333334</ele><time>2026-04-26T14:43:34Z</time></trkpt><trkpt lat="43.63319547411551" lon="10.681755389654244"><ele>103.0</ele><time>2026-04-26T14:43:36Z</time></trkpt><trkpt lat="43.63309742824358" lon="10.681765245541683"><ele>103.0</ele><time>2026-04-26T14:43:38Z</time></trkpt><trkpt lat="43.63301220781761" lon="10.681796073798466"><ele>103.0</ele><time>2026-04-26T14:43:40Z</time></trkpt><trkpt lat="43.63291858659479" lon="10.68183361361598"><ele>103.0</ele><time>2026-04-26T14:43:42Z</time></trkpt><trkpt lat="43.63282629467505" lon="10.681882373405088"><ele>103.0</ele><time>2026-04-26T14:43:44Z</time></trkpt><trkpt lat="43.63274375121215" lon="10.68195570327712"><ele>103.0</ele><time>2026-04-26T14:43:46Z</time></trkpt><trkpt lat="43.63265266595055" lon="10.682048575749333"><ele>101.4</ele><time>2026-04-26T14:43:48Z</time></trkpt><trkpt lat="43.632564080516254" lon="10.682137192626337"><ele>99.80000000000001</ele><time>2026-04-26T14:43:50Z</time></trkpt><trkpt lat="43.6324755188266" lon="10.682261091053444"><ele>98.2</ele><time>2026-04-26T14:43:52Z</time></trkpt><trkpt lat="43.6323987609396" lon="10.682398873844122"><ele>96.6</ele><time>2026-04-26T14:43:54Z</time></trkpt><trkpt lat="43.63235960167033" lon="10.682470765099833"><ele>95.0</ele><time>2026-04-26T14:43:55Z</time></trkpt><trkpt lat="43.632274787539494" lon="10.682558867006628"><ele>95.0</ele><time>2026-04-26T14:43:57Z</time></trkpt><trkpt lat="43.63219279316385" lon="10.682648327428657"><ele>95.0</ele><time>2026-04-26T14:44:00Z</time></trkpt><trkpt lat="43.63207032535397" lon="10.682693158695368"><ele>95.0</ele><time>2026-04-26T14:44:02Z</time></trkpt><trkpt lat="43.63199135372353" lon="10.682722829696067"><ele>95.0</ele><time>2026-04-26T14:44:03Z</time></trkpt><trkpt lat="43.63191213268465" lon="10.682762687484642"><ele>95.0</ele><time>2026-04-26T14:44:04Z</time></trkpt><trkpt lat="43.6318313627323" lon="10.682809178333358"><ele>97.5</ele><time>2026-04-26T14:44:05Z</time></trkpt><trkpt lat="43.63174050696307" lon="10.682862906102532"><ele>100.0</ele><time>2026-04-26T14:44:06Z</time></trkpt><trkpt lat="43.63163438453854" lon="10.682927746568948"><ele>102.5</ele><time>2026-04-26T14:44:07Z</time></trkpt><trkpt lat="43.63149027766838" lon="10.683007816259108"><ele>105.0</ele><time>2026-04-26T14:44:08Z</time></trkpt><trkpt lat="43.63133130469766" lon="10.683093320183373"><ele>105.0</ele><time>2026-04-26T14:44:09Z</time></trkpt><trkpt lat="43.63121212050408" lon="10.683163861702038"><ele>105.0</ele><time>2026-04-26T14:44:10Z</time></trkpt><trkpt lat="43.63112137933317" lon="10.683221182140061"><ele>105.0</ele><time>2026-04-26T14:44:11Z</time></trkpt><trkpt lat="43.63104653068846" lon="10.683267478850572"><ele>105.0</ele><time>2026-04-26T14:44:12Z</time></trkpt><trkpt lat="43.6309728293153" lon="10.683303456899383"><ele>105.0</ele><time>2026-04-26T14:44:13Z</time></trkpt><trkpt lat="43.63089061779625" lon="10.683348716306652"><ele>104.83333333333333</ele><time>2026-04-26T14:44:14Z</time></trkpt><trkpt lat="43.63080324989384" lon="10.683386756270998"><ele>104.66666666666666</ele><time>2026-04-26T14:44:15Z</time></trkpt><trkpt lat="43.63073061625224" lon="10.683397660652583"><ele>104.5</ele><time>2026-04-26T14:44:16Z</time></trkpt><trkpt lat="43.630644974338665" lon="10.683395955371518"><ele>104.33333333333333</ele><time>2026-04-26T14:44:17Z</time></trkpt><trkpt lat="43.6305594695923" lon="10.68339580694501"><ele>104.16666666666666</ele><time>2026-04-26T14:44:18Z</time></trkpt><trkpt lat="43.63048080937224" lon="10.683410786014974"><ele>104.0</ele><time>2026-04-26T14:44:19Z</time></trkpt><trkpt lat="43.630381953895885" lon="10.683444963487004"><ele>106.80000000000001</ele><time>2026-04-26T14:44:21Z</time></trkpt><trkpt lat="43.63028419594785" lon="10.68347943903706"><ele>109.60000000000001</ele><time>2026-04-26T14:44:23Z</time></trkpt><trkpt lat="43.63016570810041" lon="10.683534742572375"><ele>112.4</ele><time>2026-04-26T14:44:25Z</time></trkpt><trkpt lat="43.63010069847104" lon="10.683565760857137"><ele>115.2</ele><time>2026-04-26T14:44:26Z</time></trkpt><trkpt lat="43.629983767278915" lon="10.683593926222015"><ele>118.0</ele><time>2026-04-26T14:44:27.999Z</time></trkpt><trkpt lat="43.629920861159185" lon="10.683589660521513"><ele>118.0</ele><time>2026-04-26T14:44:28.999Z</time></trkpt><trkpt lat="43.62984799165367" lon="10.683592111884343"><ele>118.00000000000001</ele><time>2026-04-26T14:44:30.999Z</time></trkpt><trkpt lat="43.629719470605274" lon="10.683575836454715"><ele>118.00000000000001</ele><time>2026-04-26T14:44:32.999Z</time></trkpt><trkpt lat="43.62963601056382" lon="10.683546346598634"><ele>118.0</ele><time>2026-04-26T14:44:33.999Z</time></trkpt><trkpt lat="43.629559602389854" lon="10.68349340799967"><ele>118.0</ele><time>2026-04-26T14:44:35.999Z</time></trkpt><trkpt lat="43.629498734999835" lon="10.683420018330157"><ele>118.00000000000001</ele><time>2026-04-26T14:44:37.999Z</time></trkpt><trkpt lat="43.629439096483544" lon="10.683372466951717"><ele>118.0</ele><time>2026-04-26T14:44:39.999Z</time></trkpt><trkpt lat="43.62940130924925" lon="10.683297140316277"><ele>118.0</ele><time>2026-04-26T14:44:43.999Z</time></trkpt><trkpt lat="43.629460911332394" lon="10.683409346506446"><ele>118.0</ele><time>2026-04-26T14:44:50.999Z</time></trkpt><trkpt lat="43.62952052502351" lon="10.683469047999848"><ele>118.00000000000001</ele><time>2026-04-26T14:44:53.999Z</time></trkpt><trkpt lat="43.62950559993725" lon="10.683563662524257"><ele>118.0</ele><time>2026-04-26T14:45:16Z</time></trkpt><trkpt lat="43.629476807459035" lon="10.683668473100962"><ele>115.71428571428571</ele><time>2026-04-26T14:45:19Z</time></trkpt><trkpt lat="43.62945920166894" lon="10.683784604330432"><ele>113.42857142857143</ele><time>2026-04-26T14:45:22Z</time></trkpt><trkpt lat="43.62945856066881" lon="10.683876335933695"><ele>111.14285714285714</ele><time>2026-04-26T14:45:24Z</time></trkpt><trkpt lat="43.62945425840381" lon="10.68397730354783"><ele>108.85714285714286</ele><time>2026-04-26T14:45:29Z</time></trkpt><trkpt lat="43.62940115639175" lon="10.684027323335213"><ele>106.57142857142858</ele><time>2026-04-26T14:45:39Z</time></trkpt><trkpt lat="43.62944343919623" lon="10.683962298245088"><ele>104.28571428571429</ele><time>2026-04-26T14:45:58Z</time></trkpt><trkpt lat="43.629453137245605" lon="10.683837674104375"><ele>102.0</ele><time>2026-04-26T14:46:01Z</time></trkpt><trkpt lat="43.62946850006505" lon="10.68366287799226"><ele>104.14285714285714</ele><time>2026-04-26T14:46:03Z</time></trkpt><trkpt lat="43.62949009781432" lon="10.683579047546077"><ele>106.28571428571429</ele><time>2026-04-26T14:46:04Z</time></trkpt><trkpt lat="43.62950549618331" lon="10.683490413792406"><ele>108.42857142857143</ele><time>2026-04-26T14:46:06Z</time></trkpt><trkpt lat="43.6294623884226" lon="10.683408655196176"><ele>110.57142857142858</ele><time>2026-04-26T14:46:09Z</time></trkpt><trkpt lat="43.62941346774654" lon="10.68335248070886"><ele>112.71428571428572</ele><time>2026-04-26T14:46:10Z</time></trkpt><trkpt lat="43.62937024641871" lon="10.68327456687381"><ele>114.85714285714286</ele><time>2026-04-26T14:46:11Z</time></trkpt><trkpt lat="43.629311718266216" lon="10.683208103179137"><ele>117.0</ele><time>2026-04-26T14:46:12Z</time></trkpt><trkpt lat="43.62924666498376" lon="10.68313945641394"><ele>117.0</ele><time>2026-04-26T14:46:13Z</time></trkpt><trkpt lat="43.629176273504974" lon="10.683065543343998"><ele>116.99999999999999</ele><time>2026-04-26T14:46:14Z</time></trkpt><trkpt lat="43.62910619369024" lon="10.682990773067875"><ele>116.99999999999999</ele><time>2026-04-26T14:46:15Z</time></trkpt><trkpt lat="43.62903160862777" lon="10.682909543162937"><ele>117.0</ele><time>2026-04-26T14:46:16Z</time></trkpt><trkpt lat="43.628955880453944" lon="10.682828148182791"><ele>117.0</ele><time>2026-04-26T14:46:17Z</time></trkpt><trkpt lat="43.62886747158004" lon="10.682766218595514"><ele>117.19999999999999</ele><time>2026-04-26T14:46:18Z</time></trkpt><trkpt lat="43.6287876280401" lon="10.682682506272128"><ele>117.39999999999999</ele><time>2026-04-26T14:46:19Z</time></trkpt><trkpt lat="43.62870861956515" lon="10.682602722298256"><ele>117.60000000000001</ele><time>2026-04-26T14:46:20Z</time></trkpt><trkpt lat="43.62864463299065" lon="10.682557672081495"><ele>117.80000000000001</ele><time>2026-04-26T14:46:21Z</time></trkpt><trkpt lat="43.62854424028371" lon="10.682476208636608"><ele>118.0</ele><time>2026-04-26T14:46:23Z</time></trkpt><trkpt lat="43.62847206232822" lon="10.682437087703791"><ele>118.0</ele><time>2026-04-26T14:46:24Z</time></trkpt><trkpt lat="43.628384296182865" lon="10.682396277205534"><ele>118.00000000000001</ele><time>2026-04-26T14:46:25Z</time></trkpt><trkpt lat="43.62827960605262" lon="10.682374904744755"><ele>118.00000000000001</ele><time>2026-04-26T14:46:26Z</time></trkpt><trkpt lat="43.62817782387604" lon="10.682346041370472"><ele>118.0</ele><time>2026-04-26T14:46:27Z</time></trkpt><trkpt lat="43.62808144758491" lon="10.682333753640636"><ele>118.0</ele><time>2026-04-26T14:46:28Z</time></trkpt><trkpt lat="43.62801030592607" lon="10.682290236288438"><ele>118.0</ele><time>2026-04-26T14:46:29Z</time></trkpt><trkpt lat="43.6279000930341" lon="10.682234986032721"><ele>118.00000000000001</ele><time>2026-04-26T14:46:30.999Z</time></trkpt><trkpt lat="43.62784083407809" lon="10.682194086602609"><ele>118.00000000000001</ele><time>2026-04-26T14:46:31.999Z</time></trkpt><trkpt lat="43.62776261112674" lon="10.682136381825842"><ele>118.0</ele><time>2026-04-26T14:46:32.999Z</time></trkpt><trkpt lat="43.62767275586449" lon="10.682071994524245"><ele>118.0</ele><time>2026-04-26T14:46:33.999Z</time></trkpt><trkpt lat="43.62759118055208" lon="10.682015933992087"><ele>119.2</ele><time>2026-04-26T14:46:34.999Z</time></trkpt><trkpt lat="43.62751218508548" lon="10.681987216367823"><ele>120.4</ele><time>2026-04-26T14:46:35.999Z</time></trkpt><trkpt lat="43.62743418270433" lon="10.681915270024415"><ele>121.60000000000001</ele><time>2026-04-26T14:46:36.999Z</time></trkpt><trkpt lat="43.627334851465335" lon="10.681893563742916"><ele>122.80000000000001</ele><time>2026-04-26T14:46:37.999Z</time></trkpt><trkpt lat="43.627251997516154" lon="10.681840389314926"><ele>124.0</ele><time>2026-04-26T14:46:38.999Z</time></trkpt><trkpt lat="43.627165395189685" lon="10.681815781293096"><ele>124.00000000000001</ele><time>2026-04-26T14:46:39.999Z</time></trkpt><trkpt lat="43.627087444022436" lon="10.68182367488027"><ele>124.0</ele><time>2026-04-26T14:46:40.999Z</time></trkpt><trkpt lat="43.62701394371499" lon="10.681829526326785"><ele>124.0</ele><time>2026-04-26T14:46:41.999Z</time></trkpt><trkpt lat="43.62694210670118" lon="10.681830582368406"><ele>124.0</ele><time>2026-04-26T14:46:42.999Z</time></trkpt><trkpt lat="43.62686956878866" lon="10.681869467619983"><ele>124.00000000000001</ele><time>2026-04-26T14:46:43.999Z</time></trkpt><trkpt lat="43.626810933256536" lon="10.681962866945742"><ele>124.0</ele><time>2026-04-26T14:46:44.999Z</time></trkpt><trkpt lat="43.626759920216585" lon="10.682030476034013"><ele>121.4</ele><time>2026-04-26T14:46:45.999Z</time></trkpt><trkpt lat="43.626720669751904" lon="10.682117253503531"><ele>118.80000000000001</ele><time>2026-04-26T14:46:46.999Z</time></trkpt><trkpt lat="43.626683272292425" lon="10.682220614267194"><ele>116.19999999999999</ele><time>2026-04-26T14:46:47.999Z</time></trkpt><trkpt lat="43.6266170070483" lon="10.682325768758568"><ele>113.6</ele><time>2026-04-26T14:46:48.999Z</time></trkpt><trkpt lat="43.626556824312885" lon="10.68244151809276"><ele>111.0</ele><time>2026-04-26T14:46:49.999Z</time></trkpt><trkpt lat="43.626492079074694" lon="10.682560618700403"><ele>111.0</ele><time>2026-04-26T14:46:50.999Z</time></trkpt><trkpt lat="43.62642490608057" lon="10.682684126060058"><ele>111.0</ele><time>2026-04-26T14:46:51.999Z</time></trkpt><trkpt lat="43.62636615051061" lon="10.682791640091311"><ele>111.0</ele><time>2026-04-26T14:46:52.999Z</time></trkpt><trkpt lat="43.62630622249786" lon="10.682908564223709"><ele>111.0</ele><time>2026-04-26T14:46:53.999Z</time></trkpt><trkpt lat="43.626208230274116" lon="10.683007361316337"><ele>111.0</ele><time>2026-04-26T14:46:54.999Z</time></trkpt><trkpt lat="43.626110056819634" lon="10.683103511842804"><ele>111.66666666666667</ele><time>2026-04-26T14:46:55.999Z</time></trkpt><trkpt lat="43.626046533139" lon="10.683177738601184"><ele>112.33333333333334</ele><time>2026-04-26T14:46:56.999Z</time></trkpt><trkpt lat="43.62599251778954" lon="10.683232548857752"><ele>113.0</ele><time>2026-04-26T14:46:57.999Z</time></trkpt><trkpt lat="43.6259103127395" lon="10.683276886374463"><ele>113.66666666666667</ele><time>2026-04-26T14:46:59.999Z</time></trkpt><trkpt lat="43.62582747090023" lon="10.683275262477393"><ele>114.33333333333334</ele><time>2026-04-26T14:47:01.999Z</time></trkpt><trkpt lat="43.625761267678435" lon="10.683239331478982"><ele>115.0</ele><time>2026-04-26T14:47:06Z</time></trkpt><trkpt lat="43.625670584727125" lon="10.683288583997332"><ele>115.0</ele><time>2026-04-26T14:47:08Z</time></trkpt><trkpt lat="43.625599755700264" lon="10.683319256426593"><ele>115.0</ele><time>2026-04-26T14:47:09Z</time></trkpt><trkpt lat="43.62551696206131" lon="10.68336416998671"><ele>115.0</ele><time>2026-04-26T14:47:10Z</time></trkpt><trkpt lat="43.625427732974224" lon="10.68339201723787"><ele>115.0</ele><time>2026-04-26T14:47:11Z</time></trkpt><trkpt lat="43.62532433234755" lon="10.68340356851486"><ele>115.0</ele><time>2026-04-26T14:47:12Z</time></trkpt><trkpt lat="43.625213163600286" lon="10.683397305278836"><ele>114.25</ele><time>2026-04-26T14:47:13Z</time></trkpt><trkpt lat="43.62509570691502" lon="10.6833859703412"><ele>113.5</ele><time>2026-04-26T14:47:14Z</time></trkpt><trkpt lat="43.62497143877657" lon="10.683343940556176"><ele>112.75</ele><time>2026-04-26T14:47:15Z</time></trkpt><trkpt lat="43.62483431829466" lon="10.683341268310086"><ele>112.0</ele><time>2026-04-26T14:47:16Z</time></trkpt><trkpt lat="43.624715040086194" lon="10.683308726839773"><ele>112.0</ele><time>2026-04-26T14:47:17Z</time></trkpt><trkpt lat="43.62460748999832" lon="10.683283593911044"><ele>111.99999999999999</ele><time>2026-04-26T14:47:18Z</time></trkpt><trkpt lat="43.62454615393163" lon="10.683188054080809"><ele>111.99999999999999</ele><time>2026-04-26T14:47:19Z</time></trkpt><trkpt lat="43.624512732400376" lon="10.683098902897825"><ele>112.0</ele><time>2026-04-26T14:47:20Z</time></trkpt><trkpt lat="43.624492356797106" lon="10.68300851807666"><ele>112.0</ele><time>2026-04-26T14:47:22Z</time></trkpt><trkpt lat="43.62438122727664" lon="10.68315642489856"><ele>112.00000000000001</ele><time>2026-04-26T14:47:25Z</time></trkpt><trkpt lat="43.62435315966974" lon="10.683285992822304"><ele>112.0</ele><time>2026-04-26T14:47:27Z</time></trkpt><trkpt lat="43.62442778528215" lon="10.683388412761254"><ele>112.0</ele><time>2026-04-26T14:47:28Z</time></trkpt><trkpt lat="43.62445644551043" lon="10.683472724044062"><ele>112.0</ele><time>2026-04-26T14:47:29Z</time></trkpt><trkpt lat="43.62448547546046" lon="10.683557647264966"><ele>112.00000000000001</ele><time>2026-04-26T14:47:30Z</time></trkpt><trkpt lat="43.624515614929855" lon="10.683646411319492"><ele>112.0</ele><time>2026-04-26T14:47:31Z</time></trkpt><trkpt lat="43.6245465652788" lon="10.683731079662197"><ele>113.83333333333334</ele><time>2026-04-26T14:47:32Z</time></trkpt><trkpt lat="43.62458264521508" lon="10.68381636913387"><ele>115.66666666666667</ele><time>2026-04-26T14:47:33Z</time></trkpt><trkpt lat="43.624615716879084" lon="10.68390599037615"><ele>117.5</ele><time>2026-04-26T14:47:34Z</time></trkpt><trkpt lat="43.62464227347973" lon="10.684002568807143"><ele>119.33333333333334</ele><time>2026-04-26T14:47:35Z</time></trkpt><trkpt lat="43.62466445901185" lon="10.68410262951176"><ele>121.16666666666667</ele><time>2026-04-26T14:47:36Z</time></trkpt><trkpt lat="43.62468101264418" lon="10.684205769577234"><ele>123.0</ele><time>2026-04-26T14:47:37Z</time></trkpt><trkpt lat="43.62469566470834" lon="10.684313190051938"><ele>123.0</ele><time>2026-04-26T14:47:38Z</time></trkpt><trkpt lat="43.62471510165283" lon="10.684421007373528"><ele>123.00000000000001</ele><time>2026-04-26T14:47:39Z</time></trkpt><trkpt lat="43.624737978735915" lon="10.684534505429282"><ele>123.00000000000001</ele><time>2026-04-26T14:47:40Z</time></trkpt><trkpt lat="43.62474242893649" lon="10.684668643219357"><ele>123.0</ele><time>2026-04-26T14:47:41Z</time></trkpt><trkpt lat="43.624778780391466" lon="10.684812983851126"><ele>123.0</ele><time>2026-04-26T14:47:42Z</time></trkpt><trkpt lat="43.6247924653224" lon="10.684972599264961"><ele>122.25</ele><time>2026-04-26T14:47:43Z</time></trkpt><trkpt lat="43.62480786708891" lon="10.685143930625618"><ele>121.5</ele><time>2026-04-26T14:47:44Z</time></trkpt><trkpt lat="43.624819292557206" lon="10.685326648765098"><ele>120.75</ele><time>2026-04-26T14:47:45Z</time></trkpt><trkpt lat="43.624826401640995" lon="10.68551166471279"><ele>120.0</ele><time>2026-04-26T14:47:46Z</time></trkpt><trkpt lat="43.62482876223004" lon="10.685703304009067"><ele>119.5</ele><time>2026-04-26T14:47:47Z</time></trkpt><trkpt lat="43.624826705785985" lon="10.685892507611692"><ele>119.0</ele><time>2026-04-26T14:47:48Z</time></trkpt><trkpt lat="43.62482388533857" lon="10.686082331826102"><ele>118.5</ele><time>2026-04-26T14:47:49Z</time></trkpt><trkpt lat="43.624845014490646" lon="10.68627325618104"><ele>118.0</ele><time>2026-04-26T14:47:50Z</time></trkpt><trkpt lat="43.62487731249351" lon="10.686451346274009"><ele>119.75</ele><time>2026-04-26T14:47:51Z</time></trkpt><trkpt lat="43.624928575212" lon="10.68661627852279"><ele>121.5</ele><time>2026-04-26T14:47:52Z</time></trkpt><trkpt lat="43.62497641796701" lon="10.68678147770066"><ele>123.25</ele><time>2026-04-26T14:47:53Z</time></trkpt><trkpt lat="43.625035774058084" lon="10.686935003167381"><ele>125.0</ele><time>2026-04-26T14:47:54Z</time></trkpt><trkpt lat="43.625094368994965" lon="10.687068785849611"><ele>125.0</ele><time>2026-04-26T14:47:55Z</time></trkpt><trkpt lat="43.62514406791061" lon="10.687175428874061"><ele>125.0</ele><time>2026-04-26T14:47:56Z</time></trkpt><trkpt lat="43.62516098893341" lon="10.687273989404103"><ele>125.0</ele><time>2026-04-26T14:47:57Z</time></trkpt><trkpt lat="43.625191976012296" lon="10.68744131054759"><ele>125.0</ele><time>2026-04-26T14:47:59Z</time></trkpt><trkpt lat="43.62520102256072" lon="10.687556610971601"><ele>125.0</ele><time>2026-04-26T14:48:00Z</time></trkpt><trkpt lat="43.625198107590776" lon="10.687702652120521"><ele>123.75</ele><time>2026-04-26T14:48:01Z</time></trkpt><trkpt lat="43.625183461442674" lon="10.687866039156834"><ele>122.5</ele><time>2026-04-26T14:48:02Z</time></trkpt><trkpt lat="43.625172369143186" lon="10.688042352827523"><ele>121.25</ele><time>2026-04-26T14:48:03Z</time></trkpt><trkpt lat="43.62516503869596" lon="10.68822515447218"><ele>120.0</ele><time>2026-04-26T14:48:04Z</time></trkpt><trkpt lat="43.62516252166329" lon="10.688417127415425"><ele>119.75</ele><time>2026-04-26T14:48:05Z</time></trkpt><trkpt lat="43.625173421269466" lon="10.68862029961985"><ele>119.5</ele><time>2026-04-26T14:48:06Z</time></trkpt><trkpt lat="43.625195154472436" lon="10.688829942374353"><ele>119.25</ele><time>2026-04-26T14:48:07Z</time></trkpt><trkpt lat="43.62520328638071" lon="10.689022385553887"><ele>119.0</ele><time>2026-04-26T14:48:08Z</time></trkpt><trkpt lat="43.625203880569494" lon="10.689182629363229"><ele>119.0</ele><time>2026-04-26T14:48:09Z</time></trkpt><trkpt lat="43.62519735348834" lon="10.689325445785059"><ele>119.0</ele><time>2026-04-26T14:48:10Z</time></trkpt><trkpt lat="43.62519765702337" lon="10.689465825910416"><ele>119.0</ele><time>2026-04-26T14:48:11Z</time></trkpt><trkpt lat="43.625184739115284" lon="10.689609369906478"><ele>119.0</ele><time>2026-04-26T14:48:12Z</time></trkpt><trkpt lat="43.62516459287683" lon="10.689749457195177"><ele>119.0</ele><time>2026-04-26T14:48:13Z</time></trkpt><trkpt lat="43.625148112660426" lon="10.689882444057478"><ele>119.4</ele><time>2026-04-26T14:48:14Z</time></trkpt><trkpt lat="43.62513366978224" lon="10.690004687326196"><ele>119.80000000000001</ele><time>2026-04-26T14:48:15Z</time></trkpt><trkpt lat="43.62512173231875" lon="10.690107930037179"><ele>120.19999999999999</ele><time>2026-04-26T14:48:16Z</time></trkpt><trkpt lat="43.62508029668847" lon="10.690185731935237"><ele>120.6</ele><time>2026-04-26T14:48:16.999Z</time></trkpt><trkpt lat="43.62502845234294" lon="10.690329888797447"><ele>121.0</ele><time>2026-04-26T14:48:18.999Z</time></trkpt><trkpt lat="43.62492409835969" lon="10.690485375502144"><ele>119.75</ele><time>2026-04-26T14:48:20.999Z</time></trkpt><trkpt lat="43.62484288567889" lon="10.690615745926799"><ele>118.5</ele><time>2026-04-26T14:48:21.999Z</time></trkpt><trkpt lat="43.62474748102325" lon="10.690736129625643"><ele>117.25</ele><time>2026-04-26T14:48:22.999Z</time></trkpt><trkpt lat="43.62464569321316" lon="10.690852652688063"><ele>116.0</ele><time>2026-04-26T14:48:23.999Z</time></trkpt><trkpt lat="43.62454541082958" lon="10.690956082563517"><ele>114.6</ele><time>2026-04-26T14:48:24.999Z</time></trkpt><trkpt lat="43.62445455166145" lon="10.691039986351083"><ele>113.19999999999999</ele><time>2026-04-26T14:48:25.999Z</time></trkpt><trkpt lat="43.62436451047376" lon="10.691117954543685"><ele>111.80000000000001</ele><time>2026-04-26T14:48:26.999Z</time></trkpt><trkpt lat="43.62427900292125" lon="10.691200615293004"><ele>110.4</ele><time>2026-04-26T14:48:27.999Z</time></trkpt><trkpt lat="43.62419106837955" lon="10.691292022821147"><ele>109.0</ele><time>2026-04-26T14:48:28.999Z</time></trkpt><trkpt lat="43.62411622511529" lon="10.69138114373651"><ele>109.0</ele><time>2026-04-26T14:48:29.999Z</time></trkpt><trkpt lat="43.624064922067255" lon="10.691450148556537"><ele>109.0</ele><time>2026-04-26T14:48:30.999Z</time></trkpt><trkpt lat="43.62400762520978" lon="10.691572980974616"><ele>109.0</ele><time>2026-04-26T14:48:32.999Z</time></trkpt><trkpt lat="43.62400477134627" lon="10.69171961212255"><ele>109.0</ele><time>2026-04-26T14:48:34.999Z</time></trkpt><trkpt lat="43.6240261500585" lon="10.691826653097381"><ele>109.0</ele><time>2026-04-26T14:48:35.999Z</time></trkpt><trkpt lat="43.62407747895623" lon="10.691964451710698"><ele>106.0</ele><time>2026-04-26T14:48:36.999Z</time></trkpt><trkpt lat="43.62412081990943" lon="10.692145089389264"><ele>103.0</ele><time>2026-04-26T14:48:37.999Z</time></trkpt><trkpt lat="43.62417557069674" lon="10.692364825050959"><ele>100.0</ele><time>2026-04-26T14:48:38.999Z</time></trkpt><trkpt lat="43.6242353540955" lon="10.692596974265257"><ele>99.66666666666667</ele><time>2026-04-26T14:48:39.999Z</time></trkpt><trkpt lat="43.624287391216185" lon="10.69280964147083"><ele>99.33333333333334</ele><time>2026-04-26T14:48:40.999Z</time></trkpt><trkpt lat="43.62432256610006" lon="10.693010593937053"><ele>99.0</ele><time>2026-04-26T14:48:41.999Z</time></trkpt><trkpt lat="43.624342904194236" lon="10.693210586348346"><ele>99.0</ele><time>2026-04-26T14:48:42.999Z</time></trkpt><trkpt lat="43.62436314210114" lon="10.69341527645623"><ele>99.0</ele><time>2026-04-26T14:48:43.999Z</time></trkpt><trkpt lat="43.62439522431309" lon="10.693627271656085"><ele>99.0</ele><time>2026-04-26T14:48:44.999Z</time></trkpt><trkpt lat="43.624430966554" lon="10.693842067610301"><ele>100.5</ele><time>2026-04-26T14:48:45.999Z</time></trkpt><trkpt lat="43.62445282917335" lon="10.69403916799289"><ele>102.0</ele><time>2026-04-26T14:48:46.999Z</time></trkpt><trkpt lat="43.62446683966236" lon="10.694215755099794"><ele>103.5</ele><time>2026-04-26T14:48:47.999Z</time></trkpt><trkpt lat="43.624475235366006" lon="10.69434951033128"><ele>105.0</ele><time>2026-04-26T14:48:48.999Z</time></trkpt><trkpt lat="43.62447837909237" lon="10.694462411213696"><ele>105.4</ele><time>2026-04-26T14:48:49.999Z</time></trkpt><trkpt lat="43.624453326545826" lon="10.69459894075016"><ele>105.8</ele><time>2026-04-26T14:48:51.999Z</time></trkpt><trkpt lat="43.6244294526756" lon="10.694767870972736"><ele>106.19999999999999</ele><time>2026-04-26T14:48:53.999Z</time></trkpt><trkpt lat="43.624394914731894" lon="10.69485638862653"><ele>106.6</ele><time>2026-04-26T14:48:54.999Z</time></trkpt><trkpt lat="43.62436518316267" lon="10.69496308890959"><ele>107.0</ele><time>2026-04-26T14:48:56.999Z</time></trkpt><trkpt lat="43.62429771431519" lon="10.695073415349771"><ele>106.99999999999999</ele><time>2026-04-26T14:49:15Z</time></trkpt><trkpt lat="43.624249930476374" lon="10.695137605423335"><ele>107.0</ele><time>2026-04-26T14:49:16Z</time></trkpt><trkpt lat="43.62421470850816" lon="10.6952256950615"><ele>107.0</ele><time>2026-04-26T14:49:17Z</time></trkpt><trkpt lat="43.624177784295604" lon="10.695332018711193"><ele>107.0</ele><time>2026-04-26T14:49:18Z</time></trkpt><trkpt lat="43.624148724461826" lon="10.695440123994256"><ele>106.99999999999999</ele><time>2026-04-26T14:49:19Z</time></trkpt><trkpt lat="43.62411009260888" lon="10.695519261562481"><ele>107.0</ele><time>2026-04-26T14:49:20Z</time></trkpt><trkpt lat="43.624041771529214" lon="10.69561786758887"><ele>107.83333333333333</ele><time>2026-04-26T14:49:22Z</time></trkpt><trkpt lat="43.62394700516221" lon="10.695692161978078"><ele>108.66666666666666</ele><time>2026-04-26T14:49:24Z</time></trkpt><trkpt lat="43.623871334783196" lon="10.695717463922731"><ele>109.5</ele><time>2026-04-26T14:49:25Z</time></trkpt><trkpt lat="43.62381363209883" lon="10.69575879698094"><ele>110.33333333333334</ele><time>2026-04-26T14:49:26Z</time></trkpt><trkpt lat="43.623726948785105" lon="10.695863185743125"><ele>111.16666666666667</ele><time>2026-04-26T14:49:28Z</time></trkpt><trkpt lat="43.62371423595132" lon="10.695963774158795"><ele>112.0</ele><time>2026-04-26T14:49:29Z</time></trkpt><trkpt lat="43.62370507117432" lon="10.696050200910426"><ele>112.8</ele><time>2026-04-26T14:49:30Z</time></trkpt><trkpt lat="43.623690750439586" lon="10.696215262073615"><ele>113.6</ele><time>2026-04-26T14:49:32Z</time></trkpt><trkpt lat="43.62367576027812" lon="10.696335671666414"><ele>114.39999999999999</ele><time>2026-04-26T14:49:34Z</time></trkpt><trkpt lat="43.62366174278657" lon="10.696446910156052"><ele>115.19999999999999</ele><time>2026-04-26T14:49:36Z</time></trkpt><trkpt lat="43.62364782227367" lon="10.69656124361567"><ele>116.0</ele><time>2026-04-26T14:49:38Z</time></trkpt><trkpt lat="43.623632727811184" lon="10.696718369824408"><ele>112.0</ele><time>2026-04-26T14:49:40Z</time></trkpt><trkpt lat="43.62361766784814" lon="10.696897136806136"><ele>108.0</ele><time>2026-04-26T14:49:42Z</time></trkpt><trkpt lat="43.62361221082166" lon="10.697057760510662"><ele>104.0</ele><time>2026-04-26T14:49:44Z</time></trkpt><trkpt lat="43.62360317087865" lon="10.697154559075194"><ele>100.0</ele><time>2026-04-26T14:49:45Z</time></trkpt><trkpt lat="43.623589734284224" lon="10.69725809375134"><ele>96.0</ele><time>2026-04-26T14:49:46Z</time></trkpt><trkpt lat="43.623580558157826" lon="10.697369875332491"><ele>96.0</ele><time>2026-04-26T14:49:47Z</time></trkpt><trkpt lat="43.62356769362619" lon="10.697481567000793"><ele>96.0</ele><time>2026-04-26T14:49:48Z</time></trkpt><trkpt lat="43.623559826414755" lon="10.697610306329512"><ele>96.0</ele><time>2026-04-26T14:49:49Z</time></trkpt><trkpt lat="43.62355105306003" lon="10.69771458695419"><ele>96.0</ele><time>2026-04-26T14:49:50Z</time></trkpt><trkpt lat="43.62353465187039" lon="10.697825930647639"><ele>96.0</ele><time>2026-04-26T14:49:51Z</time></trkpt><trkpt lat="43.623525195462655" lon="10.697927711542462"><ele>96.0</ele><time>2026-04-26T14:49:52Z</time></trkpt><trkpt lat="43.623505763312984" lon="10.698042538615985"><ele>96.83333333333333</ele><time>2026-04-26T14:49:53Z</time></trkpt><trkpt lat="43.62348163674823" lon="10.69821427117474"><ele>97.66666666666666</ele><time>2026-04-26T14:49:55Z</time></trkpt><trkpt lat="43.623470189884756" lon="10.698303223350152"><ele>98.5</ele><time>2026-04-26T14:49:56Z</time></trkpt><trkpt lat="43.6234651327439" lon="10.69840721913351"><ele>99.33333333333333</ele><time>2026-04-26T14:49:57Z</time></trkpt><trkpt lat="43.623470458961386" lon="10.698508728859336"><ele>100.16666666666666</ele><time>2026-04-26T14:49:58Z</time></trkpt><trkpt lat="43.62347502211384" lon="10.698621798771072"><ele>101.0</ele><time>2026-04-26T14:49:59Z</time></trkpt><trkpt lat="43.62348293915688" lon="10.69871441157268"><ele>101.8</ele><time>2026-04-26T14:50:00Z</time></trkpt><trkpt lat="43.6234651527983" lon="10.698878465761513"><ele>102.6</ele><time>2026-04-26T14:50:02Z</time></trkpt><trkpt lat="43.623416947633444" lon="10.69900607868492"><ele>103.4</ele><time>2026-04-26T14:50:04Z</time></trkpt><trkpt lat="43.62334262395807" lon="10.699107566697633"><ele>104.2</ele><time>2026-04-26T14:50:06Z</time></trkpt><trkpt lat="43.62329479122756" lon="10.6991719325092"><ele>105.0</ele><time>2026-04-26T14:50:07Z</time></trkpt><trkpt lat="43.623241176272934" lon="10.699243164135021"><ele>105.0</ele><time>2026-04-26T14:50:08Z</time></trkpt><trkpt lat="43.62319074673021" lon="10.699318729871745"><ele>105.0</ele><time>2026-04-26T14:50:09Z</time></trkpt><trkpt lat="43.62314403755421" lon="10.699392802640668"><ele>105.0</ele><time>2026-04-26T14:50:10Z</time></trkpt><trkpt lat="43.62307452639641" lon="10.699484838484189"><ele>105.0</ele><time>2026-04-26T14:50:12Z</time></trkpt><trkpt lat="43.622989647670444" lon="10.699557441411581"><ele>105.0</ele><time>2026-04-26T14:50:14Z</time></trkpt><trkpt lat="43.622880060437005" lon="10.699612819340361"><ele>109.25</ele><time>2026-04-26T14:50:15.999Z</time></trkpt><trkpt lat="43.622763435244025" lon="10.699641484624948"><ele>113.5</ele><time>2026-04-26T14:50:17.999Z</time></trkpt><trkpt lat="43.622650144422956" lon="10.699674346022546"><ele>117.75</ele><time>2026-04-26T14:50:19.999Z</time></trkpt><trkpt lat="43.62254379306279" lon="10.69973167788836"><ele>122.0</ele><time>2026-04-26T14:50:21.999Z</time></trkpt><trkpt lat="43.62242910110329" lon="10.699777600766557"><ele>122.0</ele><time>2026-04-26T14:50:23.999Z</time></trkpt><trkpt lat="43.6223244845249" lon="10.699812733521165"><ele>121.99999999999999</ele><time>2026-04-26T14:50:25.999Z</time></trkpt><trkpt lat="43.622220031504476" lon="10.69986424899675"><ele>121.99999999999999</ele><time>2026-04-26T14:50:27.999Z</time></trkpt><trkpt lat="43.62211780533969" lon="10.69992061883995"><ele>122.0</ele><time>2026-04-26T14:50:29.999Z</time></trkpt><trkpt lat="43.6220110205005" lon="10.699970152187644"><ele>122.0</ele><time>2026-04-26T14:50:31.999Z</time></trkpt><trkpt lat="43.62191610897775" lon="10.699982696636269"><ele>121.8</ele><time>2026-04-26T14:50:33.999Z</time></trkpt><trkpt lat="43.62181968375404" lon="10.699977466603874"><ele>121.6</ele><time>2026-04-26T14:50:35.999Z</time></trkpt><trkpt lat="43.62171851064065" lon="10.699988236175146"><ele>121.39999999999999</ele><time>2026-04-26T14:50:37.999Z</time></trkpt><trkpt lat="43.6216081285582" lon="10.700012997168148"><ele>121.19999999999999</ele><time>2026-04-26T14:50:39.999Z</time></trkpt><trkpt lat="43.62149585026761" lon="10.700067429157764"><ele>121.0</ele><time>2026-04-26T14:50:41.999Z</time></trkpt><trkpt lat="43.62140391603249" lon="10.700158587476537"><ele>121.00000000000001</ele><time>2026-04-26T14:50:43.999Z</time></trkpt><trkpt lat="43.62136488851834" lon="10.700237306884633"><ele>121.0</ele><time>2026-04-26T14:50:44.999Z</time></trkpt><trkpt lat="43.62127071618255" lon="10.70035226226306"><ele>121.0</ele><time>2026-04-26T14:50:46.999Z</time></trkpt><trkpt lat="43.62121307838913" lon="10.700416110893025"><ele>121.0</ele><time>2026-04-26T14:50:47.999Z</time></trkpt><trkpt lat="43.62116657111829" lon="10.700493893484339"><ele>121.00000000000001</ele><time>2026-04-26T14:50:48.999Z</time></trkpt><trkpt lat="43.62110597363955" lon="10.70056104824799"><ele>121.0</ele><time>2026-04-26T14:50:49.999Z</time></trkpt><trkpt lat="43.62105353689541" lon="10.70064381944746"><ele>122.83333333333334</ele><time>2026-04-26T14:50:50.999Z</time></trkpt><trkpt lat="43.62097543125248" lon="10.700752263812626"><ele>124.66666666666667</ele><time>2026-04-26T14:50:52.999Z</time></trkpt><trkpt lat="43.62090681236592" lon="10.700844082053784"><ele>126.5</ele><time>2026-04-26T14:50:54.999Z</time></trkpt><trkpt lat="43.62086423707226" lon="10.70092200765356"><ele>128.33333333333334</ele><time>2026-04-26T14:50:56.999Z</time></trkpt><trkpt lat="43.62077718881025" lon="10.70096570083356"><ele>130.16666666666666</ele><time>2026-04-26T14:51:03.999Z</time></trkpt><trkpt lat="43.62071798289031" lon="10.701021685859647"><ele>132.0</ele><time>2026-04-26T14:51:05.999Z</time></trkpt><trkpt lat="43.62061383730183" lon="10.701080584356168"><ele>132.16666666666666</ele><time>2026-04-26T14:51:08.999Z</time></trkpt><trkpt lat="43.62049983325591" lon="10.701128159026464"><ele>132.33333333333334</ele><time>2026-04-26T14:51:10.999Z</time></trkpt><trkpt lat="43.620434529480384" lon="10.701128852905066"><ele>132.5</ele><time>2026-04-26T14:51:11.999Z</time></trkpt><trkpt lat="43.62036735899225" lon="10.701153949276923"><ele>132.66666666666669</ele><time>2026-04-26T14:51:12.999Z</time></trkpt><trkpt lat="43.620299996956504" lon="10.701176590817804"><ele>132.83333333333334</ele><time>2026-04-26T14:51:13.999Z</time></trkpt><trkpt lat="43.620227775809724" lon="10.701201148756898"><ele>133.0</ele><time>2026-04-26T14:51:14.999Z</time></trkpt><trkpt lat="43.620161950206985" lon="10.701223520975889"><ele>134.71428571428572</ele><time>2026-04-26T14:51:15.999Z</time></trkpt><trkpt lat="43.620093561978194" lon="10.701246614011009"><ele>136.42857142857144</ele><time>2026-04-26T14:51:16.999Z</time></trkpt><trkpt lat="43.62002544180156" lon="10.701269616568586"><ele>138.14285714285714</ele><time>2026-04-26T14:51:18Z</time></trkpt><trkpt lat="43.61995803398912" lon="10.70129237859296"><ele>139.85714285714286</ele><time>2026-04-26T14:51:19Z</time></trkpt><trkpt lat="43.61988772235941" lon="10.701316121161007"><ele>141.57142857142858</ele><time>2026-04-26T14:51:20Z</time></trkpt><trkpt lat="43.61981773661771" lon="10.70133975365855"><ele>143.28571428571428</ele><time>2026-04-26T14:51:21Z</time></trkpt><trkpt lat="43.61975105284585" lon="10.701362271174421"><ele>145.0</ele><time>2026-04-26T14:51:22Z</time></trkpt><trkpt lat="43.61964172559099" lon="10.701401535364472"><ele>145.0</ele><time>2026-04-26T14:51:24Z</time></trkpt><trkpt lat="43.61953831243195" lon="10.701426474688379"><ele>145.0</ele><time>2026-04-26T14:51:26Z</time></trkpt><trkpt lat="43.61946007978674" lon="10.701441097960204"><ele>145.0</ele><time>2026-04-26T14:51:28Z</time></trkpt><trkpt lat="43.61938547346081" lon="10.701466734381887"><ele>145.0</ele><time>2026-04-26T14:51:30Z</time></trkpt><trkpt lat="43.619301316600904" lon="10.701480506471787"><ele>145.0</ele><time>2026-04-26T14:51:32Z</time></trkpt><trkpt lat="43.61922939258948" lon="10.701488889470431"><ele>145.0</ele><time>2026-04-26T14:51:38Z</time></trkpt><trkpt lat="43.61916548708273" lon="10.70150351198815"><ele>145.83333333333334</ele><time>2026-04-26T14:51:40Z</time></trkpt><trkpt lat="43.61908831481164" lon="10.701473200845093"><ele>146.66666666666669</ele><time>2026-04-26T14:51:42Z</time></trkpt><trkpt lat="43.619020743625924" lon="10.701459228499381"><ele>147.5</ele><time>2026-04-26T14:51:44Z</time></trkpt><trkpt lat="43.61892989094776" lon="10.701424629376145"><ele>148.33333333333334</ele><time>2026-04-26T14:51:46Z</time></trkpt><trkpt lat="43.6188668735605" lon="10.701354644277753"><ele>149.16666666666666</ele><time>2026-04-26T14:51:48Z</time></trkpt><trkpt lat="43.61880007540385" lon="10.701273309619742"><ele>150.0</ele><time>2026-04-26T14:51:50Z</time></trkpt><trkpt lat="43.61869951686446" lon="10.701201063690633"><ele>150.0</ele><time>2026-04-26T14:51:52Z</time></trkpt><trkpt lat="43.618654647239474" lon="10.701134426110185"><ele>150.0</ele><time>2026-04-26T14:51:53Z</time></trkpt><trkpt lat="43.61855463874616" lon="10.70105943264369"><ele>150.0</ele><time>2026-04-26T14:51:55Z</time></trkpt><trkpt lat="43.61850023700023" lon="10.701001967144949"><ele>150.0</ele><time>2026-04-26T14:51:56Z</time></trkpt><trkpt lat="43.61845388993675" lon="10.70093729675185"><ele>150.0</ele><time>2026-04-26T14:51:57Z</time></trkpt><trkpt lat="43.61841997932184" lon="10.700846862754917"><ele>150.0</ele><time>2026-04-26T14:51:59Z</time></trkpt><trkpt lat="43.618359549194494" lon="10.700726194738005"><ele>152.6</ele><time>2026-04-26T14:52:01Z</time></trkpt><trkpt lat="43.61830742430369" lon="10.7005757660645"><ele>155.2</ele><time>2026-04-26T14:52:03Z</time></trkpt><trkpt lat="43.61823441870821" lon="10.700497840857963"><ele>157.8</ele><time>2026-04-26T14:52:05Z</time></trkpt><trkpt lat="43.61815022900154" lon="10.700401282156903"><ele>160.4</ele><time>2026-04-26T14:52:07Z</time></trkpt><trkpt lat="43.618086767023854" lon="10.7003873531851"><ele>163.0</ele><time>2026-04-26T14:52:09Z</time></trkpt><trkpt lat="43.61802107704081" lon="10.700393375896326"><ele>163.0</ele><time>2026-04-26T14:52:20Z</time></trkpt><trkpt lat="43.617946362853225" lon="10.700406754985174"><ele>163.0</ele><time>2026-04-26T14:52:38.999Z</time></trkpt><trkpt lat="43.61793076952434" lon="10.700615693878404"><ele>163.0</ele><time>2026-04-26T14:52:44.999Z</time></trkpt><trkpt lat="43.6179190001986" lon="10.700734947788101"><ele>163.0</ele><time>2026-04-26T14:52:46.999Z</time></trkpt><trkpt lat="43.617901574782" lon="10.700863010819534"><ele>163.0</ele><time>2026-04-26T14:52:48.999Z</time></trkpt><trkpt lat="43.61790508008967" lon="10.700991382859062"><ele>162.0</ele><time>2026-04-26T14:52:50.999Z</time></trkpt><trkpt lat="43.61786573234141" lon="10.70110976886205"><ele>161.0</ele><time>2026-04-26T14:52:52.999Z</time></trkpt><trkpt lat="43.617842415976774" lon="10.701245765223698"><ele>160.0</ele><time>2026-04-26T14:52:54.999Z</time></trkpt><trkpt lat="43.61778979630393" lon="10.701365870879483"><ele>159.0</ele><time>2026-04-26T14:52:56.999Z</time></trkpt><trkpt lat="43.617735067737115" lon="10.701484390788307"><ele>158.0</ele><time>2026-04-26T14:52:58.999Z</time></trkpt><trkpt lat="43.61766103322582" lon="10.701623517255586"><ele>156.66666666666666</ele><time>2026-04-26T14:53:00.999Z</time></trkpt><trkpt lat="43.617594467722284" lon="10.701736561265779"><ele>155.33333333333331</ele><time>2026-04-26T14:53:02.999Z</time></trkpt><trkpt lat="43.61754172390921" lon="10.701837874097476"><ele>154.0</ele><time>2026-04-26T14:53:04.999Z</time></trkpt><trkpt lat="43.61749843336537" lon="10.701927602078507"><ele>152.66666666666666</ele><time>2026-04-26T14:53:06.999Z</time></trkpt><trkpt lat="43.617441861171194" lon="10.702007810052065"><ele>151.33333333333334</ele><time>2026-04-26T14:53:08.999Z</time></trkpt><trkpt lat="43.61737872619827" lon="10.702090791585784"><ele>150.0</ele><time>2026-04-26T14:53:11.999Z</time></trkpt><trkpt lat="43.61737977947089" lon="10.702226813266437"><ele>149.66666666666666</ele><time>2026-04-26T14:53:13.999Z</time></trkpt><trkpt lat="43.617357475033934" lon="10.702348087777137"><ele>149.33333333333334</ele><time>2026-04-26T14:53:15.999Z</time></trkpt><trkpt lat="43.617324555365734" lon="10.702449975084141"><ele>149.0</ele><time>2026-04-26T14:53:17.999Z</time></trkpt><trkpt lat="43.61727975609867" lon="10.702561430292867"><ele>148.66666666666669</ele><time>2026-04-26T14:53:19.999Z</time></trkpt><trkpt lat="43.61723908921565" lon="10.702669056403908"><ele>148.33333333333334</ele><time>2026-04-26T14:53:21.999Z</time></trkpt><trkpt lat="43.617256505830966" lon="10.702780330328732"><ele>148.0</ele><time>2026-04-26T14:53:24Z</time></trkpt><trkpt lat="43.61731167888909" lon="10.70291193846563"><ele>146.83333333333334</ele><time>2026-04-26T14:53:26Z</time></trkpt><trkpt lat="43.617396475624965" lon="10.703005938191746"><ele>145.66666666666669</ele><time>2026-04-26T14:53:28Z</time></trkpt><trkpt lat="43.61747243885049" lon="10.703044285112584"><ele>144.5</ele><time>2026-04-26T14:53:30Z</time></trkpt><trkpt lat="43.617527147327856" lon="10.703098680404521"><ele>143.33333333333334</ele><time>2026-04-26T14:53:32Z</time></trkpt><trkpt lat="43.61754690825665" lon="10.703183997083867"><ele>142.16666666666666</ele><time>2026-04-26T14:53:34Z</time></trkpt><trkpt lat="43.61752135673003" lon="10.703308940323506"><ele>141.0</ele><time>2026-04-26T14:53:37Z</time></trkpt><trkpt lat="43.617474242570594" lon="10.703405823161544"><ele>141.0</ele><time>2026-04-26T14:53:39Z</time></trkpt><trkpt lat="43.61741615288612" lon="10.703515397188394"><ele>141.0</ele><time>2026-04-26T14:53:41Z</time></trkpt><trkpt lat="43.617366512917606" lon="10.703639790623297"><ele>141.0</ele><time>2026-04-26T14:53:43Z</time></trkpt><trkpt lat="43.617307940392784" lon="10.703797176705448"><ele>141.0</ele><time>2026-04-26T14:53:45Z</time></trkpt><trkpt lat="43.61727473974595" lon="10.703876021931265"><ele>141.0</ele><time>2026-04-26T14:53:46Z</time></trkpt><trkpt lat="43.61723968558761" lon="10.70395282830725"><ele>140.6</ele><time>2026-04-26T14:53:47Z</time></trkpt><trkpt lat="43.617175975039075" lon="10.704083143106843"><ele>140.2</ele><time>2026-04-26T14:53:49Z</time></trkpt><trkpt lat="43.61712216170175" lon="10.704168154886142"><ele>139.8</ele><time>2026-04-26T14:53:51Z</time></trkpt><trkpt lat="43.61705264749255" lon="10.704243539930962"><ele>139.4</ele><time>2026-04-26T14:53:53Z</time></trkpt><trkpt lat="43.61696907142775" lon="10.704323029264149"><ele>139.0</ele><time>2026-04-26T14:53:55Z</time></trkpt><trkpt lat="43.61685976424285" lon="10.704385772579878"><ele>143.0</ele><time>2026-04-26T14:53:57Z</time></trkpt><trkpt lat="43.61675743655817" lon="10.704460109619967"><ele>147.0</ele><time>2026-04-26T14:53:59Z</time></trkpt><trkpt lat="43.61665458657236" lon="10.704511976925032"><ele>151.0</ele><time>2026-04-26T14:54:01Z</time></trkpt><trkpt lat="43.61655048631975" lon="10.70457218316323"><ele>155.0</ele><time>2026-04-26T14:54:03Z</time></trkpt><trkpt lat="43.61644699125208" lon="10.70464456097643"><ele>155.0</ele><time>2026-04-26T14:54:05Z</time></trkpt><trkpt lat="43.616386456844616" lon="10.704705845494471"><ele>155.0</ele><time>2026-04-26T14:54:06Z</time></trkpt><trkpt lat="43.61633392552646" lon="10.70476344762834"><ele>155.0</ele><time>2026-04-26T14:54:07Z</time></trkpt><trkpt lat="43.61627446578326" lon="10.704836616614553"><ele>155.0</ele><time>2026-04-26T14:54:08Z</time></trkpt><trkpt lat="43.616210316804285" lon="10.704914957835122"><ele>155.0</ele><time>2026-04-26T14:54:09Z</time></trkpt><trkpt lat="43.616154621909914" lon="10.704986938008302"><ele>155.0</ele><time>2026-04-26T14:54:10Z</time></trkpt><trkpt lat="43.616099859684915" lon="10.705058055922855"><ele>156.16666666666666</ele><time>2026-04-26T14:54:12Z</time></trkpt><trkpt lat="43.616052656544724" lon="10.705117093518671"><ele>157.33333333333331</ele><time>2026-04-26T14:54:14Z</time></trkpt><trkpt lat="43.615984108121026" lon="10.705257283512532"><ele>158.5</ele><time>2026-04-26T14:54:16Z</time></trkpt><trkpt lat="43.61593029159959" lon="10.705326833399889"><ele>159.66666666666666</ele><time>2026-04-26T14:54:16.999Z</time></trkpt><trkpt lat="43.61586975348721" lon="10.705404846166454"><ele>160.83333333333334</ele><time>2026-04-26T14:54:17.999Z</time></trkpt><trkpt lat="43.61581378832225" lon="10.705465154654823"><ele>162.0</ele><time>2026-04-26T14:54:18.999Z</time></trkpt><trkpt lat="43.61574949548721" lon="10.705502473315965"><ele>162.0</ele><time>2026-04-26T14:54:19.999Z</time></trkpt><trkpt lat="43.61568566899804" lon="10.705558265536196"><ele>162.0</ele><time>2026-04-26T14:54:20.999Z</time></trkpt><trkpt lat="43.61561932250574" lon="10.705599365944979"><ele>162.0</ele><time>2026-04-26T14:54:21.999Z</time></trkpt><trkpt lat="43.61554379610837" lon="10.705629295792606"><ele>162.0</ele><time>2026-04-26T14:54:22.999Z</time></trkpt><trkpt lat="43.615464099021715" lon="10.705645620738943"><ele>162.0</ele><time>2026-04-26T14:54:23.999Z</time></trkpt><trkpt lat="43.615385962926524" lon="10.705644965124572"><ele>162.0</ele><time>2026-04-26T14:54:24.999Z</time></trkpt><trkpt lat="43.61530483696832" lon="10.705635165939736"><ele>162.16666666666666</ele><time>2026-04-26T14:54:25.999Z</time></trkpt><trkpt lat="43.61521607352142" lon="10.705640348466213"><ele>162.33333333333334</ele><time>2026-04-26T14:54:26.999Z</time></trkpt><trkpt lat="43.6151344591914" lon="10.70564870336234"><ele>162.5</ele><time>2026-04-26T14:54:27.999Z</time></trkpt><trkpt lat="43.61504924002767" lon="10.705651391462219"><ele>162.66666666666669</ele><time>2026-04-26T14:54:28.999Z</time></trkpt><trkpt lat="43.614960481807714" lon="10.705653679526698"><ele>162.83333333333334</ele><time>2026-04-26T14:54:29.999Z</time></trkpt><trkpt lat="43.61487627494682" lon="10.705642199831008"><ele>163.0</ele><time>2026-04-26T14:54:30.999Z</time></trkpt><trkpt lat="43.61479915771112" lon="10.705632599515562"><ele>163.0</ele><time>2026-04-26T14:54:31.999Z</time></trkpt><trkpt lat="43.6147281437312" lon="10.70562409817203"><ele>163.0</ele><time>2026-04-26T14:54:32.999Z</time></trkpt><trkpt lat="43.61466530769512" lon="10.705597315939862"><ele>163.0</ele><time>2026-04-26T14:54:33.999Z</time></trkpt><trkpt lat="43.6145637144516" lon="10.705543489499847"><ele>163.0</ele><time>2026-04-26T14:54:35.999Z</time></trkpt><trkpt lat="43.614478285349584" lon="10.705514036364969"><ele>163.0</ele><time>2026-04-26T14:54:37.999Z</time></trkpt><trkpt lat="43.61439715937162" lon="10.705458717613196"><ele>163.0</ele><time>2026-04-26T14:54:39.999Z</time></trkpt><trkpt lat="43.614306831070394" lon="10.705437771786825"><ele>160.6</ele><time>2026-04-26T14:54:41.999Z</time></trkpt><trkpt lat="43.61424045573582" lon="10.70552673912916"><ele>158.20000000000002</ele><time>2026-04-26T14:54:43.999Z</time></trkpt><trkpt lat="43.614234323999995" lon="10.705673649641188"><ele>155.8</ele><time>2026-04-26T14:54:45.999Z</time></trkpt><trkpt lat="43.61422290098783" lon="10.70584984225644"><ele>153.4</ele><time>2026-04-26T14:54:47.999Z</time></trkpt><trkpt lat="43.61419459852821" lon="10.705949120742183"><ele>151.0</ele><time>2026-04-26T14:54:48.999Z</time></trkpt><trkpt lat="43.614157374194534" lon="10.706047678251592"><ele>152.5</ele><time>2026-04-26T14:54:49.999Z</time></trkpt><trkpt lat="43.61411276114399" lon="10.706136753607838"><ele>154.0</ele><time>2026-04-26T14:54:50.999Z</time></trkpt><trkpt lat="43.61405689351005" lon="10.706238749131067"><ele>155.5</ele><time>2026-04-26T14:54:51.999Z</time></trkpt><trkpt lat="43.613995118838446" lon="10.706344824301132"><ele>157.0</ele><time>2026-04-26T14:54:52.999Z</time></trkpt><trkpt lat="43.61392714339289" lon="10.706436854643156"><ele>158.5</ele><time>2026-04-26T14:54:53.999Z</time></trkpt><trkpt lat="43.613868099985496" lon="10.70651299709561"><ele>160.0</ele><time>2026-04-26T14:54:54.999Z</time></trkpt><trkpt lat="43.61382390946075" lon="10.706576332433462"><ele>160.0</ele><time>2026-04-26T14:54:55.999Z</time></trkpt><trkpt lat="43.61370998788873" lon="10.70665321831205"><ele>160.0</ele><time>2026-04-26T14:54:57.999Z</time></trkpt><trkpt lat="43.613631265183486" lon="10.706667518933012"><ele>160.0</ele><time>2026-04-26T14:54:58.999Z</time></trkpt><trkpt lat="43.613534631798295" lon="10.706653088079253"><ele>160.0</ele><time>2026-04-26T14:54:59.999Z</time></trkpt><trkpt lat="43.6134391173551" lon="10.706680775886063"><ele>160.0</ele><time>2026-04-26T14:55:00.999Z</time></trkpt><trkpt lat="43.61334232718614" lon="10.706711906296187"><ele>158.2</ele><time>2026-04-26T14:55:01.999Z</time></trkpt><trkpt lat="43.61319883473723" lon="10.706733418470103"><ele>156.4</ele><time>2026-04-26T14:55:02.999Z</time></trkpt><trkpt lat="43.61309334780496" lon="10.706771493416072"><ele>154.6</ele><time>2026-04-26T14:55:03.999Z</time></trkpt><trkpt lat="43.61302460700357" lon="10.7067909165766"><ele>152.8</ele><time>2026-04-26T14:55:04.999Z</time></trkpt><trkpt lat="43.61295445239139" lon="10.706812449510922"><ele>151.0</ele><time>2026-04-26T14:55:05.999Z</time></trkpt><trkpt lat="43.61285497375566" lon="10.706864152242478"><ele>151.6</ele><time>2026-04-26T14:55:07.999Z</time></trkpt><trkpt lat="43.612787340410954" lon="10.706886231660752"><ele>152.2</ele><time>2026-04-26T14:55:11.999Z</time></trkpt><trkpt lat="43.612841852404486" lon="10.707068243227079"><ele>152.8</ele><time>2026-04-26T14:55:14.999Z</time></trkpt><trkpt lat="43.61288662528032" lon="10.707153588373618"><ele>153.4</ele><time>2026-04-26T14:55:15.999Z</time></trkpt><trkpt lat="43.612900138373305" lon="10.70726972678008"><ele>154.0</ele><time>2026-04-26T14:55:16.999Z</time></trkpt><trkpt lat="43.61291529653375" lon="10.707389978861196"><ele>154.33333333333334</ele><time>2026-04-26T14:55:17.999Z</time></trkpt><trkpt lat="43.612914707492884" lon="10.707521728799305"><ele>154.66666666666669</ele><time>2026-04-26T14:55:18.999Z</time></trkpt><trkpt lat="43.61290220843021" lon="10.707647415935535"><ele>155.0</ele><time>2026-04-26T14:55:19.999Z</time></trkpt><trkpt lat="43.612915918281736" lon="10.707751640923348"><ele>155.33333333333334</ele><time>2026-04-26T14:55:20.999Z</time></trkpt><trkpt lat="43.6129546815508" lon="10.707849268764454"><ele>155.66666666666666</ele><time>2026-04-26T14:55:21.999Z</time></trkpt><trkpt lat="43.61301248435761" lon="10.707939762237809"><ele>156.0</ele><time>2026-04-26T14:55:22.999Z</time></trkpt><trkpt lat="43.61310283840218" lon="10.708051411424616"><ele>156.0</ele><time>2026-04-26T14:55:23.999Z</time></trkpt><trkpt lat="43.613190940079285" lon="10.708196153418136"><ele>156.0</ele><time>2026-04-26T14:55:24.999Z</time></trkpt><trkpt lat="43.61328506818386" lon="10.708356600450061"><ele>156.0</ele><time>2026-04-26T14:55:25.999Z</time></trkpt><trkpt lat="43.613384924001366" lon="10.708526229372632"><ele>156.0</ele><time>2026-04-26T14:55:26.999Z</time></trkpt><trkpt lat="43.61347980483418" lon="10.708684781881193"><ele>156.25</ele><time>2026-04-26T14:55:27.999Z</time></trkpt><trkpt lat="43.61357148733086" lon="10.708835752005282"><ele>156.5</ele><time>2026-04-26T14:55:28.999Z</time></trkpt><trkpt lat="43.613656996247265" lon="10.708983303612557"><ele>156.75</ele><time>2026-04-26T14:55:30Z</time></trkpt><trkpt lat="43.61372493435412" lon="10.709137425662982"><ele>157.0</ele><time>2026-04-26T14:55:31Z</time></trkpt><trkpt lat="43.61377247701024" lon="10.709307658145647"><ele>154.25</ele><time>2026-04-26T14:55:32Z</time></trkpt><trkpt lat="43.61381080896806" lon="10.709481755752424"><ele>151.5</ele><time>2026-04-26T14:55:33Z</time></trkpt><trkpt lat="43.613859642296866" lon="10.709643562959387"><ele>148.75</ele><time>2026-04-26T14:55:34Z</time></trkpt><trkpt lat="43.61391462224157" lon="10.709800845747353"><ele>146.0</ele><time>2026-04-26T14:55:35Z</time></trkpt><trkpt lat="43.61397194864094" lon="10.709957333862025"><ele>146.0</ele><time>2026-04-26T14:55:36Z</time></trkpt><trkpt lat="43.614029804571864" lon="10.71011642895589"><ele>146.0</ele><time>2026-04-26T14:55:37Z</time></trkpt><trkpt lat="43.61408390822257" lon="10.710270095078855"><ele>146.0</ele><time>2026-04-26T14:55:38Z</time></trkpt><trkpt lat="43.61413364341897" lon="10.710432294699139"><ele>146.0</ele><time>2026-04-26T14:55:39Z</time></trkpt><trkpt lat="43.61419307958612" lon="10.71058812846651"><ele>144.0</ele><time>2026-04-26T14:55:40Z</time></trkpt><trkpt lat="43.61425103138587" lon="10.710739838125685"><ele>142.0</ele><time>2026-04-26T14:55:41Z</time></trkpt><trkpt lat="43.61431103840825" lon="10.710885805114366"><ele>140.0</ele><time>2026-04-26T14:55:42Z</time></trkpt><trkpt lat="43.61437289198203" lon="10.711021077876179"><ele>138.0</ele><time>2026-04-26T14:55:43Z</time></trkpt><trkpt lat="43.61443063546958" lon="10.711134268104074"><ele>138.6</ele><time>2026-04-26T14:55:44Z</time></trkpt><trkpt lat="43.614523012699394" lon="10.71124306808352"><ele>139.20000000000002</ele><time>2026-04-26T14:55:45Z</time></trkpt><trkpt lat="43.61460094878323" lon="10.711344593096015"><ele>139.8</ele><time>2026-04-26T14:55:46Z</time></trkpt><trkpt lat="43.61466348959617" lon="10.711443442259217"><ele>140.4</ele><time>2026-04-26T14:55:47Z</time></trkpt><trkpt lat="43.61472451510761" lon="10.711540580994924"><ele>141.0</ele><time>2026-04-26T14:55:48Z</time></trkpt><trkpt lat="43.61478463287274" lon="10.711621521918564"><ele>141.0</ele><time>2026-04-26T14:55:49Z</time></trkpt><trkpt lat="43.61483908302552" lon="10.71170049148028"><ele>141.0</ele><time>2026-04-26T14:55:50Z</time></trkpt><trkpt lat="43.61488307415479" lon="10.711772750696207"><ele>141.0</ele><time>2026-04-26T14:55:51Z</time></trkpt><trkpt lat="43.61495871969156" lon="10.711889186438759"><ele>141.0</ele><time>2026-04-26T14:55:53Z</time></trkpt><trkpt lat="43.61500909284413" lon="10.711973095628226"><ele>141.0</ele><time>2026-04-26T14:55:55Z</time></trkpt><trkpt lat="43.615069346064196" lon="10.712094710653128"><ele>141.0</ele><time>2026-04-26T14:55:57Z</time></trkpt><trkpt lat="43.61510989889718" lon="10.712167337248305"><ele>141.57142857142858</ele><time>2026-04-26T14:55:58Z</time></trkpt><trkpt lat="43.615148698750865" lon="10.712250152158449"><ele>142.14285714285714</ele><time>2026-04-26T14:55:59Z</time></trkpt><trkpt lat="43.615190737509494" lon="10.712335103471542"><ele>142.71428571428572</ele><time>2026-04-26T14:56:00Z</time></trkpt><trkpt lat="43.61523388172183" lon="10.712416110090436"><ele>143.28571428571428</ele><time>2026-04-26T14:56:01Z</time></trkpt><trkpt lat="43.61527988047806" lon="10.712496895702623"><ele>143.85714285714286</ele><time>2026-04-26T14:56:02Z</time></trkpt><trkpt lat="43.61533166123894" lon="10.712575415026997"><ele>144.42857142857144</ele><time>2026-04-26T14:56:03Z</time></trkpt><trkpt lat="43.61538497090481" lon="10.712655404751574"><ele>145.0</ele><time>2026-04-26T14:56:04Z</time></trkpt><trkpt lat="43.615438636156654" lon="10.712737208582794"><ele>146.66666666666669</ele><time>2026-04-26T14:56:05Z</time></trkpt><trkpt lat="43.615497690780735" lon="10.712811406766203"><ele>148.33333333333334</ele><time>2026-04-26T14:56:06Z</time></trkpt><trkpt lat="43.61556316398452" lon="10.712888674315446"><ele>150.0</ele><time>2026-04-26T14:56:07Z</time></trkpt><trkpt lat="43.61562770139939" lon="10.712965957875033"><ele>151.66666666666666</ele><time>2026-04-26T14:56:08Z</time></trkpt><trkpt lat="43.6156871264177" lon="10.71306543733041"><ele>153.33333333333331</ele><time>2026-04-26T14:56:09Z</time></trkpt><trkpt lat="43.615746242795396" lon="10.713158730987233"><ele>155.0</ele><time>2026-04-26T14:56:10Z</time></trkpt><trkpt lat="43.615806830522544" lon="10.713250772414565"><ele>155.0</ele><time>2026-04-26T14:56:11Z</time></trkpt><trkpt lat="43.6158641854774" lon="10.71334436834158"><ele>155.0</ele><time>2026-04-26T14:56:12Z</time></trkpt><trkpt lat="43.6159162920263" lon="10.713444135408249"><ele>155.0</ele><time>2026-04-26T14:56:13Z</time></trkpt><trkpt lat="43.615964046296185" lon="10.713545251418559"><ele>155.0</ele><time>2026-04-26T14:56:14Z</time></trkpt><trkpt lat="43.616011871965476" lon="10.713652089264125"><ele>155.0</ele><time>2026-04-26T14:56:15Z</time></trkpt><trkpt lat="43.6160610044539" lon="10.713763241542793"><ele>154.0</ele><time>2026-04-26T14:56:16Z</time></trkpt><trkpt lat="43.616114399443006" lon="10.713876009511903"><ele>153.0</ele><time>2026-04-26T14:56:17Z</time></trkpt><trkpt lat="43.61617143610673" lon="10.71399802527694"><ele>152.0</ele><time>2026-04-26T14:56:18Z</time></trkpt><trkpt lat="43.616226295754814" lon="10.714132118694424"><ele>151.0</ele><time>2026-04-26T14:56:18.999Z</time></trkpt><trkpt lat="43.61628283307182" lon="10.71427437813968"><ele>150.0</ele><time>2026-04-26T14:56:19.999Z</time></trkpt><trkpt lat="43.61633876130929" lon="10.714419245959522"><ele>150.0</ele><time>2026-04-26T14:56:20.999Z</time></trkpt><trkpt lat="43.61640108784581" lon="10.714557728007474"><ele>150.0</ele><time>2026-04-26T14:56:21.999Z</time></trkpt><trkpt lat="43.61646259747886" lon="10.714687270798212"><ele>150.0</ele><time>2026-04-26T14:56:22.999Z</time></trkpt><trkpt lat="43.61652298173295" lon="10.714812825288124"><ele>150.0</ele><time>2026-04-26T14:56:23.999Z</time></trkpt><trkpt lat="43.616598631171094" lon="10.714931546402251"><ele>150.0</ele><time>2026-04-26T14:56:24.999Z</time></trkpt><trkpt lat="43.616673456175164" lon="10.715037095504336"><ele>150.0</ele><time>2026-04-26T14:56:25.999Z</time></trkpt><trkpt lat="43.61675611536477" lon="10.71513146392542"><ele>150.0</ele><time>2026-04-26T14:56:26.999Z</time></trkpt><trkpt lat="43.61682886201926" lon="10.715217114933617"><ele>150.0</ele><time>2026-04-26T14:56:27.999Z</time></trkpt><trkpt lat="43.616896081541135" lon="10.715312611582764"><ele>150.0</ele><time>2026-04-26T14:56:28.999Z</time></trkpt><trkpt lat="43.61694976916372" lon="10.715397413445134"><ele>149.66666666666666</ele><time>2026-04-26T14:56:29.999Z</time></trkpt><trkpt lat="43.61700249880548" lon="10.715482172899943"><ele>149.33333333333334</ele><time>2026-04-26T14:56:31.999Z</time></trkpt><trkpt lat="43.617018857874726" lon="10.715567618848425"><ele>149.0</ele><time>2026-04-26T14:56:32.999Z</time></trkpt><trkpt lat="43.61703859558354" lon="10.715681026877252"><ele>148.66666666666669</ele><time>2026-04-26T14:56:33.999Z</time></trkpt><trkpt lat="43.61705162717371" lon="10.715812007481114"><ele>148.33333333333334</ele><time>2026-04-26T14:56:34.999Z</time></trkpt><trkpt lat="43.617041476710014" lon="10.715957460973222"><ele>148.0</ele><time>2026-04-26T14:56:35.999Z</time></trkpt><trkpt lat="43.61701827341481" lon="10.71610907648921"><ele>147.0</ele><time>2026-04-26T14:56:36.999Z</time></trkpt><trkpt lat="43.6169839454901" lon="10.716270191783131"><ele>146.0</ele><time>2026-04-26T14:56:37.999Z</time></trkpt><trkpt lat="43.61693557537484" lon="10.716428268999637"><ele>145.0</ele><time>2026-04-26T14:56:38.999Z</time></trkpt><trkpt lat="43.616880802008005" lon="10.716602107521844"><ele>144.0</ele><time>2026-04-26T14:56:39.999Z</time></trkpt><trkpt lat="43.61682759785306" lon="10.716769982172217"><ele>144.25</ele><time>2026-04-26T14:56:40.999Z</time></trkpt><trkpt lat="43.61676893993957" lon="10.716939520766795"><ele>144.5</ele><time>2026-04-26T14:56:41.999Z</time></trkpt><trkpt lat="43.61670939651588" lon="10.717111163134431"><ele>144.75</ele><time>2026-04-26T14:56:42.999Z</time></trkpt><trkpt lat="43.6166557474666" lon="10.717261298056597"><ele>145.0</ele><time>2026-04-26T14:56:43.999Z</time></trkpt><trkpt lat="43.616614225837345" lon="10.717389651297822"><ele>145.0</ele><time>2026-04-26T14:56:44.999Z</time></trkpt><trkpt lat="43.616602805770704" lon="10.717537990439308"><ele>145.0</ele><time>2026-04-26T14:56:45.999Z</time></trkpt><trkpt lat="43.616609808738744" lon="10.71771190508992"><ele>145.0</ele><time>2026-04-26T14:56:46.999Z</time></trkpt><trkpt lat="43.6166094863882" lon="10.717899521974905"><ele>145.0</ele><time>2026-04-26T14:56:47.999Z</time></trkpt><trkpt lat="43.61659138162514" lon="10.718093996802418"><ele>145.0</ele><time>2026-04-26T14:56:48.999Z</time></trkpt><trkpt lat="43.61654300962294" lon="10.718286716772594"><ele>145.0</ele><time>2026-04-26T14:56:49.999Z</time></trkpt><trkpt lat="43.61647146294809" lon="10.718457004961556"><ele>145.0</ele><time>2026-04-26T14:56:50.999Z</time></trkpt><trkpt lat="43.61639762488902" lon="10.718600378990535"><ele>145.0</ele><time>2026-04-26T14:56:51.999Z</time></trkpt><trkpt lat="43.61634167602933" lon="10.718740448158632"><ele>145.0</ele><time>2026-04-26T14:56:52.999Z</time></trkpt><trkpt lat="43.61631313141255" lon="10.718867016296622"><ele>145.0</ele><time>2026-04-26T14:56:53.999Z</time></trkpt><trkpt lat="43.61632160959306" lon="10.718997546756738"><ele>145.0</ele><time>2026-04-26T14:56:54.999Z</time></trkpt><trkpt lat="43.61635685021519" lon="10.719136212032762"><ele>145.0</ele><time>2026-04-26T14:56:55.999Z</time></trkpt><trkpt lat="43.61638127590243" lon="10.719284549003044"><ele>145.0</ele><time>2026-04-26T14:56:56.999Z</time></trkpt><trkpt lat="43.616389686934454" lon="10.719464352071636"><ele>144.25</ele><time>2026-04-26T14:56:57.999Z</time></trkpt><trkpt lat="43.61640228238962" lon="10.719653471281958"><ele>143.5</ele><time>2026-04-26T14:56:58.999Z</time></trkpt><trkpt lat="43.61644275046105" lon="10.719844958731123"><ele>142.75</ele><time>2026-04-26T14:56:59.999Z</time></trkpt><trkpt lat="43.61648638764675" lon="10.720006014021463"><ele>142.0</ele><time>2026-04-26T14:57:00.999Z</time></trkpt><trkpt lat="43.616521768597245" lon="10.720105450865585"><ele>142.0</ele><time>2026-04-26T14:57:01.999Z</time></trkpt><trkpt lat="43.61658276495462" lon="10.720166200302074"><ele>142.0</ele><time>2026-04-26T14:57:03.999Z</time></trkpt><trkpt lat="43.6166988606441" lon="10.720176382168008"><ele>142.0</ele><time>2026-04-26T14:57:07.999Z</time></trkpt><trkpt lat="43.61677171602728" lon="10.720166804536651"><ele>142.0</ele><time>2026-04-26T14:57:08.999Z</time></trkpt><trkpt lat="43.61685651532314" lon="10.72018049808064"><ele>142.0</ele><time>2026-04-26T14:57:09.999Z</time></trkpt><trkpt lat="43.61695412604851" lon="10.720170769519603"><ele>142.0</ele><time>2026-04-26T14:57:10.999Z</time></trkpt><trkpt lat="43.61705960759135" lon="10.720160256503057"><ele>142.75</ele><time>2026-04-26T14:57:11.999Z</time></trkpt><trkpt lat="43.61717028471228" lon="10.72014923849335"><ele>143.5</ele><time>2026-04-26T14:57:12.999Z</time></trkpt><trkpt lat="43.617289534258155" lon="10.720137446721099"><ele>144.25</ele><time>2026-04-26T14:57:13.999Z</time></trkpt><trkpt lat="43.61741048454194" lon="10.720125486766234"><ele>145.0</ele><time>2026-04-26T14:57:14.999Z</time></trkpt><trkpt lat="43.61753793027691" lon="10.720113095640476"><ele>145.0</ele><time>2026-04-26T14:57:15.999Z</time></trkpt><trkpt lat="43.61767034443066" lon="10.720078702487358"><ele>145.0</ele><time>2026-04-26T14:57:16.999Z</time></trkpt><trkpt lat="43.6178072927555" lon="10.720069743001275"><ele>145.0</ele><time>2026-04-26T14:57:17.999Z</time></trkpt><trkpt lat="43.61795205848722" lon="10.720065235643364"><ele>145.0</ele><time>2026-04-26T14:57:18.999Z</time></trkpt><trkpt lat="43.61810192399961" lon="10.720049408664257"><ele>145.75</ele><time>2026-04-26T14:57:19.999Z</time></trkpt><trkpt lat="43.6182588669145" lon="10.720031777964449"><ele>146.5</ele><time>2026-04-26T14:57:20.999Z</time></trkpt><trkpt lat="43.61840339709684" lon="10.720018729183463"><ele>147.25</ele><time>2026-04-26T14:57:21.999Z</time></trkpt><trkpt lat="43.618526317071186" lon="10.7200110160795"><ele>148.0</ele><time>2026-04-26T14:57:22.999Z</time></trkpt><trkpt lat="43.61863042767203" lon="10.720001979486417"><ele>148.66666666666669</ele><time>2026-04-26T14:57:23.999Z</time></trkpt><trkpt lat="43.61871686179145" lon="10.719991278016485"><ele>149.33333333333334</ele><time>2026-04-26T14:57:24.999Z</time></trkpt><trkpt lat="43.618785835901974" lon="10.719988128046559"><ele>150.0</ele><time>2026-04-26T14:57:25.999Z</time></trkpt><trkpt lat="43.6188472725268" lon="10.720008213670653"><ele>150.66666666666666</ele><time>2026-04-26T14:57:26.999Z</time></trkpt><trkpt lat="43.61895413710591" lon="10.720037359023841"><ele>151.33333333333331</ele><time>2026-04-26T14:57:28.999Z</time></trkpt><trkpt lat="43.61887681767158" lon="10.720109602202479"><ele>152.0</ele><time>2026-04-26T14:57:29.999Z</time></trkpt><trkpt lat="43.61887046655772" lon="10.720196553582925"><ele>151.0</ele><time>2026-04-26T14:57:30.999Z</time></trkpt><trkpt lat="43.61887856770103" lon="10.720311565422968"><ele>150.0</ele><time>2026-04-26T14:57:31.999Z</time></trkpt><trkpt lat="43.61885947820623" lon="10.720444018808639"><ele>149.0</ele><time>2026-04-26T14:57:32.999Z</time></trkpt><trkpt lat="43.61884337509147" lon="10.720578407753184"><ele>148.0</ele><time>2026-04-26T14:57:33.998Z</time></trkpt><trkpt lat="43.618822620169034" lon="10.720693231793382"><ele>147.0</ele><time>2026-04-26T14:57:34.998Z</time></trkpt><trkpt lat="43.61878917126497" lon="10.720809009525286"><ele>147.0</ele><time>2026-04-26T14:57:36Z</time></trkpt><trkpt lat="43.61875015921858" lon="10.720891029409009"><ele>147.0</ele><time>2026-04-26T14:57:37Z</time></trkpt><trkpt lat="43.61868491300554" lon="10.721028832166263"><ele>147.0</ele><time>2026-04-26T14:57:39Z</time></trkpt><trkpt lat="43.61860904891779" lon="10.721190456091177"><ele>147.0</ele><time>2026-04-26T14:57:41Z</time></trkpt><trkpt lat="43.61858734477981" lon="10.721301459805652"><ele>147.0</ele><time>2026-04-26T14:57:42Z</time></trkpt><trkpt lat="43.61858264877206" lon="10.721419773507636"><ele>146.66666666666666</ele><time>2026-04-26T14:57:43Z</time></trkpt><trkpt lat="43.618597457158714" lon="10.721542629447233"><ele>146.33333333333334</ele><time>2026-04-26T14:57:44Z</time></trkpt><trkpt lat="43.61861952242099" lon="10.721658490290192"><ele>146.0</ele><time>2026-04-26T14:57:45Z</time></trkpt><trkpt lat="43.618646308603395" lon="10.721777696487198"><ele>145.66666666666669</ele><time>2026-04-26T14:57:46Z</time></trkpt><trkpt lat="43.618671298896935" lon="10.72189546428507"><ele>145.33333333333334</ele><time>2026-04-26T14:57:47Z</time></trkpt><trkpt lat="43.61869697419132" lon="10.722007109071729"><ele>145.0</ele><time>2026-04-26T14:57:48Z</time></trkpt><trkpt lat="43.61871316393006" lon="10.722129675688178"><ele>146.6</ele><time>2026-04-26T14:57:49Z</time></trkpt><trkpt lat="43.61872934517803" lon="10.722249637592931"><ele>148.2</ele><time>2026-04-26T14:57:50Z</time></trkpt><trkpt lat="43.618756662601676" lon="10.722365581900544"><ele>149.8</ele><time>2026-04-26T14:57:51Z</time></trkpt><trkpt lat="43.618796234725934" lon="10.722460514290509"><ele>151.4</ele><time>2026-04-26T14:57:52Z</time></trkpt><trkpt lat="43.6188630481545" lon="10.722619906569832"><ele>153.0</ele><time>2026-04-26T14:57:54Z</time></trkpt><trkpt lat="43.618904266667215" lon="10.72272402713946"><ele>152.83333333333334</ele><time>2026-04-26T14:57:55Z</time></trkpt><trkpt lat="43.618934975909646" lon="10.722824749591613"><ele>152.66666666666666</ele><time>2026-04-26T14:57:56Z</time></trkpt><trkpt lat="43.618950802114284" lon="10.72293575498851"><ele>152.5</ele><time>2026-04-26T14:57:57Z</time></trkpt><trkpt lat="43.61895509441995" lon="10.72305608712066"><ele>152.33333333333331</ele><time>2026-04-26T14:57:58Z</time></trkpt><trkpt lat="43.61892882866347" lon="10.723180630920524"><ele>152.16666666666666</ele><time>2026-04-26T14:57:59Z</time></trkpt><trkpt lat="43.61888831942374" lon="10.7232859897089"><ele>152.0</ele><time>2026-04-26T14:58:00Z</time></trkpt><trkpt lat="43.61884188356744" lon="10.723351825563647"><ele>152.0</ele><time>2026-04-26T14:58:01Z</time></trkpt><trkpt lat="43.61873951249012" lon="10.723451680941888"><ele>152.0</ele><time>2026-04-26T14:58:03Z</time></trkpt><trkpt lat="43.61866925233282" lon="10.723498152111842"><ele>152.0</ele><time>2026-04-26T14:58:04Z</time></trkpt><trkpt lat="43.61858855154819" lon="10.723537592561614"><ele>152.0</ele><time>2026-04-26T14:58:05Z</time></trkpt><trkpt lat="43.61849970931266" lon="10.723559785560228"><ele>152.0</ele><time>2026-04-26T14:58:06Z</time></trkpt><trkpt lat="43.61840079518456" lon="10.72358201392998"><ele>153.6</ele><time>2026-04-26T14:58:07Z</time></trkpt><trkpt lat="43.61830173325293" lon="10.723612341351677"><ele>155.2</ele><time>2026-04-26T14:58:08Z</time></trkpt><trkpt lat="43.61820374954874" lon="10.723658741066066"><ele>156.8</ele><time>2026-04-26T14:58:09Z</time></trkpt><trkpt lat="43.61810939951099" lon="10.723723119550922"><ele>158.4</ele><time>2026-04-26T14:58:10Z</time></trkpt><trkpt lat="43.618018430230585" lon="10.723814708580377"><ele>160.0</ele><time>2026-04-26T14:58:11Z</time></trkpt><trkpt lat="43.61793818716516" lon="10.723933804408428"><ele>160.0</ele><time>2026-04-26T14:58:11.999Z</time></trkpt><trkpt lat="43.61786424946744" lon="10.724066309154974"><ele>160.0</ele><time>2026-04-26T14:58:12.999Z</time></trkpt><trkpt lat="43.61778773863099" lon="10.724206922648843"><ele>160.0</ele><time>2026-04-26T14:58:13.999Z</time></trkpt><trkpt lat="43.617715241315416" lon="10.724367046844348"><ele>160.0</ele><time>2026-04-26T14:58:14.999Z</time></trkpt><trkpt lat="43.61764566020766" lon="10.724541452216885"><ele>155.66666666666669</ele><time>2026-04-26T14:58:15.999Z</time></trkpt><trkpt lat="43.61758920520288" lon="10.724737615065607"><ele>151.33333333333334</ele><time>2026-04-26T14:58:16.999Z</time></trkpt><trkpt lat="43.617553943309034" lon="10.724950812955006"><ele>147.0</ele><time>2026-04-26T14:58:17.999Z</time></trkpt><trkpt lat="43.61754600514656" lon="10.725176617293888"><ele>146.75</ele><time>2026-04-26T14:58:18.999Z</time></trkpt><trkpt lat="43.61756684155354" lon="10.725384469125844"><ele>146.5</ele><time>2026-04-26T14:58:19.999Z</time></trkpt><trkpt lat="43.61761442598534" lon="10.72557646347391"><ele>146.25</ele><time>2026-04-26T14:58:20.999Z</time></trkpt><trkpt lat="43.61762667953302" lon="10.725760120771419"><ele>146.0</ele><time>2026-04-26T14:58:21.999Z</time></trkpt><trkpt lat="43.61761997339359" lon="10.725951816208347"><ele>145.66666666666666</ele><time>2026-04-26T14:58:22.999Z</time></trkpt><trkpt lat="43.61757686820914" lon="10.726152084669302"><ele>145.33333333333334</ele><time>2026-04-26T14:58:23.999Z</time></trkpt><trkpt lat="43.61752194248093" lon="10.72636454999214"><ele>145.0</ele><time>2026-04-26T14:58:24.999Z</time></trkpt><trkpt lat="43.61748366103211" lon="10.726586302602206"><ele>145.0</ele><time>2026-04-26T14:58:25.999Z</time></trkpt><trkpt lat="43.61743535150669" lon="10.726813203898757"><ele>145.0</ele><time>2026-04-26T14:58:26.999Z</time></trkpt><trkpt lat="43.61741417122251" lon="10.727058418841864"><ele>145.0</ele><time>2026-04-26T14:58:27.999Z</time></trkpt><trkpt lat="43.617406656188194" lon="10.727316671556737"><ele>146.0</ele><time>2026-04-26T14:58:28.999Z</time></trkpt><trkpt lat="43.61740688945028" lon="10.727534952725058"><ele>147.0</ele><time>2026-04-26T14:58:29.999Z</time></trkpt><trkpt lat="43.6174115729549" lon="10.727713155958359"><ele>148.0</ele><time>2026-04-26T14:58:30.999Z</time></trkpt><trkpt lat="43.61742646847311" lon="10.72787259908316"><ele>149.0</ele><time>2026-04-26T14:58:31.999Z</time></trkpt><trkpt lat="43.61745233086167" lon="10.728025009014166"><ele>149.2</ele><time>2026-04-26T14:58:32.999Z</time></trkpt><trkpt lat="43.617489176149434" lon="10.728158225257944"><ele>149.4</ele><time>2026-04-26T14:58:33.999Z</time></trkpt><trkpt lat="43.617526369242015" lon="10.72827430906261"><ele>149.6</ele><time>2026-04-26T14:58:34.999Z</time></trkpt><trkpt lat="43.617574791558695" lon="10.728360436651204"><ele>149.8</ele><time>2026-04-26T14:58:35.999Z</time></trkpt><trkpt lat="43.61760556184929" lon="10.728451861944599"><ele>150.0</ele><time>2026-04-26T14:58:36.999Z</time></trkpt><trkpt lat="43.61771614157945" lon="10.72841452054605"><ele>150.0</ele><time>2026-04-26T14:58:38.999Z</time></trkpt><trkpt lat="43.61779367109464" lon="10.728411580405854"><ele>150.0</ele><time>2026-04-26T14:58:40.999Z</time></trkpt><trkpt lat="43.617870602869566" lon="10.728377862317592"><ele>150.0</ele><time>2026-04-26T14:58:42.999Z</time></trkpt><trkpt lat="43.61795047481776" lon="10.728362673123096"><ele>150.0</ele><time>2026-04-26T14:58:44.999Z</time></trkpt><trkpt lat="43.61802532675207" lon="10.728355176996029"><ele>150.0</ele><time>2026-04-26T14:58:46.999Z</time></trkpt><trkpt lat="43.61809776182704" lon="10.728339155183697"><ele>150.0</ele><time>2026-04-26T14:59:19.999Z</time></trkpt><trkpt lat="43.61819435777956" lon="10.728359235433068"><ele>150.33333333333334</ele><time>2026-04-26T14:59:21.999Z</time></trkpt><trkpt lat="43.61826305000251" lon="10.728372854155605"><ele>150.66666666666666</ele><time>2026-04-26T14:59:22.999Z</time></trkpt><trkpt lat="43.618341826025166" lon="10.728393866214631"><ele>151.0</ele><time>2026-04-26T14:59:23.998Z</time></trkpt><trkpt lat="43.618420248335774" lon="10.728413242890277"><ele>151.33333333333331</ele><time>2026-04-26T14:59:24.998Z</time></trkpt><trkpt lat="43.61850262341161" lon="10.728435228795055"><ele>151.66666666666666</ele><time>2026-04-26T14:59:25.998Z</time></trkpt><trkpt lat="43.618582982996976" lon="10.728452736078257"><ele>152.0</ele><time>2026-04-26T14:59:26.998Z</time></trkpt><trkpt lat="43.618656629006345" lon="10.728456398917286"><ele>152.6</ele><time>2026-04-26T14:59:27.998Z</time></trkpt><trkpt lat="43.6187271745951" lon="10.728478758999506"><ele>153.2</ele><time>2026-04-26T14:59:28.998Z</time></trkpt><trkpt lat="43.61883535185132" lon="10.728499473391336"><ele>153.8</ele><time>2026-04-26T14:59:30.998Z</time></trkpt><trkpt lat="43.6189462266421" lon="10.728484465547222"><ele>154.4</ele><time>2026-04-26T14:59:32.998Z</time></trkpt><trkpt lat="43.619035995400196" lon="10.728445057130935"><ele>155.0</ele><time>2026-04-26T14:59:34.998Z</time></trkpt><trkpt lat="43.619118233929996" lon="10.72838970337309"><ele>155.0</ele><time>2026-04-26T14:59:36.998Z</time></trkpt><trkpt lat="43.619191950516985" lon="10.728322507312075"><ele>155.0</ele><time>2026-04-26T14:59:38.998Z</time></trkpt><trkpt lat="43.61925299436657" lon="10.728266626487587"><ele>155.0</ele><time>2026-04-26T14:59:40.998Z</time></trkpt><trkpt lat="43.61934209317187" lon="10.7281997873756"><ele>155.0</ele><time>2026-04-26T14:59:48Z</time></trkpt><trkpt lat="43.61941031801486" lon="10.728169283536623"><ele>155.0</ele><time>2026-04-26T14:59:49Z</time></trkpt><trkpt lat="43.61947476957307" lon="10.728149124132514"><ele>155.0</ele><time>2026-04-26T14:59:50Z</time></trkpt><trkpt lat="43.61957592294342" lon="10.72816611905011"><ele>154.83333333333331</ele><time>2026-04-26T14:59:52Z</time></trkpt><trkpt lat="43.6196605485794" lon="10.728183686527224"><ele>154.66666666666666</ele><time>2026-04-26T14:59:54Z</time></trkpt><trkpt lat="43.61974358868957" lon="10.728192478203727"><ele>154.5</ele><time>2026-04-26T14:59:56Z</time></trkpt><trkpt lat="43.61982314038629" lon="10.72822761596527"><ele>154.33333333333334</ele><time>2026-04-26T14:59:58Z</time></trkpt><trkpt lat="43.619901598032655" lon="10.728269040826923"><ele>154.16666666666669</ele><time>2026-04-26T14:59:59.999Z</time></trkpt><trkpt lat="43.6199788911415" lon="10.728317518810949"><ele>154.0</ele><time>2026-04-26T15:00:01.999Z</time></trkpt><trkpt lat="43.620060448932534" lon="10.728375348877027"><ele>154.0</ele><time>2026-04-26T15:00:03.999Z</time></trkpt><trkpt lat="43.620126811053105" lon="10.728451573668654"><ele>154.0</ele><time>2026-04-26T15:00:05.999Z</time></trkpt><trkpt lat="43.620176525861936" lon="10.728525745662328"><ele>154.0</ele><time>2026-04-26T15:00:07.999Z</time></trkpt><trkpt lat="43.62022831643133" lon="10.728580124601262"><ele>154.0</ele><time>2026-04-26T15:00:11.999Z</time></trkpt><trkpt lat="43.62017876706014" lon="10.728503958884945"><ele>154.0</ele><time>2026-04-26T15:00:23.999Z</time></trkpt><trkpt lat="43.62010885062104" lon="10.728459711675685"><ele>154.0</ele><time>2026-04-26T15:00:25.999Z</time></trkpt><trkpt lat="43.62003181938159" lon="10.728403857684293"><ele>154.0</ele><time>2026-04-26T15:00:27.999Z</time></trkpt><trkpt lat="43.61995215010493" lon="10.728352590476408"><ele>154.0</ele><time>2026-04-26T15:00:29.999Z</time></trkpt><trkpt lat="43.61987900437782" lon="10.728312928769915"><ele>154.0</ele><time>2026-04-26T15:00:30.999Z</time></trkpt><trkpt lat="43.61981349796283" lon="10.728278387365286"><ele>154.0</ele><time>2026-04-26T15:00:31.999Z</time></trkpt><trkpt lat="43.61969715924905" lon="10.728225413289213"><ele>154.0</ele><time>2026-04-26T15:00:33.999Z</time></trkpt><trkpt lat="43.61958988823158" lon="10.7281631150965"><ele>154.2</ele><time>2026-04-26T15:00:35.999Z</time></trkpt><trkpt lat="43.61946154632186" lon="10.728164935185742"><ele>154.4</ele><time>2026-04-26T15:00:37.999Z</time></trkpt><trkpt lat="43.61939062185878" lon="10.728184169262653"><ele>154.6</ele><time>2026-04-26T15:00:38.999Z</time></trkpt><trkpt lat="43.61932336073265" lon="10.728218027521274"><ele>154.8</ele><time>2026-04-26T15:00:39.999Z</time></trkpt><trkpt lat="43.6192185823217" lon="10.72831498721373"><ele>155.0</ele><time>2026-04-26T15:00:41.999Z</time></trkpt><trkpt lat="43.619161606505564" lon="10.728367555460965"><ele>155.0</ele><time>2026-04-26T15:00:42.999Z</time></trkpt><trkpt lat="43.619102436367676" lon="10.728413577849159"><ele>155.0</ele><time>2026-04-26T15:00:43.999Z</time></trkpt><trkpt lat="43.61904382498337" lon="10.72844702141879"><ele>155.0</ele><time>2026-04-26T15:00:44.999Z</time></trkpt><trkpt lat="43.618935172711275" lon="10.728499885328002"><ele>155.0</ele><time>2026-04-26T15:00:46.999Z</time></trkpt><trkpt lat="43.61886338923896" lon="10.728508396982237"><ele>155.0</ele><time>2026-04-26T15:00:47.999Z</time></trkpt><trkpt lat="43.61878784665265" lon="10.728508411376643"><ele>155.0</ele><time>2026-04-26T15:00:48.999Z</time></trkpt><trkpt lat="43.61869837778918" lon="10.728488892407002"><ele>154.25</ele><time>2026-04-26T15:00:49.999Z</time></trkpt><trkpt lat="43.61860402405351" lon="10.72846461298912"><ele>153.5</ele><time>2026-04-26T15:00:50.999Z</time></trkpt><trkpt lat="43.61847813096231" lon="10.728437226468913"><ele>152.75</ele><time>2026-04-26T15:00:51.999Z</time></trkpt><trkpt lat="43.618327357871536" lon="10.728400360991271"><ele>152.0</ele><time>2026-04-26T15:00:52.999Z</time></trkpt><trkpt lat="43.61821344853189" lon="10.728371149419258"><ele>152.0</ele><time>2026-04-26T15:00:53.999Z</time></trkpt><trkpt lat="43.61812477794807" lon="10.728356114267838"><ele>152.0</ele><time>2026-04-26T15:00:54.999Z</time></trkpt><trkpt lat="43.618049405985914" lon="10.728352058996524"><ele>152.0</ele><time>2026-04-26T15:00:55.999Z</time></trkpt><trkpt lat="43.61797361519831" lon="10.728358109859652"><ele>152.0</ele><time>2026-04-26T15:00:56.999Z</time></trkpt><trkpt lat="43.61786808552514" lon="10.728395178253262"><ele>152.0</ele><time>2026-04-26T15:00:58.999Z</time></trkpt><trkpt lat="43.61780241162806" lon="10.728331651381945"><ele>152.0</ele><time>2026-04-26T15:01:02.999Z</time></trkpt><trkpt lat="43.617697371390186" lon="10.728392406485435"><ele>151.66666666666666</ele><time>2026-04-26T15:01:03.999Z</time></trkpt><trkpt lat="43.61763394632347" lon="10.728408741948229"><ele>151.33333333333331</ele><time>2026-04-26T15:01:06.999Z</time></trkpt><trkpt lat="43.617595445204216" lon="10.728480018270627"><ele>151.0</ele><time>2026-04-26T15:01:08.999Z</time></trkpt><trkpt lat="43.61766756395797" lon="10.728596121888453"><ele>150.66666666666666</ele><time>2026-04-26T15:01:10.999Z</time></trkpt><trkpt lat="43.617720062653234" lon="10.728690796134781"><ele>150.33333333333334</ele><time>2026-04-26T15:01:11.999Z</time></trkpt><trkpt lat="43.61776747422204" lon="10.72881223696374"><ele>150.0</ele><time>2026-04-26T15:01:12.999Z</time></trkpt><trkpt lat="43.617825122858555" lon="10.728948038174838"><ele>151.75</ele><time>2026-04-26T15:01:13.998Z</time></trkpt><trkpt lat="43.617888417766764" lon="10.729092992299476"><ele>153.5</ele><time>2026-04-26T15:01:14.998Z</time></trkpt><trkpt lat="43.617961359162244" lon="10.729245713632732"><ele>155.25</ele><time>2026-04-26T15:01:15.998Z</time></trkpt><trkpt lat="43.61802532428675" lon="10.729397924235638"><ele>157.0</ele><time>2026-04-26T15:01:16.998Z</time></trkpt><trkpt lat="43.61808902947976" lon="10.729544800676067"><ele>157.0</ele><time>2026-04-26T15:01:17.998Z</time></trkpt><trkpt lat="43.61815311875172" lon="10.729695993736753"><ele>157.0</ele><time>2026-04-26T15:01:18.998Z</time></trkpt><trkpt lat="43.618213841906254" lon="10.729844662376914"><ele>157.0</ele><time>2026-04-26T15:01:19.998Z</time></trkpt><trkpt lat="43.61828199074398" lon="10.72999227864804"><ele>157.0</ele><time>2026-04-26T15:01:20.998Z</time></trkpt><trkpt lat="43.61833723998862" lon="10.730129945059343"><ele>156.0</ele><time>2026-04-26T15:01:21.998Z</time></trkpt><trkpt lat="43.61837225701115" lon="10.730278713807477"><ele>155.0</ele><time>2026-04-26T15:01:22.998Z</time></trkpt><trkpt lat="43.618366408387224" lon="10.730440653959834"><ele>154.0</ele><time>2026-04-26T15:01:23.998Z</time></trkpt><trkpt lat="43.61833336696715" lon="10.730603370576649"><ele>153.0</ele><time>2026-04-26T15:01:24.998Z</time></trkpt><trkpt lat="43.61827125614503" lon="10.730753988024382"><ele>153.0</ele><time>2026-04-26T15:01:25.998Z</time></trkpt><trkpt lat="43.618208400619736" lon="10.730891818027358"><ele>153.0</ele><time>2026-04-26T15:01:26.998Z</time></trkpt><trkpt lat="43.61814806922803" lon="10.731058680261855"><ele>153.0</ele><time>2026-04-26T15:01:27.998Z</time></trkpt><trkpt lat="43.61809900540072" lon="10.73124313865192"><ele>153.0</ele><time>2026-04-26T15:01:28.998Z</time></trkpt><trkpt lat="43.61806485294655" lon="10.731425964245814"><ele>153.75</ele><time>2026-04-26T15:01:29.998Z</time></trkpt><trkpt lat="43.6180313249837" lon="10.73162186455802"><ele>154.5</ele><time>2026-04-26T15:01:30.998Z</time></trkpt><trkpt lat="43.61799427389316" lon="10.73179477382698"><ele>155.25</ele><time>2026-04-26T15:01:31.998Z</time></trkpt><trkpt lat="43.61790893223149" lon="10.73192157715204"><ele>156.0</ele><time>2026-04-26T15:01:32.998Z</time></trkpt><trkpt lat="43.617842152359096" lon="10.732058840815633"><ele>153.25</ele><time>2026-04-26T15:01:33.998Z</time></trkpt><trkpt lat="43.6177867262623" lon="10.732211556747677"><ele>150.5</ele><time>2026-04-26T15:01:34.998Z</time></trkpt><trkpt lat="43.617714995163276" lon="10.732362710815957"><ele>147.75</ele><time>2026-04-26T15:01:35.998Z</time></trkpt><trkpt lat="43.617640753917236" lon="10.732515542346508"><ele>145.0</ele><time>2026-04-26T15:01:36.998Z</time></trkpt><trkpt lat="43.617563058264025" lon="10.732671143306556"><ele>147.25</ele><time>2026-04-26T15:01:37.998Z</time></trkpt><trkpt lat="43.6174944533926" lon="10.732844339344004"><ele>149.5</ele><time>2026-04-26T15:01:38.998Z</time></trkpt><trkpt lat="43.61742721437798" lon="10.73299510718535"><ele>151.75</ele><time>2026-04-26T15:01:39.998Z</time></trkpt><trkpt lat="43.617366497417464" lon="10.733130839887387"><ele>154.0</ele><time>2026-04-26T15:01:40.998Z</time></trkpt><trkpt lat="43.61732453948691" lon="10.73330074692454"><ele>154.0</ele><time>2026-04-26T15:01:41.998Z</time></trkpt><trkpt lat="43.617299792233815" lon="10.733513964087932"><ele>154.0</ele><time>2026-04-26T15:01:42.998Z</time></trkpt><trkpt lat="43.61728324886007" lon="10.733748447909608"><ele>154.0</ele><time>2026-04-26T15:01:43.998Z</time></trkpt><trkpt lat="43.617262323314236" lon="10.733989325632457"><ele>154.33333333333334</ele><time>2026-04-26T15:01:44.998Z</time></trkpt><trkpt lat="43.61723370205547" lon="10.734235933437372"><ele>154.66666666666666</ele><time>2026-04-26T15:01:45.998Z</time></trkpt><trkpt lat="43.617204951603874" lon="10.734469998674049"><ele>155.0</ele><time>2026-04-26T15:01:46.998Z</time></trkpt><trkpt lat="43.6171838713201" lon="10.73467850606199"><ele>154.0</ele><time>2026-04-26T15:01:47.999Z</time></trkpt><trkpt lat="43.61717428744042" lon="10.73485389864234"><ele>153.0</ele><time>2026-04-26T15:01:48.999Z</time></trkpt><trkpt lat="43.617183089429396" lon="10.735010041469186"><ele>152.0</ele><time>2026-04-26T15:01:49.999Z</time></trkpt><trkpt lat="43.61723706973604" lon="10.735166186688007"><ele>151.0</ele><time>2026-04-26T15:01:50.999Z</time></trkpt><trkpt lat="43.61733358976122" lon="10.735332525179622"><ele>147.33333333333334</ele><time>2026-04-26T15:01:51.999Z</time></trkpt><trkpt lat="43.61745262837885" lon="10.735502272316126"><ele>143.66666666666666</ele><time>2026-04-26T15:01:52.999Z</time></trkpt><trkpt lat="43.61755442243308" lon="10.735698357880658"><ele>140.0</ele><time>2026-04-26T15:01:53.999Z</time></trkpt><trkpt lat="43.61762539319394" lon="10.73592727322959"><ele>138.66666666666666</ele><time>2026-04-26T15:01:54.999Z</time></trkpt><trkpt lat="43.61765307525567" lon="10.736150071052899"><ele>137.33333333333334</ele><time>2026-04-26T15:01:55.999Z</time></trkpt><trkpt lat="43.61764301285863" lon="10.736367404583635"><ele>136.0</ele><time>2026-04-26T15:01:56.999Z</time></trkpt><trkpt lat="43.61761609645487" lon="10.736600252884905"><ele>136.0</ele><time>2026-04-26T15:01:57.999Z</time></trkpt><trkpt lat="43.617591509166125" lon="10.736830535871603"><ele>136.0</ele><time>2026-04-26T15:01:58.999Z</time></trkpt><trkpt lat="43.61757145441201" lon="10.737080760110373"><ele>136.0</ele><time>2026-04-26T15:01:59.999Z</time></trkpt><trkpt lat="43.61755318512651" lon="10.73733554279961"><ele>135.66666666666669</ele><time>2026-04-26T15:02:00.999Z</time></trkpt><trkpt lat="43.6175291388715" lon="10.737591855876587"><ele>135.33333333333334</ele><time>2026-04-26T15:02:01.999Z</time></trkpt><trkpt lat="43.6174885898724" lon="10.737825602218226"><ele>135.0</ele><time>2026-04-26T15:02:02.999Z</time></trkpt><trkpt lat="43.61741386993688" lon="10.73807017142197"><ele>134.66666666666666</ele><time>2026-04-26T15:02:03.999Z</time></trkpt><trkpt lat="43.61732698423596" lon="10.738317054248636"><ele>134.33333333333331</ele><time>2026-04-26T15:02:04.999Z</time></trkpt><trkpt lat="43.61725898079982" lon="10.738546910884038"><ele>134.0</ele><time>2026-04-26T15:02:05.999Z</time></trkpt><trkpt lat="43.61722017858155" lon="10.738789458434702"><ele>133.0</ele><time>2026-04-26T15:02:06.999Z</time></trkpt><trkpt lat="43.6172259564911" lon="10.739090241931102"><ele>132.0</ele><time>2026-04-26T15:02:07.999Z</time></trkpt><trkpt lat="43.61723173395328" lon="10.739423612342334"><ele>134.0</ele><time>2026-04-26T15:02:08.999Z</time></trkpt><trkpt lat="43.61723042205426" lon="10.739712942415082"><ele>136.0</ele><time>2026-04-26T15:02:09.999Z</time></trkpt><trkpt lat="43.61722450609647" lon="10.739946663647382"><ele>138.0</ele><time>2026-04-26T15:02:10.999Z</time></trkpt><trkpt lat="43.61726259765563" lon="10.740169932768634"><ele>139.0</ele><time>2026-04-26T15:02:11.999Z</time></trkpt><trkpt lat="43.61733532526119" lon="10.74041635273462"><ele>140.0</ele><time>2026-04-26T15:02:12.999Z</time></trkpt><trkpt lat="43.61744627914739" lon="10.740673444221576"><ele>141.0</ele><time>2026-04-26T15:02:13.999Z</time></trkpt><trkpt lat="43.61756614423985" lon="10.740955996865688"><ele>141.66666666666666</ele><time>2026-04-26T15:02:14.999Z</time></trkpt><trkpt lat="43.6176635592776" lon="10.74121509548019"><ele>142.33333333333331</ele><time>2026-04-26T15:02:15.999Z</time></trkpt><trkpt lat="43.6177526427785" lon="10.74143479901156"><ele>143.0</ele><time>2026-04-26T15:02:16.999Z</time></trkpt><trkpt lat="43.61783615402897" lon="10.741641170242312"><ele>143.0</ele><time>2026-04-26T15:02:17.999Z</time></trkpt><trkpt lat="43.61791744790719" lon="10.741850472641365"><ele>143.0</ele><time>2026-04-26T15:02:18.999Z</time></trkpt><trkpt lat="43.61798298945329" lon="10.742083098386292"><ele>143.0</ele><time>2026-04-26T15:02:19.999Z</time></trkpt><trkpt lat="43.61803262286311" lon="10.742335327738072"><ele>144.0</ele><time>2026-04-26T15:02:20.999Z</time></trkpt><trkpt lat="43.618077077921285" lon="10.742602025654893"><ele>145.0</ele><time>2026-04-26T15:02:21.999Z</time></trkpt><trkpt lat="43.618119246787" lon="10.742868112657712"><ele>146.0</ele><time>2026-04-26T15:02:22.999Z</time></trkpt><trkpt lat="43.61816319274253" lon="10.743124753724281"><ele>146.0</ele><time>2026-04-26T15:02:23.999Z</time></trkpt><trkpt lat="43.618202723039296" lon="10.743347251345261"><ele>146.0</ele><time>2026-04-26T15:02:24.999Z</time></trkpt><trkpt lat="43.618226216674834" lon="10.743525105624355"><ele>146.0</ele><time>2026-04-26T15:02:25.999Z</time></trkpt><trkpt lat="43.61821526748663" lon="10.743666308417623"><ele>146.0</ele><time>2026-04-26T15:02:26.999Z</time></trkpt><trkpt lat="43.61816551261111" lon="10.743827184463902"><ele>146.0</ele><time>2026-04-26T15:02:27.999Z</time></trkpt><trkpt lat="43.61809347255143" lon="10.744030371928595"><ele>146.0</ele><time>2026-04-26T15:02:28.999Z</time></trkpt><trkpt lat="43.618006298408275" lon="10.744289219526813"><ele>146.0</ele><time>2026-04-26T15:02:29.999Z</time></trkpt><trkpt lat="43.61791738937799" lon="10.744547758634488"><ele>144.0</ele><time>2026-04-26T15:02:30.999Z</time></trkpt><trkpt lat="43.61783535314248" lon="10.744776011287465"><ele>142.0</ele><time>2026-04-26T15:02:31.999Z</time></trkpt><trkpt lat="43.617759371251644" lon="10.744981660254696"><ele>140.0</ele><time>2026-04-26T15:02:32.999Z</time></trkpt><trkpt lat="43.617685367700815" lon="10.74516479873726"><ele>140.75</ele><time>2026-04-26T15:02:33.999Z</time></trkpt><trkpt lat="43.61760426098528" lon="10.745325077116629"><ele>141.5</ele><time>2026-04-26T15:02:34.999Z</time></trkpt><trkpt lat="43.617538080283836" lon="10.74547008153271"><ele>142.25</ele><time>2026-04-26T15:02:35.999Z</time></trkpt><trkpt lat="43.61749928571167" lon="10.745622981685512"><ele>143.0</ele><time>2026-04-26T15:02:36.999Z</time></trkpt><trkpt lat="43.61751274375326" lon="10.745803082997174"><ele>143.0</ele><time>2026-04-26T15:02:37.999Z</time></trkpt><trkpt lat="43.617571880970125" lon="10.745999796589512"><ele>143.0</ele><time>2026-04-26T15:02:38.999Z</time></trkpt><trkpt lat="43.61766236223809" lon="10.746215673763016"><ele>143.0</ele><time>2026-04-26T15:02:39.999Z</time></trkpt><trkpt lat="43.61778343020503" lon="10.746450819529079"><ele>145.0</ele><time>2026-04-26T15:02:40.999Z</time></trkpt><trkpt lat="43.61789291117955" lon="10.746687567913565"><ele>147.0</ele><time>2026-04-26T15:02:41.999Z</time></trkpt><trkpt lat="43.6179930756152" lon="10.746928558768424"><ele>149.0</ele><time>2026-04-26T15:02:42.999Z</time></trkpt><trkpt lat="43.61808896066278" lon="10.747183016595983"><ele>149.0</ele><time>2026-04-26T15:02:43.999Z</time></trkpt><trkpt lat="43.61816563426553" lon="10.747427974955457"><ele>149.0</ele><time>2026-04-26T15:02:44.999Z</time></trkpt><trkpt lat="43.618237481764446" lon="10.747648913823227"><ele>149.0</ele><time>2026-04-26T15:02:45.999Z</time></trkpt><trkpt lat="43.61832335595927" lon="10.747848092104036"><ele>147.66666666666666</ele><time>2026-04-26T15:02:46.999Z</time></trkpt><trkpt lat="43.61843463275957" lon="10.74803877780889"><ele>146.33333333333334</ele><time>2026-04-26T15:02:47.999Z</time></trkpt><trkpt lat="43.618568327674936" lon="10.74822383523841"><ele>145.0</ele><time>2026-04-26T15:02:48.999Z</time></trkpt><trkpt lat="43.61871490784431" lon="10.74840739179388"><ele>146.33333333333334</ele><time>2026-04-26T15:02:49.999Z</time></trkpt><trkpt lat="43.61885209699997" lon="10.748598256540133"><ele>147.66666666666666</ele><time>2026-04-26T15:02:50.999Z</time></trkpt><trkpt lat="43.61900158130478" lon="10.748717194799447"><ele>149.0</ele><time>2026-04-26T15:02:51.999Z</time></trkpt><trkpt lat="43.619112011243175" lon="10.74886315282813"><ele>149.0</ele><time>2026-04-26T15:02:52.999Z</time></trkpt><trkpt lat="43.619177040773764" lon="10.749005001073323"><ele>149.0</ele><time>2026-04-26T15:02:53.999Z</time></trkpt><trkpt lat="43.61920467700331" lon="10.749138266098711"><ele>149.0</ele><time>2026-04-26T15:02:54.999Z</time></trkpt><trkpt lat="43.61919497659753" lon="10.74929196077084"><ele>149.0</ele><time>2026-04-26T15:02:55.999Z</time></trkpt><trkpt lat="43.61916379066737" lon="10.74946719062558"><ele>148.33333333333331</ele><time>2026-04-26T15:02:56.999Z</time></trkpt><trkpt lat="43.61909311977941" lon="10.74966298542665"><ele>147.66666666666666</ele><time>2026-04-26T15:02:57.999Z</time></trkpt><trkpt lat="43.618992615077666" lon="10.749866063603436"><ele>147.0</ele><time>2026-04-26T15:02:58.999Z</time></trkpt><trkpt lat="43.61888440201294" lon="10.75011102530078"><ele>144.0</ele><time>2026-04-26T15:02:59.999Z</time></trkpt><trkpt lat="43.61878867497666" lon="10.750383925140584"><ele>141.0</ele><time>2026-04-26T15:03:00.999Z</time></trkpt><trkpt lat="43.618703966099915" lon="10.750705424575148"><ele>146.33333333333334</ele><time>2026-04-26T15:03:01.999Z</time></trkpt><trkpt lat="43.61864259097013" lon="10.751025411364099"><ele>151.66666666666669</ele><time>2026-04-26T15:03:02.999Z</time></trkpt><trkpt lat="43.61860798412918" lon="10.751299650823011"><ele>157.0</ele><time>2026-04-26T15:03:03.999Z</time></trkpt><trkpt lat="43.61856478462687" lon="10.75155246477733"><ele>158.0</ele><time>2026-04-26T15:03:04.999Z</time></trkpt><trkpt lat="43.61850393731085" lon="10.751793226102876"><ele>159.0</ele><time>2026-04-26T15:03:05.999Z</time></trkpt><trkpt lat="43.618419600030045" lon="10.752024729091548"><ele>160.0</ele><time>2026-04-26T15:03:06.999Z</time></trkpt><trkpt lat="43.6183227765507" lon="10.75223842481346"><ele>160.0</ele><time>2026-04-26T15:03:07.999Z</time></trkpt><trkpt lat="43.61821607060542" lon="10.752399591517353"><ele>160.0</ele><time>2026-04-26T15:03:08.999Z</time></trkpt><trkpt lat="43.618127629222414" lon="10.752560371628507"><ele>160.0</ele><time>2026-04-26T15:03:09.999Z</time></trkpt><trkpt lat="43.61804703583306" lon="10.75271832048042"><ele>160.0</ele><time>2026-04-26T15:03:10.999Z</time></trkpt><trkpt lat="43.617973650163435" lon="10.752870916636683"><ele>156.5</ele><time>2026-04-26T15:03:11.999Z</time></trkpt><trkpt lat="43.617927469377804" lon="10.753051791052522"><ele>153.0</ele><time>2026-04-26T15:03:12.999Z</time></trkpt><trkpt lat="43.617916868945436" lon="10.753252764079523"><ele>149.5</ele><time>2026-04-26T15:03:13.999Z</time></trkpt><trkpt lat="43.61793373246535" lon="10.753463755911644"><ele>146.0</ele><time>2026-04-26T15:03:14.998Z</time></trkpt><trkpt lat="43.617961630274024" lon="10.753685906947439"><ele>146.33333333333331</ele><time>2026-04-26T15:03:15.998Z</time></trkpt><trkpt lat="43.61797345541065" lon="10.753920998149924"><ele>146.66666666666666</ele><time>2026-04-26T15:03:16.998Z</time></trkpt><trkpt lat="43.61797147165456" lon="10.75416494497722"><ele>147.0</ele><time>2026-04-26T15:03:17.998Z</time></trkpt><trkpt lat="43.61796739387354" lon="10.75441065455337"><ele>147.0</ele><time>2026-04-26T15:03:18.998Z</time></trkpt><trkpt lat="43.61796508348066" lon="10.754651780466169"><ele>147.0</ele><time>2026-04-26T15:03:19.998Z</time></trkpt><trkpt lat="43.61795825974716" lon="10.754879617030042"><ele>147.0</ele><time>2026-04-26T15:03:20.998Z</time></trkpt><trkpt lat="43.61793083465766" lon="10.755078615677398"><ele>148.5</ele><time>2026-04-26T15:03:21.998Z</time></trkpt><trkpt lat="43.61789414448984" lon="10.755275487374437"><ele>150.0</ele><time>2026-04-26T15:03:22.998Z</time></trkpt><trkpt lat="43.617857308949006" lon="10.75546598805029"><ele>151.5</ele><time>2026-04-26T15:03:23.998Z</time></trkpt><trkpt lat="43.617820281726026" lon="10.755649561792637"><ele>153.0</ele><time>2026-04-26T15:03:24.998Z</time></trkpt><trkpt lat="43.617795402078734" lon="10.75583222745672"><ele>154.5</ele><time>2026-04-26T15:03:25.998Z</time></trkpt><trkpt lat="43.617804608943224" lon="10.756007595500265"><ele>156.0</ele><time>2026-04-26T15:03:26.998Z</time></trkpt><trkpt lat="43.61785129969026" lon="10.756177778510287"><ele>157.5</ele><time>2026-04-26T15:03:27.998Z</time></trkpt><trkpt lat="43.617927312849865" lon="10.756340371927783"><ele>159.0</ele><time>2026-04-26T15:03:28.998Z</time></trkpt><trkpt lat="43.6180053980465" lon="10.75649733708169"><ele>160.0</ele><time>2026-04-26T15:03:29.998Z</time></trkpt><trkpt lat="43.618074138316366" lon="10.756653587043367"><ele>161.0</ele><time>2026-04-26T15:03:30.998Z</time></trkpt><trkpt lat="43.618143649201464" lon="10.756811523196811"><ele>162.0</ele><time>2026-04-26T15:03:31.998Z</time></trkpt><trkpt lat="43.61821015786251" lon="10.756957845668342"><ele>163.0</ele><time>2026-04-26T15:03:32.998Z</time></trkpt><trkpt lat="43.618270549995856" lon="10.757086702930843"><ele>163.66666666666669</ele><time>2026-04-26T15:03:33.998Z</time></trkpt><trkpt lat="43.61832406255225" lon="10.757193595612792"><ele>164.33333333333334</ele><time>2026-04-26T15:03:34.998Z</time></trkpt><trkpt lat="43.61837509553733" lon="10.757284046074307"><ele>165.0</ele><time>2026-04-26T15:03:35.998Z</time></trkpt><trkpt lat="43.618439547556406" lon="10.75733372464603"><ele>165.66666666666666</ele><time>2026-04-26T15:03:36.998Z</time></trkpt><trkpt lat="43.61852205203608" lon="10.757371601567902"><ele>166.33333333333331</ele><time>2026-04-26T15:03:37.998Z</time></trkpt><trkpt lat="43.618606700962076" lon="10.757440718755381"><ele>167.0</ele><time>2026-04-26T15:03:38.998Z</time></trkpt><trkpt lat="43.618716764544224" lon="10.75750000521937"><ele>167.6</ele><time>2026-04-26T15:03:39.998Z</time></trkpt><trkpt lat="43.61883270231401" lon="10.75754036084207"><ele>168.2</ele><time>2026-04-26T15:03:40.998Z</time></trkpt><trkpt lat="43.618910233644435" lon="10.75760498422005"><ele>168.8</ele><time>2026-04-26T15:03:41.998Z</time></trkpt><trkpt lat="43.61897597395188" lon="10.7576461512482"><ele>169.4</ele><time>2026-04-26T15:03:42.998Z</time></trkpt><trkpt lat="43.619051914791" lon="10.757720880429234"><ele>170.0</ele><time>2026-04-26T15:03:44.998Z</time></trkpt><trkpt lat="43.6190883201185" lon="10.757813286550121"><ele>170.0</ele><time>2026-04-26T15:03:45.998Z</time></trkpt><trkpt lat="43.619103129964955" lon="10.75792080686915"><ele>170.0</ele><time>2026-04-26T15:03:46.998Z</time></trkpt><trkpt lat="43.61910836771296" lon="10.758045146707568"><ele>170.0</ele><time>2026-04-26T15:03:47.998Z</time></trkpt><trkpt lat="43.61909955088511" lon="10.758173386043328"><ele>170.0</ele><time>2026-04-26T15:03:48.998Z</time></trkpt><trkpt lat="43.619073595560714" lon="10.758295333219694"><ele>170.0</ele><time>2026-04-26T15:03:49.998Z</time></trkpt><trkpt lat="43.61904196244791" lon="10.75840793585187"><ele>170.0</ele><time>2026-04-26T15:03:50.998Z</time></trkpt><trkpt lat="43.619012434405654" lon="10.758518854673767"><ele>169.0</ele><time>2026-04-26T15:03:51.998Z</time></trkpt><trkpt lat="43.61898651218515" lon="10.758629199512873"><ele>168.0</ele><time>2026-04-26T15:03:52.998Z</time></trkpt><trkpt lat="43.61895724136387" lon="10.758736273551301"><ele>167.0</ele><time>2026-04-26T15:03:53.999Z</time></trkpt><trkpt lat="43.61892587743552" lon="10.758840862690702"><ele>166.0</ele><time>2026-04-26T15:03:54.999Z</time></trkpt><trkpt lat="43.61888321990208" lon="10.758942325178134"><ele>165.0</ele><time>2026-04-26T15:03:55.999Z</time></trkpt><trkpt lat="43.61883015790782" lon="10.759043999591498"><ele>164.0</ele><time>2026-04-26T15:03:56.999Z</time></trkpt><trkpt lat="43.61878012825147" lon="10.759124153343022"><ele>164.0</ele><time>2026-04-26T15:03:57.999Z</time></trkpt><trkpt lat="43.618759945610215" lon="10.75921092444287"><ele>164.0</ele><time>2026-04-26T15:03:59.999Z</time></trkpt><trkpt lat="43.618695016445294" lon="10.759209932509906"><ele>164.0</ele><time>2026-04-26T15:05:32.998Z</time></trkpt><trkpt lat="43.6186016228981" lon="10.759253617023038"><ele>164.0</ele><time>2026-04-26T15:05:34.999Z</time></trkpt><trkpt lat="43.61852762499714" lon="10.759270639586338"><ele>164.0</ele><time>2026-04-26T15:05:35.999Z</time></trkpt><trkpt lat="43.61843310420728" lon="10.759282413798159"><ele>164.0</ele><time>2026-04-26T15:05:36.999Z</time></trkpt><trkpt lat="43.61832964096883" lon="10.759294964831394"><ele>164.5</ele><time>2026-04-26T15:05:37.999Z</time></trkpt><trkpt lat="43.618221796826745" lon="10.759312521933756"><ele>165.0</ele><time>2026-04-26T15:05:38.999Z</time></trkpt><trkpt lat="43.61810995458257" lon="10.759368709844615"><ele>165.5</ele><time>2026-04-26T15:05:39.999Z</time></trkpt><trkpt lat="43.617987082208955" lon="10.759430550686057"><ele>166.0</ele><time>2026-04-26T15:05:40.999Z</time></trkpt><trkpt lat="43.617871481000904" lon="10.759525164395251"><ele>165.75</ele><time>2026-04-26T15:05:41.999Z</time></trkpt><trkpt lat="43.617765945593135" lon="10.759647453852308"><ele>165.5</ele><time>2026-04-26T15:05:42.999Z</time></trkpt><trkpt lat="43.61769585832765" lon="10.759766851323937"><ele>165.25</ele><time>2026-04-26T15:05:43.999Z</time></trkpt><trkpt lat="43.61765848544108" lon="10.759851059312725"><ele>165.0</ele><time>2026-04-26T15:05:44.999Z</time></trkpt><trkpt lat="43.61752154421529" lon="10.75972007144157"><ele>165.0</ele><time>2026-04-26T15:05:49.999Z</time></trkpt><trkpt lat="43.6174441654572" lon="10.759768761709077"><ele>165.0</ele><time>2026-04-26T15:05:51.999Z</time></trkpt><trkpt lat="43.61737480620849" lon="10.759855786410577"><ele>165.0</ele><time>2026-04-26T15:05:53.999Z</time></trkpt><trkpt lat="43.61730165866104" lon="10.759941540562263"><ele>165.0</ele><time>2026-04-26T15:06:01Z</time></trkpt><trkpt lat="43.61722266967776" lon="10.760015791441294"><ele>165.0</ele><time>2026-04-26T15:06:03Z</time></trkpt><trkpt lat="43.61715076463856" lon="10.760070172636382"><ele>165.0</ele><time>2026-04-26T15:06:05Z</time></trkpt><trkpt lat="43.617057213904346" lon="10.7600904121999"><ele>165.0</ele><time>2026-04-26T15:06:07Z</time></trkpt><trkpt lat="43.616939517610845" lon="10.76006286304681"><ele>165.0</ele><time>2026-04-26T15:06:09Z</time></trkpt><trkpt lat="43.616874809230055" lon="10.760048317088874"><ele>165.0</ele><time>2026-04-26T15:06:10Z</time></trkpt><trkpt lat="43.61678260402745" lon="10.759979588531557"><ele>165.0</ele><time>2026-04-26T15:06:12Z</time></trkpt><trkpt lat="43.61671982742449" lon="10.759903359777963"><ele>165.33333333333334</ele><time>2026-04-26T15:06:14Z</time></trkpt><trkpt lat="43.6166626914772" lon="10.759862685735111"><ele>165.66666666666666</ele><time>2026-04-26T15:06:15Z</time></trkpt><trkpt lat="43.61661610248613" lon="10.759786870942905"><ele>166.0</ele><time>2026-04-26T15:06:16Z</time></trkpt><trkpt lat="43.61655221461104" lon="10.759716403579352"><ele>166.33333333333331</ele><time>2026-04-26T15:06:17Z</time></trkpt><trkpt lat="43.61647046080423" lon="10.759651076406145"><ele>166.66666666666666</ele><time>2026-04-26T15:06:19Z</time></trkpt><trkpt lat="43.61642462049076" lon="10.759571150492091"><ele>167.0</ele><time>2026-04-26T15:06:21Z</time></trkpt><trkpt lat="43.616321683349724" lon="10.75948873222538"><ele>167.0</ele><time>2026-04-26T15:06:23Z</time></trkpt><trkpt lat="43.61622476604527" lon="10.759410298016462"><ele>167.0</ele><time>2026-04-26T15:06:25Z</time></trkpt><trkpt lat="43.61618028467109" lon="10.759305714854177"><ele>167.0</ele><time>2026-04-26T15:06:27Z</time></trkpt><trkpt lat="43.616142540458796" lon="10.759213213395471"><ele>167.0</ele><time>2026-04-26T15:06:29Z</time></trkpt><trkpt lat="43.61612842280223" lon="10.759123082249205"><ele>167.0</ele><time>2026-04-26T15:06:31Z</time></trkpt><trkpt lat="43.616138713462504" lon="10.759284774563463"><ele>167.0</ele><time>2026-04-26T15:09:25.999Z</time></trkpt><trkpt lat="43.61622976895122" lon="10.759390470637646"><ele>167.0</ele><time>2026-04-26T15:09:27.999Z</time></trkpt><trkpt lat="43.616319461802114" lon="10.759467169247491"><ele>167.0</ele><time>2026-04-26T15:09:29.999Z</time></trkpt><trkpt lat="43.61642296741468" lon="10.759568823586388"><ele>167.0</ele><time>2026-04-26T15:09:31.999Z</time></trkpt><trkpt lat="43.6164841951513" lon="10.75964137802407"><ele>167.0</ele><time>2026-04-26T15:09:32.999Z</time></trkpt><trkpt lat="43.61652751945895" lon="10.759716154156676"><ele>167.0</ele><time>2026-04-26T15:09:33.999Z</time></trkpt><trkpt lat="43.61658979730779" lon="10.759757856703501"><ele>167.0</ele><time>2026-04-26T15:09:34.999Z</time></trkpt><trkpt lat="43.616644137081614" lon="10.759817793253358"><ele>167.0</ele><time>2026-04-26T15:09:35.999Z</time></trkpt><trkpt lat="43.61671978477772" lon="10.759926450250973"><ele>167.0</ele><time>2026-04-26T15:09:37.999Z</time></trkpt><trkpt lat="43.61677828372968" lon="10.75996730533379"><ele>167.0</ele><time>2026-04-26T15:09:39.999Z</time></trkpt><trkpt lat="43.61686445586592" lon="10.760039576678059"><ele>167.0</ele><time>2026-04-26T15:09:41.999Z</time></trkpt><trkpt lat="43.616992075271746" lon="10.760086620089742"><ele>166.66666666666666</ele><time>2026-04-26T15:09:43.999Z</time></trkpt><trkpt lat="43.6170623791382" lon="10.76009444481215"><ele>166.33333333333331</ele><time>2026-04-26T15:09:44.999Z</time></trkpt><trkpt lat="43.617125458105924" lon="10.760096152651888"><ele>166.0</ele><time>2026-04-26T15:09:45.999Z</time></trkpt><trkpt lat="43.617240850729594" lon="10.760028927895487"><ele>165.66666666666666</ele><time>2026-04-26T15:09:47.999Z</time></trkpt><trkpt lat="43.6173120784831" lon="10.75992470258255"><ele>165.33333333333334</ele><time>2026-04-26T15:09:49.999Z</time></trkpt><trkpt lat="43.61736928508206" lon="10.759841577269402"><ele>165.0</ele><time>2026-04-26T15:09:51.999Z</time></trkpt><trkpt lat="43.61743231499156" lon="10.759770808294476"><ele>165.0</ele><time>2026-04-26T15:09:53.999Z</time></trkpt><trkpt lat="43.61749795399757" lon="10.759728780586508"><ele>165.0</ele><time>2026-04-26T15:09:55.999Z</time></trkpt><trkpt lat="43.6176059638897" lon="10.759788008964303"><ele>165.0</ele><time>2026-04-26T15:09:58.999Z</time></trkpt><trkpt lat="43.61763982008374" lon="10.759861423406448"><ele>165.0</ele><time>2026-04-26T15:10:01.999Z</time></trkpt><trkpt lat="43.61763356978943" lon="10.7599845317374"><ele>165.0</ele><time>2026-04-26T15:10:03.999Z</time></trkpt><trkpt lat="43.61758162833107" lon="10.760094024210781"><ele>165.0</ele><time>2026-04-26T15:10:04.999Z</time></trkpt><trkpt lat="43.61753724037315" lon="10.760212846814007"><ele>164.25</ele><time>2026-04-26T15:10:05.999Z</time></trkpt><trkpt lat="43.61750611295275" lon="10.760368123030933"><ele>163.5</ele><time>2026-04-26T15:10:06.999Z</time></trkpt><trkpt lat="43.61744206731066" lon="10.760511430377528"><ele>162.75</ele><time>2026-04-26T15:10:07.999Z</time></trkpt><trkpt lat="43.61732780708536" lon="10.76060907722267"><ele>162.0</ele><time>2026-04-26T15:10:08.999Z</time></trkpt><trkpt lat="43.6171907707839" lon="10.760689052713605"><ele>162.0</ele><time>2026-04-26T15:10:09.999Z</time></trkpt><trkpt lat="43.61701704336279" lon="10.760766518778974"><ele>162.0</ele><time>2026-04-26T15:10:10.999Z</time></trkpt><trkpt lat="43.61683036660953" lon="10.760854641239723"><ele>162.0</ele><time>2026-04-26T15:10:12.001Z</time></trkpt><trkpt lat="43.61666323812028" lon="10.760962570389935"><ele>162.75</ele><time>2026-04-26T15:10:13.001Z</time></trkpt><trkpt lat="43.616532408980255" lon="10.761075663386793"><ele>163.5</ele><time>2026-04-26T15:10:14.001Z</time></trkpt><trkpt lat="43.61640649243314" lon="10.761172615957726"><ele>164.25</ele><time>2026-04-26T15:10:15.001Z</time></trkpt><trkpt lat="43.61629460062424" lon="10.761281131647658"><ele>165.0</ele><time>2026-04-26T15:10:16.001Z</time></trkpt><trkpt lat="43.61619065123571" lon="10.761393957649"><ele>166.25</ele><time>2026-04-26T15:10:17.001Z</time></trkpt><trkpt lat="43.61608407250181" lon="10.761512872481408"><ele>167.5</ele><time>2026-04-26T15:10:18.001Z</time></trkpt><trkpt lat="43.615974930507214" lon="10.76162849997687"><ele>168.75</ele><time>2026-04-26T15:10:19.001Z</time></trkpt><trkpt lat="43.61586879878762" lon="10.761740714516407"><ele>170.0</ele><time>2026-04-26T15:10:20Z</time></trkpt><trkpt lat="43.6157596618375" lon="10.761845971845448"><ele>172.25</ele><time>2026-04-26T15:10:21Z</time></trkpt><trkpt lat="43.615649716683016" lon="10.761908947067484"><ele>174.5</ele><time>2026-04-26T15:10:22Z</time></trkpt><trkpt lat="43.61552875175634" lon="10.762002576475576"><ele>176.75</ele><time>2026-04-26T15:10:23Z</time></trkpt><trkpt lat="43.61541725447877" lon="10.762067386273934"><ele>179.0</ele><time>2026-04-26T15:10:24Z</time></trkpt><trkpt lat="43.61530602303421" lon="10.762134360607778"><ele>179.79999999999998</ele><time>2026-04-26T15:10:25Z</time></trkpt><trkpt lat="43.615202044928736" lon="10.762204082401379"><ele>180.6</ele><time>2026-04-26T15:10:26Z</time></trkpt><trkpt lat="43.615104092111416" lon="10.762268750840487"><ele>181.4</ele><time>2026-04-26T15:10:27Z</time></trkpt><trkpt lat="43.61501170646553" lon="10.762339504166842"><ele>182.2</ele><time>2026-04-26T15:10:28Z</time></trkpt><trkpt lat="43.61492736684378" lon="10.762421846986518"><ele>183.0</ele><time>2026-04-26T15:10:29Z</time></trkpt><trkpt lat="43.614847859398445" lon="10.762510881640894"><ele>183.0</ele><time>2026-04-26T15:10:30Z</time></trkpt><trkpt lat="43.61477570817002" lon="10.762615151868452"><ele>183.0</ele><time>2026-04-26T15:10:31Z</time></trkpt><trkpt lat="43.61470797018867" lon="10.762725909843038"><ele>183.0</ele><time>2026-04-26T15:10:32Z</time></trkpt><trkpt lat="43.6146354879749" lon="10.762830992713845"><ele>183.0</ele><time>2026-04-26T15:10:33Z</time></trkpt><trkpt lat="43.61455395458542" lon="10.762931362712541"><ele>183.0</ele><time>2026-04-26T15:10:34Z</time></trkpt><trkpt lat="43.614469076843164" lon="10.76303362710616"><ele>182.75</ele><time>2026-04-26T15:10:35Z</time></trkpt><trkpt lat="43.6143743018994" lon="10.763140147119318"><ele>182.5</ele><time>2026-04-26T15:10:36Z</time></trkpt><trkpt lat="43.61427224857544" lon="10.763241943839741"><ele>182.25</ele><time>2026-04-26T15:10:37Z</time></trkpt><trkpt lat="43.614165073607026" lon="10.763339241913112"><ele>182.0</ele><time>2026-04-26T15:10:38Z</time></trkpt><trkpt lat="43.61404966906809" lon="10.76344036545581"><ele>180.5</ele><time>2026-04-26T15:10:39Z</time></trkpt><trkpt lat="43.61393582402624" lon="10.763534194983032"><ele>179.0</ele><time>2026-04-26T15:10:40Z</time></trkpt><trkpt lat="43.613819985145966" lon="10.763634863679371"><ele>177.5</ele><time>2026-04-26T15:10:41Z</time></trkpt><trkpt lat="43.61371071026804" lon="10.763734406669515"><ele>176.0</ele><time>2026-04-26T15:10:42Z</time></trkpt><trkpt lat="43.613624233471235" lon="10.76383300402325"><ele>176.0</ele><time>2026-04-26T15:10:43Z</time></trkpt><trkpt lat="43.61357157705146" lon="10.76396605368375"><ele>176.0</ele><time>2026-04-26T15:10:44Z</time></trkpt><trkpt lat="43.613544950101506" lon="10.764140258488508"><ele>176.0</ele><time>2026-04-26T15:10:45Z</time></trkpt><trkpt lat="43.61354717893076" lon="10.764338231862675"><ele>176.0</ele><time>2026-04-26T15:10:46Z</time></trkpt><trkpt lat="43.61355504092273" lon="10.764549111452295"><ele>176.33333333333331</ele><time>2026-04-26T15:10:47Z</time></trkpt><trkpt lat="43.613558396114875" lon="10.76478388578246"><ele>176.66666666666666</ele><time>2026-04-26T15:10:48Z</time></trkpt><trkpt lat="43.613552498637624" lon="10.76504257627641"><ele>177.0</ele><time>2026-04-26T15:10:49Z</time></trkpt><trkpt lat="43.613545445630756" lon="10.765327456307038"><ele>177.0</ele><time>2026-04-26T15:10:50Z</time></trkpt><trkpt lat="43.61353938222432" lon="10.76564138132257"><ele>177.0</ele><time>2026-04-26T15:10:51Z</time></trkpt><trkpt lat="43.61353473291779" lon="10.765952900240366"><ele>180.66666666666666</ele><time>2026-04-26T15:10:52Z</time></trkpt><trkpt lat="43.61353226360487" lon="10.766223088191289"><ele>184.33333333333331</ele><time>2026-04-26T15:10:53Z</time></trkpt><trkpt lat="43.61353012583387" lon="10.766465517370355"><ele>188.0</ele><time>2026-04-26T15:10:54Z</time></trkpt><trkpt lat="43.61352634072599" lon="10.76668067797392"><ele>189.0</ele><time>2026-04-26T15:10:55Z</time></trkpt><trkpt lat="43.61351832512373" lon="10.76688490022423"><ele>190.0</ele><time>2026-04-26T15:10:56Z</time></trkpt><trkpt lat="43.6135220658359" lon="10.767083506208573"><ele>191.0</ele><time>2026-04-26T15:10:57Z</time></trkpt><trkpt lat="43.61349591374148" lon="10.767261341014331"><ele>192.0</ele><time>2026-04-26T15:10:58Z</time></trkpt><trkpt lat="43.61348191682398" lon="10.767428619520045"><ele>192.0</ele><time>2026-04-26T15:10:59Z</time></trkpt><trkpt lat="43.613479798768495" lon="10.767588949831325"><ele>192.0</ele><time>2026-04-26T15:11:00Z</time></trkpt><trkpt lat="43.61349891079767" lon="10.767772222578891"><ele>192.0</ele><time>2026-04-26T15:11:01Z</time></trkpt><trkpt lat="43.61354478626898" lon="10.767969875343955"><ele>192.0</ele><time>2026-04-26T15:11:02Z</time></trkpt><trkpt lat="43.61358337692827" lon="10.768192602792768"><ele>191.0</ele><time>2026-04-26T15:11:03Z</time></trkpt><trkpt lat="43.61361060203996" lon="10.768430576901297"><ele>190.0</ele><time>2026-04-26T15:11:04Z</time></trkpt><trkpt lat="43.61361582083851" lon="10.768681068272016"><ele>189.0</ele><time>2026-04-26T15:11:05Z</time></trkpt><trkpt lat="43.613647989189566" lon="10.768948969821203"><ele>189.0</ele><time>2026-04-26T15:11:06Z</time></trkpt><trkpt lat="43.613685456110865" lon="10.769222401212446"><ele>189.0</ele><time>2026-04-26T15:11:07Z</time></trkpt><trkpt lat="43.613717511025484" lon="10.769505477549492"><ele>189.0</ele><time>2026-04-26T15:11:08Z</time></trkpt><trkpt lat="43.61371360818235" lon="10.769780528744024"><ele>189.0</ele><time>2026-04-26T15:11:09Z</time></trkpt><trkpt lat="43.613675597873296" lon="10.770031950873058"><ele>189.0</ele><time>2026-04-26T15:11:10Z</time></trkpt><trkpt lat="43.61360317157088" lon="10.77025505830303"><ele>189.0</ele><time>2026-04-26T15:11:11Z</time></trkpt><trkpt lat="43.61350719889241" lon="10.770455625451467"><ele>193.25</ele><time>2026-04-26T15:11:12Z</time></trkpt><trkpt lat="43.61342900382759" lon="10.770642317717046"><ele>197.5</ele><time>2026-04-26T15:11:13Z</time></trkpt><trkpt lat="43.61341552391777" lon="10.770833288361688"><ele>201.75</ele><time>2026-04-26T15:11:14Z</time></trkpt><trkpt lat="43.613411070454355" lon="10.771023590996741"><ele>206.0</ele><time>2026-04-26T15:11:15Z</time></trkpt><trkpt lat="43.613405804566" lon="10.7712261682622"><ele>206.66666666666669</ele><time>2026-04-26T15:11:16Z</time></trkpt><trkpt lat="43.613373916976315" lon="10.771427774983593"><ele>207.33333333333331</ele><time>2026-04-26T15:11:17Z</time></trkpt><trkpt lat="43.613294080777706" lon="10.771614579106682"><ele>208.0</ele><time>2026-04-26T15:11:18Z</time></trkpt><trkpt lat="43.61319491029209" lon="10.771789994885193"><ele>208.0</ele><time>2026-04-26T15:11:19Z</time></trkpt><trkpt lat="43.61308996294718" lon="10.771965990288342"><ele>208.0</ele><time>2026-04-26T15:11:20Z</time></trkpt><trkpt lat="43.61297777390039" lon="10.772129059518896"><ele>208.0</ele><time>2026-04-26T15:11:21Z</time></trkpt><trkpt lat="43.61285291138039" lon="10.77227689390767"><ele>206.66666666666666</ele><time>2026-04-26T15:11:22Z</time></trkpt><trkpt lat="43.61271819936423" lon="10.772418630791666"><ele>205.33333333333331</ele><time>2026-04-26T15:11:23Z</time></trkpt><trkpt lat="43.61257600808959" lon="10.772573091167247"><ele>204.0</ele><time>2026-04-26T15:11:24Z</time></trkpt><trkpt lat="43.61246147728404" lon="10.772773552674227"><ele>208.33333333333331</ele><time>2026-04-26T15:11:25Z</time></trkpt><trkpt lat="43.612367659031555" lon="10.773001697798938"><ele>212.66666666666666</ele><time>2026-04-26T15:11:26Z</time></trkpt><trkpt lat="43.61226727854191" lon="10.773202197466462"><ele>217.0</ele><time>2026-04-26T15:11:27Z</time></trkpt><trkpt lat="43.612175709923086" lon="10.77326961943472"><ele>217.0</ele><time>2026-04-26T15:11:28Z</time></trkpt><trkpt lat="43.612062686609534" lon="10.773279595519268"><ele>217.0</ele><time>2026-04-26T15:11:29Z</time></trkpt><trkpt lat="43.6119338263561" lon="10.773259564932562"><ele>217.0</ele><time>2026-04-26T15:11:30Z</time></trkpt><trkpt lat="43.611786935021335" lon="10.773263395191261"><ele>217.0</ele><time>2026-04-26T15:11:31Z</time></trkpt><trkpt lat="43.61162709309617" lon="10.773274259588487"><ele>216.6</ele><time>2026-04-26T15:11:32Z</time></trkpt><trkpt lat="43.61148646650016" lon="10.77332571964534"><ele>216.2</ele><time>2026-04-26T15:11:33Z</time></trkpt><trkpt lat="43.61136896976117" lon="10.77340831747931"><ele>215.8</ele><time>2026-04-26T15:11:34Z</time></trkpt><trkpt lat="43.61132617742808" lon="10.773491727033464"><ele>215.4</ele><time>2026-04-26T15:11:35Z</time></trkpt><trkpt lat="43.611285387299525" lon="10.773590406455707"><ele>215.0</ele><time>2026-04-26T15:11:36Z</time></trkpt><trkpt lat="43.6112441125867" lon="10.773728827633162"><ele>215.0</ele><time>2026-04-26T15:11:37Z</time></trkpt><trkpt lat="43.61119146792156" lon="10.773874406014054"><ele>215.0</ele><time>2026-04-26T15:11:38Z</time></trkpt><trkpt lat="43.61111199640046" lon="10.773976931461501"><ele>215.0</ele><time>2026-04-26T15:11:39Z</time></trkpt><trkpt lat="43.61100369768013" lon="10.774029279612442"><ele>215.0</ele><time>2026-04-26T15:11:40Z</time></trkpt><trkpt lat="43.610861150028114" lon="10.774022333360183"><ele>212.0</ele><time>2026-04-26T15:11:41Z</time></trkpt><trkpt lat="43.61070355051965" lon="10.774064862764863"><ele>209.0</ele><time>2026-04-26T15:11:42Z</time></trkpt><trkpt lat="43.61054473762519" lon="10.774134488191313"><ele>206.0</ele><time>2026-04-26T15:11:43Z</time></trkpt><trkpt lat="43.610381470040686" lon="10.774166528240379"><ele>205.75</ele><time>2026-04-26T15:11:44Z</time></trkpt><trkpt lat="43.61023424454346" lon="10.774186141571352"><ele>205.5</ele><time>2026-04-26T15:11:45Z</time></trkpt><trkpt lat="43.61009737912366" lon="10.774158785263294"><ele>205.25</ele><time>2026-04-26T15:11:46Z</time></trkpt><trkpt lat="43.609977005642335" lon="10.774105339518547"><ele>205.0</ele><time>2026-04-26T15:11:47Z</time></trkpt><trkpt lat="43.609855251737315" lon="10.774034347430888"><ele>205.0</ele><time>2026-04-26T15:11:48Z</time></trkpt><trkpt lat="43.6097379498255" lon="10.77395284354184"><ele>205.0</ele><time>2026-04-26T15:11:49Z</time></trkpt><trkpt lat="43.60962965317539" lon="10.773868931555285"><ele>205.0</ele><time>2026-04-26T15:11:50Z</time></trkpt><trkpt lat="43.609510142835354" lon="10.773794927582518"><ele>205.0</ele><time>2026-04-26T15:11:50.999Z</time></trkpt><trkpt lat="43.60939987659977" lon="10.773702645682901"><ele>201.25</ele><time>2026-04-26T15:11:51.999Z</time></trkpt><trkpt lat="43.60928930294158" lon="10.773613146946929"><ele>197.5</ele><time>2026-04-26T15:11:52.999Z</time></trkpt><trkpt lat="43.60917861369294" lon="10.77355026494947"><ele>193.75</ele><time>2026-04-26T15:11:53.999Z</time></trkpt><trkpt lat="43.60906145278195" lon="10.773538003608287"><ele>190.0</ele><time>2026-04-26T15:11:54.999Z</time></trkpt><trkpt lat="43.608934297045366" lon="10.773564121065588"><ele>190.0</ele><time>2026-04-26T15:11:55.999Z</time></trkpt><trkpt lat="43.60880720871581" lon="10.77362290510705"><ele>190.0</ele><time>2026-04-26T15:11:56.999Z</time></trkpt><trkpt lat="43.608691506765254" lon="10.773702233854504"><ele>190.0</ele><time>2026-04-26T15:11:57.999Z</time></trkpt><trkpt lat="43.60859297951562" lon="10.773775316259107"><ele>190.0</ele><time>2026-04-26T15:11:58.999Z</time></trkpt><trkpt lat="43.608524609352045" lon="10.773856066350742"><ele>190.6</ele><time>2026-04-26T15:11:59.999Z</time></trkpt><trkpt lat="43.60847719631331" lon="10.773955755246092"><ele>191.2</ele><time>2026-04-26T15:12:00.999Z</time></trkpt><trkpt lat="43.60844825449767" lon="10.77408449276846"><ele>191.8</ele><time>2026-04-26T15:12:01.999Z</time></trkpt><trkpt lat="43.608422363866914" lon="10.774224611630649"><ele>192.4</ele><time>2026-04-26T15:12:02.999Z</time></trkpt><trkpt lat="43.60837426508006" lon="10.774359867801392"><ele>193.0</ele><time>2026-04-26T15:12:03.999Z</time></trkpt><trkpt lat="43.60831082475157" lon="10.774479600724671"><ele>193.0</ele><time>2026-04-26T15:12:04.999Z</time></trkpt><trkpt lat="43.608222608791436" lon="10.77457408821966"><ele>193.0</ele><time>2026-04-26T15:12:05.999Z</time></trkpt><trkpt lat="43.60811077434436" lon="10.774621146463781"><ele>193.0</ele><time>2026-04-26T15:12:06.999Z</time></trkpt><trkpt lat="43.60799230129327" lon="10.77464019284139"><ele>193.0</ele><time>2026-04-26T15:12:07.999Z</time></trkpt><trkpt lat="43.6078714825866" lon="10.774648147826353"><ele>196.75</ele><time>2026-04-26T15:12:08.999Z</time></trkpt><trkpt lat="43.60774794147645" lon="10.774646975132367"><ele>200.5</ele><time>2026-04-26T15:12:09.999Z</time></trkpt><trkpt lat="43.60762529561005" lon="10.77463786000263"><ele>204.25</ele><time>2026-04-26T15:12:10.999Z</time></trkpt><trkpt lat="43.60751227650595" lon="10.774617042705225"><ele>208.0</ele><time>2026-04-26T15:12:11.999Z</time></trkpt><trkpt lat="43.60738656224573" lon="10.774601644822656"><ele>208.0</ele><time>2026-04-26T15:12:12.999Z</time></trkpt><trkpt lat="43.60726390062358" lon="10.77459445629018"><ele>208.0</ele><time>2026-04-26T15:12:13.999Z</time></trkpt><trkpt lat="43.607140301565494" lon="10.774586757707082"><ele>208.0</ele><time>2026-04-26T15:12:14.999Z</time></trkpt><trkpt lat="43.60701665451318" lon="10.774573653086419"><ele>208.0</ele><time>2026-04-26T15:12:15.999Z</time></trkpt><trkpt lat="43.60689187423183" lon="10.774557646104004"><ele>207.25</ele><time>2026-04-26T15:12:16.999Z</time></trkpt><trkpt lat="43.60676387597303" lon="10.774551349196132"><ele>206.5</ele><time>2026-04-26T15:12:18.001Z</time></trkpt><trkpt lat="43.60663755942779" lon="10.774542654768862"><ele>205.75</ele><time>2026-04-26T15:12:19.001Z</time></trkpt><trkpt lat="43.60651534214369" lon="10.774520426633076"><ele>205.0</ele><time>2026-04-26T15:12:20.001Z</time></trkpt><trkpt lat="43.60640707767492" lon="10.774498382771359"><ele>205.0</ele><time>2026-04-26T15:12:21.001Z</time></trkpt><trkpt lat="43.60630526713937" lon="10.774476940802504"><ele>205.0</ele><time>2026-04-26T15:12:22.001Z</time></trkpt><trkpt lat="43.60621158872602" lon="10.774432242764728"><ele>205.0</ele><time>2026-04-26T15:12:23Z</time></trkpt><trkpt lat="43.60611863980039" lon="10.774429239601545"><ele>205.0</ele><time>2026-04-26T15:12:24Z</time></trkpt><trkpt lat="43.60602532209932" lon="10.774399743178416"><ele>205.0</ele><time>2026-04-26T15:12:25Z</time></trkpt><trkpt lat="43.60594554011523" lon="10.774369754490149"><ele>204.71428571428572</ele><time>2026-04-26T15:12:26Z</time></trkpt><trkpt lat="43.60586749784305" lon="10.77433593120959"><ele>204.42857142857142</ele><time>2026-04-26T15:12:27Z</time></trkpt><trkpt lat="43.60580018595168" lon="10.774303543846194"><ele>204.14285714285714</ele><time>2026-04-26T15:12:28Z</time></trkpt><trkpt lat="43.60573166201958" lon="10.774278792824887"><ele>203.85714285714286</ele><time>2026-04-26T15:12:29Z</time></trkpt><trkpt lat="43.60567318678215" lon="10.774242490483166"><ele>203.57142857142856</ele><time>2026-04-26T15:12:30Z</time></trkpt><trkpt lat="43.605603757918146" lon="10.774214881699534"><ele>203.28571428571428</ele><time>2026-04-26T15:12:31Z</time></trkpt><trkpt lat="43.60552659532409" lon="10.774180700526122"><ele>203.0</ele><time>2026-04-26T15:12:32Z</time></trkpt><trkpt lat="43.6054464212436" lon="10.774151946785182"><ele>203.0</ele><time>2026-04-26T15:12:33Z</time></trkpt><trkpt lat="43.60537111961268" lon="10.77413206449429"><ele>203.0</ele><time>2026-04-26T15:12:34Z</time></trkpt><trkpt lat="43.605272539643124" lon="10.774124573741435"><ele>203.0</ele><time>2026-04-26T15:12:36Z</time></trkpt><trkpt lat="43.605195912573365" lon="10.774194908219194"><ele>203.0</ele><time>2026-04-26T15:12:40Z</time></trkpt><trkpt lat="43.60509862507843" lon="10.774233242997326"><ele>203.0</ele><time>2026-04-26T15:12:42Z</time></trkpt><trkpt lat="43.60498746729324" lon="10.774237167497306"><ele>203.0</ele><time>2026-04-26T15:12:48Z</time></trkpt><trkpt lat="43.605034488236534" lon="10.774102569205226"><ele>203.0</ele><time>2026-04-26T15:12:49Z</time></trkpt><trkpt lat="43.60501772856161" lon="10.774000687503793"><ele>203.0</ele><time>2026-04-26T15:12:51Z</time></trkpt><trkpt lat="43.6050008623388" lon="10.773884478929128"><ele>203.0</ele><time>2026-04-26T15:12:53Z</time></trkpt><trkpt lat="43.60497723804288" lon="10.773710778285567"><ele>203.0</ele><time>2026-04-26T15:12:55Z</time></trkpt><trkpt lat="43.604969264440875" lon="10.773543019439156"><ele>203.00000000000003</ele><time>2026-04-26T15:12:57Z</time></trkpt><trkpt lat="43.60497249930099" lon="10.77344758496704"><ele>203.0</ele><time>2026-04-26T15:12:58Z</time></trkpt><trkpt lat="43.604967890095025" lon="10.773286232686333"><ele>203.0</ele><time>2026-04-26T15:13:00Z</time></trkpt><trkpt lat="43.604961254498456" lon="10.773178623458755"><ele>203.0</ele><time>2026-04-26T15:13:02Z</time></trkpt><trkpt lat="43.60496333462552" lon="10.773068426678934"><ele>203.00000000000003</ele><time>2026-04-26T15:13:04Z</time></trkpt><trkpt lat="43.60496360511783" lon="10.772928015186462"><ele>203.0</ele><time>2026-04-26T15:13:06Z</time></trkpt><trkpt lat="43.60496394448909" lon="10.772751847727173"><ele>202.50000000000003</ele><time>2026-04-26T15:13:08Z</time></trkpt><trkpt lat="43.60496414798651" lon="10.772646212587306"><ele>202.0</ele><time>2026-04-26T15:13:09Z</time></trkpt><trkpt lat="43.604963854896674" lon="10.772544338613917"><ele>201.5</ele><time>2026-04-26T15:13:10Z</time></trkpt><trkpt lat="43.60496304332297" lon="10.77244475851515"><ele>201.0</ele><time>2026-04-26T15:13:11Z</time></trkpt><trkpt lat="43.60496230279662" lon="10.772353895779796"><ele>200.50000000000003</ele><time>2026-04-26T15:13:12Z</time></trkpt><trkpt lat="43.604963010097755" lon="10.772185638711846"><ele>200.0</ele><time>2026-04-26T15:13:14Z</time></trkpt><trkpt lat="43.604947976860316" lon="10.7720975816943"><ele>200.00000000000003</ele><time>2026-04-26T15:13:15Z</time></trkpt><trkpt lat="43.60495025439186" lon="10.772005370648607"><ele>200.0</ele><time>2026-04-26T15:13:16Z</time></trkpt><trkpt lat="43.60497003548914" lon="10.771919314911685"><ele>200.0</ele><time>2026-04-26T15:13:17Z</time></trkpt><trkpt lat="43.604975899845115" lon="10.771829651432952"><ele>200.0</ele><time>2026-04-26T15:13:18Z</time></trkpt><trkpt lat="43.604974966657124" lon="10.77167315804804"><ele>200.00000000000003</ele><time>2026-04-26T15:13:20Z</time></trkpt><trkpt lat="43.60499770630013" lon="10.771589122865862"><ele>200.0</ele><time>2026-04-26T15:13:21Z</time></trkpt><trkpt lat="43.60501655862499" lon="10.77144232012374"><ele>200.16666666666669</ele><time>2026-04-26T15:13:23Z</time></trkpt><trkpt lat="43.60511104799211" lon="10.771363838586085"><ele>200.33333333333334</ele><time>2026-04-26T15:13:25Z</time></trkpt><trkpt lat="43.60519192347119" lon="10.771332564016367"><ele>200.5</ele><time>2026-04-26T15:13:26Z</time></trkpt><trkpt lat="43.60526498993294" lon="10.771290820417043"><ele>200.66666666666669</ele><time>2026-04-26T15:13:27Z</time></trkpt><trkpt lat="43.60533906632322" lon="10.771240827016353"><ele>200.83333333333334</ele><time>2026-04-26T15:13:28Z</time></trkpt><trkpt lat="43.60540375016358" lon="10.771168248226894"><ele>201.0</ele><time>2026-04-26T15:13:29Z</time></trkpt><trkpt lat="43.60546267720753" lon="10.771078828365727"><ele>200.20000000000002</ele><time>2026-04-26T15:13:30Z</time></trkpt><trkpt lat="43.60553532991941" lon="10.770989680697852"><ele>199.4</ele><time>2026-04-26T15:13:31Z</time></trkpt><trkpt lat="43.605573829359564" lon="10.770871675468996"><ele>198.6</ele><time>2026-04-26T15:13:32Z</time></trkpt><trkpt lat="43.60560700754762" lon="10.770740081469178"><ele>197.8</ele><time>2026-04-26T15:13:33Z</time></trkpt><trkpt lat="43.605638594330124" lon="10.770610972820903"><ele>197.0</ele><time>2026-04-26T15:13:34Z</time></trkpt><trkpt lat="43.605657380777" lon="10.7704738058591"><ele>197.0</ele><time>2026-04-26T15:13:35Z</time></trkpt><trkpt lat="43.60569481743673" lon="10.770350510458453"><ele>197.0</ele><time>2026-04-26T15:13:36Z</time></trkpt><trkpt lat="43.60572098136098" lon="10.770224224179557"><ele>197.0</ele><time>2026-04-26T15:13:37Z</time></trkpt><trkpt lat="43.60574653652165" lon="10.770098196855942"><ele>197.0</ele><time>2026-04-26T15:13:38Z</time></trkpt><trkpt lat="43.60576117004541" lon="10.769972534574126"><ele>197.0</ele><time>2026-04-26T15:13:39Z</time></trkpt><trkpt lat="43.60575812900385" lon="10.76984527688696"><ele>197.39999999999998</ele><time>2026-04-26T15:13:40Z</time></trkpt><trkpt lat="43.605721491617" lon="10.769715540909093"><ele>197.79999999999998</ele><time>2026-04-26T15:13:41Z</time></trkpt><trkpt lat="43.60567224080982" lon="10.769586356318403"><ele>198.2</ele><time>2026-04-26T15:13:42Z</time></trkpt><trkpt lat="43.60561081422086" lon="10.769472135733988"><ele>198.6</ele><time>2026-04-26T15:13:43Z</time></trkpt><trkpt lat="43.60553210625189" lon="10.76937751139484"><ele>199.0</ele><time>2026-04-26T15:13:44Z</time></trkpt><trkpt lat="43.60543094245253" lon="10.769314273094018"><ele>199.0</ele><time>2026-04-26T15:13:45Z</time></trkpt><trkpt lat="43.6053359313729" lon="10.769239729878635"><ele>199.0</ele><time>2026-04-26T15:13:46Z</time></trkpt><trkpt lat="43.605250441390254" lon="10.76914908842657"><ele>199.0</ele><time>2026-04-26T15:13:47Z</time></trkpt><trkpt lat="43.605171426304665" lon="10.769058197823577"><ele>199.0</ele><time>2026-04-26T15:13:48Z</time></trkpt><trkpt lat="43.605103896804685" lon="10.768980586154298"><ele>199.0</ele><time>2026-04-26T15:13:49Z</time></trkpt><trkpt lat="43.60506777362387" lon="10.768860004714785"><ele>200.6</ele><time>2026-04-26T15:13:51Z</time></trkpt><trkpt lat="43.605079377067646" lon="10.768747841438712"><ele>202.2</ele><time>2026-04-26T15:13:53Z</time></trkpt><trkpt lat="43.605077291482594" lon="10.768635869228081"><ele>203.79999999999998</ele><time>2026-04-26T15:13:55Z</time></trkpt><trkpt lat="43.60511053127423" lon="10.768538523830934"><ele>205.39999999999998</ele><time>2026-04-26T15:13:57Z</time></trkpt><trkpt lat="43.60516079144797" lon="10.768376482355505"><ele>207.0</ele><time>2026-04-26T15:13:59Z</time></trkpt><trkpt lat="43.60518500356965" lon="10.768262497376773"><ele>207.0</ele><time>2026-04-26T15:13:59.999Z</time></trkpt><trkpt lat="43.60522424745423" lon="10.76814660209693"><ele>207.0</ele><time>2026-04-26T15:14:00.999Z</time></trkpt><trkpt lat="43.60526711235483" lon="10.76802607122674"><ele>207.0</ele><time>2026-04-26T15:14:01.999Z</time></trkpt><trkpt lat="43.60530675896939" lon="10.767892984800776"><ele>207.0</ele><time>2026-04-26T15:14:02.999Z</time></trkpt><trkpt lat="43.60534767576396" lon="10.767755785154232"><ele>207.0</ele><time>2026-04-26T15:14:03.999Z</time></trkpt><trkpt lat="43.60538874164845" lon="10.76764006058237"><ele>206.8</ele><time>2026-04-26T15:14:04.999Z</time></trkpt><trkpt lat="43.60542545664895" lon="10.767536420624522"><ele>206.6</ele><time>2026-04-26T15:14:05.999Z</time></trkpt><trkpt lat="43.60545388060684" lon="10.767421345425367"><ele>206.4</ele><time>2026-04-26T15:14:06.999Z</time></trkpt><trkpt lat="43.60550731752913" lon="10.767310019248846"><ele>206.20000000000002</ele><time>2026-04-26T15:14:07.999Z</time></trkpt><trkpt lat="43.605554904679" lon="10.767180034421566"><ele>206.0</ele><time>2026-04-26T15:14:08.999Z</time></trkpt><trkpt lat="43.60560266086564" lon="10.767050306303554"><ele>206.00000000000003</ele><time>2026-04-26T15:14:09.999Z</time></trkpt><trkpt lat="43.605651936081586" lon="10.766920509508333"><ele>206.0</ele><time>2026-04-26T15:14:10.999Z</time></trkpt><trkpt lat="43.60569709307998" lon="10.76681111559538"><ele>206.0</ele><time>2026-04-26T15:14:11.999Z</time></trkpt><trkpt lat="43.60573559808995" lon="10.766717802035227"><ele>206.0</ele><time>2026-04-26T15:14:12.999Z</time></trkpt><trkpt lat="43.60577047127934" lon="10.766633290050317"><ele>206.00000000000003</ele><time>2026-04-26T15:14:13.999Z</time></trkpt><trkpt lat="43.60581022786421" lon="10.766537555162628"><ele>206.0</ele><time>2026-04-26T15:14:14.999Z</time></trkpt><trkpt lat="43.605857104178504" lon="10.766423846206068"><ele>207.00000000000003</ele><time>2026-04-26T15:14:15.999Z</time></trkpt><trkpt lat="43.60590411110113" lon="10.76629605145092"><ele>208.0</ele><time>2026-04-26T15:14:16.999Z</time></trkpt><trkpt lat="43.605938981490084" lon="10.766154320799155"><ele>209.0</ele><time>2026-04-26T15:14:17.999Z</time></trkpt><trkpt lat="43.605988610874206" lon="10.766060875977503"><ele>210.0</ele><time>2026-04-26T15:14:18.999Z</time></trkpt><trkpt lat="43.606015011241325" lon="10.765980438114994"><ele>211.00000000000003</ele><time>2026-04-26T15:14:19.999Z</time></trkpt><trkpt lat="43.60604362909503" lon="10.76587467258282"><ele>212.0</ele><time>2026-04-26T15:14:21.999Z</time></trkpt><trkpt lat="43.60611700506752" lon="10.765839186148018"><ele>209.66666666666669</ele><time>2026-04-26T15:14:56Z</time></trkpt><trkpt lat="43.606207895164744" lon="10.765704319965856"><ele>207.33333333333334</ele><time>2026-04-26T15:14:58Z</time></trkpt><trkpt lat="43.60625028321908" lon="10.765633325186336"><ele>205.0</ele><time>2026-04-26T15:14:59Z</time></trkpt><trkpt lat="43.606297643010635" lon="10.765548562554178"><ele>202.66666666666669</ele><time>2026-04-26T15:15:00Z</time></trkpt><trkpt lat="43.606336500150725" lon="10.765477757915129"><ele>200.33333333333334</ele><time>2026-04-26T15:15:01Z</time></trkpt><trkpt lat="43.60638604655175" lon="10.765347729218027"><ele>198.0</ele><time>2026-04-26T15:15:02Z</time></trkpt><trkpt lat="43.606450796574826" lon="10.76525274901068"><ele>199.75</ele><time>2026-04-26T15:15:03Z</time></trkpt><trkpt lat="43.60651415763892" lon="10.765125399403548"><ele>201.5</ele><time>2026-04-26T15:15:04Z</time></trkpt><trkpt lat="43.60658204009714" lon="10.764989606353268"><ele>203.25</ele><time>2026-04-26T15:15:05Z</time></trkpt><trkpt lat="43.606648639639694" lon="10.764856371988571"><ele>205.0</ele><time>2026-04-26T15:15:06Z</time></trkpt><trkpt lat="43.60671455934579" lon="10.764723337573777"><ele>205.0</ele><time>2026-04-26T15:15:07Z</time></trkpt><trkpt lat="43.60677539253797" lon="10.764597162203449"><ele>205.0</ele><time>2026-04-26T15:15:08Z</time></trkpt><trkpt lat="43.606839084954295" lon="10.764467593371304"><ele>205.0</ele><time>2026-04-26T15:15:09Z</time></trkpt><trkpt lat="43.60693105110901" lon="10.764381645294302"><ele>205.0</ele><time>2026-04-26T15:15:10Z</time></trkpt><trkpt lat="43.60702244496479" lon="10.764301378507422"><ele>205.0</ele><time>2026-04-26T15:15:11Z</time></trkpt><trkpt lat="43.607122867713876" lon="10.76422482098895"><ele>201.8</ele><time>2026-04-26T15:15:12Z</time></trkpt><trkpt lat="43.60721450520019" lon="10.764144280902418"><ele>198.6</ele><time>2026-04-26T15:15:13Z</time></trkpt><trkpt lat="43.60728997218749" lon="10.764058635568478"><ele>195.39999999999998</ele><time>2026-04-26T15:15:14Z</time></trkpt><trkpt lat="43.607342326451054" lon="10.763957305993355"><ele>192.2</ele><time>2026-04-26T15:15:15Z</time></trkpt><trkpt lat="43.60738351755223" lon="10.763846829826862"><ele>189.0</ele><time>2026-04-26T15:15:16Z</time></trkpt><trkpt lat="43.60743396740543" lon="10.763708563788942"><ele>189.0</ele><time>2026-04-26T15:15:17Z</time></trkpt><trkpt lat="43.60745759650582" lon="10.763537477061767"><ele>189.0</ele><time>2026-04-26T15:15:18Z</time></trkpt><trkpt lat="43.60747983962488" lon="10.763360477946108"><ele>189.0</ele><time>2026-04-26T15:15:19Z</time></trkpt><trkpt lat="43.60750550660356" lon="10.763171140382063"><ele>189.0</ele><time>2026-04-26T15:15:20Z</time></trkpt><trkpt lat="43.60753043090183" lon="10.762976124306238"><ele>189.5</ele><time>2026-04-26T15:15:21Z</time></trkpt><trkpt lat="43.60756215045533" lon="10.762795342832433"><ele>190.0</ele><time>2026-04-26T15:15:22Z</time></trkpt><trkpt lat="43.607610099537965" lon="10.762631132301374"><ele>190.5</ele><time>2026-04-26T15:15:23Z</time></trkpt><trkpt lat="43.60767156270732" lon="10.76248112304242"><ele>191.0</ele><time>2026-04-26T15:15:24Z</time></trkpt><trkpt lat="43.607722681302576" lon="10.762328696450878"><ele>191.0</ele><time>2026-04-26T15:15:25Z</time></trkpt><trkpt lat="43.60776787042043" lon="10.762170984257954"><ele>191.0</ele><time>2026-04-26T15:15:26Z</time></trkpt><trkpt lat="43.60781319715213" lon="10.762008769918646"><ele>191.0</ele><time>2026-04-26T15:15:27Z</time></trkpt><trkpt lat="43.60785589932219" lon="10.761848936629567"><ele>191.0</ele><time>2026-04-26T15:15:28Z</time></trkpt><trkpt lat="43.60789559856832" lon="10.761699216082219"><ele>191.0</ele><time>2026-04-26T15:15:29Z</time></trkpt><trkpt lat="43.60793243339989" lon="10.761557232439403"><ele>191.0</ele><time>2026-04-26T15:15:30Z</time></trkpt><trkpt lat="43.60796647951818" lon="10.761422203710502"><ele>191.0</ele><time>2026-04-26T15:15:31Z</time></trkpt><trkpt lat="43.607999587269" lon="10.761290858129973"><ele>191.0</ele><time>2026-04-26T15:15:32Z</time></trkpt><trkpt lat="43.60803147465204" lon="10.76116072686695"><ele>191.0</ele><time>2026-04-26T15:15:33Z</time></trkpt><trkpt lat="43.60806337037738" lon="10.76102715270923"><ele>191.0</ele><time>2026-04-26T15:15:34Z</time></trkpt><trkpt lat="43.6080951396788" lon="10.760891603530723"><ele>191.0</ele><time>2026-04-26T15:15:35Z</time></trkpt><trkpt lat="43.608127203410284" lon="10.760754798124621"><ele>191.0</ele><time>2026-04-26T15:15:36Z</time></trkpt><trkpt lat="43.60815644518208" lon="10.760608502693264"><ele>191.0</ele><time>2026-04-26T15:15:37Z</time></trkpt><trkpt lat="43.6081763043453" lon="10.760459003947227"><ele>191.0</ele><time>2026-04-26T15:15:38Z</time></trkpt><trkpt lat="43.60817047239075" lon="10.760306185293782"><ele>190.0</ele><time>2026-04-26T15:15:39Z</time></trkpt><trkpt lat="43.60815914687203" lon="10.760164073474689"><ele>189.0</ele><time>2026-04-26T15:15:40Z</time></trkpt><trkpt lat="43.60815933762936" lon="10.760040001048068"><ele>188.0</ele><time>2026-04-26T15:15:41Z</time></trkpt><trkpt lat="43.608172471640664" lon="10.75993383187608"><ele>187.0</ele><time>2026-04-26T15:15:42Z</time></trkpt><trkpt lat="43.608200691194966" lon="10.75982996693815"><ele>186.0</ele><time>2026-04-26T15:15:43Z</time></trkpt><trkpt lat="43.608256793995785" lon="10.759751138898588"><ele>185.0</ele><time>2026-04-26T15:15:44Z</time></trkpt><trkpt lat="43.6083347571148" lon="10.759698306666364"><ele>185.0</ele><time>2026-04-26T15:15:45Z</time></trkpt><trkpt lat="43.60844595364295" lon="10.759605785612928"><ele>185.0</ele><time>2026-04-26T15:15:46Z</time></trkpt><trkpt lat="43.608550774006574" lon="10.759500640579592"><ele>185.0</ele><time>2026-04-26T15:15:47Z</time></trkpt><trkpt lat="43.60866657987532" lon="10.759380668157199"><ele>185.0</ele><time>2026-04-26T15:15:48Z</time></trkpt><trkpt lat="43.60877725571127" lon="10.759248344677092"><ele>182.75</ele><time>2026-04-26T15:15:49Z</time></trkpt><trkpt lat="43.60887599111824" lon="10.759081370682953"><ele>180.5</ele><time>2026-04-26T15:15:50Z</time></trkpt><trkpt lat="43.60896264284202" lon="10.758888622963346"><ele>178.25</ele><time>2026-04-26T15:15:51Z</time></trkpt><trkpt lat="43.60901678813664" lon="10.75874586615113"><ele>176.0</ele><time>2026-04-26T15:15:52Z</time></trkpt><trkpt lat="43.60906880059539" lon="10.758641236181127"><ele>176.0</ele><time>2026-04-26T15:15:53Z</time></trkpt><trkpt lat="43.609129480392845" lon="10.758560556575745"><ele>176.0</ele><time>2026-04-26T15:15:54Z</time></trkpt><trkpt lat="43.60920537485081" lon="10.758488363619698"><ele>176.0</ele><time>2026-04-26T15:15:55Z</time></trkpt><trkpt lat="43.60928113080239" lon="10.758420842875637"><ele>176.0</ele><time>2026-04-26T15:15:56Z</time></trkpt><trkpt lat="43.60935023938997" lon="10.758359990760328"><ele>176.0</ele><time>2026-04-26T15:15:57Z</time></trkpt><trkpt lat="43.60941812399455" lon="10.758294277370236"><ele>176.0</ele><time>2026-04-26T15:15:58Z</time></trkpt><trkpt lat="43.609479493801125" lon="10.758235080527749"><ele>176.0</ele><time>2026-04-26T15:15:58.999Z</time></trkpt><trkpt lat="43.60953066360312" lon="10.758180315468056"><ele>176.0</ele><time>2026-04-26T15:15:59.999Z</time></trkpt><trkpt lat="43.60958574305231" lon="10.758080340093851"><ele>176.0</ele><time>2026-04-26T15:16:02.999Z</time></trkpt><trkpt lat="43.60955702204176" lon="10.757971488650082"><ele>176.0</ele><time>2026-04-26T15:16:04.999Z</time></trkpt><trkpt lat="43.60949588122531" lon="10.757831430803384"><ele>176.0</ele><time>2026-04-26T15:16:06.999Z</time></trkpt><trkpt lat="43.609446374777725" lon="10.757723789925352"><ele>177.33333333333331</ele><time>2026-04-26T15:16:08.999Z</time></trkpt><trkpt lat="43.60939455158922" lon="10.757622023825443"><ele>178.66666666666666</ele><time>2026-04-26T15:16:10.999Z</time></trkpt><trkpt lat="43.60934577489984" lon="10.757525080412872"><ele>180.0</ele><time>2026-04-26T15:16:12.999Z</time></trkpt><trkpt lat="43.60929749861913" lon="10.757421547484741"><ele>181.33333333333334</ele><time>2026-04-26T15:16:14.999Z</time></trkpt><trkpt lat="43.6092512844195" lon="10.757315116697034"><ele>182.66666666666669</ele><time>2026-04-26T15:16:16.999Z</time></trkpt><trkpt lat="43.609222086850544" lon="10.75723609232209"><ele>184.0</ele><time>2026-04-26T15:16:19.999Z</time></trkpt><trkpt lat="43.609330434795815" lon="10.757192507304401"><ele>184.0</ele><time>2026-04-26T15:16:33.001Z</time></trkpt><trkpt lat="43.60938869428254" lon="10.757230885489738"><ele>184.0</ele><time>2026-04-26T15:16:34.001Z</time></trkpt><trkpt lat="43.60944611287732" lon="10.757273259428404"><ele>184.0</ele><time>2026-04-26T15:16:35.001Z</time></trkpt><trkpt lat="43.60950900460981" lon="10.757319710941733"><ele>184.0</ele><time>2026-04-26T15:16:36.001Z</time></trkpt><trkpt lat="43.60957542772957" lon="10.757364596316297"><ele>184.0</ele><time>2026-04-26T15:16:37.001Z</time></trkpt><trkpt lat="43.60964429675451" lon="10.757429464864286"><ele>184.0</ele><time>2026-04-26T15:16:38.001Z</time></trkpt><trkpt lat="43.60970903162394" lon="10.757465403392702"><ele>184.0</ele><time>2026-04-26T15:16:39.001Z</time></trkpt><trkpt lat="43.60982448204803" lon="10.757492279542113"><ele>182.33333333333334</ele><time>2026-04-26T15:16:41.001Z</time></trkpt><trkpt lat="43.609901729897814" lon="10.75749714908555"><ele>180.66666666666669</ele><time>2026-04-26T15:16:43.001Z</time></trkpt><trkpt lat="43.609966908676135" lon="10.757490748672655"><ele>179.0</ele><time>2026-04-26T15:16:45.001Z</time></trkpt><trkpt lat="43.61000704649143" lon="10.757323965681827"><ele>177.33333333333334</ele><time>2026-04-26T15:16:46.001Z</time></trkpt><trkpt lat="43.609994950529995" lon="10.757197041718653"><ele>175.66666666666666</ele><time>2026-04-26T15:16:47.001Z</time></trkpt><trkpt lat="43.61000368640726" lon="10.757083404130892"><ele>174.0</ele><time>2026-04-26T15:16:49.001Z</time></trkpt><trkpt lat="43.610018361371694" lon="10.756968541606485"><ele>172.39999999999998</ele><time>2026-04-26T15:16:51.001Z</time></trkpt><trkpt lat="43.61005446578567" lon="10.756851602377537"><ele>170.8</ele><time>2026-04-26T15:17:01Z</time></trkpt><trkpt lat="43.61012354331145" lon="10.75671693691469"><ele>169.2</ele><time>2026-04-26T15:17:03Z</time></trkpt><trkpt lat="43.610197265674124" lon="10.756577145340044"><ele>167.60000000000002</ele><time>2026-04-26T15:17:05Z</time></trkpt><trkpt lat="43.610236912177704" lon="10.756490139774547"><ele>166.0</ele><time>2026-04-26T15:17:06Z</time></trkpt><trkpt lat="43.61027758602026" lon="10.75639148128128"><ele>166.0</ele><time>2026-04-26T15:17:07Z</time></trkpt><trkpt lat="43.61031802415796" lon="10.756290852439838"><ele>166.0</ele><time>2026-04-26T15:17:08Z</time></trkpt><trkpt lat="43.610360801516826" lon="10.756182770681004"><ele>166.0</ele><time>2026-04-26T15:17:09Z</time></trkpt><trkpt lat="43.61040470931609" lon="10.756071832818531"><ele>166.0</ele><time>2026-04-26T15:17:10Z</time></trkpt><trkpt lat="43.610450808462815" lon="10.755955339214587"><ele>166.0</ele><time>2026-04-26T15:17:11Z</time></trkpt><trkpt lat="43.61049799213577" lon="10.755833212489527"><ele>166.5</ele><time>2026-04-26T15:17:12Z</time></trkpt><trkpt lat="43.61054379134853" lon="10.7557086043992"><ele>167.0</ele><time>2026-04-26T15:17:13Z</time></trkpt><trkpt lat="43.610592216453426" lon="10.755589318098654"><ele>167.5</ele><time>2026-04-26T15:17:14Z</time></trkpt><trkpt lat="43.610638755929834" lon="10.755500281121616"><ele>168.0</ele><time>2026-04-26T15:17:15Z</time></trkpt><trkpt lat="43.61069303058439" lon="10.755422307984157"><ele>168.5</ele><time>2026-04-26T15:17:16Z</time></trkpt><trkpt lat="43.61075907401221" lon="10.755351530149916"><ele>169.0</ele><time>2026-04-26T15:17:17Z</time></trkpt><trkpt lat="43.610832957630016" lon="10.755288880299714"><ele>169.0</ele><time>2026-04-26T15:17:18Z</time></trkpt><trkpt lat="43.61091280264924" lon="10.755226542793613"><ele>169.0</ele><time>2026-04-26T15:17:19Z</time></trkpt><trkpt lat="43.61101146479191" lon="10.755172636355475"><ele>169.0</ele><time>2026-04-26T15:17:20Z</time></trkpt><trkpt lat="43.611110124398145" lon="10.755123296960804"><ele>169.0</ele><time>2026-04-26T15:17:21Z</time></trkpt><trkpt lat="43.61121276646414" lon="10.75507602684923"><ele>169.0</ele><time>2026-04-26T15:17:22Z</time></trkpt><trkpt lat="43.61132181439277" lon="10.755039465712505"><ele>169.39999999999998</ele><time>2026-04-26T15:17:23Z</time></trkpt><trkpt lat="43.6114346184532" lon="10.755006033536016"><ele>169.8</ele><time>2026-04-26T15:17:24Z</time></trkpt><trkpt lat="43.61153911422935" lon="10.754973712134586"><ele>170.2</ele><time>2026-04-26T15:17:25Z</time></trkpt><trkpt lat="43.61163136320909" lon="10.754932801041235"><ele>170.60000000000002</ele><time>2026-04-26T15:17:26Z</time></trkpt><trkpt lat="43.61170869822572" lon="10.75488103982118"><ele>171.0</ele><time>2026-04-26T15:17:27Z</time></trkpt><trkpt lat="43.611778524405175" lon="10.754812672332317"><ele>171.0</ele><time>2026-04-26T15:17:28Z</time></trkpt><trkpt lat="43.61183681818133" lon="10.75470649174528"><ele>171.0</ele><time>2026-04-26T15:17:29Z</time></trkpt><trkpt lat="43.61188052673548" lon="10.754610154910944"><ele>171.0</ele><time>2026-04-26T15:17:30Z</time></trkpt><trkpt lat="43.61191478485581" lon="10.754529004580563"><ele>171.0</ele><time>2026-04-26T15:17:31Z</time></trkpt><trkpt lat="43.611975726577946" lon="10.754396453802695"><ele>171.0</ele><time>2026-04-26T15:17:33Z</time></trkpt><trkpt lat="43.612045373940155" lon="10.7542862609635"><ele>169.8</ele><time>2026-04-26T15:17:35Z</time></trkpt><trkpt lat="43.61213729027011" lon="10.7541593345965"><ele>168.60000000000002</ele><time>2026-04-26T15:17:37Z</time></trkpt><trkpt lat="43.61217693687348" lon="10.75408920352032"><ele>167.4</ele><time>2026-04-26T15:17:38Z</time></trkpt><trkpt lat="43.61223271008639" lon="10.753943025783734"><ele>166.2</ele><time>2026-04-26T15:17:40Z</time></trkpt><trkpt lat="43.612255955227745" lon="10.753837184810786"><ele>165.0</ele><time>2026-04-26T15:17:42Z</time></trkpt><trkpt lat="43.612272297190174" lon="10.753731032665117"><ele>165.0</ele><time>2026-04-26T15:17:44Z</time></trkpt><trkpt lat="43.61228529370197" lon="10.753606469639598"><ele>165.0</ele><time>2026-04-26T15:17:46Z</time></trkpt><trkpt lat="43.612297235918135" lon="10.75346377293223"><ele>165.0</ele><time>2026-04-26T15:17:48Z</time></trkpt><trkpt lat="43.61230456122177" lon="10.753309981592302"><ele>165.0</ele><time>2026-04-26T15:17:50Z</time></trkpt><trkpt lat="43.61230014153365" lon="10.753149165045711"><ele>165.0</ele><time>2026-04-26T15:17:52Z</time></trkpt><trkpt lat="43.61227485129904" lon="10.752993922339229"><ele>165.6</ele><time>2026-04-26T15:17:54Z</time></trkpt><trkpt lat="43.612233792168375" lon="10.752859348248148"><ele>166.2</ele><time>2026-04-26T15:17:55.999Z</time></trkpt><trkpt lat="43.61219643469511" lon="10.752748714962294"><ele>166.8</ele><time>2026-04-26T15:17:57.999Z</time></trkpt><trkpt lat="43.612159407188344" lon="10.752614121828376"><ele>167.4</ele><time>2026-04-26T15:17:59.999Z</time></trkpt><trkpt lat="43.61213596489241" lon="10.752492335719028"><ele>168.0</ele><time>2026-04-26T15:18:01.999Z</time></trkpt><trkpt lat="43.612119657670064" lon="10.752383502037254"><ele>168.33333333333334</ele><time>2026-04-26T15:18:03.999Z</time></trkpt><trkpt lat="43.61211203121152" lon="10.752283420737692"><ele>168.66666666666666</ele><time>2026-04-26T15:18:05.999Z</time></trkpt><trkpt lat="43.612109096276136" lon="10.752150681589411"><ele>169.0</ele><time>2026-04-26T15:18:07.999Z</time></trkpt><trkpt lat="43.61211164083764" lon="10.751976088453288"><ele>169.33333333333331</ele><time>2026-04-26T15:18:09.999Z</time></trkpt><trkpt lat="43.612118194493014" lon="10.751881480708931"><ele>169.66666666666666</ele><time>2026-04-26T15:18:10.999Z</time></trkpt><trkpt lat="43.612128465507645" lon="10.751788299614969"><ele>170.0</ele><time>2026-04-26T15:18:11.999Z</time></trkpt><trkpt lat="43.61216130235319" lon="10.751640858400995"><ele>169.0</ele><time>2026-04-26T15:18:13.999Z</time></trkpt><trkpt lat="43.61221611459825" lon="10.751539428597805"><ele>168.0</ele><time>2026-04-26T15:18:15.999Z</time></trkpt><trkpt lat="43.61226263489008" lon="10.75146202411335"><ele>167.0</ele><time>2026-04-26T15:18:16.999Z</time></trkpt><trkpt lat="43.61231744615209" lon="10.75137572242448"><ele>166.0</ele><time>2026-04-26T15:18:17.999Z</time></trkpt><trkpt lat="43.612364977586985" lon="10.751299874111448"><ele>165.0</ele><time>2026-04-26T15:18:18.999Z</time></trkpt><trkpt lat="43.61243490537553" lon="10.751160676904448"><ele>164.0</ele><time>2026-04-26T15:18:20.999Z</time></trkpt><trkpt lat="43.61246970555039" lon="10.751071952775778"><ele>164.16666666666666</ele><time>2026-04-26T15:18:21.999Z</time></trkpt><trkpt lat="43.61250298924836" lon="10.750977637954511"><ele>164.33333333333331</ele><time>2026-04-26T15:18:22.999Z</time></trkpt><trkpt lat="43.6125336526755" lon="10.750876285031927"><ele>164.5</ele><time>2026-04-26T15:18:23.999Z</time></trkpt><trkpt lat="43.61255760953128" lon="10.75078163580113"><ele>164.66666666666666</ele><time>2026-04-26T15:18:24.999Z</time></trkpt><trkpt lat="43.61257911722892" lon="10.750681788494568"><ele>164.83333333333334</ele><time>2026-04-26T15:18:25.999Z</time></trkpt><trkpt lat="43.61259900703981" lon="10.750573095002922"><ele>165.0</ele><time>2026-04-26T15:18:26.999Z</time></trkpt><trkpt lat="43.612612644535254" lon="10.750449443045909"><ele>165.0</ele><time>2026-04-26T15:18:27.999Z</time></trkpt><trkpt lat="43.612625240792845" lon="10.750320378903018"><ele>165.0</ele><time>2026-04-26T15:18:28.999Z</time></trkpt><trkpt lat="43.61264028387674" lon="10.750180644824706"><ele>165.0</ele><time>2026-04-26T15:18:29.999Z</time></trkpt><trkpt lat="43.612659798474866" lon="10.750023832665699"><ele>165.0</ele><time>2026-04-26T15:18:30.999Z</time></trkpt><trkpt lat="43.61267752799258" lon="10.749888217172838"><ele>165.0</ele><time>2026-04-26T15:18:31.999Z</time></trkpt><trkpt lat="43.61269344538321" lon="10.74976646357844"><ele>165.16666666666666</ele><time>2026-04-26T15:18:32.999Z</time></trkpt><trkpt lat="43.61271131578667" lon="10.74967245264041"><ele>165.33333333333334</ele><time>2026-04-26T15:18:33.999Z</time></trkpt><trkpt lat="43.61275061137594" lon="10.749528869513004"><ele>165.5</ele><time>2026-04-26T15:18:36.001Z</time></trkpt><trkpt lat="43.61278812527709" lon="10.749382698082226"><ele>165.66666666666669</ele><time>2026-04-26T15:18:38.001Z</time></trkpt><trkpt lat="43.61281422282004" lon="10.74926309582759"><ele>165.83333333333334</ele><time>2026-04-26T15:18:40.001Z</time></trkpt><trkpt lat="43.61282313229451" lon="10.749175689447721"><ele>166.0</ele><time>2026-04-26T15:18:43.001Z</time></trkpt><trkpt lat="43.61283013380515" lon="10.749041222144605"><ele>164.8</ele><time>2026-04-26T15:18:54Z</time></trkpt><trkpt lat="43.61283258422818" lon="10.748935037354585"><ele>163.60000000000002</ele><time>2026-04-26T15:18:56Z</time></trkpt><trkpt lat="43.612833550547016" lon="10.748798788247425"><ele>162.4</ele><time>2026-04-26T15:18:58Z</time></trkpt><trkpt lat="43.6128335688284" lon="10.748656649362868"><ele>161.2</ele><time>2026-04-26T15:19:00Z</time></trkpt><trkpt lat="43.61283775936279" lon="10.748527656203642"><ele>160.0</ele><time>2026-04-26T15:19:02Z</time></trkpt><trkpt lat="43.61284151909422" lon="10.748411923455446"><ele>159.33333333333334</ele><time>2026-04-26T15:19:04Z</time></trkpt><trkpt lat="43.61283213893656" lon="10.748299556561001"><ele>158.66666666666669</ele><time>2026-04-26T15:19:06Z</time></trkpt><trkpt lat="43.612829471003245" lon="10.74816068648135"><ele>158.0</ele><time>2026-04-26T15:19:09Z</time></trkpt><trkpt lat="43.61282446990895" lon="10.748068077497702"><ele>157.33333333333334</ele><time>2026-04-26T15:19:11Z</time></trkpt><trkpt lat="43.61275989546398" lon="10.748019483458192"><ele>156.66666666666666</ele><time>2026-04-26T15:19:14Z</time></trkpt><trkpt lat="43.612725706731915" lon="10.747944570033852"><ele>156.0</ele><time>2026-04-26T15:19:16Z</time></trkpt><trkpt lat="43.6126856177358" lon="10.747849073748256"><ele>154.5</ele><time>2026-04-26T15:19:18Z</time></trkpt><trkpt lat="43.612645876374486" lon="10.74776274087391"><ele>153.0</ele><time>2026-04-26T15:19:20Z</time></trkpt><trkpt lat="43.612573096806365" lon="10.747633860513972"><ele>151.5</ele><time>2026-04-26T15:19:22Z</time></trkpt><trkpt lat="43.61248689790246" lon="10.747369269016145"><ele>150.0</ele><time>2026-04-26T15:19:24Z</time></trkpt><trkpt lat="43.61246569102139" lon="10.747220421893365"><ele>149.0</ele><time>2026-04-26T15:19:26Z</time></trkpt><trkpt lat="43.61242263080352" lon="10.747023972431572"><ele>148.0</ele><time>2026-04-26T15:19:28Z</time></trkpt><trkpt lat="43.6124120572552" lon="10.746887555838748"><ele>147.0</ele><time>2026-04-26T15:19:29Z</time></trkpt><trkpt lat="43.612502818966306" lon="10.746571578491773"><ele>146.25</ele><time>2026-04-26T15:19:30Z</time></trkpt><trkpt lat="43.612682965396196" lon="10.7466002272942"><ele>145.5</ele><time>2026-04-26T15:19:33Z</time></trkpt><trkpt lat="43.61265987089555" lon="10.74651501382345"><ele>144.75</ele><time>2026-04-26T15:19:34Z</time></trkpt><trkpt lat="43.612596395697125" lon="10.746400807894961"><ele>144.0</ele><time>2026-04-26T15:19:35Z</time></trkpt><trkpt lat="43.6125881422899" lon="10.74618648568988"><ele>144.0</ele><time>2026-04-26T15:19:37Z</time></trkpt><trkpt lat="43.61257828150474" lon="10.746284842471882"><ele>144.0</ele><time>2026-04-26T15:19:57.999Z</time></trkpt><trkpt lat="43.61255033339279" lon="10.746395759765589"><ele>144.0</ele><time>2026-04-26T15:20:00.999Z</time></trkpt><trkpt lat="43.612514429897544" lon="10.746504058005401"><ele>144.0</ele><time>2026-04-26T15:20:03.999Z</time></trkpt><trkpt lat="43.61248820755783" lon="10.74659156885145"><ele>144.0</ele><time>2026-04-26T15:20:12.999Z</time></trkpt><trkpt lat="43.61245715283451" lon="10.746700103640059"><ele>144.0</ele><time>2026-04-26T15:20:14.999Z</time></trkpt><trkpt lat="43.612408264615645" lon="10.74690615861353"><ele>143.0</ele><time>2026-04-26T15:20:16.999Z</time></trkpt><trkpt lat="43.612929503485546" lon="10.74733095524892"><ele>143.0</ele><time>2026-04-26T15:20:17.999Z</time></trkpt><trkpt lat="43.61294695786062" lon="10.747452160718115"><ele>143.0</ele><time>2026-04-26T15:20:18.999Z</time></trkpt><trkpt lat="43.6129624741872" lon="10.747580651878977"><ele>143.0</ele><time>2026-04-26T15:20:19.999Z</time></trkpt><trkpt lat="43.61298057864379" lon="10.747692740221142"><ele>143.0</ele><time>2026-04-26T15:20:20.999Z</time></trkpt><trkpt lat="43.612992733675306" lon="10.747805123209998"><ele>143.0</ele><time>2026-04-26T15:20:21.999Z</time></trkpt><trkpt lat="43.61299444482394" lon="10.747914034352021"><ele>143.0</ele><time>2026-04-26T15:20:22.999Z</time></trkpt><trkpt lat="43.61298117472518" lon="10.74801343113505"><ele>144.4</ele><time>2026-04-26T15:20:23.999Z</time></trkpt><trkpt lat="43.61294248930677" lon="10.74811541033701"><ele>145.8</ele><time>2026-04-26T15:20:25.999Z</time></trkpt><trkpt lat="43.61290221507775" lon="10.748186265177024"><ele>147.2</ele><time>2026-04-26T15:20:28.999Z</time></trkpt><trkpt lat="43.612849366724795" lon="10.748295699305071"><ele>148.6</ele><time>2026-04-26T15:20:30.999Z</time></trkpt><trkpt lat="43.61279638648182" lon="10.748427879081314"><ele>150.0</ele><time>2026-04-26T15:20:32.999Z</time></trkpt><trkpt lat="43.61280183133561" lon="10.748607494991752"><ele>151.5</ele><time>2026-04-26T15:20:34.999Z</time></trkpt><trkpt lat="43.61280024946839" lon="10.748698839262223"><ele>153.0</ele><time>2026-04-26T15:20:35.999Z</time></trkpt><trkpt lat="43.61280024947111" lon="10.748796661199602"><ele>154.5</ele><time>2026-04-26T15:20:36.999Z</time></trkpt><trkpt lat="43.61280023777301" lon="10.748892943151581"><ele>156.0</ele><time>2026-04-26T15:20:37.999Z</time></trkpt><trkpt lat="43.61279647054367" lon="10.749056190055216"><ele>157.5</ele><time>2026-04-26T15:20:39.999Z</time></trkpt><trkpt lat="43.61277215030006" lon="10.749204774014846"><ele>159.0</ele><time>2026-04-26T15:20:42.001Z</time></trkpt><trkpt lat="43.612776792720354" lon="10.74933628689942"><ele>160.4</ele><time>2026-04-26T15:20:44.001Z</time></trkpt><trkpt lat="43.61273084753285" lon="10.74945119116655"><ele>161.8</ele><time>2026-04-26T15:20:46.001Z</time></trkpt><trkpt lat="43.61268385864259" lon="10.749576922053247"><ele>163.20000000000002</ele><time>2026-04-26T15:20:48.001Z</time></trkpt><trkpt lat="43.61264493045172" lon="10.749662909053614"><ele>164.60000000000002</ele><time>2026-04-26T15:20:49.001Z</time></trkpt><trkpt lat="43.61263938506134" lon="10.74977598445045"><ele>166.0</ele><time>2026-04-26T15:20:50.001Z</time></trkpt><trkpt lat="43.6126337037703" lon="10.749911092227288"><ele>166.0</ele><time>2026-04-26T15:20:51.001Z</time></trkpt><trkpt lat="43.61262370786997" lon="10.750057316439673"><ele>166.0</ele><time>2026-04-26T15:20:52.001Z</time></trkpt><trkpt lat="43.612602809644905" lon="10.750210068656047"><ele>166.0</ele><time>2026-04-26T15:20:53.001Z</time></trkpt><trkpt lat="43.612574264890405" lon="10.750365653304172"><ele>166.0</ele><time>2026-04-26T15:20:54Z</time></trkpt><trkpt lat="43.61255526004369" lon="10.750504312396448"><ele>166.0</ele><time>2026-04-26T15:20:55Z</time></trkpt><trkpt lat="43.612535478416575" lon="10.750621008772066"><ele>165.83333333333334</ele><time>2026-04-26T15:20:56Z</time></trkpt><trkpt lat="43.61251133512001" lon="10.750731687122084"><ele>165.66666666666669</ele><time>2026-04-26T15:20:57Z</time></trkpt><trkpt lat="43.61247922510706" lon="10.750848029044358"><ele>165.5</ele><time>2026-04-26T15:20:58Z</time></trkpt><trkpt lat="43.61244307992365" lon="10.750950624089707"><ele>165.33333333333334</ele><time>2026-04-26T15:20:59Z</time></trkpt><trkpt lat="43.612410978403766" lon="10.751059757400615"><ele>165.16666666666666</ele><time>2026-04-26T15:21:00Z</time></trkpt><trkpt lat="43.61238422052689" lon="10.751143025288064"><ele>165.0</ele><time>2026-04-26T15:21:01Z</time></trkpt><trkpt lat="43.61235642587158" lon="10.751224035703974"><ele>164.83333333333334</ele><time>2026-04-26T15:21:02Z</time></trkpt><trkpt lat="43.612315651348005" lon="10.751291753113044"><ele>164.66666666666666</ele><time>2026-04-26T15:21:03Z</time></trkpt><trkpt lat="43.61226006467807" lon="10.75136749952765"><ele>164.5</ele><time>2026-04-26T15:21:04Z</time></trkpt><trkpt lat="43.612203940584834" lon="10.75145689226511"><ele>164.33333333333331</ele><time>2026-04-26T15:21:05Z</time></trkpt><trkpt lat="43.61214365856997" lon="10.751546082348387"><ele>164.16666666666666</ele><time>2026-04-26T15:21:06Z</time></trkpt><trkpt lat="43.61209788657972" lon="10.751622043328902"><ele>164.0</ele><time>2026-04-26T15:21:07Z</time></trkpt><trkpt lat="43.612063415576856" lon="10.751779763794877"><ele>165.0</ele><time>2026-04-26T15:21:09Z</time></trkpt><trkpt lat="43.61206475810596" lon="10.751888795994233"><ele>166.0</ele><time>2026-04-26T15:21:10Z</time></trkpt><trkpt lat="43.61206785209901" lon="10.752012945100253"><ele>167.0</ele><time>2026-04-26T15:21:11Z</time></trkpt><trkpt lat="43.61205760461052" lon="10.752122104549821"><ele>168.0</ele><time>2026-04-26T15:21:12Z</time></trkpt><trkpt lat="43.61205526675214" lon="10.752241928042292"><ele>169.0</ele><time>2026-04-26T15:21:13Z</time></trkpt><trkpt lat="43.61206573453089" lon="10.752346994536923"><ele>170.0</ele><time>2026-04-26T15:21:14Z</time></trkpt><trkpt lat="43.612085306558164" lon="10.752457833870352"><ele>170.0</ele><time>2026-04-26T15:21:15Z</time></trkpt><trkpt lat="43.61210113227123" lon="10.752562444535311"><ele>170.0</ele><time>2026-04-26T15:21:16Z</time></trkpt><trkpt lat="43.612138586976506" lon="10.75272486435494"><ele>170.0</ele><time>2026-04-26T15:21:18Z</time></trkpt><trkpt lat="43.612174618808986" lon="10.752826811116279"><ele>170.0</ele><time>2026-04-26T15:21:19Z</time></trkpt><trkpt lat="43.61219820869891" lon="10.752910863106768"><ele>170.0</ele><time>2026-04-26T15:21:20Z</time></trkpt><trkpt lat="43.612227857496876" lon="10.753017563346067"><ele>170.0</ele><time>2026-04-26T15:21:22Z</time></trkpt><trkpt lat="43.61225150755567" lon="10.753172885076674"><ele>169.6</ele><time>2026-04-26T15:21:24Z</time></trkpt><trkpt lat="43.61223799397243" lon="10.753378429058804"><ele>169.2</ele><time>2026-04-26T15:21:26Z</time></trkpt><trkpt lat="43.61222922284703" lon="10.75350323882806"><ele>168.8</ele><time>2026-04-26T15:21:27Z</time></trkpt><trkpt lat="43.612227171544696" lon="10.753646695059583"><ele>168.4</ele><time>2026-04-26T15:21:28Z</time></trkpt><trkpt lat="43.61221532030732" lon="10.75378703765318"><ele>168.0</ele><time>2026-04-26T15:21:29Z</time></trkpt><trkpt lat="43.612201104193566" lon="10.753888247723548"><ele>167.5</ele><time>2026-04-26T15:21:30Z</time></trkpt><trkpt lat="43.61218247416003" lon="10.7539784313078"><ele>167.0</ele><time>2026-04-26T15:21:31Z</time></trkpt><trkpt lat="43.612152846927735" lon="10.754070908770839"><ele>166.5</ele><time>2026-04-26T15:21:32Z</time></trkpt><trkpt lat="43.61210287551726" lon="10.754154639346995"><ele>166.0</ele><time>2026-04-26T15:21:33Z</time></trkpt><trkpt lat="43.61205207144933" lon="10.754239259683297"><ele>165.5</ele><time>2026-04-26T15:21:34Z</time></trkpt><trkpt lat="43.61199276697039" lon="10.75431703041288"><ele>165.0</ele><time>2026-04-26T15:21:35Z</time></trkpt><trkpt lat="43.61192809459466" lon="10.75442845606994"><ele>166.2</ele><time>2026-04-26T15:21:36Z</time></trkpt><trkpt lat="43.61186096921223" lon="10.754550692700626"><ele>167.4</ele><time>2026-04-26T15:21:37Z</time></trkpt><trkpt lat="43.61180334887475" lon="10.754689613576737"><ele>168.60000000000002</ele><time>2026-04-26T15:21:38Z</time></trkpt><trkpt lat="43.61172645230599" lon="10.754796548153136"><ele>169.8</ele><time>2026-04-26T15:21:39Z</time></trkpt><trkpt lat="43.61165674703133" lon="10.754888062506948"><ele>171.0</ele><time>2026-04-26T15:21:40Z</time></trkpt><trkpt lat="43.6115690678603" lon="10.754935193088743"><ele>171.0</ele><time>2026-04-26T15:21:41Z</time></trkpt><trkpt lat="43.61146251631827" lon="10.754971351325572"><ele>171.0</ele><time>2026-04-26T15:21:42Z</time></trkpt><trkpt lat="43.61134145854073" lon="10.755002095948457"><ele>171.0</ele><time>2026-04-26T15:21:43Z</time></trkpt><trkpt lat="43.61121189054601" lon="10.755043883582564"><ele>171.0</ele><time>2026-04-26T15:21:44Z</time></trkpt><trkpt lat="43.611084181592545" lon="10.755093949076953"><ele>171.0</ele><time>2026-04-26T15:21:45Z</time></trkpt><trkpt lat="43.61098420617981" lon="10.75515709867567"><ele>171.0</ele><time>2026-04-26T15:21:46Z</time></trkpt><trkpt lat="43.61089391663577" lon="10.755213707295438"><ele>171.0</ele><time>2026-04-26T15:21:47Z</time></trkpt><trkpt lat="43.61080901728452" lon="10.755255537578748"><ele>171.0</ele><time>2026-04-26T15:21:48Z</time></trkpt><trkpt lat="43.610734829815705" lon="10.755319322759016"><ele>171.0</ele><time>2026-04-26T15:21:49Z</time></trkpt><trkpt lat="43.610661375120586" lon="10.755391491006078"><ele>170.60000000000002</ele><time>2026-04-26T15:21:50Z</time></trkpt><trkpt lat="43.61060398867201" lon="10.755480369847504"><ele>170.2</ele><time>2026-04-26T15:21:51Z</time></trkpt><trkpt lat="43.6105557467199" lon="10.755582293644828"><ele>169.8</ele><time>2026-04-26T15:21:52Z</time></trkpt><trkpt lat="43.610512102258866" lon="10.755705394443618"><ele>169.39999999999998</ele><time>2026-04-26T15:21:52.999Z</time></trkpt><trkpt lat="43.61045922853194" lon="10.755837221716458"><ele>169.0</ele><time>2026-04-26T15:21:53.999Z</time></trkpt><trkpt lat="43.610400397502026" lon="10.755980686978313"><ele>168.25</ele><time>2026-04-26T15:21:54.999Z</time></trkpt><trkpt lat="43.610340539162124" lon="10.756129735744617"><ele>167.5</ele><time>2026-04-26T15:21:55.999Z</time></trkpt><trkpt lat="43.610279824282344" lon="10.75628283556904"><ele>166.75</ele><time>2026-04-26T15:21:56.999Z</time></trkpt><trkpt lat="43.61022367473649" lon="10.756432034850414"><ele>166.0</ele><time>2026-04-26T15:21:57.999Z</time></trkpt><trkpt lat="43.61016317097236" lon="10.756567463526368"><ele>166.0</ele><time>2026-04-26T15:21:58.999Z</time></trkpt><trkpt lat="43.61011185525976" lon="10.756683620647637"><ele>166.0</ele><time>2026-04-26T15:21:59.999Z</time></trkpt><trkpt lat="43.61005737048753" lon="10.75676217918577"><ele>166.0</ele><time>2026-04-26T15:22:00.999Z</time></trkpt><trkpt lat="43.609998731795955" lon="10.756909639680684"><ele>166.0</ele><time>2026-04-26T15:22:02.999Z</time></trkpt><trkpt lat="43.609955988374324" lon="10.756983061641387"><ele>166.0</ele><time>2026-04-26T15:22:03.999Z</time></trkpt><trkpt lat="43.60994085845565" lon="10.75709759226058"><ele>167.33333333333334</ele><time>2026-04-26T15:22:04.999Z</time></trkpt><trkpt lat="43.60995929396427" lon="10.757221685818108"><ele>168.66666666666669</ele><time>2026-04-26T15:22:05.999Z</time></trkpt><trkpt lat="43.609960969838625" lon="10.75732875750874"><ele>170.0</ele><time>2026-04-26T15:22:06.999Z</time></trkpt><trkpt lat="43.60994069254309" lon="10.757437294186055"><ele>171.33333333333334</ele><time>2026-04-26T15:22:07.999Z</time></trkpt><trkpt lat="43.60986374604511" lon="10.757498700494809"><ele>172.66666666666666</ele><time>2026-04-26T15:22:09.999Z</time></trkpt><trkpt lat="43.609763017279654" lon="10.757444587421082"><ele>174.0</ele><time>2026-04-26T15:22:11.999Z</time></trkpt><trkpt lat="43.60966280673983" lon="10.757408186079967"><ele>174.0</ele><time>2026-04-26T15:22:13.999Z</time></trkpt><trkpt lat="43.60958294027467" lon="10.757345008510327"><ele>174.0</ele><time>2026-04-26T15:22:14.999Z</time></trkpt><trkpt lat="43.609481434305714" lon="10.757256893142687"><ele>174.0</ele><time>2026-04-26T15:22:15.999Z</time></trkpt><trkpt lat="43.60939400114191" lon="10.75720397765793"><ele>174.0</ele><time>2026-04-26T15:22:16.999Z</time></trkpt><trkpt lat="43.60931437576801" lon="10.757155367399616"><ele>174.0</ele><time>2026-04-26T15:22:17.999Z</time></trkpt><trkpt lat="43.60924998819251" lon="10.757170764144137"><ele>175.66666666666666</ele><time>2026-04-26T15:22:18.999Z</time></trkpt><trkpt lat="43.609166172578156" lon="10.757163052835736"><ele>177.33333333333334</ele><time>2026-04-26T15:22:20.999Z</time></trkpt><trkpt lat="43.60913036586756" lon="10.757075543931688"><ele>179.0</ele><time>2026-04-26T15:22:24.999Z</time></trkpt><trkpt lat="43.60906934913524" lon="10.756967055762704"><ele>180.66666666666669</ele><time>2026-04-26T15:22:27.999Z</time></trkpt><trkpt lat="43.609022490344096" lon="10.75689141409637"><ele>182.33333333333334</ele><time>2026-04-26T15:22:29.999Z</time></trkpt><trkpt lat="43.609092425046335" lon="10.757007925750706"><ele>184.0</ele><time>2026-04-26T15:22:43.999Z</time></trkpt><trkpt lat="43.60916729438241" lon="10.757212144219842"><ele>184.0</ele><time>2026-04-26T15:22:45.999Z</time></trkpt><trkpt lat="43.60921588618587" lon="10.757305287446227"><ele>184.0</ele><time>2026-04-26T15:22:47Z</time></trkpt><trkpt lat="43.60925737603992" lon="10.757396893383222"><ele>184.0</ele><time>2026-04-26T15:22:48Z</time></trkpt><trkpt lat="43.609300021322426" lon="10.7575080889268"><ele>184.0</ele><time>2026-04-26T15:22:50Z</time></trkpt><trkpt lat="43.60934261025723" lon="10.757580516150513"><ele>184.0</ele><time>2026-04-26T15:23:07Z</time></trkpt><trkpt lat="43.609390748809716" lon="10.757681956302024"><ele>184.0</ele><time>2026-04-26T15:23:08Z</time></trkpt><trkpt lat="43.60943888769083" lon="10.757780934003929"><ele>184.2</ele><time>2026-04-26T15:23:09Z</time></trkpt><trkpt lat="43.60948385387685" lon="10.757869157455863"><ele>184.39999999999998</ele><time>2026-04-26T15:23:10Z</time></trkpt><trkpt lat="43.60953402809362" lon="10.758008990542173"><ele>184.6</ele><time>2026-04-26T15:23:12Z</time></trkpt><trkpt lat="43.609558001247215" lon="10.758098635210937"><ele>184.8</ele><time>2026-04-26T15:23:15Z</time></trkpt><trkpt lat="43.60946943777124" lon="10.758222508713917"><ele>185.0</ele><time>2026-04-26T15:23:18Z</time></trkpt><trkpt lat="43.609381970223694" lon="10.758273540035484"><ele>185.0</ele><time>2026-04-26T15:23:19Z</time></trkpt><trkpt lat="43.6093042753501" lon="10.758346214791514"><ele>185.0</ele><time>2026-04-26T15:23:20Z</time></trkpt><trkpt lat="43.609225922500165" lon="10.758414901526647"><ele>185.0</ele><time>2026-04-26T15:23:21Z</time></trkpt><trkpt lat="43.60914831231302" lon="10.75848660539822"><ele>185.0</ele><time>2026-04-26T15:23:22Z</time></trkpt><trkpt lat="43.609075404409225" lon="10.75857047971373"><ele>185.0</ele><time>2026-04-26T15:23:23Z</time></trkpt><trkpt lat="43.60900285555487" lon="10.758656932398997"><ele>182.75</ele><time>2026-04-26T15:23:24Z</time></trkpt><trkpt lat="43.60893639717893" lon="10.758782339929812"><ele>180.5</ele><time>2026-04-26T15:23:25Z</time></trkpt><trkpt lat="43.60888154975108" lon="10.758953596237836"><ele>178.25</ele><time>2026-04-26T15:23:26Z</time></trkpt><trkpt lat="43.608820629221135" lon="10.759129650388427"><ele>176.0</ele><time>2026-04-26T15:23:27Z</time></trkpt><trkpt lat="43.60870351598331" lon="10.759278848428588"><ele>179.0</ele><time>2026-04-26T15:23:28Z</time></trkpt><trkpt lat="43.60855997775329" lon="10.75943412035271"><ele>182.0</ele><time>2026-04-26T15:23:29Z</time></trkpt><trkpt lat="43.608409198716984" lon="10.759585869909541"><ele>185.0</ele><time>2026-04-26T15:23:30Z</time></trkpt><trkpt lat="43.60828301734981" lon="10.759690956747006"><ele>185.0</ele><time>2026-04-26T15:23:31Z</time></trkpt><trkpt lat="43.60820087589076" lon="10.759760094500514"><ele>185.0</ele><time>2026-04-26T15:23:32Z</time></trkpt><trkpt lat="43.608145779750195" lon="10.759907130769472"><ele>185.0</ele><time>2026-04-26T15:24:20.999Z</time></trkpt><trkpt lat="43.608138987742684" lon="10.760002164694944"><ele>185.0</ele><time>2026-04-26T15:24:21.999Z</time></trkpt><trkpt lat="43.608130246871426" lon="10.760099065310397"><ele>185.0</ele><time>2026-04-26T15:24:22.999Z</time></trkpt><trkpt lat="43.60814227876665" lon="10.760215665848236"><ele>185.0</ele><time>2026-04-26T15:24:23.999Z</time></trkpt><trkpt lat="43.60814738955313" lon="10.760342265985656"><ele>185.6</ele><time>2026-04-26T15:24:24.999Z</time></trkpt><trkpt lat="43.60813672060002" lon="10.760481004081017"><ele>186.2</ele><time>2026-04-26T15:24:25.999Z</time></trkpt><trkpt lat="43.60811295778241" lon="10.760626082483153"><ele>186.8</ele><time>2026-04-26T15:24:26.999Z</time></trkpt><trkpt lat="43.60808015200805" lon="10.760768898596263"><ele>187.4</ele><time>2026-04-26T15:24:27.999Z</time></trkpt><trkpt lat="43.60804758124061" lon="10.760915852684995"><ele>188.0</ele><time>2026-04-26T15:24:28.999Z</time></trkpt><trkpt lat="43.608016166285765" lon="10.761063176140016"><ele>188.0</ele><time>2026-04-26T15:24:29.999Z</time></trkpt><trkpt lat="43.60798313520691" lon="10.761210227988638"><ele>188.0</ele><time>2026-04-26T15:24:30.999Z</time></trkpt><trkpt lat="43.60794997530869" lon="10.761356665715468"><ele>188.0</ele><time>2026-04-26T15:24:31.999Z</time></trkpt><trkpt lat="43.60791046724691" lon="10.76150621913216"><ele>188.0</ele><time>2026-04-26T15:24:32.999Z</time></trkpt><trkpt lat="43.60787292206443" lon="10.761658857518304"><ele>188.0</ele><time>2026-04-26T15:24:33.999Z</time></trkpt><trkpt lat="43.60783110250882" lon="10.761819953395781"><ele>188.0</ele><time>2026-04-26T15:24:34.999Z</time></trkpt><trkpt lat="43.60778893110416" lon="10.761987412710237"><ele>188.0</ele><time>2026-04-26T15:24:35.999Z</time></trkpt><trkpt lat="43.60774190847873" lon="10.762160523159816"><ele>188.0</ele><time>2026-04-26T15:24:36.999Z</time></trkpt><trkpt lat="43.607686417144535" lon="10.762335692172892"><ele>188.75</ele><time>2026-04-26T15:24:37.999Z</time></trkpt><trkpt lat="43.607623948015025" lon="10.762509231995722"><ele>189.5</ele><time>2026-04-26T15:24:38.999Z</time></trkpt><trkpt lat="43.60755994322548" lon="10.762680324407668"><ele>190.25</ele><time>2026-04-26T15:24:39.999Z</time></trkpt><trkpt lat="43.60751037075227" lon="10.762861677418584"><ele>191.0</ele><time>2026-04-26T15:24:40.999Z</time></trkpt><trkpt lat="43.60747609921163" lon="10.763047027587938"><ele>191.0</ele><time>2026-04-26T15:24:41.999Z</time></trkpt><trkpt lat="43.60745372384074" lon="10.763220868897143"><ele>191.0</ele><time>2026-04-26T15:24:42.999Z</time></trkpt><trkpt lat="43.60743468679647" lon="10.763382423460044"><ele>191.0</ele><time>2026-04-26T15:24:43.999Z</time></trkpt><trkpt lat="43.60741339062351" lon="10.763532695350468"><ele>191.0</ele><time>2026-04-26T15:24:44.999Z</time></trkpt><trkpt lat="43.60739266043025" lon="10.76367138415002"><ele>190.66666666666666</ele><time>2026-04-26T15:24:45.999Z</time></trkpt><trkpt lat="43.60737306314129" lon="10.763794396516595"><ele>190.33333333333331</ele><time>2026-04-26T15:24:46.999Z</time></trkpt><trkpt lat="43.607347746827976" lon="10.763906680005684"><ele>190.0</ele><time>2026-04-26T15:24:47.999Z</time></trkpt><trkpt lat="43.60731077343562" lon="10.763999521397484"><ele>189.66666666666666</ele><time>2026-04-26T15:24:48.999Z</time></trkpt><trkpt lat="43.60726139881278" lon="10.764061471012981"><ele>189.33333333333334</ele><time>2026-04-26T15:24:49.999Z</time></trkpt><trkpt lat="43.60720807463567" lon="10.764109881973024"><ele>189.0</ele><time>2026-04-26T15:24:50.999Z</time></trkpt><trkpt lat="43.60714674276558" lon="10.764155515694945"><ele>189.0</ele><time>2026-04-26T15:24:51.999Z</time></trkpt><trkpt lat="43.607087187760904" lon="10.764205085191023"><ele>189.0</ele><time>2026-04-26T15:24:53Z</time></trkpt><trkpt lat="43.607029089605994" lon="10.764262162958888"><ele>189.0</ele><time>2026-04-26T15:24:54Z</time></trkpt><trkpt lat="43.60697187106569" lon="10.764314239299171"><ele>189.0</ele><time>2026-04-26T15:24:55Z</time></trkpt><trkpt lat="43.60691301218265" lon="10.764370060971189"><ele>189.0</ele><time>2026-04-26T15:24:56Z</time></trkpt><trkpt lat="43.60684052863664" lon="10.764421543981673"><ele>189.0</ele><time>2026-04-26T15:24:57Z</time></trkpt><trkpt lat="43.606785245320054" lon="10.764526880117193"><ele>192.2</ele><time>2026-04-26T15:24:58Z</time></trkpt><trkpt lat="43.606717251112" lon="10.764636123909618"><ele>195.39999999999998</ele><time>2026-04-26T15:24:59Z</time></trkpt><trkpt lat="43.606652790191056" lon="10.764745770528148"><ele>198.6</ele><time>2026-04-26T15:25:00Z</time></trkpt><trkpt lat="43.60659577340608" lon="10.764872587687652"><ele>201.8</ele><time>2026-04-26T15:25:01Z</time></trkpt><trkpt lat="43.60653481387706" lon="10.765002564170567"><ele>205.0</ele><time>2026-04-26T15:25:02Z</time></trkpt><trkpt lat="43.60646887249535" lon="10.765134737830767"><ele>203.25</ele><time>2026-04-26T15:25:03Z</time></trkpt><trkpt lat="43.606401717945005" lon="10.765273668343278"><ele>201.5</ele><time>2026-04-26T15:25:04Z</time></trkpt><trkpt lat="43.60633024367231" lon="10.765413622512348"><ele>199.75</ele><time>2026-04-26T15:25:05Z</time></trkpt><trkpt lat="43.606257656823544" lon="10.765535205862296"><ele>198.0</ele><time>2026-04-26T15:25:06Z</time></trkpt><trkpt lat="43.60619637023335" lon="10.765645845774513"><ele>200.8</ele><time>2026-04-26T15:25:07Z</time></trkpt><trkpt lat="43.60613475025371" lon="10.76575773202585"><ele>203.60000000000002</ele><time>2026-04-26T15:25:08Z</time></trkpt><trkpt lat="43.60606272989599" lon="10.76583614806645"><ele>206.39999999999998</ele><time>2026-04-26T15:25:10Z</time></trkpt><trkpt lat="43.60598523391902" lon="10.765871670343904"><ele>209.2</ele><time>2026-04-26T15:25:17Z</time></trkpt><trkpt lat="43.60597650464715" lon="10.766010137092628"><ele>212.0</ele><time>2026-04-26T15:25:18Z</time></trkpt><trkpt lat="43.60594374969215" lon="10.766111088095258"><ele>212.33333333333334</ele><time>2026-04-26T15:25:19Z</time></trkpt><trkpt lat="43.60591112059601" lon="10.766219184041388"><ele>212.66666666666669</ele><time>2026-04-26T15:25:20Z</time></trkpt><trkpt lat="43.60586022088529" lon="10.766314662770316"><ele>213.0</ele><time>2026-04-26T15:25:21Z</time></trkpt><trkpt lat="43.605823667599225" lon="10.766412919228868"><ele>213.33333333333331</ele><time>2026-04-26T15:25:22Z</time></trkpt><trkpt lat="43.6057968169895" lon="10.766520639811182"><ele>213.66666666666666</ele><time>2026-04-26T15:25:23Z</time></trkpt><trkpt lat="43.605758025308056" lon="10.766602141192712"><ele>214.0</ele><time>2026-04-26T15:25:24Z</time></trkpt><trkpt lat="43.605720899004545" lon="10.766674411536503"><ele>214.0</ele><time>2026-04-26T15:25:25Z</time></trkpt><trkpt lat="43.60569254708503" lon="10.766754573990381"><ele>213.99999999999997</ele><time>2026-04-26T15:25:26Z</time></trkpt><trkpt lat="43.605632973113096" lon="10.766902732519624"><ele>213.99999999999997</ele><time>2026-04-26T15:25:28Z</time></trkpt><trkpt lat="43.605576123883544" lon="10.76704874739125"><ele>214.0</ele><time>2026-04-26T15:25:30Z</time></trkpt><trkpt lat="43.60551281960813" lon="10.767192882110583"><ele>214.0</ele><time>2026-04-26T15:25:32Z</time></trkpt><trkpt lat="43.605479028080474" lon="10.767284900754927"><ele>212.83333333333331</ele><time>2026-04-26T15:25:33Z</time></trkpt><trkpt lat="43.60544613095571" lon="10.767384805883902"><ele>211.66666666666666</ele><time>2026-04-26T15:25:34Z</time></trkpt><trkpt lat="43.605431801880876" lon="10.767501677360942"><ele>210.5</ele><time>2026-04-26T15:25:35Z</time></trkpt><trkpt lat="43.605397144043295" lon="10.767606275079698"><ele>209.33333333333331</ele><time>2026-04-26T15:25:36Z</time></trkpt><trkpt lat="43.60536768223362" lon="10.767700686668963"><ele>208.16666666666666</ele><time>2026-04-26T15:25:37Z</time></trkpt><trkpt lat="43.605341968563486" lon="10.767789030602202"><ele>207.0</ele><time>2026-04-26T15:25:38Z</time></trkpt><trkpt lat="43.605293835822" lon="10.767859939318564"><ele>207.0</ele><time>2026-04-26T15:25:39Z</time></trkpt><trkpt lat="43.6052685208704" lon="10.767941398519024"><ele>207.0</ele><time>2026-04-26T15:25:40Z</time></trkpt><trkpt lat="43.60521795528814" lon="10.768103624050845"><ele>207.0</ele><time>2026-04-26T15:25:42Z</time></trkpt><trkpt lat="43.60519055963546" lon="10.76818992690651"><ele>207.0</ele><time>2026-04-26T15:25:42.999Z</time></trkpt><trkpt lat="43.60515772533564" lon="10.76828148247485"><ele>207.0</ele><time>2026-04-26T15:25:43.999Z</time></trkpt><trkpt lat="43.60512353938869" lon="10.768377928552807"><ele>207.0</ele><time>2026-04-26T15:25:44.999Z</time></trkpt><trkpt lat="43.605092426154506" lon="10.768476007822173"><ele>208.57142857142858</ele><time>2026-04-26T15:25:45.999Z</time></trkpt><trkpt lat="43.605082672638346" lon="10.768579954252829"><ele>210.14285714285714</ele><time>2026-04-26T15:25:46.999Z</time></trkpt><trkpt lat="43.60505256667117" lon="10.768675354296224"><ele>211.71428571428572</ele><time>2026-04-26T15:25:47.999Z</time></trkpt><trkpt lat="43.605044357241795" lon="10.768778783124516"><ele>213.28571428571428</ele><time>2026-04-26T15:25:48.999Z</time></trkpt><trkpt lat="43.6050426495885" lon="10.7688705670478"><ele>214.85714285714286</ele><time>2026-04-26T15:25:49.999Z</time></trkpt><trkpt lat="43.60506281294867" lon="10.76895664927145"><ele>216.42857142857144</ele><time>2026-04-26T15:25:50.999Z</time></trkpt><trkpt lat="43.60511927350697" lon="10.769017297796756"><ele>218.0</ele><time>2026-04-26T15:25:51.999Z</time></trkpt><trkpt lat="43.605177667586474" lon="10.769111812312033"><ele>218.00000000000003</ele><time>2026-04-26T15:25:52.999Z</time></trkpt><trkpt lat="43.60524920963014" lon="10.769188677157471"><ele>218.0</ele><time>2026-04-26T15:25:53.999Z</time></trkpt><trkpt lat="43.60532520045062" lon="10.769263786659035"><ele>218.0</ele><time>2026-04-26T15:25:54.999Z</time></trkpt><trkpt lat="43.605393472237864" lon="10.769328741059661"><ele>218.0</ele><time>2026-04-26T15:25:55.999Z</time></trkpt><trkpt lat="43.605467624568995" lon="10.769393864216253"><ele>218.00000000000003</ele><time>2026-04-26T15:25:56.999Z</time></trkpt><trkpt lat="43.60554538190149" lon="10.769441367733448"><ele>218.0</ele><time>2026-04-26T15:25:57.999Z</time></trkpt><trkpt lat="43.60560889910382" lon="10.769509705424893"><ele>216.14285714285714</ele><time>2026-04-26T15:25:58.999Z</time></trkpt><trkpt lat="43.605648303060235" lon="10.769597149901605"><ele>214.28571428571428</ele><time>2026-04-26T15:25:59.999Z</time></trkpt><trkpt lat="43.60567993703671" lon="10.769680836491537"><ele>212.42857142857144</ele><time>2026-04-26T15:26:00.999Z</time></trkpt><trkpt lat="43.605702635491994" lon="10.76976791652481"><ele>210.57142857142856</ele><time>2026-04-26T15:26:01.999Z</time></trkpt><trkpt lat="43.605722877228615" lon="10.769851957393529"><ele>208.7142857142857</ele><time>2026-04-26T15:26:02.999Z</time></trkpt><trkpt lat="43.60573740518069" lon="10.769938140093915"><ele>206.85714285714286</ele><time>2026-04-26T15:26:03.999Z</time></trkpt><trkpt lat="43.60573537641329" lon="10.770034236914448"><ele>205.0</ele><time>2026-04-26T15:26:04.999Z</time></trkpt><trkpt lat="43.6057178834605" lon="10.770141583175405"><ele>203.4</ele><time>2026-04-26T15:26:05.999Z</time></trkpt><trkpt lat="43.605689988332585" lon="10.770251976139606"><ele>201.8</ele><time>2026-04-26T15:26:06.999Z</time></trkpt><trkpt lat="43.605661068302545" lon="10.770373185104805"><ele>200.2</ele><time>2026-04-26T15:26:07.999Z</time></trkpt><trkpt lat="43.6056313342808" lon="10.770497283106636"><ele>198.6</ele><time>2026-04-26T15:26:08.999Z</time></trkpt><trkpt lat="43.60561660885632" lon="10.770626384544615"><ele>197.0</ele><time>2026-04-26T15:26:09.999Z</time></trkpt><trkpt lat="43.60558416553767" lon="10.770744298021096"><ele>197.00000000000003</ele><time>2026-04-26T15:26:10.999Z</time></trkpt><trkpt lat="43.605551655636695" lon="10.770858458500177"><ele>197.0</ele><time>2026-04-26T15:26:11.999Z</time></trkpt><trkpt lat="43.60551901846301" lon="10.770959902971514"><ele>197.0</ele><time>2026-04-26T15:26:12.999Z</time></trkpt><trkpt lat="43.6054807999657" lon="10.771039568040935"><ele>197.0</ele><time>2026-04-26T15:26:13.999Z</time></trkpt><trkpt lat="43.605427174073725" lon="10.77108711821974"><ele>197.00000000000003</ele><time>2026-04-26T15:26:14.999Z</time></trkpt><trkpt lat="43.605346481777374" lon="10.771204982232353"><ele>197.0</ele><time>2026-04-26T15:26:16.999Z</time></trkpt><trkpt lat="43.60524200916611" lon="10.771254708458965"><ele>197.8</ele><time>2026-04-26T15:26:18.999Z</time></trkpt><trkpt lat="43.605163748684056" lon="10.771313637308323"><ele>198.6</ele><time>2026-04-26T15:26:20.999Z</time></trkpt><trkpt lat="43.60509133226523" lon="10.771352281496986"><ele>199.4</ele><time>2026-04-26T15:26:22.999Z</time></trkpt><trkpt lat="43.605026771883054" lon="10.771392058761672"><ele>200.20000000000002</ele><time>2026-04-26T15:26:24.999Z</time></trkpt><trkpt lat="43.60495725462062" lon="10.771491481530042"><ele>201.0</ele><time>2026-04-26T15:26:27.999Z</time></trkpt><trkpt lat="43.60495692247828" lon="10.771661029868644"><ele>201.0</ele><time>2026-04-26T15:26:29.999Z</time></trkpt><trkpt lat="43.604952648605824" lon="10.771809401814286"><ele>201.0</ele><time>2026-04-26T15:26:31.999Z</time></trkpt><trkpt lat="43.60494613636506" lon="10.771933107299091"><ele>201.0</ele><time>2026-04-26T15:26:33.999Z</time></trkpt><trkpt lat="43.60493783421875" lon="10.772070817423682"><ele>201.0</ele><time>2026-04-26T15:26:35.999Z</time></trkpt><trkpt lat="43.604935212103705" lon="10.77223517054004"><ele>201.0</ele><time>2026-04-26T15:26:37.999Z</time></trkpt><trkpt lat="43.60494075535652" lon="10.772327768781684"><ele>200.85714285714286</ele><time>2026-04-26T15:26:38.999Z</time></trkpt><trkpt lat="43.6049432491282" lon="10.772423541114362"><ele>200.71428571428572</ele><time>2026-04-26T15:26:39.999Z</time></trkpt><trkpt lat="43.60494754055504" lon="10.7725176580806"><ele>200.57142857142858</ele><time>2026-04-26T15:26:40.999Z</time></trkpt><trkpt lat="43.60494515048569" lon="10.772618535594372"><ele>200.42857142857144</ele><time>2026-04-26T15:26:41.999Z</time></trkpt><trkpt lat="43.604943658207084" lon="10.7727132323221"><ele>200.28571428571428</ele><time>2026-04-26T15:26:42.999Z</time></trkpt><trkpt lat="43.60494339123085" lon="10.772806788930229"><ele>200.14285714285717</ele><time>2026-04-26T15:26:43.999Z</time></trkpt><trkpt lat="43.6049425175202" lon="10.772903069590543"><ele>200.0</ele><time>2026-04-26T15:26:44.999Z</time></trkpt><trkpt lat="43.60494436369641" lon="10.77299683912877"><ele>200.6</ele><time>2026-04-26T15:26:45.998Z</time></trkpt><trkpt lat="43.60493000016253" lon="10.77308580284254"><ele>201.2</ele><time>2026-04-26T15:26:46.998Z</time></trkpt><trkpt lat="43.60493981607875" lon="10.773242030211197"><ele>201.8</ele><time>2026-04-26T15:26:48.998Z</time></trkpt><trkpt lat="43.60494045216024" lon="10.773372589599719"><ele>202.4</ele><time>2026-04-26T15:26:50.998Z</time></trkpt><trkpt lat="43.60493909500772" lon="10.773496267192936"><ele>203.0</ele><time>2026-04-26T15:26:52.998Z</time></trkpt><trkpt lat="43.60493761480281" lon="10.773635252503857"><ele>203.0</ele><time>2026-04-26T15:26:54.998Z</time></trkpt><trkpt lat="43.60495109171239" lon="10.773780707713046"><ele>203.0</ele><time>2026-04-26T15:26:56.998Z</time></trkpt><trkpt lat="43.60497871883439" lon="10.773931070421108"><ele>203.0</ele><time>2026-04-26T15:26:59Z</time></trkpt><trkpt lat="43.60499305136738" lon="10.7740677939672"><ele>203.0</ele><time>2026-04-26T15:27:01Z</time></trkpt><trkpt lat="43.6050077886373" lon="10.774155164373902"><ele>203.0</ele><time>2026-04-26T15:27:03Z</time></trkpt><trkpt lat="43.60503025062968" lon="10.774266016889484"><ele>203.00000000000003</ele><time>2026-04-26T15:27:06Z</time></trkpt><trkpt lat="43.60512208364614" lon="10.774250647644173"><ele>203.0</ele><time>2026-04-26T15:27:08Z</time></trkpt><trkpt lat="43.60519786139401" lon="10.77422462934516"><ele>203.0</ele><time>2026-04-26T15:27:09Z</time></trkpt><trkpt lat="43.60525790497966" lon="10.774196440826692"><ele>203.0</ele><time>2026-04-26T15:27:10Z</time></trkpt><trkpt lat="43.605330326313414" lon="10.774171928479715"><ele>203.00000000000003</ele><time>2026-04-26T15:27:11Z</time></trkpt><trkpt lat="43.60540467445237" lon="10.774178661246227"><ele>203.0</ele><time>2026-04-26T15:27:12Z</time></trkpt><trkpt lat="43.605484644789584" lon="10.7741799361668"><ele>203.00000000000003</ele><time>2026-04-26T15:27:13Z</time></trkpt><trkpt lat="43.6055631265798" lon="10.774208488657138"><ele>203.0</ele><time>2026-04-26T15:27:14Z</time></trkpt><trkpt lat="43.60564104814188" lon="10.774236617781805"><ele>203.0</ele><time>2026-04-26T15:27:15Z</time></trkpt><trkpt lat="43.60570710876499" lon="10.774291502872583"><ele>203.0</ele><time>2026-04-26T15:27:16Z</time></trkpt><trkpt lat="43.605776985705006" lon="10.77432417185488"><ele>203.00000000000003</ele><time>2026-04-26T15:27:17Z</time></trkpt><trkpt lat="43.60583901109168" lon="10.774351453050826"><ele>203.0</ele><time>2026-04-26T15:27:18Z</time></trkpt><trkpt lat="43.60594359417462" lon="10.774396244483462"><ele>203.33333333333334</ele><time>2026-04-26T15:27:20Z</time></trkpt><trkpt lat="43.606036203797714" lon="10.774430955616646"><ele>203.66666666666669</ele><time>2026-04-26T15:27:22Z</time></trkpt><trkpt lat="43.606100712199535" lon="10.774449806569132"><ele>204.0</ele><time>2026-04-26T15:27:23Z</time></trkpt><trkpt lat="43.6061787707255" lon="10.774446965925097"><ele>204.33333333333331</ele><time>2026-04-26T15:27:24Z</time></trkpt><trkpt lat="43.606255635688626" lon="10.77447382775869"><ele>204.66666666666666</ele><time>2026-04-26T15:27:25Z</time></trkpt><trkpt lat="43.6063411732839" lon="10.774499520407224"><ele>205.0</ele><time>2026-04-26T15:27:26Z</time></trkpt><trkpt lat="43.606441388252655" lon="10.774524266392728"><ele>204.99999999999997</ele><time>2026-04-26T15:27:27Z</time></trkpt><trkpt lat="43.60653809436522" lon="10.774539279356967"><ele>205.0</ele><time>2026-04-26T15:27:28Z</time></trkpt><trkpt lat="43.60662754952548" lon="10.774572500242542"><ele>205.0</ele><time>2026-04-26T15:27:29Z</time></trkpt><trkpt lat="43.60671543772626" lon="10.77458368129481"><ele>205.0</ele><time>2026-04-26T15:27:30Z</time></trkpt><trkpt lat="43.606801919748506" lon="10.774593601513594"><ele>204.99999999999997</ele><time>2026-04-26T15:27:31Z</time></trkpt><trkpt lat="43.60688528087958" lon="10.774603042419768"><ele>205.0</ele><time>2026-04-26T15:27:32Z</time></trkpt><trkpt lat="43.6069632409132" lon="10.774617818284"><ele>205.49999999999997</ele><time>2026-04-26T15:27:33Z</time></trkpt><trkpt lat="43.60704902583281" lon="10.774617301936628"><ele>206.0</ele><time>2026-04-26T15:27:34Z</time></trkpt><trkpt lat="43.60712727840495" lon="10.7746019721007"><ele>206.5</ele><time>2026-04-26T15:27:35Z</time></trkpt><trkpt lat="43.607204756497445" lon="10.774610898167953"><ele>207.0</ele><time>2026-04-26T15:27:35.999Z</time></trkpt><trkpt lat="43.60728131488846" lon="10.774620079554179"><ele>207.49999999999997</ele><time>2026-04-26T15:27:36.999Z</time></trkpt><trkpt lat="43.60735524751536" lon="10.774629827616046"><ele>208.0</ele><time>2026-04-26T15:27:37.999Z</time></trkpt><trkpt lat="43.60742859988894" lon="10.774653556451634"><ele>208.0</ele><time>2026-04-26T15:27:38.999Z</time></trkpt><trkpt lat="43.60750858322564" lon="10.774661352710597"><ele>208.0</ele><time>2026-04-26T15:27:39.999Z</time></trkpt><trkpt lat="43.60759620989789" lon="10.774667585174692"><ele>208.0</ele><time>2026-04-26T15:27:40.999Z</time></trkpt><trkpt lat="43.60769208367839" lon="10.774657242643421"><ele>208.0</ele><time>2026-04-26T15:27:41.999Z</time></trkpt><trkpt lat="43.607787574737685" lon="10.774676824010731"><ele>208.0</ele><time>2026-04-26T15:27:42.999Z</time></trkpt><trkpt lat="43.60789341765445" lon="10.774678814619966"><ele>205.0</ele><time>2026-04-26T15:27:43.999Z</time></trkpt><trkpt lat="43.607998784534225" lon="10.774670168651763"><ele>202.0</ele><time>2026-04-26T15:27:44.999Z</time></trkpt><trkpt lat="43.60809816498862" lon="10.77465307595447"><ele>199.0</ele><time>2026-04-26T15:27:45.999Z</time></trkpt><trkpt lat="43.60819253544037" lon="10.774622473942959"><ele>196.0</ele><time>2026-04-26T15:27:46.999Z</time></trkpt><trkpt lat="43.60828411030125" lon="10.774570427771529"><ele>193.0</ele><time>2026-04-26T15:27:47.999Z</time></trkpt><trkpt lat="43.60837420182536" lon="10.7744745347302"><ele>193.25</ele><time>2026-04-26T15:27:48.999Z</time></trkpt><trkpt lat="43.60844601855004" lon="10.774310001816893"><ele>193.5</ele><time>2026-04-26T15:27:49.999Z</time></trkpt><trkpt lat="43.60849777087439" lon="10.774112396239689"><ele>193.75</ele><time>2026-04-26T15:27:50.999Z</time></trkpt><trkpt lat="43.608539277444265" lon="10.773983415018849"><ele>194.0</ele><time>2026-04-26T15:27:51.999Z</time></trkpt><trkpt lat="43.60859490323217" lon="10.773880632373267"><ele>193.0</ele><time>2026-04-26T15:27:52.999Z</time></trkpt><trkpt lat="43.608671875791956" lon="10.773777666461768"><ele>192.0</ele><time>2026-04-26T15:27:53.999Z</time></trkpt><trkpt lat="43.60877741905006" lon="10.773697414342156"><ele>191.0</ele><time>2026-04-26T15:27:54.999Z</time></trkpt><trkpt lat="43.60889537769345" lon="10.773641980654055"><ele>190.0</ele><time>2026-04-26T15:27:55.999Z</time></trkpt><trkpt lat="43.60902272419733" lon="10.773598897319804"><ele>190.0</ele><time>2026-04-26T15:27:56.999Z</time></trkpt><trkpt lat="43.609152472326386" lon="10.77360400955694"><ele>190.0</ele><time>2026-04-26T15:27:57.999Z</time></trkpt><trkpt lat="43.60927715621232" lon="10.773644448607206"><ele>190.0</ele><time>2026-04-26T15:27:58.999Z</time></trkpt><trkpt lat="43.6093933521127" lon="10.773731758782917"><ele>190.0</ele><time>2026-04-26T15:27:59.999Z</time></trkpt><trkpt lat="43.60953457780534" lon="10.773825356471834"><ele>195.0</ele><time>2026-04-26T15:28:00.999Z</time></trkpt><trkpt lat="43.60966852209155" lon="10.773951621578293"><ele>200.0</ele><time>2026-04-26T15:28:01.999Z</time></trkpt><trkpt lat="43.60981299487486" lon="10.774062949895729"><ele>205.0</ele><time>2026-04-26T15:28:02.999Z</time></trkpt><trkpt lat="43.609959027259656" lon="10.774157518131998"><ele>205.0</ele><time>2026-04-26T15:28:03.999Z</time></trkpt><trkpt lat="43.610110821946755" lon="10.77421386974429"><ele>205.0</ele><time>2026-04-26T15:28:04.999Z</time></trkpt><trkpt lat="43.61027263192807" lon="10.774216973108993"><ele>205.0</ele><time>2026-04-26T15:28:05.999Z</time></trkpt><trkpt lat="43.61042760416788" lon="10.77417083003973"><ele>205.33333333333331</ele><time>2026-04-26T15:28:06.999Z</time></trkpt><trkpt lat="43.610584549581354" lon="10.774117470635337"><ele>205.66666666666669</ele><time>2026-04-26T15:28:07.999Z</time></trkpt><trkpt lat="43.61074436664984" lon="10.77406605870556"><ele>206.0</ele><time>2026-04-26T15:28:08.999Z</time></trkpt><trkpt lat="43.61090783050706" lon="10.774056970472328"><ele>206.0</ele><time>2026-04-26T15:28:09.999Z</time></trkpt><trkpt lat="43.61104257349082" lon="10.774012732989107"><ele>206.0</ele><time>2026-04-26T15:28:10.999Z</time></trkpt><trkpt lat="43.61115598623144" lon="10.773944743581387"><ele>206.0</ele><time>2026-04-26T15:28:11.999Z</time></trkpt><trkpt lat="43.61124657027617" lon="10.773903195788778"><ele>206.0</ele><time>2026-04-26T15:28:12.999Z</time></trkpt><trkpt lat="43.61128355957503" lon="10.773731869876455"><ele>207.8</ele><time>2026-04-26T15:28:13.999Z</time></trkpt><trkpt lat="43.61134748436262" lon="10.77361068016569"><ele>209.60000000000002</ele><time>2026-04-26T15:28:14.999Z</time></trkpt><trkpt lat="43.61139848358617" lon="10.773479948049332"><ele>211.4</ele><time>2026-04-26T15:28:15.999Z</time></trkpt><trkpt lat="43.61147108772254" lon="10.773393852760579"><ele>213.2</ele><time>2026-04-26T15:28:16.999Z</time></trkpt><trkpt lat="43.61156567247253" lon="10.77334974461856"><ele>215.0</ele><time>2026-04-26T15:28:17.999Z</time></trkpt><trkpt lat="43.611685707348805" lon="10.773321161235843"><ele>215.0</ele><time>2026-04-26T15:28:18.999Z</time></trkpt><trkpt lat="43.61182678372809" lon="10.773308195245779"><ele>215.0</ele><time>2026-04-26T15:28:19.999Z</time></trkpt><trkpt lat="43.61196326772582" lon="10.773306124836493"><ele>215.0</ele><time>2026-04-26T15:28:20.999Z</time></trkpt><trkpt lat="43.6121055739224" lon="10.773308248757562"><ele>215.0</ele><time>2026-04-26T15:28:21.999Z</time></trkpt><trkpt lat="43.61222999950723" lon="10.773257468032723"><ele>215.5</ele><time>2026-04-26T15:28:22.999Z</time></trkpt><trkpt lat="43.61234161825339" lon="10.773160733502706"><ele>216.0</ele><time>2026-04-26T15:28:23.999Z</time></trkpt><trkpt lat="43.61243123641415" lon="10.772996369515626"><ele>216.5</ele><time>2026-04-26T15:28:24.999Z</time></trkpt><trkpt lat="43.6125250422477" lon="10.772805634481099"><ele>217.0</ele><time>2026-04-26T15:28:25.999Z</time></trkpt><trkpt lat="43.61262621218221" lon="10.772631135773647"><ele>214.0</ele><time>2026-04-26T15:28:26.999Z</time></trkpt><trkpt lat="43.61274126955782" lon="10.772461217447649"><ele>211.0</ele><time>2026-04-26T15:28:27.999Z</time></trkpt><trkpt lat="43.61287037811005" lon="10.772316108647653"><ele>208.0</ele><time>2026-04-26T15:28:28.999Z</time></trkpt><trkpt lat="43.61300177455037" lon="10.772163958572653"><ele>208.0</ele><time>2026-04-26T15:28:29.999Z</time></trkpt><trkpt lat="43.6131221238663" lon="10.772020048124373"><ele>208.0</ele><time>2026-04-26T15:28:30.999Z</time></trkpt><trkpt lat="43.61322312668247" lon="10.77185214142416"><ele>208.0</ele><time>2026-04-26T15:28:31.999Z</time></trkpt><trkpt lat="43.61330684374344" lon="10.771685512895608"><ele>208.0</ele><time>2026-04-26T15:28:32.999Z</time></trkpt><trkpt lat="43.61338131554832" lon="10.771525875500421"><ele>208.0</ele><time>2026-04-26T15:28:33.999Z</time></trkpt><trkpt lat="43.61343668104549" lon="10.771361585697965"><ele>208.0</ele><time>2026-04-26T15:28:34.999Z</time></trkpt><trkpt lat="43.61344528129403" lon="10.771179111101983"><ele>208.0</ele><time>2026-04-26T15:28:35.999Z</time></trkpt><trkpt lat="43.613447573859226" lon="10.771012415546762"><ele>207.5</ele><time>2026-04-26T15:28:36.999Z</time></trkpt><trkpt lat="43.613465086629745" lon="10.770842597858598"><ele>207.0</ele><time>2026-04-26T15:28:37.999Z</time></trkpt><trkpt lat="43.61348573003608" lon="10.770664234292608"><ele>206.5</ele><time>2026-04-26T15:28:38.999Z</time></trkpt><trkpt lat="43.613539669477255" lon="10.770490345218148"><ele>206.0</ele><time>2026-04-26T15:28:39.999Z</time></trkpt><trkpt lat="43.61361129158266" lon="10.770306845749062"><ele>201.75</ele><time>2026-04-26T15:28:40.999Z</time></trkpt><trkpt lat="43.613677037784235" lon="10.770126816382872"><ele>197.5</ele><time>2026-04-26T15:28:41.999Z</time></trkpt><trkpt lat="43.61371540840905" lon="10.769938513123723"><ele>193.25</ele><time>2026-04-26T15:28:42.999Z</time></trkpt><trkpt lat="43.61374296812406" lon="10.76973765792235"><ele>189.0</ele><time>2026-04-26T15:28:43.999Z</time></trkpt><trkpt lat="43.61374242983037" lon="10.769516676675968"><ele>188.0</ele><time>2026-04-26T15:28:44.998Z</time></trkpt><trkpt lat="43.61374430000074" lon="10.769289434403836"><ele>187.0</ele><time>2026-04-26T15:28:45.998Z</time></trkpt><trkpt lat="43.61372246711965" lon="10.769064411930938"><ele>186.0</ele><time>2026-04-26T15:28:46.998Z</time></trkpt><trkpt lat="43.613696459318334" lon="10.768841214078037"><ele>186.0</ele><time>2026-04-26T15:28:47.998Z</time></trkpt><trkpt lat="43.61366997634909" lon="10.768616577913264"><ele>186.0</ele><time>2026-04-26T15:28:48.998Z</time></trkpt><trkpt lat="43.61364417566337" lon="10.768399682450672"><ele>186.0</ele><time>2026-04-26T15:28:49.998Z</time></trkpt><trkpt lat="43.61361568674044" lon="10.768175559035983"><ele>186.25</ele><time>2026-04-26T15:28:50.998Z</time></trkpt><trkpt lat="43.61358777849278" lon="10.767984634197786"><ele>186.5</ele><time>2026-04-26T15:28:51.998Z</time></trkpt><trkpt lat="43.613563900015514" lon="10.767796603948351"><ele>186.75</ele><time>2026-04-26T15:28:52.998Z</time></trkpt><trkpt lat="43.61354419704668" lon="10.767615312370097"><ele>187.0</ele><time>2026-04-26T15:28:53.998Z</time></trkpt><trkpt lat="43.6135387101302" lon="10.767458201253088"><ele>187.25</ele><time>2026-04-26T15:28:54.998Z</time></trkpt><trkpt lat="43.61354305535402" lon="10.76731168206741"><ele>187.5</ele><time>2026-04-26T15:28:55.998Z</time></trkpt><trkpt lat="43.61354910185442" lon="10.767162609352654"><ele>187.75</ele><time>2026-04-26T15:28:56.998Z</time></trkpt><trkpt lat="43.61355587997033" lon="10.766992405786755"><ele>188.0</ele><time>2026-04-26T15:28:57.998Z</time></trkpt><trkpt lat="43.6135641995669" lon="10.766772616982848"><ele>188.0</ele><time>2026-04-26T15:28:58.998Z</time></trkpt><trkpt lat="43.61357281252241" lon="10.766517411509952"><ele>188.0</ele><time>2026-04-26T15:28:59.998Z</time></trkpt><trkpt lat="43.613579317735024" lon="10.766214031798851"><ele>188.0</ele><time>2026-04-26T15:29:00.998Z</time></trkpt><trkpt lat="43.61358421926229" lon="10.765889121891055"><ele>184.33333333333331</ele><time>2026-04-26T15:29:01.998Z</time></trkpt><trkpt lat="43.61358852955689" lon="10.765586748448113"><ele>180.66666666666666</ele><time>2026-04-26T15:29:02.998Z</time></trkpt><trkpt lat="43.613592337038924" lon="10.765319647782244"><ele>177.0</ele><time>2026-04-26T15:29:04Z</time></trkpt><trkpt lat="43.61359587335525" lon="10.765071570220353"><ele>175.66666666666666</ele><time>2026-04-26T15:29:05Z</time></trkpt><trkpt lat="43.61359924205391" lon="10.764828007228559"><ele>174.33333333333331</ele><time>2026-04-26T15:29:06Z</time></trkpt><trkpt lat="43.61360232820812" lon="10.764602173557684"><ele>173.0</ele><time>2026-04-26T15:29:07Z</time></trkpt><trkpt lat="43.613603221304636" lon="10.764392313188369"><ele>173.75</ele><time>2026-04-26T15:29:08Z</time></trkpt><trkpt lat="43.61360471568353" lon="10.764186079408798"><ele>174.5</ele><time>2026-04-26T15:29:09Z</time></trkpt><trkpt lat="43.61362616238475" lon="10.764019950167658"><ele>175.25</ele><time>2026-04-26T15:29:10Z</time></trkpt><trkpt lat="43.613676374745864" lon="10.76387134109467"><ele>176.0</ele><time>2026-04-26T15:29:11Z</time></trkpt><trkpt lat="43.61376807391418" lon="10.763735290876975"><ele>176.0</ele><time>2026-04-26T15:29:12Z</time></trkpt><trkpt lat="43.61390469822249" lon="10.76360146020222"><ele>176.0</ele><time>2026-04-26T15:29:13Z</time></trkpt><trkpt lat="43.61407767689316" lon="10.763459144301603"><ele>176.0</ele><time>2026-04-26T15:29:14Z</time></trkpt><trkpt lat="43.614261823084966" lon="10.763295009727813"><ele>177.66666666666666</ele><time>2026-04-26T15:29:15Z</time></trkpt><trkpt lat="43.61443942221554" lon="10.763128813648175"><ele>179.33333333333334</ele><time>2026-04-26T15:29:16Z</time></trkpt><trkpt lat="43.61459437676732" lon="10.762946550979155"><ele>181.0</ele><time>2026-04-26T15:29:17Z</time></trkpt><trkpt lat="43.61472531338979" lon="10.762764582308927"><ele>181.66666666666669</ele><time>2026-04-26T15:29:18Z</time></trkpt><trkpt lat="43.61483991059706" lon="10.762582244957319"><ele>182.33333333333334</ele><time>2026-04-26T15:29:19Z</time></trkpt><trkpt lat="43.614972481448625" lon="10.762444959046917"><ele>183.0</ele><time>2026-04-26T15:29:20Z</time></trkpt><trkpt lat="43.61510404922496" lon="10.762316872340104"><ele>183.0</ele><time>2026-04-26T15:29:21Z</time></trkpt><trkpt lat="43.61526540846899" lon="10.762207263772208"><ele>183.0</ele><time>2026-04-26T15:29:22Z</time></trkpt><trkpt lat="43.61544418925679" lon="10.76207861599"><ele>183.0</ele><time>2026-04-26T15:29:23Z</time></trkpt><trkpt lat="43.61563408118155" lon="10.761970917415226"><ele>176.5</ele><time>2026-04-26T15:29:24Z</time></trkpt><trkpt lat="43.6158301416976" lon="10.761826673327127"><ele>170.0</ele><time>2026-04-26T15:29:25Z</time></trkpt><trkpt lat="43.616022625248306" lon="10.761617573667177"><ele>168.33333333333331</ele><time>2026-04-26T15:29:26Z</time></trkpt><trkpt lat="43.616206534235424" lon="10.761429263929355"><ele>166.66666666666666</ele><time>2026-04-26T15:29:27Z</time></trkpt><trkpt lat="43.61636832550376" lon="10.761270744326813"><ele>165.0</ele><time>2026-04-26T15:29:28Z</time></trkpt><trkpt lat="43.616515613142255" lon="10.761140734119481"><ele>164.0</ele><time>2026-04-26T15:29:29Z</time></trkpt><trkpt lat="43.61667232379612" lon="10.761016583071013"><ele>163.0</ele><time>2026-04-26T15:29:30Z</time></trkpt><trkpt lat="43.616842338117735" lon="10.76090221450039"><ele>162.0</ele><time>2026-04-26T15:29:31Z</time></trkpt><trkpt lat="43.61701882015242" lon="10.760807929922903"><ele>162.0</ele><time>2026-04-26T15:29:32Z</time></trkpt><trkpt lat="43.61718355240462" lon="10.760724557989766"><ele>162.0</ele><time>2026-04-26T15:29:33Z</time></trkpt><trkpt lat="43.617325676503455" lon="10.760640600865319"><ele>162.0</ele><time>2026-04-26T15:29:34Z</time></trkpt><trkpt lat="43.617440617594596" lon="10.76056301852476"><ele>162.0</ele><time>2026-04-26T15:29:35Z</time></trkpt><trkpt lat="43.6175256821857" lon="10.76044185233507"><ele>162.0</ele><time>2026-04-26T15:29:36Z</time></trkpt><trkpt lat="43.61758230063919" lon="10.760267268074092"><ele>162.0</ele><time>2026-04-26T15:29:37Z</time></trkpt><trkpt lat="43.617634891887505" lon="10.760059674281873"><ele>162.0</ele><time>2026-04-26T15:29:38Z</time></trkpt><trkpt lat="43.61770499098205" lon="10.759864408052191"><ele>162.75</ele><time>2026-04-26T15:29:39Z</time></trkpt><trkpt lat="43.61780242596735" lon="10.759678807114483"><ele>163.5</ele><time>2026-04-26T15:29:40Z</time></trkpt><trkpt lat="43.617906998964465" lon="10.759546837748443"><ele>164.25</ele><time>2026-04-26T15:29:41Z</time></trkpt><trkpt lat="43.61801672577906" lon="10.759449115383998"><ele>165.0</ele><time>2026-04-26T15:29:42Z</time></trkpt><trkpt lat="43.61814197613783" lon="10.75938215944621"><ele>165.25</ele><time>2026-04-26T15:29:43Z</time></trkpt><trkpt lat="43.61828072747697" lon="10.759347601762485"><ele>165.5</ele><time>2026-04-26T15:29:44Z</time></trkpt><trkpt lat="43.61843030126424" lon="10.759328723285114"><ele>165.75</ele><time>2026-04-26T15:29:45Z</time></trkpt><trkpt lat="43.618578682304864" lon="10.759296216701113"><ele>166.0</ele><time>2026-04-26T15:29:46Z</time></trkpt><trkpt lat="43.61870439894009" lon="10.75925762603012"><ele>165.5</ele><time>2026-04-26T15:29:47Z</time></trkpt><trkpt lat="43.61880009249121" lon="10.7591603957551"><ele>165.0</ele><time>2026-04-26T15:29:48Z</time></trkpt><trkpt lat="43.618893150098074" lon="10.75900852817512"><ele>164.5</ele><time>2026-04-26T15:29:48.999Z</time></trkpt><trkpt lat="43.61897256813092" lon="10.758810735509819"><ele>164.0</ele><time>2026-04-26T15:29:49.999Z</time></trkpt><trkpt lat="43.61903878863992" lon="10.75856683867467"><ele>166.0</ele><time>2026-04-26T15:29:50.999Z</time></trkpt><trkpt lat="43.61908461895468" lon="10.758331248696363"><ele>168.0</ele><time>2026-04-26T15:29:51.999Z</time></trkpt><trkpt lat="43.61911441800918" lon="10.758128044056773"><ele>170.0</ele><time>2026-04-26T15:29:52.999Z</time></trkpt><trkpt lat="43.61913433204638" lon="10.757951098435319"><ele>170.0</ele><time>2026-04-26T15:29:53.999Z</time></trkpt><trkpt lat="43.61912762699961" lon="10.757803186639626"><ele>170.0</ele><time>2026-04-26T15:29:54.999Z</time></trkpt><trkpt lat="43.619094872363554" lon="10.757687446637927"><ele>170.0</ele><time>2026-04-26T15:29:55.999Z</time></trkpt><trkpt lat="43.61904234800694" lon="10.757614139295251"><ele>170.0</ele><time>2026-04-26T15:29:56.999Z</time></trkpt><trkpt lat="43.618956883806696" lon="10.757576797072689"><ele>170.0</ele><time>2026-04-26T15:29:57.999Z</time></trkpt><trkpt lat="43.61884455574318" lon="10.75751745039165"><ele>169.25</ele><time>2026-04-26T15:29:58.999Z</time></trkpt><trkpt lat="43.61870520082164" lon="10.757466189521228"><ele>168.5</ele><time>2026-04-26T15:29:59.999Z</time></trkpt><trkpt lat="43.618587412438785" lon="10.757393525236035"><ele>167.75</ele><time>2026-04-26T15:30:00.999Z</time></trkpt><trkpt lat="43.61848782956071" lon="10.7573133024767"><ele>167.0</ele><time>2026-04-26T15:30:01.999Z</time></trkpt><trkpt lat="43.61840462816833" lon="10.757248250457462"><ele>167.0</ele><time>2026-04-26T15:30:02.999Z</time></trkpt><trkpt lat="43.61832126309466" lon="10.757174036403637"><ele>167.0</ele><time>2026-04-26T15:30:03.999Z</time></trkpt><trkpt lat="43.61826712546152" lon="10.757006879231497"><ele>167.0</ele><time>2026-04-26T15:30:04.999Z</time></trkpt><trkpt lat="43.61817215691062" lon="10.756839065396516"><ele>167.0</ele><time>2026-04-26T15:30:05.999Z</time></trkpt><trkpt lat="43.61809604962261" lon="10.75664509514361"><ele>165.66666666666666</ele><time>2026-04-26T15:30:06.999Z</time></trkpt><trkpt lat="43.61799644068897" lon="10.756424933853301"><ele>164.33333333333334</ele><time>2026-04-26T15:30:07.999Z</time></trkpt><trkpt lat="43.61792119781417" lon="10.75619661714209"><ele>163.0</ele><time>2026-04-26T15:30:08.999Z</time></trkpt><trkpt lat="43.617859629156115" lon="10.755998671824706"><ele>160.5</ele><time>2026-04-26T15:30:09.999Z</time></trkpt><trkpt lat="43.61783270267526" lon="10.755809507598062"><ele>158.0</ele><time>2026-04-26T15:30:10.999Z</time></trkpt><trkpt lat="43.61784609766123" lon="10.755619910067407"><ele>155.5</ele><time>2026-04-26T15:30:11.999Z</time></trkpt><trkpt lat="43.61789274872058" lon="10.755408818393088"><ele>153.0</ele><time>2026-04-26T15:30:12.999Z</time></trkpt><trkpt lat="43.61794409288218" lon="10.755160261833044"><ele>151.0</ele><time>2026-04-26T15:30:13.999Z</time></trkpt><trkpt lat="43.617973653082764" lon="10.754892940324531"><ele>149.0</ele><time>2026-04-26T15:30:14.999Z</time></trkpt><trkpt lat="43.617999629844064" lon="10.754599279034808"><ele>147.0</ele><time>2026-04-26T15:30:15.999Z</time></trkpt><trkpt lat="43.61800706403839" lon="10.7543174241746"><ele>146.75</ele><time>2026-04-26T15:30:16.999Z</time></trkpt><trkpt lat="43.61799453525859" lon="10.754091909121536"><ele>146.5</ele><time>2026-04-26T15:30:17.999Z</time></trkpt><trkpt lat="43.61798546672404" lon="10.753907376995153"><ele>146.25</ele><time>2026-04-26T15:30:18.999Z</time></trkpt><trkpt lat="43.61797041481601" lon="10.753712944221354"><ele>146.0</ele><time>2026-04-26T15:30:19.999Z</time></trkpt><trkpt lat="43.617982967840696" lon="10.753493185199751"><ele>146.0</ele><time>2026-04-26T15:30:20.999Z</time></trkpt><trkpt lat="43.61797942111228" lon="10.75326407493844"><ele>146.0</ele><time>2026-04-26T15:30:21.999Z</time></trkpt><trkpt lat="43.61799071953061" lon="10.753054494173263"><ele>146.0</ele><time>2026-04-26T15:30:22.999Z</time></trkpt><trkpt lat="43.61802686977997" lon="10.752860794115568"><ele>150.66666666666666</ele><time>2026-04-26T15:30:23.999Z</time></trkpt><trkpt lat="43.618094191500596" lon="10.752703298804235"><ele>155.33333333333334</ele><time>2026-04-26T15:30:24.999Z</time></trkpt><trkpt lat="43.61818576217192" lon="10.752527855716275"><ele>160.0</ele><time>2026-04-26T15:30:25.999Z</time></trkpt><trkpt lat="43.61828617087145" lon="10.752339775644705"><ele>160.0</ele><time>2026-04-26T15:30:26.999Z</time></trkpt><trkpt lat="43.61838879084516" lon="10.752135523012926"><ele>160.0</ele><time>2026-04-26T15:30:27.999Z</time></trkpt><trkpt lat="43.61849347509916" lon="10.751917993641971"><ele>160.0</ele><time>2026-04-26T15:30:28.999Z</time></trkpt><trkpt lat="43.61855602031741" lon="10.75165113027971"><ele>160.5</ele><time>2026-04-26T15:30:29.999Z</time></trkpt><trkpt lat="43.61861582601042" lon="10.751361329226286"><ele>161.0</ele><time>2026-04-26T15:30:30.999Z</time></trkpt><trkpt lat="43.61867687034024" lon="10.75104795263421"><ele>154.33333333333331</ele><time>2026-04-26T15:30:31.999Z</time></trkpt><trkpt lat="43.618732509942916" lon="10.750766869669699"><ele>147.66666666666666</ele><time>2026-04-26T15:30:32.999Z</time></trkpt><trkpt lat="43.61879243389946" lon="10.750501954937492"><ele>141.0</ele><time>2026-04-26T15:30:33.999Z</time></trkpt><trkpt lat="43.6188745273404" lon="10.75024785281766"><ele>143.0</ele><time>2026-04-26T15:30:34.999Z</time></trkpt><trkpt lat="43.61897224329039" lon="10.749998023522043"><ele>145.0</ele><time>2026-04-26T15:30:35.999Z</time></trkpt><trkpt lat="43.61907072185054" lon="10.749767559992616"><ele>147.0</ele><time>2026-04-26T15:30:36.999Z</time></trkpt><trkpt lat="43.619157570421216" lon="10.749574561577312"><ele>147.0</ele><time>2026-04-26T15:30:37.999Z</time></trkpt><trkpt lat="43.619218997265826" lon="10.74938653889652"><ele>147.0</ele><time>2026-04-26T15:30:38.999Z</time></trkpt><trkpt lat="43.61923541364439" lon="10.749188266338416"><ele>147.0</ele><time>2026-04-26T15:30:39.999Z</time></trkpt><trkpt lat="43.61920535921404" lon="10.749007012435372"><ele>147.0</ele><time>2026-04-26T15:30:40.999Z</time></trkpt><trkpt lat="43.619144303763996" lon="10.74884086810051"><ele>147.66666666666666</ele><time>2026-04-26T15:30:41.999Z</time></trkpt><trkpt lat="43.61904146733678" lon="10.748702848557445"><ele>148.33333333333331</ele><time>2026-04-26T15:30:42.999Z</time></trkpt><trkpt lat="43.61889358983019" lon="10.74857240888754"><ele>149.0</ele><time>2026-04-26T15:30:43.999Z</time></trkpt><trkpt lat="43.61874433453855" lon="10.74840509285103"><ele>145.0</ele><time>2026-04-26T15:30:44.999Z</time></trkpt><trkpt lat="43.6185896790844" lon="10.748188573760796"><ele>141.0</ele><time>2026-04-26T15:30:45.999Z</time></trkpt><trkpt lat="43.61844357865385" lon="10.747965650966247"><ele>137.0</ele><time>2026-04-26T15:30:46.999Z</time></trkpt><trkpt lat="43.61833680798807" lon="10.747773510803084"><ele>141.0</ele><time>2026-04-26T15:30:47.999Z</time></trkpt><trkpt lat="43.618259186041804" lon="10.747584963376188"><ele>145.0</ele><time>2026-04-26T15:30:48.999Z</time></trkpt><trkpt lat="43.61818640072774" lon="10.747377835075367"><ele>149.0</ele><time>2026-04-26T15:30:49.999Z</time></trkpt><trkpt lat="43.61810638660999" lon="10.747149001445084"><ele>149.0</ele><time>2026-04-26T15:30:50.999Z</time></trkpt><trkpt lat="43.6180125633197" lon="10.74691720682521"><ele>149.0</ele><time>2026-04-26T15:30:51.999Z</time></trkpt><trkpt lat="43.61791344094018" lon="10.746685765548337"><ele>149.0</ele><time>2026-04-26T15:30:52.999Z</time></trkpt><trkpt lat="43.6178096493765" lon="10.746472363692183"><ele>147.0</ele><time>2026-04-26T15:30:53.999Z</time></trkpt><trkpt lat="43.617735864718505" lon="10.746257161446577"><ele>145.0</ele><time>2026-04-26T15:30:54.999Z</time></trkpt><trkpt lat="43.61765649718957" lon="10.746071828328283"><ele>143.0</ele><time>2026-04-26T15:30:55.998Z</time></trkpt><trkpt lat="43.617593399079254" lon="10.745895730673139"><ele>143.0</ele><time>2026-04-26T15:30:56.998Z</time></trkpt><trkpt lat="43.617558244666945" lon="10.745717372932331"><ele>143.0</ele><time>2026-04-26T15:30:57.998Z</time></trkpt><trkpt lat="43.61755876965799" lon="10.745533328111067"><ele>143.0</ele><time>2026-04-26T15:30:58.998Z</time></trkpt><trkpt lat="43.61761588622612" lon="10.745372381349013"><ele>143.0</ele><time>2026-04-26T15:30:59.998Z</time></trkpt><trkpt lat="43.61769711000875" lon="10.74519465998147"><ele>142.0</ele><time>2026-04-26T15:31:00.998Z</time></trkpt><trkpt lat="43.61778092169044" lon="10.74498603168566"><ele>141.0</ele><time>2026-04-26T15:31:01.998Z</time></trkpt><trkpt lat="43.61788794497269" lon="10.74476838624618"><ele>140.0</ele><time>2026-04-26T15:31:02.998Z</time></trkpt><trkpt lat="43.61797246212419" lon="10.744517877609605"><ele>142.0</ele><time>2026-04-26T15:31:03.998Z</time></trkpt><trkpt lat="43.6180622587935" lon="10.744246509540655"><ele>144.0</ele><time>2026-04-26T15:31:04.998Z</time></trkpt><trkpt lat="43.61814503474266" lon="10.743984676145116"><ele>146.0</ele><time>2026-04-26T15:31:05.998Z</time></trkpt><trkpt lat="43.61819283600464" lon="10.743764788498805"><ele>146.0</ele><time>2026-04-26T15:31:06.998Z</time></trkpt><trkpt lat="43.61823638616769" lon="10.743591588444689"><ele>146.0</ele><time>2026-04-26T15:31:07.998Z</time></trkpt><trkpt lat="43.61824487103948" lon="10.74342287895848"><ele>146.0</ele><time>2026-04-26T15:31:09Z</time></trkpt><trkpt lat="43.618214204986714" lon="10.743223403474657"><ele>146.0</ele><time>2026-04-26T15:31:10Z</time></trkpt><trkpt lat="43.61816031121943" lon="10.74299130867928"><ele>146.0</ele><time>2026-04-26T15:31:11Z</time></trkpt><trkpt lat="43.61813713789181" lon="10.742728394537066"><ele>146.0</ele><time>2026-04-26T15:31:12Z</time></trkpt><trkpt lat="43.61809083021012" lon="10.742460009573847"><ele>146.0</ele><time>2026-04-26T15:31:13Z</time></trkpt><trkpt lat="43.6180256442215" lon="10.742196218466214"><ele>146.0</ele><time>2026-04-26T15:31:14Z</time></trkpt><trkpt lat="43.61795487922473" lon="10.741928884364006"><ele>146.0</ele><time>2026-04-26T15:31:15Z</time></trkpt><trkpt lat="43.61786861228993" lon="10.741667965452102"><ele>146.0</ele><time>2026-04-26T15:31:16Z</time></trkpt><trkpt lat="43.61776674076231" lon="10.741390999970815"><ele>143.5</ele><time>2026-04-26T15:31:17Z</time></trkpt><trkpt lat="43.617659131347025" lon="10.741089886407593"><ele>141.0</ele><time>2026-04-26T15:31:18Z</time></trkpt><trkpt lat="43.617537197572446" lon="10.74078571961208"><ele>141.0</ele><time>2026-04-26T15:31:19Z</time></trkpt><trkpt lat="43.61743479708214" lon="10.740510548543947"><ele>141.0</ele><time>2026-04-26T15:31:20Z</time></trkpt><trkpt lat="43.6173500696167" lon="10.740263656233035"><ele>141.0</ele><time>2026-04-26T15:31:21Z</time></trkpt><trkpt lat="43.617289197111994" lon="10.74003542269053"><ele>140.0</ele><time>2026-04-26T15:31:22Z</time></trkpt><trkpt lat="43.61726048550976" lon="10.739810986765228"><ele>139.0</ele><time>2026-04-26T15:31:23Z</time></trkpt><trkpt lat="43.61726161703943" lon="10.73956723724878"><ele>138.0</ele><time>2026-04-26T15:31:24Z</time></trkpt><trkpt lat="43.61726968810768" lon="10.739280936838785"><ele>136.66666666666666</ele><time>2026-04-26T15:31:25Z</time></trkpt><trkpt lat="43.617276901245404" lon="10.738968277220659"><ele>135.33333333333331</ele><time>2026-04-26T15:31:26Z</time></trkpt><trkpt lat="43.61728723759782" lon="10.738676873092539"><ele>134.0</ele><time>2026-04-26T15:31:27Z</time></trkpt><trkpt lat="43.61731695850512" lon="10.738439628799238"><ele>134.0</ele><time>2026-04-26T15:31:28Z</time></trkpt><trkpt lat="43.61738021206068" lon="10.738209712580572"><ele>134.0</ele><time>2026-04-26T15:31:29Z</time></trkpt><trkpt lat="43.617472781566704" lon="10.737962723525214"><ele>134.0</ele><time>2026-04-26T15:31:30Z</time></trkpt><trkpt lat="43.617544562337805" lon="10.737681940432653"><ele>134.5</ele><time>2026-04-26T15:31:31Z</time></trkpt><trkpt lat="43.61758314228027" lon="10.737374227828559"><ele>135.0</ele><time>2026-04-26T15:31:32Z</time></trkpt><trkpt lat="43.61761462499855" lon="10.737046547865965"><ele>135.33333333333334</ele><time>2026-04-26T15:31:33Z</time></trkpt><trkpt lat="43.61764308131569" lon="10.736726822396339"><ele>135.66666666666669</ele><time>2026-04-26T15:31:34Z</time></trkpt><trkpt lat="43.61766681951605" lon="10.736449755908808"><ele>136.0</ele><time>2026-04-26T15:31:35Z</time></trkpt><trkpt lat="43.6176812646699" lon="10.736194075235058"><ele>137.33333333333334</ele><time>2026-04-26T15:31:36Z</time></trkpt><trkpt lat="43.617650213381914" lon="10.73596270321894"><ele>138.66666666666666</ele><time>2026-04-26T15:31:37Z</time></trkpt><trkpt lat="43.617603228802665" lon="10.73574952851865"><ele>140.0</ele><time>2026-04-26T15:31:38Z</time></trkpt><trkpt lat="43.6176670620371" lon="10.735477205931913"><ele>140.0</ele><time>2026-04-26T15:31:39Z</time></trkpt><trkpt lat="43.61738521561178" lon="10.735343908397205"><ele>140.0</ele><time>2026-04-26T15:31:40Z</time></trkpt><trkpt lat="43.61726338668134" lon="10.735177013507494"><ele>142.75</ele><time>2026-04-26T15:31:41Z</time></trkpt><trkpt lat="43.61718955138124" lon="10.735015307812764"><ele>145.5</ele><time>2026-04-26T15:31:42Z</time></trkpt><trkpt lat="43.617163736670754" lon="10.734834410705513"><ele>148.25</ele><time>2026-04-26T15:31:43Z</time></trkpt><trkpt lat="43.61717779702772" lon="10.73462619607481"><ele>151.0</ele><time>2026-04-26T15:31:44Z</time></trkpt><trkpt lat="43.617219468326134" lon="10.734389446429352"><ele>152.33333333333334</ele><time>2026-04-26T15:31:45Z</time></trkpt><trkpt lat="43.617284336816994" lon="10.734132588648645"><ele>153.66666666666666</ele><time>2026-04-26T15:31:46Z</time></trkpt><trkpt lat="43.61731104747911" lon="10.733858210610501"><ele>155.0</ele><time>2026-04-26T15:31:47Z</time></trkpt><trkpt lat="43.61733437108889" lon="10.733593967154569"><ele>154.66666666666666</ele><time>2026-04-26T15:31:48Z</time></trkpt><trkpt lat="43.61736295734577" lon="10.733350837675856"><ele>154.33333333333334</ele><time>2026-04-26T15:31:49Z</time></trkpt><trkpt lat="43.61741376413512" lon="10.733132756063757"><ele>154.0</ele><time>2026-04-26T15:31:50Z</time></trkpt><trkpt lat="43.617501637619426" lon="10.732932969924256"><ele>151.0</ele><time>2026-04-26T15:31:51Z</time></trkpt><trkpt lat="43.61760192105311" lon="10.73271184413166"><ele>148.0</ele><time>2026-04-26T15:31:52Z</time></trkpt><trkpt lat="43.617701246140356" lon="10.732469882497965"><ele>145.0</ele><time>2026-04-26T15:31:53Z</time></trkpt><trkpt lat="43.61780252399067" lon="10.732226594494467"><ele>148.66666666666669</ele><time>2026-04-26T15:31:54Z</time></trkpt><trkpt lat="43.61790253455307" lon="10.731976446529321"><ele>152.33333333333334</ele><time>2026-04-26T15:31:55Z</time></trkpt><trkpt lat="43.6180103354668" lon="10.731783795971111"><ele>156.0</ele><time>2026-04-26T15:31:56Z</time></trkpt><trkpt lat="43.61806925140919" lon="10.73158445686596"><ele>156.0</ele><time>2026-04-26T15:31:57Z</time></trkpt><trkpt lat="43.618098657856955" lon="10.731349856994619"><ele>156.0</ele><time>2026-04-26T15:31:58Z</time></trkpt><trkpt lat="43.61815898428316" lon="10.731126745018374"><ele>156.0</ele><time>2026-04-26T15:31:59Z</time></trkpt><trkpt lat="43.61822175293416" lon="10.730929388352603"><ele>155.0</ele><time>2026-04-26T15:32:00Z</time></trkpt><trkpt lat="43.618293285929646" lon="10.730710143291159"><ele>154.0</ele><time>2026-04-26T15:32:01Z</time></trkpt><trkpt lat="43.61835444446762" lon="10.730489830229082"><ele>153.0</ele><time>2026-04-26T15:32:01.999Z</time></trkpt><trkpt lat="43.61839987304749" lon="10.730296259421078"><ele>154.33333333333334</ele><time>2026-04-26T15:32:02.999Z</time></trkpt><trkpt lat="43.61837957075603" lon="10.730093964691786"><ele>155.66666666666669</ele><time>2026-04-26T15:32:03.999Z</time></trkpt><trkpt lat="43.61831365793417" lon="10.729870513521442"><ele>157.0</ele><time>2026-04-26T15:32:04.999Z</time></trkpt><trkpt lat="43.61820740141594" lon="10.72967391085991"><ele>160.0</ele><time>2026-04-26T15:32:05.999Z</time></trkpt><trkpt lat="43.618090675757934" lon="10.729390411883822"><ele>163.0</ele><time>2026-04-26T15:32:06.999Z</time></trkpt><trkpt lat="43.61793643391274" lon="10.729083149926346"><ele>158.66666666666669</ele><time>2026-04-26T15:32:07.999Z</time></trkpt><trkpt lat="43.617810306320806" lon="10.72882363573387"><ele>154.33333333333334</ele><time>2026-04-26T15:32:08.999Z</time></trkpt><trkpt lat="43.617698749672435" lon="10.728583494638526"><ele>150.0</ele><time>2026-04-26T15:32:09.999Z</time></trkpt><trkpt lat="43.61759318895978" lon="10.728362441040318"><ele>150.0</ele><time>2026-04-26T15:32:10.999Z</time></trkpt><trkpt lat="43.61749745079876" lon="10.728167746709195"><ele>150.0</ele><time>2026-04-26T15:32:11.999Z</time></trkpt><trkpt lat="43.6174171465752" lon="10.727961369097606"><ele>150.0</ele><time>2026-04-26T15:32:12.999Z</time></trkpt><trkpt lat="43.6173804451598" lon="10.727723219028974"><ele>149.66666666666666</ele><time>2026-04-26T15:32:13.999Z</time></trkpt><trkpt lat="43.61743186582415" lon="10.727451513693763"><ele>149.33333333333331</ele><time>2026-04-26T15:32:14.999Z</time></trkpt><trkpt lat="43.61743753372465" lon="10.727162335676539"><ele>149.0</ele><time>2026-04-26T15:32:15.999Z</time></trkpt><trkpt lat="43.61746174540727" lon="10.726863434536744"><ele>147.0</ele><time>2026-04-26T15:32:16.999Z</time></trkpt><trkpt lat="43.6175119303095" lon="10.726559111029003"><ele>145.0</ele><time>2026-04-26T15:32:17.999Z</time></trkpt><trkpt lat="43.61758564287295" lon="10.726253536693822"><ele>145.33333333333334</ele><time>2026-04-26T15:32:18.999Z</time></trkpt><trkpt lat="43.61764225576118" lon="10.726002965080253"><ele>145.66666666666666</ele><time>2026-04-26T15:32:19.999Z</time></trkpt><trkpt lat="43.61766168251894" lon="10.725774139373192"><ele>146.0</ele><time>2026-04-26T15:32:20.999Z</time></trkpt><trkpt lat="43.61765729737407" lon="10.725534041685167"><ele>146.0</ele><time>2026-04-26T15:32:21.999Z</time></trkpt><trkpt lat="43.61760247362419" lon="10.725290830644628"><ele>146.0</ele><time>2026-04-26T15:32:22.999Z</time></trkpt><trkpt lat="43.617583916261374" lon="10.725066136379716"><ele>146.0</ele><time>2026-04-26T15:32:23.999Z</time></trkpt><trkpt lat="43.61760343164628" lon="10.724841342207185"><ele>146.33333333333331</ele><time>2026-04-26T15:32:24.999Z</time></trkpt><trkpt lat="43.617655434449055" lon="10.724611589399512"><ele>146.66666666666666</ele><time>2026-04-26T15:32:25.999Z</time></trkpt><trkpt lat="43.61773033906278" lon="10.724411680625666"><ele>147.0</ele><time>2026-04-26T15:32:26.999Z</time></trkpt><trkpt lat="43.617831344290515" lon="10.724196644479354"><ele>151.33333333333334</ele><time>2026-04-26T15:32:27.999Z</time></trkpt><trkpt lat="43.617946932142694" lon="10.723988972619116"><ele>155.66666666666669</ele><time>2026-04-26T15:32:28.999Z</time></trkpt><trkpt lat="43.61807415604193" lon="10.723812524367652"><ele>160.0</ele><time>2026-04-26T15:32:29.999Z</time></trkpt><trkpt lat="43.6181964787335" lon="10.723703805317156"><ele>160.0</ele><time>2026-04-26T15:32:30.999Z</time></trkpt><trkpt lat="43.61831695281725" lon="10.723651740511547"><ele>160.0</ele><time>2026-04-26T15:32:31.999Z</time></trkpt><trkpt lat="43.61848932195368" lon="10.723598747781528"><ele>160.0</ele><time>2026-04-26T15:32:32.999Z</time></trkpt><trkpt lat="43.61866503399819" lon="10.723534547179819"><ele>158.0</ele><time>2026-04-26T15:32:33.999Z</time></trkpt><trkpt lat="43.61879971424608" lon="10.723440094719797"><ele>156.0</ele><time>2026-04-26T15:32:34.999Z</time></trkpt><trkpt lat="43.61891283790725" lon="10.723338821324765"><ele>154.0</ele><time>2026-04-26T15:32:35.999Z</time></trkpt><trkpt lat="43.61898770404493" lon="10.723205523636517"><ele>152.0</ele><time>2026-04-26T15:32:36.999Z</time></trkpt><trkpt lat="43.61900432735215" lon="10.723026996869507"><ele>152.0</ele><time>2026-04-26T15:32:37.999Z</time></trkpt><trkpt lat="43.61898951307796" lon="10.722834688144689"><ele>152.0</ele><time>2026-04-26T15:32:38.999Z</time></trkpt><trkpt lat="43.61892903227124" lon="10.722648041100202"><ele>152.0</ele><time>2026-04-26T15:32:39.999Z</time></trkpt><trkpt lat="43.618842495469906" lon="10.722432786576073"><ele>152.33333333333331</ele><time>2026-04-26T15:32:40.999Z</time></trkpt><trkpt lat="43.61874749103788" lon="10.722178478115794"><ele>152.66666666666666</ele><time>2026-04-26T15:32:41.999Z</time></trkpt><trkpt lat="43.618696805781255" lon="10.721875115855438"><ele>153.0</ele><time>2026-04-26T15:32:42.999Z</time></trkpt><trkpt lat="43.61864935903348" lon="10.721586941950372"><ele>151.5</ele><time>2026-04-26T15:32:43.999Z</time></trkpt><trkpt lat="43.61862097216126" lon="10.721356498353368"><ele>150.0</ele><time>2026-04-26T15:32:44.999Z</time></trkpt><trkpt lat="43.618645658990594" lon="10.72117703683776"><ele>148.5</ele><time>2026-04-26T15:32:45.999Z</time></trkpt><trkpt lat="43.618718750405556" lon="10.721007906859514"><ele>147.0</ele><time>2026-04-26T15:32:46.999Z</time></trkpt><trkpt lat="43.61881516479537" lon="10.720798989806188"><ele>147.0</ele><time>2026-04-26T15:32:47.999Z</time></trkpt><trkpt lat="43.618875404765916" lon="10.720567261235876"><ele>147.0</ele><time>2026-04-26T15:32:48.999Z</time></trkpt><trkpt lat="43.618906185871296" lon="10.720321968542088"><ele>147.0</ele><time>2026-04-26T15:32:49.999Z</time></trkpt><trkpt lat="43.618913261005154" lon="10.720041670141812"><ele>148.25</ele><time>2026-04-26T15:32:50.999Z</time></trkpt><trkpt lat="43.618933882157165" lon="10.71981898044813"><ele>149.5</ele><time>2026-04-26T15:32:51.999Z</time></trkpt><trkpt lat="43.61895155461826" lon="10.719653027327178"><ele>150.75</ele><time>2026-04-26T15:32:52.999Z</time></trkpt><trkpt lat="43.61897406639006" lon="10.7195246245728"><ele>152.0</ele><time>2026-04-26T15:32:53.999Z</time></trkpt><trkpt lat="43.61900029702113" lon="10.71940274095192"><ele>151.75</ele><time>2026-04-26T15:32:54.999Z</time></trkpt><trkpt lat="43.61903073273628" lon="10.719285902854736"><ele>151.5</ele><time>2026-04-26T15:32:55.999Z</time></trkpt><trkpt lat="43.61907494257597" lon="10.719161981798043"><ele>151.25</ele><time>2026-04-26T15:32:56.999Z</time></trkpt><trkpt lat="43.619149842984" lon="10.719007575149869"><ele>151.0</ele><time>2026-04-26T15:32:57.999Z</time></trkpt><trkpt lat="43.61923973598364" lon="10.718820618778299"><ele>151.0</ele><time>2026-04-26T15:32:58.999Z</time></trkpt><trkpt lat="43.61934216922857" lon="10.718583882428034"><ele>151.0</ele><time>2026-04-26T15:32:59.999Z</time></trkpt><trkpt lat="43.61945153234077" lon="10.71833770252038"><ele>151.0</ele><time>2026-04-26T15:33:00.999Z</time></trkpt><trkpt lat="43.619583034839756" lon="10.718134761090019"><ele>154.66666666666669</ele><time>2026-04-26T15:33:01.999Z</time></trkpt><trkpt lat="43.61971975893197" lon="10.717988698565295"><ele>158.33333333333334</ele><time>2026-04-26T15:33:02.999Z</time></trkpt><trkpt lat="43.61986834913233" lon="10.71788160582451"><ele>162.0</ele><time>2026-04-26T15:33:03.999Z</time></trkpt><trkpt lat="43.62002929779416" lon="10.7178027168937"><ele>158.33333333333334</ele><time>2026-04-26T15:33:04.999Z</time></trkpt><trkpt lat="43.620209517127655" lon="10.717725384307705"><ele>154.66666666666669</ele><time>2026-04-26T15:33:05.999Z</time></trkpt><trkpt lat="43.62038053068353" lon="10.71767310183118"><ele>151.0</ele><time>2026-04-26T15:33:06.999Z</time></trkpt><trkpt lat="43.62052266114414" lon="10.717666438808044"><ele>151.0</ele><time>2026-04-26T15:33:07.998Z</time></trkpt><trkpt lat="43.620676233238775" lon="10.717680450575926"><ele>151.0</ele><time>2026-04-26T15:33:08.998Z</time></trkpt><trkpt lat="43.62084654607516" lon="10.717676991553725"><ele>151.0</ele><time>2026-04-26T15:33:09.998Z</time></trkpt><trkpt lat="43.62102079431823" lon="10.717688968421758"><ele>152.66666666666669</ele><time>2026-04-26T15:33:10.998Z</time></trkpt><trkpt lat="43.62119470631059" lon="10.717690169073116"><ele>154.33333333333334</ele><time>2026-04-26T15:33:11.998Z</time></trkpt><trkpt lat="43.621362810893054" lon="10.717670541866093"><ele>156.0</ele><time>2026-04-26T15:33:12.998Z</time></trkpt><trkpt lat="43.6215327269886" lon="10.71762634359416"><ele>156.0</ele><time>2026-04-26T15:33:13.998Z</time></trkpt><trkpt lat="43.621702535271076" lon="10.71755485240693"><ele>156.0</ele><time>2026-04-26T15:33:15Z</time></trkpt><trkpt lat="43.62187647025777" lon="10.717490731363931"><ele>156.0</ele><time>2026-04-26T15:33:16Z</time></trkpt><trkpt lat="43.62205620107267" lon="10.717418562182765"><ele>155.33333333333334</ele><time>2026-04-26T15:33:17Z</time></trkpt><trkpt lat="43.6222328143865" lon="10.717342141035553"><ele>154.66666666666669</ele><time>2026-04-26T15:33:18Z</time></trkpt><trkpt lat="43.62240673921348" lon="10.71726688321976"><ele>154.0</ele><time>2026-04-26T15:33:19Z</time></trkpt><trkpt lat="43.62257165156585" lon="10.717172924594657"><ele>154.0</ele><time>2026-04-26T15:33:20Z</time></trkpt><trkpt lat="43.62273876830291" lon="10.717127839294951"><ele>154.0</ele><time>2026-04-26T15:33:21Z</time></trkpt><trkpt lat="43.62289306803759" lon="10.717066326806506"><ele>154.0</ele><time>2026-04-26T15:33:22Z</time></trkpt><trkpt lat="43.62303494732478" lon="10.716989326335428"><ele>152.0</ele><time>2026-04-26T15:33:23Z</time></trkpt><trkpt lat="43.62316570929158" lon="10.716973568159336"><ele>150.0</ele><time>2026-04-26T15:33:24Z</time></trkpt><trkpt lat="43.62329402635931" lon="10.716968526533377"><ele>148.0</ele><time>2026-04-26T15:33:25Z</time></trkpt><trkpt lat="43.62341755440003" lon="10.716991634196006"><ele>146.0</ele><time>2026-04-26T15:33:26Z</time></trkpt><trkpt lat="43.62353697376363" lon="10.71702820697987"><ele>146.0</ele><time>2026-04-26T15:33:27Z</time></trkpt><trkpt lat="43.623645613602605" lon="10.717070871994059"><ele>146.0</ele><time>2026-04-26T15:33:28Z</time></trkpt><trkpt lat="43.62375234472751" lon="10.717112787493981"><ele>146.0</ele><time>2026-04-26T15:33:29Z</time></trkpt><trkpt lat="43.62385957719532" lon="10.717154317127303"><ele>146.0</ele><time>2026-04-26T15:33:30Z</time></trkpt><trkpt lat="43.62397102060811" lon="10.717191608130003"><ele>147.25</ele><time>2026-04-26T15:33:31Z</time></trkpt><trkpt lat="43.62409105086934" lon="10.71719440904704"><ele>148.5</ele><time>2026-04-26T15:33:32Z</time></trkpt><trkpt lat="43.62422405461019" lon="10.717163671687945"><ele>149.75</ele><time>2026-04-26T15:33:33Z</time></trkpt><trkpt lat="43.62435545093243" lon="10.71712481068049"><ele>151.0</ele><time>2026-04-26T15:33:34Z</time></trkpt><trkpt lat="43.62450973549863" lon="10.717089313063255"><ele>149.33333333333334</ele><time>2026-04-26T15:33:35Z</time></trkpt><trkpt lat="43.62468076822704" lon="10.717000908127895"><ele>147.66666666666666</ele><time>2026-04-26T15:33:36Z</time></trkpt><trkpt lat="43.62486795483226" lon="10.716884822107376"><ele>146.0</ele><time>2026-04-26T15:33:37Z</time></trkpt><trkpt lat="43.625048656158725" lon="10.716768034894832"><ele>146.0</ele><time>2026-04-26T15:33:38Z</time></trkpt><trkpt lat="43.62524002694224" lon="10.716611850918351"><ele>146.0</ele><time>2026-04-26T15:33:39Z</time></trkpt><trkpt lat="43.62544280730045" lon="10.716445600362317"><ele>143.0</ele><time>2026-04-26T15:33:40Z</time></trkpt><trkpt lat="43.62565266859427" lon="10.716249262571468"><ele>140.0</ele><time>2026-04-26T15:33:41Z</time></trkpt><trkpt lat="43.6258576839845" lon="10.716042012593281"><ele>140.0</ele><time>2026-04-26T15:33:42Z</time></trkpt><trkpt lat="43.62604445268265" lon="10.715868065936926"><ele>140.0</ele><time>2026-04-26T15:33:43Z</time></trkpt><trkpt lat="43.62620991109706" lon="10.71570039459796"><ele>140.0</ele><time>2026-04-26T15:33:44Z</time></trkpt><trkpt lat="43.62636451965776" lon="10.715542857826378"><ele>140.66666666666666</ele><time>2026-04-26T15:33:45Z</time></trkpt><trkpt lat="43.62650494232676" lon="10.715394321605526"><ele>141.33333333333334</ele><time>2026-04-26T15:33:46Z</time></trkpt><trkpt lat="43.626635839938025" lon="10.715232358204354"><ele>142.0</ele><time>2026-04-26T15:33:47Z</time></trkpt><trkpt lat="43.626770796280596" lon="10.715072296709439"><ele>142.0</ele><time>2026-04-26T15:33:48Z</time></trkpt><trkpt lat="43.62689904785755" lon="10.71488784970694"><ele>142.0</ele><time>2026-04-26T15:33:49Z</time></trkpt><trkpt lat="43.62703709057457" lon="10.714698957315981"><ele>142.0</ele><time>2026-04-26T15:33:50Z</time></trkpt><trkpt lat="43.6271671685179" lon="10.71449147743342"><ele>141.0</ele><time>2026-04-26T15:33:51Z</time></trkpt><trkpt lat="43.62728761645805" lon="10.714275472801386"><ele>140.0</ele><time>2026-04-26T15:33:52Z</time></trkpt><trkpt lat="43.62739547016988" lon="10.714068865752177"><ele>139.0</ele><time>2026-04-26T15:33:53Z</time></trkpt><trkpt lat="43.62751368884641" lon="10.713895296532796"><ele>139.0</ele><time>2026-04-26T15:33:53.999Z</time></trkpt><trkpt lat="43.62765226306202" lon="10.71377290364118"><ele>139.0</ele><time>2026-04-26T15:33:54.999Z</time></trkpt><trkpt lat="43.62784984402498" lon="10.713687275585972"><ele>139.0</ele><time>2026-04-26T15:33:55.999Z</time></trkpt><trkpt lat="43.62806923800519" lon="10.713599767750534"><ele>142.0</ele><time>2026-04-26T15:33:56.999Z</time></trkpt><trkpt lat="43.628248167117405" lon="10.713469072393329"><ele>145.0</ele><time>2026-04-26T15:33:57.999Z</time></trkpt><trkpt lat="43.62843733399221" lon="10.713364500494402"><ele>148.0</ele><time>2026-04-26T15:33:58.999Z</time></trkpt><trkpt lat="43.628574412250025" lon="10.713243323363685"><ele>146.6</ele><time>2026-04-26T15:33:59.999Z</time></trkpt><trkpt lat="43.6286809216855" lon="10.713199874656743"><ele>145.20000000000002</ele><time>2026-04-26T15:34:00.999Z</time></trkpt><trkpt lat="43.62877328795881" lon="10.713187364667839"><ele>143.8</ele><time>2026-04-26T15:34:01.999Z</time></trkpt><trkpt lat="43.628881736829555" lon="10.713188130521347"><ele>142.4</ele><time>2026-04-26T15:34:02.999Z</time></trkpt><trkpt lat="43.629008977343204" lon="10.713206383594827"><ele>141.0</ele><time>2026-04-26T15:34:03.999Z</time></trkpt><trkpt lat="43.629167953160525" lon="10.713247076196076"><ele>141.0</ele><time>2026-04-26T15:34:04.999Z</time></trkpt><trkpt lat="43.629329925394195" lon="10.713281296480833"><ele>141.0</ele><time>2026-04-26T15:34:05.999Z</time></trkpt><trkpt lat="43.62947722347361" lon="10.713312286082761"><ele>141.0</ele><time>2026-04-26T15:34:06.999Z</time></trkpt><trkpt lat="43.629612180431195" lon="10.713352000695343"><ele>139.4</ele><time>2026-04-26T15:34:07.999Z</time></trkpt><trkpt lat="43.629731247506705" lon="10.713375158035811"><ele>137.8</ele><time>2026-04-26T15:34:08.999Z</time></trkpt><trkpt lat="43.629837932438924" lon="10.713383400764803"><ele>136.20000000000002</ele><time>2026-04-26T15:34:09.999Z</time></trkpt><trkpt lat="43.62994100645207" lon="10.71339039203496"><ele>134.6</ele><time>2026-04-26T15:34:10.999Z</time></trkpt><trkpt lat="43.63005631805801" lon="10.713410648338707"><ele>133.0</ele><time>2026-04-26T15:34:11.999Z</time></trkpt><trkpt lat="43.6301811369727" lon="10.71343865169764"><ele>132.5</ele><time>2026-04-26T15:34:12.999Z</time></trkpt><trkpt lat="43.630308282083064" lon="10.713458954142558"><ele>132.0</ele><time>2026-04-26T15:34:13.999Z</time></trkpt><trkpt lat="43.63044431854733" lon="10.713440745649043"><ele>131.5</ele><time>2026-04-26T15:34:14.999Z</time></trkpt><trkpt lat="43.63057955954147" lon="10.713372601347277"><ele>131.0</ele><time>2026-04-26T15:34:15.999Z</time></trkpt><trkpt lat="43.630715977065535" lon="10.713264607452082"><ele>131.0</ele><time>2026-04-26T15:34:16.999Z</time></trkpt><trkpt lat="43.630858202114815" lon="10.713164380436726"><ele>131.0</ele><time>2026-04-26T15:34:17.999Z</time></trkpt><trkpt lat="43.63100793645616" lon="10.713073555405606"><ele>131.0</ele><time>2026-04-26T15:34:18.999Z</time></trkpt><trkpt lat="43.631157720568936" lon="10.712979582803571"><ele>131.33333333333331</ele><time>2026-04-26T15:34:19.999Z</time></trkpt><trkpt lat="43.63130570801277" lon="10.712889435466042"><ele>131.66666666666666</ele><time>2026-04-26T15:34:20.999Z</time></trkpt><trkpt lat="43.63144379211543" lon="10.712804374534286"><ele>132.0</ele><time>2026-04-26T15:34:21.999Z</time></trkpt><trkpt lat="43.63158147354511" lon="10.712729253107536"><ele>129.0</ele><time>2026-04-26T15:34:22.999Z</time></trkpt><trkpt lat="43.63171603711715" lon="10.712667695425967"><ele>126.0</ele><time>2026-04-26T15:34:23.999Z</time></trkpt><trkpt lat="43.631850193585855" lon="10.712602667132344"><ele>123.0</ele><time>2026-04-26T15:34:24.999Z</time></trkpt><trkpt lat="43.63197132079195" lon="10.712510478216448"><ele>120.0</ele><time>2026-04-26T15:34:25.999Z</time></trkpt><trkpt lat="43.63207675718292" lon="10.71238720522108"><ele>120.0</ele><time>2026-04-26T15:34:26.999Z</time></trkpt><trkpt lat="43.63217220980573" lon="10.712256070090584"><ele>120.0</ele><time>2026-04-26T15:34:27.999Z</time></trkpt><trkpt lat="43.63226333113213" lon="10.712130716569181"><ele>120.0</ele><time>2026-04-26T15:34:28.999Z</time></trkpt><trkpt lat="43.632361028266224" lon="10.71201707545491"><ele>120.0</ele><time>2026-04-26T15:34:29.999Z</time></trkpt><trkpt lat="43.63245880240425" lon="10.711904943538517"><ele>118.0</ele><time>2026-04-26T15:34:30.999Z</time></trkpt><trkpt lat="43.63255477999564" lon="10.711797688784742"><ele>116.0</ele><time>2026-04-26T15:34:31.999Z</time></trkpt><trkpt lat="43.632649713312695" lon="10.711689672618853"><ele>114.0</ele><time>2026-04-26T15:34:32.999Z</time></trkpt><trkpt lat="43.6327410991561" lon="10.711582785920003"><ele>112.0</ele><time>2026-04-26T15:34:33.999Z</time></trkpt><trkpt lat="43.63283748595137" lon="10.711478369853857"><ele>111.25</ele><time>2026-04-26T15:34:34.999Z</time></trkpt><trkpt lat="43.63293018566458" lon="10.711380427908617"><ele>110.5</ele><time>2026-04-26T15:34:35.999Z</time></trkpt><trkpt lat="43.63302190092718" lon="10.711280609292984"><ele>109.75</ele><time>2026-04-26T15:34:36.999Z</time></trkpt><trkpt lat="43.63311260144604" lon="10.711179849262905"><ele>109.0</ele><time>2026-04-26T15:34:37.999Z</time></trkpt><trkpt lat="43.63319784466565" lon="10.711075419619048"><ele>108.2</ele><time>2026-04-26T15:34:38.999Z</time></trkpt><trkpt lat="43.6332830517391" lon="10.710972112047022"><ele>107.4</ele><time>2026-04-26T15:34:39.999Z</time></trkpt><trkpt lat="43.63338186639564" lon="10.71089992949299"><ele>106.6</ele><time>2026-04-26T15:34:40.999Z</time></trkpt><trkpt lat="43.633478889364866" lon="10.71082541704469"><ele>105.8</ele><time>2026-04-26T15:34:41.999Z</time></trkpt><trkpt lat="43.63358468996106" lon="10.710776824043759"><ele>105.0</ele><time>2026-04-26T15:34:42.999Z</time></trkpt><trkpt lat="43.63369981702244" lon="10.710750199752251"><ele>105.0</ele><time>2026-04-26T15:34:43.999Z</time></trkpt><trkpt lat="43.6338226896193" lon="10.710715546153477"><ele>105.0</ele><time>2026-04-26T15:34:44.999Z</time></trkpt><trkpt lat="43.63395057535698" lon="10.710733824403022"><ele>105.0</ele><time>2026-04-26T15:34:45.999Z</time></trkpt><trkpt lat="43.634080420149985" lon="10.71071469473538"><ele>105.0</ele><time>2026-04-26T15:34:46.999Z</time></trkpt><trkpt lat="43.634210984648874" lon="10.710715431858304"><ele>105.0</ele><time>2026-04-26T15:34:47.999Z</time></trkpt><trkpt lat="43.63434789705891" lon="10.710692162053377"><ele>105.0</ele><time>2026-04-26T15:34:48.999Z</time></trkpt><trkpt lat="43.6344846960617" lon="10.710621293157594"><ele>105.0</ele><time>2026-04-26T15:34:49.999Z</time></trkpt><trkpt lat="43.63462328858121" lon="10.710494386043147"><ele>105.0</ele><time>2026-04-26T15:34:50.999Z</time></trkpt><trkpt lat="43.63475484583837" lon="10.710313100492204"><ele>105.0</ele><time>2026-04-26T15:34:51.999Z</time></trkpt><trkpt lat="43.63487382506101" lon="10.71009351713168"><ele>105.0</ele><time>2026-04-26T15:34:52.999Z</time></trkpt><trkpt lat="43.634978770697145" lon="10.709853861472743"><ele>105.0</ele><time>2026-04-26T15:34:53.999Z</time></trkpt><trkpt lat="43.63505601948146" lon="10.709595799493329"><ele>105.0</ele><time>2026-04-26T15:34:54.999Z</time></trkpt><trkpt lat="43.63509209511507" lon="10.709320824524783"><ele>105.0</ele><time>2026-04-26T15:34:55.999Z</time></trkpt><trkpt lat="43.63508202428232" lon="10.709057017726154"><ele>105.0</ele><time>2026-04-26T15:34:56.999Z</time></trkpt><trkpt lat="43.63510173299766" lon="10.708849619896352"><ele>105.0</ele><time>2026-04-26T15:34:57.998Z</time></trkpt><trkpt lat="43.635151289716646" lon="10.708680554143992"><ele>105.0</ele><time>2026-04-26T15:34:58.998Z</time></trkpt><trkpt lat="43.635235601956964" lon="10.708537738096801"><ele>105.0</ele><time>2026-04-26T15:34:59.998Z</time></trkpt><trkpt lat="43.63534579252656" lon="10.708393436512491"><ele>103.33333333333334</ele><time>2026-04-26T15:35:00.998Z</time></trkpt><trkpt lat="43.635436598427205" lon="10.708215121848244"><ele>101.66666666666667</ele><time>2026-04-26T15:35:01.998Z</time></trkpt><trkpt lat="43.63549720376912" lon="10.708016314235923"><ele>100.0</ele><time>2026-04-26T15:35:02.998Z</time></trkpt><trkpt lat="43.63551468184996" lon="10.707788871122279"><ele>102.33333333333334</ele><time>2026-04-26T15:35:03.998Z</time></trkpt><trkpt lat="43.63548957479196" lon="10.707559367113205"><ele>104.66666666666666</ele><time>2026-04-26T15:35:04.998Z</time></trkpt><trkpt lat="43.63542588150952" lon="10.707334233078258"><ele>107.0</ele><time>2026-04-26T15:35:05.998Z</time></trkpt><trkpt lat="43.63539967554334" lon="10.707138839737558"><ele>107.0</ele><time>2026-04-26T15:35:06.998Z</time></trkpt><trkpt lat="43.635409923416496" lon="10.706962712380426"><ele>107.0</ele><time>2026-04-26T15:35:07.998Z</time></trkpt><trkpt lat="43.63546717418358" lon="10.706771689549303"><ele>107.0</ele><time>2026-04-26T15:35:08.998Z</time></trkpt><trkpt lat="43.635505425173285" lon="10.70653648105548"><ele>109.0</ele><time>2026-04-26T15:35:09.998Z</time></trkpt><trkpt lat="43.63550803870381" lon="10.706305132944609"><ele>111.0</ele><time>2026-04-26T15:35:10.998Z</time></trkpt><trkpt lat="43.635458508620935" lon="10.706085458461144"><ele>113.0</ele><time>2026-04-26T15:35:11.998Z</time></trkpt><trkpt lat="43.635394641546185" lon="10.705869184868622"><ele>113.0</ele><time>2026-04-26T15:35:12.998Z</time></trkpt><trkpt lat="43.635377187762494" lon="10.705675232430849"><ele>113.0</ele><time>2026-04-26T15:35:13.998Z</time></trkpt><trkpt lat="43.6354078999604" lon="10.705490697057828"><ele>113.0</ele><time>2026-04-26T15:35:14.998Z</time></trkpt><trkpt lat="43.6354616396242" lon="10.705288197825912"><ele>113.0</ele><time>2026-04-26T15:35:15.998Z</time></trkpt><trkpt lat="43.63553390132072" lon="10.705085483742074"><ele>109.5</ele><time>2026-04-26T15:35:16.998Z</time></trkpt><trkpt lat="43.63561637792115" lon="10.704909039722352"><ele>106.0</ele><time>2026-04-26T15:35:17.998Z</time></trkpt><trkpt lat="43.63570680477496" lon="10.704757905331155"><ele>102.5</ele><time>2026-04-26T15:35:18.998Z</time></trkpt><trkpt lat="43.63581008945796" lon="10.70461451662839"><ele>99.0</ele><time>2026-04-26T15:35:19.998Z</time></trkpt><trkpt lat="43.63590786625241" lon="10.70445089303173"><ele>96.66666666666667</ele><time>2026-04-26T15:35:21Z</time></trkpt><trkpt lat="43.63601818119363" lon="10.704306629002573"><ele>94.33333333333334</ele><time>2026-04-26T15:35:22Z</time></trkpt><trkpt lat="43.636120124018916" lon="10.704147590248137"><ele>92.0</ele><time>2026-04-26T15:35:23Z</time></trkpt><trkpt lat="43.636223723953854" lon="10.703975390117952"><ele>92.0</ele><time>2026-04-26T15:35:24Z</time></trkpt><trkpt lat="43.636302118138524" lon="10.70377126628453"><ele>92.0</ele><time>2026-04-26T15:35:25Z</time></trkpt><trkpt lat="43.63639759132583" lon="10.703582478458161"><ele>92.0</ele><time>2026-04-26T15:35:26Z</time></trkpt><trkpt lat="43.636494678744704" lon="10.703403190258989"><ele>93.25</ele><time>2026-04-26T15:35:27Z</time></trkpt><trkpt lat="43.63658101537366" lon="10.703232103541566"><ele>94.5</ele><time>2026-04-26T15:35:28Z</time></trkpt><trkpt lat="43.63665740824662" lon="10.703055501765174"><ele>95.75</ele><time>2026-04-26T15:35:29Z</time></trkpt><trkpt lat="43.63674986804394" lon="10.702908078288896"><ele>97.0</ele><time>2026-04-26T15:35:30Z</time></trkpt><trkpt lat="43.63683288864603" lon="10.70275199625469"><ele>96.5</ele><time>2026-04-26T15:35:31Z</time></trkpt><trkpt lat="43.63692394717733" lon="10.702620382510139"><ele>96.0</ele><time>2026-04-26T15:35:32Z</time></trkpt><trkpt lat="43.636992126250185" lon="10.702505662726306"><ele>95.5</ele><time>2026-04-26T15:35:33Z</time></trkpt><trkpt lat="43.637092746717926" lon="10.702358630029684"><ele>95.0</ele><time>2026-04-26T15:35:34Z</time></trkpt><trkpt lat="43.637185553717714" lon="10.70223895051724"><ele>95.0</ele><time>2026-04-26T15:35:35Z</time></trkpt><trkpt lat="43.6372772857503" lon="10.702127934798286"><ele>95.0</ele><time>2026-04-26T15:35:36Z</time></trkpt><trkpt lat="43.63735032159589" lon="10.701999166202771"><ele>95.0</ele><time>2026-04-26T15:35:37Z</time></trkpt><trkpt lat="43.63742683685095" lon="10.701883333150269"><ele>95.0</ele><time>2026-04-26T15:35:38Z</time></trkpt><trkpt lat="43.63750958989187" lon="10.701783048980161"><ele>93.6</ele><time>2026-04-26T15:35:39Z</time></trkpt><trkpt lat="43.63758344154959" lon="10.701680504167445"><ele>92.2</ele><time>2026-04-26T15:35:40Z</time></trkpt><trkpt lat="43.63765770373466" lon="10.701592636082532"><ele>90.80000000000001</ele><time>2026-04-26T15:35:41Z</time></trkpt><trkpt lat="43.63772524192597" lon="10.701534968006685"><ele>89.4</ele><time>2026-04-26T15:35:42Z</time></trkpt><trkpt lat="43.6377904962191" lon="10.701500662505474"><ele>88.0</ele><time>2026-04-26T15:35:44Z</time></trkpt><trkpt lat="43.63775552881216" lon="10.701309202937109"><ele>88.0</ele><time>2026-04-26T15:36:54.999Z</time></trkpt><trkpt lat="43.637725363103456" lon="10.70122528151265"><ele>88.0</ele><time>2026-04-26T15:36:56.999Z</time></trkpt><trkpt lat="43.63770659122867" lon="10.70113749117361"><ele>88.0</ele><time>2026-04-26T15:37:20.998Z</time></trkpt><trkpt lat="43.637691321369275" lon="10.701044382441388"><ele>88.0</ele><time>2026-04-26T15:37:28Z</time></trkpt><trkpt lat="43.637835815567534" lon="10.70098745653975"><ele>88.0</ele><time>2026-04-26T15:37:29Z</time></trkpt><trkpt lat="43.63788395761688" lon="10.700897143553409"><ele>88.0</ele><time>2026-04-26T15:37:31Z</time></trkpt><trkpt lat="43.63778211000732" lon="10.70069380317773"><ele>91.33333333333333</ele><time>2026-04-26T15:37:33Z</time></trkpt><trkpt lat="43.6378330272592" lon="10.700584005016104"><ele>94.66666666666666</ele><time>2026-04-26T15:37:35Z</time></trkpt><trkpt lat="43.63812965594894" lon="10.700554689611591"><ele>98.0</ele><time>2026-04-26T15:38:14.999Z</time></trkpt><trkpt lat="43.638186439580124" lon="10.70047553842696"><ele>98.0</ele><time>2026-04-26T15:38:17.999Z</time></trkpt><trkpt lat="43.63843940102221" lon="10.700769403618235"><ele>98.0</ele><time>2026-04-26T15:38:19.999Z</time></trkpt><trkpt lat="43.63850930318249" lon="10.700690693140837"><ele>98.0</ele><time>2026-04-26T15:38:23.999Z</time></trkpt><trkpt lat="43.638571568103785" lon="10.700621807480891"><ele>97.16666666666666</ele><time>2026-04-26T15:38:27.999Z</time></trkpt><trkpt lat="43.638646782389515" lon="10.700551796282186"><ele>96.33333333333333</ele><time>2026-04-26T15:38:32.999Z</time></trkpt><trkpt lat="43.63870972297658" lon="10.700503254652217"><ele>95.5</ele><time>2026-04-26T15:38:35.999Z</time></trkpt><trkpt lat="43.63877570952267" lon="10.700467919697928"><ele>94.66666666666666</ele><time>2026-04-26T15:38:39.999Z</time></trkpt><trkpt lat="43.63885965924628" lon="10.700427165280631"><ele>93.83333333333333</ele><time>2026-04-26T15:38:41.999Z</time></trkpt><trkpt lat="43.63896931897048" lon="10.700372869832925"><ele>93.0</ele><time>2026-04-26T15:38:43.999Z</time></trkpt><trkpt lat="43.638925905335064" lon="10.699609961463413"><ele>96.4</ele><time>2026-04-26T15:38:47.999Z</time></trkpt><trkpt lat="43.6389690143965" lon="10.699520520679517"><ele>99.80000000000001</ele><time>2026-04-26T15:38:50.999Z</time></trkpt><trkpt lat="43.63899991914411" lon="10.699396542043472"><ele>103.2</ele><time>2026-04-26T15:38:52.999Z</time></trkpt><trkpt lat="43.63903666067711" lon="10.699246638108775"><ele>106.6</ele><time>2026-04-26T15:38:54.999Z</time></trkpt><trkpt lat="43.639084685644626" lon="10.69910934190738"><ele>110.0</ele><time>2026-04-26T15:38:56.999Z</time></trkpt><trkpt lat="43.639107309405176" lon="10.698996015716173"><ele>109.49999999999999</ele><time>2026-04-26T15:38:58.999Z</time></trkpt><trkpt lat="43.63912685923027" lon="10.698886823037032"><ele>109.0</ele><time>2026-04-26T15:39:00.999Z</time></trkpt><trkpt lat="43.639129070204" lon="10.698765617841541"><ele>108.5</ele><time>2026-04-26T15:39:02.999Z</time></trkpt><trkpt lat="43.639124911118344" lon="10.698661971605613"><ele>108.0</ele><time>2026-04-26T15:39:04.999Z</time></trkpt><trkpt lat="43.63913162139783" lon="10.698562015618243"><ele>107.49999999999999</ele><time>2026-04-26T15:39:06.999Z</time></trkpt><trkpt lat="43.63912538563558" lon="10.698474389187075"><ele>107.0</ele><time>2026-04-26T15:39:22.998Z</time></trkpt><trkpt lat="43.63912640067125" lon="10.698378949817378"><ele>107.00000000000001</ele><time>2026-04-26T15:39:24.998Z</time></trkpt><trkpt lat="43.63909599041177" lon="10.69825783428664"><ele>107.0</ele><time>2026-04-26T15:39:27.998Z</time></trkpt><trkpt lat="43.639044669488484" lon="10.698205680259393"><ele>107.0</ele><time>2026-04-26T15:39:29.998Z</time></trkpt><trkpt lat="43.63898569258321" lon="10.698162744346893"><ele>107.0</ele><time>2026-04-26T15:39:31.998Z</time></trkpt><trkpt lat="43.6389812532645" lon="10.6980757035039"><ele>107.0</ele><time>2026-04-26T15:39:35Z</time></trkpt><trkpt lat="43.63904628147859" lon="10.698032653381556"><ele>107.00000000000001</ele><time>2026-04-26T15:39:38Z</time></trkpt><trkpt lat="43.639130592436665" lon="10.69800674069943"><ele>107.0</ele><time>2026-04-26T15:39:40Z</time></trkpt><trkpt lat="43.63917117064313" lon="10.697892129744792"><ele>106.99999999999999</ele><time>2026-04-26T15:39:42Z</time></trkpt><trkpt lat="43.639187960190725" lon="10.69778919726439"><ele>107.0</ele><time>2026-04-26T15:39:44Z</time></trkpt><trkpt lat="43.639230766189485" lon="10.697716706025568"><ele>107.0</ele><time>2026-04-26T15:39:46Z</time></trkpt><trkpt lat="43.639273932908104" lon="10.697634520246444"><ele>107.0</ele><time>2026-04-26T15:39:49Z</time></trkpt><trkpt lat="43.63930576463456" lon="10.697535702487508"><ele>106.99999999999999</ele><time>2026-04-26T15:39:51Z</time></trkpt><trkpt lat="43.63937835322742" lon="10.697425838116992"><ele>107.0</ele><time>2026-04-26T15:39:53Z</time></trkpt><trkpt lat="43.63944562426371" lon="10.697331060072548"><ele>106.33333333333333</ele><time>2026-04-26T15:39:55Z</time></trkpt><trkpt lat="43.63946102149123" lon="10.697193260720098"><ele>105.66666666666666</ele><time>2026-04-26T15:39:58Z</time></trkpt><trkpt lat="43.63944233461959" lon="10.697087424219463"><ele>105.0</ele><time>2026-04-26T15:40:00Z</time></trkpt><trkpt lat="43.639416699074445" lon="10.696957494302778"><ele>104.33333333333334</ele><time>2026-04-26T15:40:03Z</time></trkpt><trkpt lat="43.63942635691192" lon="10.696853551613128"><ele>103.66666666666667</ele><time>2026-04-26T15:40:05Z</time></trkpt><trkpt lat="43.63947551806158" lon="10.696765897815064"><ele>103.0</ele><time>2026-04-26T15:40:10Z</time></trkpt><trkpt lat="43.63952916094725" lon="10.696691320954834"><ele>103.00000000000001</ele><time>2026-04-26T15:40:16Z</time></trkpt><trkpt lat="43.639564977540324" lon="10.696592339569333"><ele>103.0</ele><time>2026-04-26T15:40:19.999Z</time></trkpt><trkpt lat="43.6395957321235" lon="10.696454012778398"><ele>103.0</ele><time>2026-04-26T15:40:21.999Z</time></trkpt><trkpt lat="43.63961368365695" lon="10.69630700554643"><ele>103.0</ele><time>2026-04-26T15:40:23.999Z</time></trkpt><trkpt lat="43.63963122987859" lon="10.696213428371754"><ele>103.00000000000001</ele><time>2026-04-26T15:40:25.999Z</time></trkpt><trkpt lat="43.639699560193" lon="10.696207937815085"><ele>103.0</ele><time>2026-04-26T15:40:29.999Z</time></trkpt><trkpt lat="43.63975890715889" lon="10.696252207587074"><ele>103.00000000000001</ele><time>2026-04-26T15:40:31.999Z</time></trkpt><trkpt lat="43.63984275344885" lon="10.696179117178865"><ele>103.0</ele><time>2026-04-26T15:40:34.999Z</time></trkpt><trkpt lat="43.63992594791112" lon="10.696161656159457"><ele>103.0</ele><time>2026-04-26T15:40:37.999Z</time></trkpt><trkpt lat="43.63998780063137" lon="10.696127206641533"><ele>103.0</ele><time>2026-04-26T15:40:39.999Z</time></trkpt><trkpt lat="43.64003914285827" lon="10.696059182931068"><ele>103.00000000000001</ele><time>2026-04-26T15:40:42.999Z</time></trkpt><trkpt lat="43.64011378933446" lon="10.695970943488826"><ele>103.0</ele><time>2026-04-26T15:40:45.999Z</time></trkpt><trkpt lat="43.64018513804509" lon="10.69596642382662"><ele>103.16666666666667</ele><time>2026-04-26T15:40:47.999Z</time></trkpt><trkpt lat="43.64026106596315" lon="10.696009097283786"><ele>103.33333333333334</ele><time>2026-04-26T15:40:51.999Z</time></trkpt><trkpt lat="43.64034500751401" lon="10.69606912792514"><ele>103.5</ele><time>2026-04-26T15:40:56.999Z</time></trkpt><trkpt lat="43.640434954670106" lon="10.696091715987913"><ele>103.66666666666666</ele><time>2026-04-26T15:41:01.999Z</time></trkpt><trkpt lat="43.64050650465414" lon="10.696069791701976"><ele>103.83333333333333</ele><time>2026-04-26T15:41:05.999Z</time></trkpt><trkpt lat="43.64057856380108" lon="10.696085712251197"><ele>104.0</ele><time>2026-04-26T15:41:09.999Z</time></trkpt><trkpt lat="43.64062309898152" lon="10.696151717066773"><ele>100.33333333333333</ele><time>2026-04-26T15:41:17.999Z</time></trkpt><trkpt lat="43.640685665754305" lon="10.696225224506541"><ele>96.66666666666666</ele><time>2026-04-26T15:41:20.999Z</time></trkpt><trkpt lat="43.64075417345509" lon="10.696190427432603"><ele>93.0</ele><time>2026-04-26T15:41:23.998Z</time></trkpt><trkpt lat="43.64082495405491" lon="10.696206232883783"><ele>89.33333333333333</ele><time>2026-04-26T15:41:26.998Z</time></trkpt><trkpt lat="43.64084146242795" lon="10.696317197925454"><ele>85.66666666666666</ele><time>2026-04-26T15:41:30.998Z</time></trkpt><trkpt lat="43.64090286351788" lon="10.696385296214537"><ele>82.0</ele><time>2026-04-26T15:41:33.998Z</time></trkpt><trkpt lat="43.64096311620989" lon="10.696355683381162"><ele>82.0</ele><time>2026-04-26T15:41:35.998Z</time></trkpt><trkpt lat="43.6410048837232" lon="10.696263603196417"><ele>82.0</ele><time>2026-04-26T15:41:37.998Z</time></trkpt><trkpt lat="43.641024535446554" lon="10.696178460038112"><ele>82.0</ele><time>2026-04-26T15:41:40Z</time></trkpt><trkpt lat="43.64103893840497" lon="10.696087224323792"><ele>82.0</ele><time>2026-04-26T15:41:42Z</time></trkpt><trkpt lat="43.64105723230928" lon="10.69595928225067"><ele>82.0</ele><time>2026-04-26T15:41:45Z</time></trkpt><trkpt lat="43.64107035389221" lon="10.695866921579166"><ele>82.0</ele><time>2026-04-26T15:41:47Z</time></trkpt><trkpt lat="43.64110845833374" lon="10.695750652251697"><ele>80.5</ele><time>2026-04-26T15:41:50Z</time></trkpt><trkpt lat="43.6411404031482" lon="10.695644053075776"><ele>79.0</ele><time>2026-04-26T15:41:55Z</time></trkpt><trkpt lat="43.64116678327314" lon="10.695563163057455"><ele>77.5</ele><time>2026-04-26T15:42:02Z</time></trkpt><trkpt lat="43.64120441533477" lon="10.695487745702057"><ele>76.0</ele><time>2026-04-26T15:42:04Z</time></trkpt><trkpt lat="43.64126309891715" lon="10.695349859566015"><ele>74.5</ele><time>2026-04-26T15:42:06Z</time></trkpt><trkpt lat="43.64129757433613" lon="10.695208828520311"><ele>73.0</ele><time>2026-04-26T15:42:08Z</time></trkpt><trkpt lat="43.64132121469843" lon="10.695067836947791"><ele>73.0</ele><time>2026-04-26T15:42:10Z</time></trkpt><trkpt lat="43.64133520118285" lon="10.694975607564647"><ele>73.0</ele><time>2026-04-26T15:42:11Z</time></trkpt><trkpt lat="43.64135831237765" lon="10.694891382853658"><ele>73.0</ele><time>2026-04-26T15:42:12Z</time></trkpt><trkpt lat="43.64137936473513" lon="10.694784538657247"><ele>73.0</ele><time>2026-04-26T15:42:14Z</time></trkpt><trkpt lat="43.641386618120485" lon="10.694671883541961"><ele>73.0</ele><time>2026-04-26T15:42:16Z</time></trkpt><trkpt lat="43.64142164413448" lon="10.694545747071952"><ele>73.0</ele><time>2026-04-26T15:42:17.999Z</time></trkpt><trkpt lat="43.641469599981725" lon="10.694465284416127"><ele>73.0</ele><time>2026-04-26T15:42:21.999Z</time></trkpt><trkpt lat="43.641551453574166" lon="10.694460711627919"><ele>73.0</ele><time>2026-04-26T15:42:30.999Z</time></trkpt><trkpt lat="43.64164142163587" lon="10.694436882333061"><ele>73.0</ele><time>2026-04-26T15:42:37.999Z</time></trkpt><trkpt lat="43.641727082001935" lon="10.694421438612325"><ele>73.0</ele><time>2026-04-26T15:42:41.999Z</time></trkpt><trkpt lat="43.64182220050054" lon="10.694434873976693"><ele>73.0</ele><time>2026-04-26T15:42:43.999Z</time></trkpt><trkpt lat="43.641891629615884" lon="10.69444406543452"><ele>73.0</ele><time>2026-04-26T15:42:45.999Z</time></trkpt><trkpt lat="43.64196351000068" lon="10.69443373951162"><ele>72.83333333333333</ele><time>2026-04-26T15:42:53.999Z</time></trkpt><trkpt lat="43.64203482391772" lon="10.69443494421179"><ele>72.66666666666666</ele><time>2026-04-26T15:42:55.999Z</time></trkpt><trkpt lat="43.64210974943658" lon="10.69442252696893"><ele>72.5</ele><time>2026-04-26T15:42:58.999Z</time></trkpt><trkpt lat="43.64218246918001" lon="10.694409193971696"><ele>72.33333333333333</ele><time>2026-04-26T15:43:00.999Z</time></trkpt><trkpt lat="43.64226369158668" lon="10.694402344141183"><ele>72.16666666666667</ele><time>2026-04-26T15:43:02.999Z</time></trkpt><trkpt lat="43.64233523017359" lon="10.694432893795723"><ele>72.0</ele><time>2026-04-26T15:43:04.999Z</time></trkpt><trkpt lat="43.64243721669099" lon="10.694467119794723"><ele>72.0</ele><time>2026-04-26T15:43:09.999Z</time></trkpt><trkpt lat="43.64251123177837" lon="10.694460517796506"><ele>72.0</ele><time>2026-04-26T15:43:11.999Z</time></trkpt><trkpt lat="43.64257054663422" lon="10.694409709751195"><ele>72.0</ele><time>2026-04-26T15:43:13.999Z</time></trkpt><trkpt lat="43.64264504286437" lon="10.694384019516328"><ele>72.0</ele><time>2026-04-26T15:43:15.999Z</time></trkpt><trkpt lat="43.642722423128845" lon="10.694414722312647"><ele>72.0</ele><time>2026-04-26T15:43:18.999Z</time></trkpt><trkpt lat="43.6427455378709" lon="10.694500142994015"><ele>72.0</ele><time>2026-04-26T15:43:21.998Z</time></trkpt><trkpt lat="43.64274928880443" lon="10.694614208638395"><ele>71.5</ele><time>2026-04-26T15:43:24.998Z</time></trkpt><trkpt lat="43.642792732409674" lon="10.694687451812293"><ele>71.0</ele><time>2026-04-26T15:43:27.998Z</time></trkpt><trkpt lat="43.642851339830635" lon="10.694721027107459"><ele>70.5</ele><time>2026-04-26T15:43:29.998Z</time></trkpt><trkpt lat="43.64292808216261" lon="10.694669813142598"><ele>70.0</ele><time>2026-04-26T15:43:32.998Z</time></trkpt><trkpt lat="43.6429472265087" lon="10.694578806306277"><ele>69.5</ele><time>2026-04-26T15:43:37.998Z</time></trkpt><trkpt lat="43.642975999192956" lon="10.694494672520943"><ele>69.0</ele><time>2026-04-26T15:43:39.998Z</time></trkpt><trkpt lat="43.643068414852884" lon="10.694448228495299"><ele>68.33333333333333</ele><time>2026-04-26T15:43:41.998Z</time></trkpt><trkpt lat="43.64313428432407" lon="10.69442515849005"><ele>67.66666666666667</ele><time>2026-04-26T15:43:47Z</time></trkpt><trkpt lat="43.64320275953797" lon="10.694375200585302"><ele>67.0</ele><time>2026-04-26T15:43:49Z</time></trkpt><trkpt lat="43.64327127398" lon="10.694332298156494"><ele>66.33333333333334</ele><time>2026-04-26T15:43:50Z</time></trkpt><trkpt lat="43.643331830636676" lon="10.694289943595278"><ele>65.66666666666667</ele><time>2026-04-26T15:43:51Z</time></trkpt><trkpt lat="43.64340794011223" lon="10.694209880248057"><ele>65.0</ele><time>2026-04-26T15:43:53Z</time></trkpt><trkpt lat="43.643449172614666" lon="10.694118436465969"><ele>65.00000000000001</ele><time>2026-04-26T15:43:55Z</time></trkpt><trkpt lat="43.6434843825814" lon="10.69404347622748"><ele>65.0</ele><time>2026-04-26T15:43:58Z</time></trkpt><trkpt lat="43.64353249331515" lon="10.693927889812096"><ele>65.0</ele><time>2026-04-26T15:44:02Z</time></trkpt><trkpt lat="43.643596087673124" lon="10.693876655729376"><ele>65.0</ele><time>2026-04-26T15:44:04Z</time></trkpt><trkpt lat="43.643669098251245" lon="10.693854080733194"><ele>65.0</ele><time>2026-04-26T15:44:06Z</time></trkpt><trkpt lat="43.64373126952559" lon="10.693839838842685"><ele>65.00000000000001</ele><time>2026-04-26T15:44:08Z</time></trkpt><trkpt lat="43.64375342715748" lon="10.693751534949355"><ele>65.0</ele><time>2026-04-26T15:44:11Z</time></trkpt><trkpt lat="43.643806507652954" lon="10.69363230781972"><ele>64.66666666666667</ele><time>2026-04-26T15:44:19.999Z</time></trkpt><trkpt lat="43.64384643790933" lon="10.693527356021669"><ele>64.33333333333334</ele><time>2026-04-26T15:44:21.999Z</time></trkpt><trkpt lat="43.643883612744695" lon="10.693435851377618"><ele>64.0</ele><time>2026-04-26T15:44:23.999Z</time></trkpt><trkpt lat="43.643922132856694" lon="10.693339707237623"><ele>63.66666666666667</ele><time>2026-04-26T15:44:25.999Z</time></trkpt><trkpt lat="43.64401171735717" lon="10.693260576139942"><ele>63.333333333333336</ele><time>2026-04-26T15:45:22.998Z</time></trkpt><trkpt lat="43.644073889960374" lon="10.693193474948435"><ele>63.0</ele><time>2026-04-26T15:45:24.998Z</time></trkpt><trkpt lat="43.64412882771813" lon="10.693150358963234"><ele>63.0</ele><time>2026-04-26T15:45:27.998Z</time></trkpt><trkpt lat="43.644211687701386" lon="10.69319100574078"><ele>63.0</ele><time>2026-04-26T15:45:29.998Z</time></trkpt><trkpt lat="43.64433913961785" lon="10.693129674593349"><ele>63.0</ele><time>2026-04-26T15:45:31.998Z</time></trkpt><trkpt lat="43.6444224384664" lon="10.693118436549227"><ele>63.0</ele><time>2026-04-26T15:45:32.998Z</time></trkpt><trkpt lat="43.644497013847044" lon="10.69308818572049"><ele>63.0</ele><time>2026-04-26T15:45:33.998Z</time></trkpt><trkpt lat="43.644559708790474" lon="10.693063427401821"><ele>63.0</ele><time>2026-04-26T15:45:34.998Z</time></trkpt><trkpt lat="43.64462908491502" lon="10.693031431630327"><ele>62.833333333333336</ele><time>2026-04-26T15:45:35.998Z</time></trkpt><trkpt lat="43.64469934293583" lon="10.692994402257044"><ele>62.66666666666667</ele><time>2026-04-26T15:45:36.998Z</time></trkpt><trkpt lat="43.64476358296253" lon="10.692955875839834"><ele>62.5</ele><time>2026-04-26T15:45:37.998Z</time></trkpt><trkpt lat="43.64484571213643" lon="10.69287319716332"><ele>62.333333333333336</ele><time>2026-04-26T15:45:39.998Z</time></trkpt><trkpt lat="43.64495448833263" lon="10.692807665013161"><ele>62.16666666666667</ele><time>2026-04-26T15:45:41.998Z</time></trkpt><trkpt lat="43.64502456575457" lon="10.692750805610096"><ele>62.0</ele><time>2026-04-26T15:45:44.998Z</time></trkpt><trkpt lat="43.64509961733855" lon="10.6926880031011"><ele>62.00000000000001</ele><time>2026-04-26T15:45:47.998Z</time></trkpt><trkpt lat="43.645166376851606" lon="10.692631383736064"><ele>62.0</ele><time>2026-04-26T15:45:49.998Z</time></trkpt><trkpt lat="43.64524741164674" lon="10.692536041010426"><ele>62.0</ele><time>2026-04-26T15:45:52Z</time></trkpt><trkpt lat="43.64531138334962" lon="10.692481555268042"><ele>62.0</ele><time>2026-04-26T15:45:53Z</time></trkpt><trkpt lat="43.64537185279155" lon="10.692432372038619"><ele>62.00000000000001</ele><time>2026-04-26T15:45:54Z</time></trkpt><trkpt lat="43.64542940158806" lon="10.692387225700804"><ele>62.0</ele><time>2026-04-26T15:45:55Z</time></trkpt><trkpt lat="43.645517600935385" lon="10.692319644110286"><ele>61.833333333333336</ele><time>2026-04-26T15:45:57Z</time></trkpt><trkpt lat="43.64557948154129" lon="10.692263417282161"><ele>61.66666666666667</ele><time>2026-04-26T15:45:58.999Z</time></trkpt><trkpt lat="43.645637753621244" lon="10.692205166088398"><ele>61.5</ele><time>2026-04-26T15:46:01Z</time></trkpt><trkpt lat="43.64570953007025" lon="10.692118899404358"><ele>61.33333333333333</ele><time>2026-04-26T15:46:03Z</time></trkpt><trkpt lat="43.64575237826156" lon="10.692036800783388"><ele>61.166666666666664</ele><time>2026-04-26T15:46:04Z</time></trkpt><trkpt lat="43.645814771325675" lon="10.69195733596653"><ele>61.0</ele><time>2026-04-26T15:46:04.999Z</time></trkpt><trkpt lat="43.64587498617868" lon="10.69186817415398"><ele>60.99999999999999</ele><time>2026-04-26T15:46:05.999Z</time></trkpt><trkpt lat="43.64594095646619" lon="10.691779872929748"><ele>61.0</ele><time>2026-04-26T15:46:06.999Z</time></trkpt><trkpt lat="43.64599964160234" lon="10.691705868627357"><ele>61.0</ele><time>2026-04-26T15:46:07.999Z</time></trkpt><trkpt lat="43.64606101746271" lon="10.69163005136339"><ele>61.0</ele><time>2026-04-26T15:46:08.999Z</time></trkpt><trkpt lat="43.64611509543598" lon="10.691536082301623"><ele>60.99999999999999</ele><time>2026-04-26T15:46:09.999Z</time></trkpt><trkpt lat="43.64618343946571" lon="10.69145275279135"><ele>61.0</ele><time>2026-04-26T15:46:10.999Z</time></trkpt><trkpt lat="43.646269048390295" lon="10.691376142584403"><ele>59.166666666666664</ele><time>2026-04-26T15:46:11.999Z</time></trkpt><trkpt lat="43.64634597716099" lon="10.69128122430932"><ele>57.33333333333333</ele><time>2026-04-26T15:46:12.999Z</time></trkpt><trkpt lat="43.64642477575901" lon="10.69118122126313"><ele>55.5</ele><time>2026-04-26T15:46:13.999Z</time></trkpt><trkpt lat="43.6464923129099" lon="10.691098008181308"><ele>53.66666666666667</ele><time>2026-04-26T15:46:14.999Z</time></trkpt><trkpt lat="43.646557973791815" lon="10.691022815331149"><ele>51.833333333333336</ele><time>2026-04-26T15:46:15.999Z</time></trkpt><trkpt lat="43.6466072747939" lon="10.690968688670512"><ele>50.0</ele><time>2026-04-26T15:46:16.999Z</time></trkpt><trkpt lat="43.64666637630888" lon="10.69090380214893"><ele>50.00000000000001</ele><time>2026-04-26T15:46:18.999Z</time></trkpt><trkpt lat="43.64671763679449" lon="10.69084697649946"><ele>50.0</ele><time>2026-04-26T15:46:20.999Z</time></trkpt><trkpt lat="43.646763142640616" lon="10.690757992476902"><ele>50.0</ele><time>2026-04-26T15:46:22.999Z</time></trkpt><trkpt lat="43.64676117253241" lon="10.690640405245723"><ele>50.0</ele><time>2026-04-26T15:46:24.999Z</time></trkpt><trkpt lat="43.646759214787814" lon="10.690545094150574"><ele>50.00000000000001</ele><time>2026-04-26T15:46:26.999Z</time></trkpt><trkpt lat="43.64677249521423" lon="10.690414143212566"><ele>50.0</ele><time>2026-04-26T15:46:29.999Z</time></trkpt><trkpt lat="43.646807016701224" lon="10.690314847463178"><ele>49.333333333333336</ele><time>2026-04-26T15:46:32.999Z</time></trkpt><trkpt lat="43.64685140041371" lon="10.690227034481014"><ele>48.66666666666667</ele><time>2026-04-26T15:51:26.999Z</time></trkpt><trkpt lat="43.64691001529914" lon="10.690138551600885"><ele>48.0</ele><time>2026-04-26T15:51:30.999Z</time></trkpt><trkpt lat="43.64695608871483" lon="10.690078231292164"><ele>47.333333333333336</ele><time>2026-04-26T15:51:33.999Z</time></trkpt><trkpt lat="43.647005285262864" lon="10.690018330678603"><ele>46.66666666666667</ele><time>2026-04-26T15:51:36.998Z</time></trkpt><trkpt lat="43.647070978030385" lon="10.68993866070985"><ele>46.0</ele><time>2026-04-26T15:51:40.998Z</time></trkpt><trkpt lat="43.647115078027824" lon="10.689862220961311"><ele>45.333333333333336</ele><time>2026-04-26T15:51:43.998Z</time></trkpt><trkpt lat="43.64716910852505" lon="10.689789291704827"><ele>44.66666666666667</ele><time>2026-04-26T15:51:46.998Z</time></trkpt><trkpt lat="43.64722977776449" lon="10.689736178935028"><ele>44.0</ele><time>2026-04-26T15:51:49.998Z</time></trkpt><trkpt lat="43.64727643629675" lon="10.689649029475607"><ele>43.333333333333336</ele><time>2026-04-26T15:51:52.998Z</time></trkpt><trkpt lat="43.647339179150165" lon="10.689573042716601"><ele>42.666666666666664</ele><time>2026-04-26T15:51:55.998Z</time></trkpt><trkpt lat="43.64739564272108" lon="10.689499135092888"><ele>42.0</ele><time>2026-04-26T15:51:58.998Z</time></trkpt><trkpt lat="43.64744096680733" lon="10.689438171303292"><ele>41.0</ele><time>2026-04-26T15:52:01.998Z</time></trkpt><trkpt lat="43.647503614987436" lon="10.689365589172594"><ele>40.0</ele><time>2026-04-26T15:52:04.998Z</time></trkpt><trkpt lat="43.647558448311656" lon="10.68930148043926"><ele>39.0</ele><time>2026-04-26T15:52:07.998Z</time></trkpt><trkpt lat="43.647608134882766" lon="10.689243163771614"><ele>38.0</ele><time>2026-04-26T15:52:11Z</time></trkpt><trkpt lat="43.6476765601065" lon="10.689185750513714"><ele>37.0</ele><time>2026-04-26T15:52:14Z</time></trkpt><trkpt lat="43.64772804188178" lon="10.689108964007593"><ele>36.0</ele><time>2026-04-26T15:52:17Z</time></trkpt><trkpt lat="43.64779093051457" lon="10.689030583284149"><ele>36.0</ele><time>2026-04-26T15:52:20Z</time></trkpt><trkpt lat="43.647849754086785" lon="10.688958746092537"><ele>36.0</ele><time>2026-04-26T15:52:23Z</time></trkpt><trkpt lat="43.64792321755019" lon="10.688868067608798"><ele>36.0</ele><time>2026-04-26T15:52:26Z</time></trkpt><trkpt lat="43.64797078554792" lon="10.688806901678522"><ele>36.0</ele><time>2026-04-26T15:52:28Z</time></trkpt><trkpt lat="43.64803457609988" lon="10.68872663463004"><ele>36.0</ele><time>2026-04-26T15:52:31Z</time></trkpt><trkpt lat="43.6481070470129" lon="10.688655696361634"><ele>36.0</ele><time>2026-04-26T15:52:34Z</time></trkpt><trkpt lat="43.648172324250496" lon="10.68857210434688"><ele>35.0</ele><time>2026-04-26T15:52:36Z</time></trkpt><trkpt lat="43.64824080269892" lon="10.688478035829483"><ele>34.0</ele><time>2026-04-26T15:52:38Z</time></trkpt><trkpt lat="43.64831643272488" lon="10.68835800366709"><ele>33.0</ele><time>2026-04-26T15:52:40Z</time></trkpt><trkpt lat="43.6483789411792" lon="10.688239105418997"><ele>32.0</ele><time>2026-04-26T15:52:42Z</time></trkpt><trkpt lat="43.648442057125656" lon="10.688117218206237"><ele>31.0</ele><time>2026-04-26T15:52:44Z</time></trkpt><trkpt lat="43.64849795317592" lon="10.688004270703715"><ele>31.0</ele><time>2026-04-26T15:52:45.999Z</time></trkpt><trkpt lat="43.648553067194385" lon="10.68789290186848"><ele>31.0</ele><time>2026-04-26T15:52:47.999Z</time></trkpt><trkpt lat="43.64861443939764" lon="10.68776888749379"><ele>31.0</ele><time>2026-04-26T15:52:49.999Z</time></trkpt><trkpt lat="43.64865666680362" lon="10.687653248066"><ele>31.0</ele><time>2026-04-26T15:52:51.999Z</time></trkpt><trkpt lat="43.64872408568095" lon="10.687555579687626"><ele>31.0</ele><time>2026-04-26T15:52:53.999Z</time></trkpt><trkpt lat="43.6487945549456" lon="10.687449758190414"><ele>30.6</ele><time>2026-04-26T15:52:55.999Z</time></trkpt><trkpt lat="43.648878902926235" lon="10.687347262488142"><ele>30.200000000000003</ele><time>2026-04-26T15:52:57.999Z</time></trkpt><trkpt lat="43.6489747268231" lon="10.687261704972613"><ele>29.799999999999997</ele><time>2026-04-26T15:52:59.999Z</time></trkpt><trkpt lat="43.64903374448351" lon="10.687216607110445"><ele>29.4</ele><time>2026-04-26T15:53:00.999Z</time></trkpt><trkpt lat="43.64913236781967" lon="10.687130127326457"><ele>29.0</ele><time>2026-04-26T15:53:02.999Z</time></trkpt><trkpt lat="43.64917185103741" lon="10.686999583351435"><ele>28.6</ele><time>2026-04-26T15:53:04.999Z</time></trkpt><trkpt lat="43.64910961014515" lon="10.686873939895777"><ele>28.2</ele><time>2026-04-26T15:53:06.999Z</time></trkpt><trkpt lat="43.64903449745413" lon="10.686745599369916"><ele>27.800000000000004</ele><time>2026-04-26T15:53:08.999Z</time></trkpt><trkpt lat="43.648992533956346" lon="10.686663741270845"><ele>27.400000000000002</ele><time>2026-04-26T15:53:09.999Z</time></trkpt><trkpt lat="43.64894864869455" lon="10.686571861832515"><ele>27.0</ele><time>2026-04-26T15:53:10.999Z</time></trkpt><trkpt lat="43.64890347892794" lon="10.686444666598772"><ele>27.0</ele><time>2026-04-26T15:53:11.999Z</time></trkpt><trkpt lat="43.64881781858752" lon="10.68632147872601"><ele>27.000000000000004</ele><time>2026-04-26T15:53:12.999Z</time></trkpt><trkpt lat="43.64877357340483" lon="10.686233015630892"><ele>27.000000000000004</ele><time>2026-04-26T15:53:13.999Z</time></trkpt><trkpt lat="43.64872503777072" lon="10.686129606212733"><ele>27.0</ele><time>2026-04-26T15:53:15.999Z</time></trkpt><trkpt lat="43.648746228628454" lon="10.686247929430865"><ele>27.0</ele><time>2026-04-26T15:54:37Z</time></trkpt><trkpt lat="43.648902621114104" lon="10.68648630042116"><ele>27.0</ele><time>2026-04-26T15:54:39Z</time></trkpt><trkpt lat="43.64897551859095" lon="10.68663559284398"><ele>27.000000000000004</ele><time>2026-04-26T15:54:40Z</time></trkpt><trkpt lat="43.64904735072727" lon="10.686779293795354"><ele>27.000000000000004</ele><time>2026-04-26T15:54:41Z</time></trkpt><trkpt lat="43.64910148678789" lon="10.686891343394295"><ele>27.0</ele><time>2026-04-26T15:54:42Z</time></trkpt><trkpt lat="43.649142778483494" lon="10.686971465669002"><ele>27.0</ele><time>2026-04-26T15:54:43Z</time></trkpt><trkpt lat="43.649168395578265" lon="10.687099512255413"><ele>27.5</ele><time>2026-04-26T15:54:45Z</time></trkpt><trkpt lat="43.649066896995734" lon="10.687213134896808"><ele>28.0</ele><time>2026-04-26T15:54:47Z</time></trkpt><trkpt lat="43.64898009410912" lon="10.68725979694863"><ele>28.5</ele><time>2026-04-26T15:54:48Z</time></trkpt><trkpt lat="43.64887943726606" lon="10.687334045930717"><ele>29.0</ele><time>2026-04-26T15:54:49Z</time></trkpt><trkpt lat="43.648776912613386" lon="10.687433927840138"><ele>29.0</ele><time>2026-04-26T15:54:50Z</time></trkpt><trkpt lat="43.648691520702684" lon="10.68756543694897"><ele>29.0</ele><time>2026-04-26T15:54:51Z</time></trkpt><trkpt lat="43.648613391343396" lon="10.687715497378464"><ele>29.0</ele><time>2026-04-26T15:54:52Z</time></trkpt><trkpt lat="43.6485355441889" lon="10.687863736498802"><ele>29.0</ele><time>2026-04-26T15:54:52.999Z</time></trkpt><trkpt lat="43.64846602479167" lon="10.688020369101736"><ele>29.4</ele><time>2026-04-26T15:54:53.999Z</time></trkpt><trkpt lat="43.64839587512238" lon="10.68816110560672"><ele>29.799999999999997</ele><time>2026-04-26T15:54:54.999Z</time></trkpt><trkpt lat="43.64832084832945" lon="10.688272501295192"><ele>30.200000000000003</ele><time>2026-04-26T15:54:55.999Z</time></trkpt><trkpt lat="43.648278243632674" lon="10.688387453075938"><ele>30.6</ele><time>2026-04-26T15:54:56.999Z</time></trkpt><trkpt lat="43.64821162826305" lon="10.688453780021456"><ele>31.0</ele><time>2026-04-26T15:54:57.999Z</time></trkpt><trkpt lat="43.64815953793176" lon="10.68854431457791"><ele>31.0</ele><time>2026-04-26T15:54:59.999Z</time></trkpt><trkpt lat="43.64822186823471" lon="10.688444317855302"><ele>31.0</ele><time>2026-04-26T15:56:36Z</time></trkpt><trkpt lat="43.648271249549374" lon="10.68835618411741"><ele>31.0</ele><time>2026-04-26T15:56:38Z</time></trkpt><trkpt lat="43.648339516218364" lon="10.688266456851833"><ele>31.0</ele><time>2026-04-26T15:56:40Z</time></trkpt><trkpt lat="43.64839187070017" lon="10.688123993300387"><ele>31.0</ele><time>2026-04-26T15:56:42Z</time></trkpt><trkpt lat="43.648459780628755" lon="10.687991905381923"><ele>31.0</ele><time>2026-04-26T15:56:44Z</time></trkpt><trkpt lat="43.64849551236215" lon="10.68791380014917"><ele>31.000000000000004</ele><time>2026-04-26T15:56:45Z</time></trkpt><trkpt lat="43.64853600956263" lon="10.687830347788713"><ele>31.0</ele><time>2026-04-26T15:56:46Z</time></trkpt><trkpt lat="43.64857899545749" lon="10.687743200327123"><ele>31.0</ele><time>2026-04-26T15:56:47Z</time></trkpt><trkpt lat="43.64862255130265" lon="10.687659489577943"><ele>31.000000000000004</ele><time>2026-04-26T15:56:48Z</time></trkpt><trkpt lat="43.64869022708974" lon="10.687603690670782"><ele>31.0</ele><time>2026-04-26T15:56:49Z</time></trkpt><trkpt lat="43.64874236750859" lon="10.687527118245471"><ele>31.0</ele><time>2026-04-26T15:56:50Z</time></trkpt><trkpt lat="43.64879377715931" lon="10.687450905410428"><ele>30.666666666666668</ele><time>2026-04-26T15:56:51Z</time></trkpt><trkpt lat="43.64885011053513" lon="10.687379710687267"><ele>30.333333333333336</ele><time>2026-04-26T15:56:52Z</time></trkpt><trkpt lat="43.648912544057346" lon="10.687314444065283"><ele>30.0</ele><time>2026-04-26T15:56:53Z</time></trkpt><trkpt lat="43.648980901572855" lon="10.687257071978514"><ele>29.666666666666664</ele><time>2026-04-26T15:56:54Z</time></trkpt><trkpt lat="43.64905506880714" lon="10.687199157573378"><ele>29.333333333333332</ele><time>2026-04-26T15:56:54.999Z</time></trkpt><trkpt lat="43.64911558175195" lon="10.687149638954548"><ele>29.0</ele><time>2026-04-26T15:56:55.999Z</time></trkpt><trkpt lat="43.64917115552286" lon="10.687002307512572"><ele>28.6</ele><time>2026-04-26T15:56:57.999Z</time></trkpt><trkpt lat="43.649154105981935" lon="10.686907186887726"><ele>28.2</ele><time>2026-04-26T15:56:58.999Z</time></trkpt><trkpt lat="43.64908206951909" lon="10.686838055484019"><ele>27.800000000000004</ele><time>2026-04-26T15:56:59.999Z</time></trkpt><trkpt lat="43.649044396194824" lon="10.686731346201489"><ele>27.400000000000002</ele><time>2026-04-26T15:57:00.999Z</time></trkpt><trkpt lat="43.64898142503986" lon="10.686600398879163"><ele>27.0</ele><time>2026-04-26T15:57:01.999Z</time></trkpt><trkpt lat="43.64887819253783" lon="10.686432998322111"><ele>27.0</ele><time>2026-04-26T15:57:02.999Z</time></trkpt><trkpt lat="43.648805294780296" lon="10.686287055697989"><ele>27.000000000000004</ele><time>2026-04-26T15:57:03.999Z</time></trkpt><trkpt lat="43.648754016771235" lon="10.686201628097725"><ele>27.000000000000004</ele><time>2026-04-26T15:57:04.999Z</time></trkpt><trkpt lat="43.64872440314833" lon="10.686077296281601"><ele>27.0</ele><time>2026-04-26T15:57:06.999Z</time></trkpt><trkpt lat="43.64873506235193" lon="10.685975221744735"><ele>27.0</ele><time>2026-04-26T15:59:19Z</time></trkpt><trkpt lat="43.64884865110718" lon="10.685939552434482"><ele>27.166666666666668</ele><time>2026-04-26T15:59:20Z</time></trkpt><trkpt lat="43.64891146730487" lon="10.685841485192302"><ele>27.333333333333336</ele><time>2026-04-26T15:59:23Z</time></trkpt><trkpt lat="43.648947918203895" lon="10.685757439124128"><ele>27.5</ele><time>2026-04-26T15:59:25Z</time></trkpt><trkpt lat="43.64900110922194" lon="10.685640015080422"><ele>27.666666666666668</ele><time>2026-04-26T15:59:28Z</time></trkpt><trkpt lat="43.649036674442975" lon="10.685527894765114"><ele>27.833333333333336</ele><time>2026-04-26T15:59:30Z</time></trkpt><trkpt lat="43.649065464373194" lon="10.68541660609662"><ele>28.0</ele><time>2026-04-26T15:59:32Z</time></trkpt><trkpt lat="43.64908844412114" lon="10.685304356009196"><ele>28.333333333333336</ele><time>2026-04-26T15:59:34Z</time></trkpt><trkpt lat="43.64910621230696" lon="10.68517564659558"><ele>28.666666666666668</ele><time>2026-04-26T15:59:36Z</time></trkpt><trkpt lat="43.64911118271036" lon="10.685070544375572"><ele>29.0</ele><time>2026-04-26T15:59:38Z</time></trkpt><trkpt lat="43.64909720238926" lon="10.684945573934518"><ele>29.333333333333336</ele><time>2026-04-26T15:59:40Z</time></trkpt><trkpt lat="43.64906615059921" lon="10.684838844215093"><ele>29.666666666666668</ele><time>2026-04-26T15:59:42Z</time></trkpt><trkpt lat="43.64906997310961" lon="10.68474701935125"><ele>30.0</ele><time>2026-04-26T15:59:44Z</time></trkpt><trkpt lat="43.64903394336462" lon="10.68460899768464"><ele>30.0</ele><time>2026-04-26T15:59:46Z</time></trkpt><trkpt lat="43.64900894578295" lon="10.684455504929353"><ele>30.0</ele><time>2026-04-26T15:59:47.999Z</time></trkpt><trkpt lat="43.648991073662735" lon="10.684315796860696"><ele>30.0</ele><time>2026-04-26T15:59:49.999Z</time></trkpt><trkpt lat="43.64897757231911" lon="10.684206297421303"><ele>30.0</ele><time>2026-04-26T15:59:51.999Z</time></trkpt><trkpt lat="43.64897629919295" lon="10.684118720716096"><ele>30.0</ele><time>2026-04-26T16:01:47.999Z</time></trkpt><trkpt lat="43.64897594646598" lon="10.684220546334991"><ele>30.0</ele><time>2026-04-26T16:01:56.999Z</time></trkpt><trkpt lat="43.64905677724613" lon="10.684793250909234"><ele>30.0</ele><time>2026-04-26T16:02:00.999Z</time></trkpt><trkpt lat="43.64908576843221" lon="10.685031609153794"><ele>30.0</ele><time>2026-04-26T16:02:01.999Z</time></trkpt><trkpt lat="43.64909133945348" lon="10.685198740544472"><ele>30.0</ele><time>2026-04-26T16:02:02.999Z</time></trkpt><trkpt lat="43.6490728215822" lon="10.685327083610183"><ele>30.0</ele><time>2026-04-26T16:02:03.999Z</time></trkpt><trkpt lat="43.64904554067621" lon="10.685430052065266"><ele>29.6</ele><time>2026-04-26T16:02:04.999Z</time></trkpt><trkpt lat="43.649021282341685" lon="10.68552791465707"><ele>29.2</ele><time>2026-04-26T16:02:05.999Z</time></trkpt><trkpt lat="43.64897439298255" lon="10.685688389034535"><ele>28.799999999999997</ele><time>2026-04-26T16:02:06.999Z</time></trkpt><trkpt lat="43.64892763829909" lon="10.685833963225303"><ele>28.4</ele><time>2026-04-26T16:02:07.999Z</time></trkpt><trkpt lat="43.64886135055219" lon="10.685941474075998"><ele>28.0</ele><time>2026-04-26T16:02:08.999Z</time></trkpt><trkpt lat="43.64880126841998" lon="10.68602913008574"><ele>28.0</ele><time>2026-04-26T16:02:09.999Z</time></trkpt><trkpt lat="43.64872755629893" lon="10.686065906195264"><ele>27.999999999999996</ele><time>2026-04-26T16:02:10.999Z</time></trkpt><trkpt lat="43.6488163878774" lon="10.68598088355335"><ele>27.999999999999996</ele><time>2026-04-26T16:02:16.999Z</time></trkpt><trkpt lat="43.64890569671766" lon="10.685837027730932"><ele>28.0</ele><time>2026-04-26T16:02:18.999Z</time></trkpt><trkpt lat="43.64896465307559" lon="10.685705122595126"><ele>28.0</ele><time>2026-04-26T16:02:19.999Z</time></trkpt><trkpt lat="43.6490156741051" lon="10.685545211359765"><ele>28.0</ele><time>2026-04-26T16:02:20.999Z</time></trkpt><trkpt lat="43.64907143460503" lon="10.685389188351635"><ele>28.0</ele><time>2026-04-26T16:02:21.999Z</time></trkpt><trkpt lat="43.64910175392885" lon="10.685221739233745"><ele>28.0</ele><time>2026-04-26T16:02:22.999Z</time></trkpt><trkpt lat="43.649111740351735" lon="10.685055956100848"><ele>28.0</ele><time>2026-04-26T16:02:23.999Z</time></trkpt><trkpt lat="43.649082862423505" lon="10.684892116797714"><ele>28.666666666666668</ele><time>2026-04-26T16:02:24.999Z</time></trkpt><trkpt lat="43.64904835559773" lon="10.68470148801143"><ele>29.333333333333336</ele><time>2026-04-26T16:02:25.999Z</time></trkpt><trkpt lat="43.64901438400132" lon="10.684460897647188"><ele>30.0</ele><time>2026-04-26T16:02:26.999Z</time></trkpt><trkpt lat="43.6489906722364" lon="10.684217854357373"><ele>26.0</ele><time>2026-04-26T16:02:27.999Z</time></trkpt><trkpt lat="43.64896978910904" lon="10.684060853663775"><ele>26.0</ele><time>2026-04-26T16:02:28.999Z</time></trkpt></trkseg></trk></gpx>